<?xml version='1.0' encoding='UTF-8'?>
<gpx xmlns="http://www.topografix.com/GPX/1/1" creator="www.balnam.be" version="1.1" xmlns:xsi="http://www.w3.org/2001/XMLSchema-instance" xsi:schemaLocation="http://www.topografix.com/GPX/1/1 http://www.topografix.com/GPX/1/1/gpx.xsd">
<trk>
<name>nphfg1</name>
<cmt>v</cmt>
<desc>Fagnolle Chemin n°1 </desc>
<link href="https://chemins.be/fagnolle/chemin/1"/><trkseg>
<trkpt lat="50.092196" lon="4.548251"><time>2026-05-03T05:50:59Z</time></trkpt>
<trkpt lat="50.092322" lon="4.548419"><time>2026-05-03T06:00:59Z</time></trkpt>
<trkpt lat="50.092795" lon="4.550216"><time>2026-05-03T06:10:59Z</time></trkpt>
<trkpt lat="50.093507" lon="4.555118"><time>2026-05-03T06:20:59Z</time></trkpt>
<trkpt lat="50.093786" lon="4.558241"><time>2026-05-03T06:30:59Z</time></trkpt>
</trkseg>
</trk>
<trk>
<name>nphfg10</name>
<cmt>v</cmt>
<desc>Fagnolle Chemin n°10 Herdal de Fagnolle</desc>
<link href="https://chemins.be/fagnolle/chemin/10"/><trkseg>
<trkpt lat="50.111014" lon="4.559654"><time>2026-05-03T05:50:59Z</time></trkpt>
<trkpt lat="50.110906" lon="4.558788"><time>2026-05-03T06:00:59Z</time></trkpt>
</trkseg></trk>
<trk>
<name>nphfg10</name>
<cmt>d</cmt>
<desc>Fagnolle Chemin n°10 Herdal de Fagnolle</desc>
<link href="https://chemins.be/fagnolle/chemin/10"/><trkseg>
<trkpt lat="50.110906" lon="4.558788"><time>2026-05-03T06:00:59Z</time></trkpt>
<trkpt lat="50.110557" lon="4.555998"><time>2026-05-03T06:10:59Z</time></trkpt>
<trkpt lat="50.110203" lon="4.555169"><time>2026-05-03T06:20:59Z</time></trkpt>
<trkpt lat="50.108696" lon="4.553094"><time>2026-05-03T06:30:59Z</time></trkpt>
<trkpt lat="50.106463" lon="4.549465"><time>2026-05-03T06:40:59Z</time></trkpt>
<trkpt lat="50.104705" lon="4.546746"><time>2026-05-03T06:50:59Z</time></trkpt>
<trkpt lat="50.102605" lon="4.544125"><time>2026-05-03T07:00:59Z</time></trkpt>
<trkpt lat="50.101564" lon="4.542961"><time>2026-05-03T07:10:59Z</time></trkpt>
<trkpt lat="50.099949" lon="4.540900"><time>2026-05-03T07:20:59Z</time></trkpt>
<trkpt lat="50.099150" lon="4.539723"><time>2026-05-03T07:30:59Z</time></trkpt>
<trkpt lat="50.098711" lon="4.539009"><time>2026-05-03T07:40:59Z</time></trkpt>
<trkpt lat="50.097312" lon="4.536180"><time>2026-05-03T07:50:59Z</time></trkpt>
<trkpt lat="50.096836" lon="4.536361"><time>2026-05-03T08:00:59Z</time></trkpt>
</trkseg>
</trk>
<trk>
<name>nphfg11</name>
<cmt>v</cmt>
<desc>Fagnolle Chemin n°11 </desc>
<link href="https://chemins.be/fagnolle/chemin/11"/><trkseg>
<trkpt lat="50.101065" lon="4.534055"><time>2026-05-03T05:50:59Z</time></trkpt>
<trkpt lat="50.101117" lon="4.534908"><time>2026-05-03T06:00:59Z</time></trkpt>
<trkpt lat="50.101906" lon="4.536532"><time>2026-05-03T06:10:59Z</time></trkpt>
<trkpt lat="50.102480" lon="4.537583"><time>2026-05-03T06:20:59Z</time></trkpt>
<trkpt lat="50.103242" lon="4.538745"><time>2026-05-03T06:30:59Z</time></trkpt>
</trkseg></trk>
<trk>
<name>nphfg11</name>
<cmt>s</cmt>
<desc>Fagnolle Chemin n°11 </desc>
<link href="https://chemins.be/fagnolle/chemin/11"/><trkseg>
<trkpt lat="50.103242" lon="4.538745"><time>2026-05-03T06:30:59Z</time></trkpt>
<trkpt lat="50.104207" lon="4.542984"><time>2026-05-03T06:40:59Z</time></trkpt>
<trkpt lat="50.104753" lon="4.544734"><time>2026-05-03T06:50:59Z</time></trkpt>
<trkpt lat="50.104840" lon="4.546551"><time>2026-05-03T07:00:59Z</time></trkpt>
</trkseg>
</trk>
<trk>
<name>nphfg12</name>
<cmt>v</cmt>
<desc>Fagnolle Chemin n°12 </desc>
<link href="https://chemins.be/fagnolle/chemin/12"/><trkseg>
<trkpt lat="50.109366" lon="4.544261"><time>2026-05-03T05:50:59Z</time></trkpt>
<trkpt lat="50.105187" lon="4.536683"><time>2026-05-03T06:00:59Z</time></trkpt>
</trkseg>
</trk>
<trk>
<name>nphfg13</name>
<cmt>v</cmt>
<desc>Fagnolle Chemin n°13 Ligne 156</desc>
<link href="https://chemins.be/fagnolle/chemin/13"/><trkseg>
<trkpt lat="50.111995" lon="4.558713"><time>2026-05-03T05:50:59Z</time></trkpt>
<trkpt lat="50.112469" lon="4.559960"><time>2026-05-03T06:00:59Z</time></trkpt>
<trkpt lat="50.112998" lon="4.561150"><time>2026-05-03T06:10:59Z</time></trkpt>
<trkpt lat="50.113051" lon="4.561975"><time>2026-05-03T06:20:59Z</time></trkpt>
<trkpt lat="50.112726" lon="4.562743"><time>2026-05-03T06:30:59Z</time></trkpt>
</trkseg></trk>
<trk>
<name>nphfg13</name>
<cmt>d</cmt>
<desc>Fagnolle Chemin n°13 Ligne 156</desc>
<link href="https://chemins.be/fagnolle/chemin/13"/><trkseg>
<trkpt lat="50.112726" lon="4.562743"><time>2026-05-03T06:30:59Z</time></trkpt>
<trkpt lat="50.112571" lon="4.563469"><time>2026-05-03T06:40:59Z</time></trkpt>
<trkpt lat="50.113438" lon="4.566856"><time>2026-05-03T06:50:59Z</time></trkpt>
<trkpt lat="50.113024" lon="4.567092"><time>2026-05-03T07:00:59Z</time></trkpt>
<trkpt lat="50.113783" lon="4.570004"><time>2026-05-03T07:10:59Z</time></trkpt>
<trkpt lat="50.114080" lon="4.570047"><time>2026-05-03T07:20:59Z</time></trkpt>
</trkseg></trk>
<trk>
<name>nphfg13</name>
<cmt>v</cmt>
<desc>Fagnolle Chemin n°13 Ligne 156</desc>
<link href="https://chemins.be/fagnolle/chemin/13"/><trkseg>
<trkpt lat="50.114080" lon="4.570047"><time>2026-05-03T07:20:59Z</time></trkpt>
<trkpt lat="50.115446" lon="4.570164"><time>2026-05-03T07:30:59Z</time></trkpt>
</trkseg>
</trk>
<trk>
<name>nphfg14</name>
<cmt>r</cmt>
<desc>Fagnolle Chemin n°14 Rue du Bois du Mont</desc>
<link href="https://chemins.be/fagnolle/chemin/14"/><trkseg>
<trkpt lat="50.105809" lon="4.569209"><time>2026-05-03T05:50:59Z</time></trkpt>
<trkpt lat="50.105969" lon="4.570232"><time>2026-05-03T06:00:59Z</time></trkpt>
<trkpt lat="50.106350" lon="4.570990"><time>2026-05-03T06:10:59Z</time></trkpt>
<trkpt lat="50.106722" lon="4.573258"><time>2026-05-03T06:20:59Z</time></trkpt>
<trkpt lat="50.108580" lon="4.577842"><time>2026-05-03T06:30:59Z</time></trkpt>
</trkseg>
</trk>
<trk>
<name>nphfg14bis</name>
<cmt>v</cmt>
<desc>Fagnolle Chemin n°14bis </desc>
<link href="https://chemins.be/fagnolle/chemin/14bis"/><trkseg>
<trkpt lat="50.106829" lon="4.573444"><time>2026-05-03T05:50:59Z</time></trkpt>
<trkpt lat="50.107132" lon="4.573359"><time>2026-05-03T06:00:59Z</time></trkpt>
</trkseg>
</trk>
<trk>
<name>nphfg15</name>
<cmt>v</cmt>
<desc>Fagnolle Chemin n°15 </desc>
<link href="https://chemins.be/fagnolle/chemin/15"/><trkseg>
<trkpt lat="50.110935" lon="4.583846"><time>2026-05-03T05:50:59Z</time></trkpt>
<trkpt lat="50.111493" lon="4.583415"><time>2026-05-03T06:00:59Z</time></trkpt>
<trkpt lat="50.111952" lon="4.583124"><time>2026-05-03T06:10:59Z</time></trkpt>
</trkseg>
</trk>
<trk>
<name>nphfg16</name>
<cmt>r</cmt>
<desc>Fagnolle Chemin n°16 Rue du Bailli</desc>
<link href="https://chemins.be/fagnolle/chemin/16"/><trkseg>
<trkpt lat="50.101504" lon="4.588444"><time>2026-05-03T05:50:59Z</time></trkpt>
<trkpt lat="50.103106" lon="4.587711"><time>2026-05-03T06:00:59Z</time></trkpt>
<trkpt lat="50.103826" lon="4.586987"><time>2026-05-03T06:10:59Z</time></trkpt>
<trkpt lat="50.104268" lon="4.586221"><time>2026-05-03T06:20:59Z</time></trkpt>
</trkseg></trk>
<trk>
<name>nphfg16</name>
<cmt>d</cmt>
<desc>Fagnolle Chemin n°16 Rue du Bailli</desc>
<link href="https://chemins.be/fagnolle/chemin/16"/><trkseg>
<trkpt lat="50.104268" lon="4.586221"><time>2026-05-03T06:20:59Z</time></trkpt>
<trkpt lat="50.105781" lon="4.585235"><time>2026-05-03T06:30:59Z</time></trkpt>
<trkpt lat="50.106303" lon="4.584986"><time>2026-05-03T06:40:59Z</time></trkpt>
</trkseg></trk>
<trk>
<name>nphfg16</name>
<cmt>v</cmt>
<desc>Fagnolle Chemin n°16 Rue du Bailli</desc>
<link href="https://chemins.be/fagnolle/chemin/16"/><trkseg>
<trkpt lat="50.106303" lon="4.584986"><time>2026-05-03T06:40:59Z</time></trkpt>
<trkpt lat="50.107149" lon="4.584416"><time>2026-05-03T06:50:59Z</time></trkpt>
<trkpt lat="50.107482" lon="4.584278"><time>2026-05-03T07:00:59Z</time></trkpt>
</trkseg>
</trk>
<trk>
<name>nphfg17</name>
<cmt>v</cmt>
<desc>Fagnolle Chemin n°17 Rue de la Foire</desc>
<link href="https://chemins.be/fagnolle/chemin/17"/><trkseg>
<trkpt lat="50.104383" lon="4.567546"><time>2026-05-03T05:50:59Z</time></trkpt>
<trkpt lat="50.104302" lon="4.567839"><time>2026-05-03T06:00:59Z</time></trkpt>
<trkpt lat="50.104407" lon="4.569237"><time>2026-05-03T06:10:59Z</time></trkpt>
<trkpt lat="50.104198" lon="4.570606"><time>2026-05-03T06:20:59Z</time></trkpt>
<trkpt lat="50.104255" lon="4.574087"><time>2026-05-03T06:30:59Z</time></trkpt>
<trkpt lat="50.104582" lon="4.576912"><time>2026-05-03T06:40:59Z</time></trkpt>
<trkpt lat="50.105030" lon="4.578827"><time>2026-05-03T06:50:59Z</time></trkpt>
<trkpt lat="50.106153" lon="4.580992"><time>2026-05-03T07:00:59Z</time></trkpt>
<trkpt lat="50.106508" lon="4.580966"><time>2026-05-03T07:10:59Z</time></trkpt>
</trkseg>
</trk>
<trk>
<name>nphfg18</name>
<cmt>v</cmt>
<desc>Fagnolle Chemin n°18 </desc>
<link href="https://chemins.be/fagnolle/chemin/18"/><trkseg>
<trkpt lat="50.104034" lon="4.566440"><time>2026-05-03T05:50:59Z</time></trkpt>
<trkpt lat="50.103863" lon="4.566453"><time>2026-05-03T06:00:59Z</time></trkpt>
<trkpt lat="50.103620" lon="4.566760"><time>2026-05-03T06:10:59Z</time></trkpt>
<trkpt lat="50.103043" lon="4.567875"><time>2026-05-03T06:20:59Z</time></trkpt>
<trkpt lat="50.103095" lon="4.568938"><time>2026-05-03T06:30:59Z</time></trkpt>
<trkpt lat="50.103004" lon="4.569343"><time>2026-05-03T06:40:59Z</time></trkpt>
</trkseg>
</trk>
<trk>
<name>nphfg19</name>
<cmt>v</cmt>
<desc>Fagnolle Chemin n°19 Rue de Fagnolle</desc>
<link href="https://chemins.be/fagnolle/chemin/19"/><trkseg>
<trkpt lat="50.103611" lon="4.566690"><time>2026-05-03T05:50:59Z</time></trkpt>
<trkpt lat="50.103008" lon="4.567400"><time>2026-05-03T06:00:59Z</time></trkpt>
<trkpt lat="50.102738" lon="4.567203"><time>2026-05-03T06:10:59Z</time></trkpt>
<trkpt lat="50.102186" lon="4.565821"><time>2026-05-03T06:20:59Z</time></trkpt>
<trkpt lat="50.101675" lon="4.565554"><time>2026-05-03T06:30:59Z</time></trkpt>
<trkpt lat="50.101248" lon="4.565701"><time>2026-05-03T06:40:59Z</time></trkpt>
<trkpt lat="50.100879" lon="4.566021"><time>2026-05-03T06:50:59Z</time></trkpt>
<trkpt lat="50.100243" lon="4.566182"><time>2026-05-03T07:00:59Z</time></trkpt>
<trkpt lat="50.099830" lon="4.564801"><time>2026-05-03T07:10:59Z</time></trkpt>
<trkpt lat="50.099587" lon="4.564450"><time>2026-05-03T07:20:59Z</time></trkpt>
<trkpt lat="50.097822" lon="4.562577"><time>2026-05-03T07:30:59Z</time></trkpt>
<trkpt lat="50.097185" lon="4.561236"><time>2026-05-03T07:40:59Z</time></trkpt>
<trkpt lat="50.095936" lon="4.561225"><time>2026-05-03T07:50:59Z</time></trkpt>
<trkpt lat="50.094592" lon="4.562306"><time>2026-05-03T08:00:59Z</time></trkpt>
</trkseg>
</trk>
<trk>
<name>nphfg2</name>
<cmt>r</cmt>
<desc>Fagnolle Chemin n°2 </desc>
<link href="https://chemins.be/fagnolle/chemin/2"/><trkseg>
<trkpt lat="50.105143" lon="4.569813"><time>2026-05-03T05:50:59Z</time></trkpt>
<trkpt lat="50.104437" lon="4.567574"><time>2026-05-03T06:00:59Z</time></trkpt>
<trkpt lat="50.104124" lon="4.566482"><time>2026-05-03T06:10:59Z</time></trkpt>
<trkpt lat="50.104574" lon="4.566093"><time>2026-05-03T06:20:59Z</time></trkpt>
<trkpt lat="50.105060" lon="4.565745"><time>2026-05-03T06:30:59Z</time></trkpt>
</trkseg></trk>
<trk>
<name>nphfg2</name>
<cmt>v</cmt>
<desc>Fagnolle Chemin n°2 </desc>
<link href="https://chemins.be/fagnolle/chemin/2"/><trkseg>
<trkpt lat="50.105060" lon="4.565745"><time>2026-05-03T06:30:59Z</time></trkpt>
<trkpt lat="50.104802" lon="4.564290"><time>2026-05-03T06:40:59Z</time></trkpt>
<trkpt lat="50.102977" lon="4.558887"><time>2026-05-03T06:50:59Z</time></trkpt>
<trkpt lat="50.101781" lon="4.553878"><time>2026-05-03T07:00:59Z</time></trkpt>
<trkpt lat="50.101137" lon="4.551667"><time>2026-05-03T07:10:59Z</time></trkpt>
<trkpt lat="50.100358" lon="4.549819"><time>2026-05-03T07:20:59Z</time></trkpt>
<trkpt lat="50.099945" lon="4.549287"><time>2026-05-03T07:30:59Z</time></trkpt>
<trkpt lat="50.099308" lon="4.548459"><time>2026-05-03T07:40:59Z</time></trkpt>
<trkpt lat="50.097044" lon="4.547431"><time>2026-05-03T07:50:59Z</time></trkpt>
<trkpt lat="50.095948" lon="4.546644"><time>2026-05-03T08:00:59Z</time></trkpt>
<trkpt lat="50.095886" lon="4.546350"><time>2026-05-03T08:10:59Z</time></trkpt>
<trkpt lat="50.094844" lon="4.545578"><time>2026-05-03T08:20:59Z</time></trkpt>
<trkpt lat="50.091577" lon="4.541946"><time>2026-05-03T08:30:59Z</time></trkpt>
</trkseg>
</trk>
<trk>
<name>nphfg20</name>
<cmt>v</cmt>
<desc>Fagnolle Chemin n°20 </desc>
<link href="https://chemins.be/fagnolle/chemin/20"/><trkseg>
<trkpt lat="50.102228" lon="4.565733"><time>2026-05-03T05:50:59Z</time></trkpt>
<trkpt lat="50.102104" lon="4.564754"><time>2026-05-03T06:00:59Z</time></trkpt>
<trkpt lat="50.101783" lon="4.563243"><time>2026-05-03T06:10:59Z</time></trkpt>
</trkseg>
</trk>
<trk>
<name>nphfg21</name>
<cmt>v</cmt>
<desc>Fagnolle Chemin n°21 </desc>
<link href="https://chemins.be/fagnolle/chemin/21"/><trkseg>
<trkpt lat="50.106693" lon="4.567975"><time>2026-05-03T05:50:59Z</time></trkpt>
<trkpt lat="50.106452" lon="4.567107"><time>2026-05-03T06:00:59Z</time></trkpt>
<trkpt lat="50.106045" lon="4.567375"><time>2026-05-03T06:10:59Z</time></trkpt>
<trkpt lat="50.105795" lon="4.567174"><time>2026-05-03T06:20:59Z</time></trkpt>
<trkpt lat="50.105561" lon="4.567150"><time>2026-05-03T06:30:59Z</time></trkpt>
</trkseg>
</trk>
<trk>
<name>nphfg22</name>
<cmt>v</cmt>
<desc>Fagnolle Chemin n°22 Rue du Calvaire</desc>
<link href="https://chemins.be/fagnolle/chemin/22"/><trkseg>
<trkpt lat="50.105490" lon="4.566809"><time>2026-05-03T05:50:59Z</time></trkpt>
<trkpt lat="50.105159" lon="4.565843"><time>2026-05-03T06:00:59Z</time></trkpt>
<trkpt lat="50.105403" lon="4.565495"><time>2026-05-03T06:10:59Z</time></trkpt>
</trkseg>
</trk>
<trk>
<name>nphfg23</name>
<cmt>r</cmt>
<desc>Fagnolle Chemin n°23 Rue Culot-d'en-Bas</desc>
<link href="https://chemins.be/fagnolle/chemin/23"/><trkseg>
<trkpt lat="50.104545" lon="4.567406"><time>2026-05-03T05:50:59Z</time></trkpt>
<trkpt lat="50.104958" lon="4.567939"><time>2026-05-03T06:00:59Z</time></trkpt>
<trkpt lat="50.105209" lon="4.568178"><time>2026-05-03T06:10:59Z</time></trkpt>
<trkpt lat="50.105289" lon="4.568472"><time>2026-05-03T06:20:59Z</time></trkpt>
</trkseg></trk>
<trk>
<name>nphfg23</name>
<cmt>v</cmt>
<desc>Fagnolle Chemin n°23 Rue Culot-d'en-Bas</desc>
<link href="https://chemins.be/fagnolle/chemin/23"/><trkseg>
<trkpt lat="50.105289" lon="4.568472"><time>2026-05-03T06:20:59Z</time></trkpt>
<trkpt lat="50.105271" lon="4.568696"><time>2026-05-03T06:30:59Z</time></trkpt>
<trkpt lat="50.105405" lon="4.569143"><time>2026-05-03T06:40:59Z</time></trkpt>
</trkseg>
</trk>
<trk>
<name>nphfg25</name>
<cmt>r</cmt>
<desc>Fagnolle Chemin n°25 Rue Culot-d'en-Bas</desc>
<link href="https://chemins.be/fagnolle/chemin/25"/><trkseg>
<trkpt lat="50.105766" lon="4.568446"><time>2026-05-03T05:50:59Z</time></trkpt>
<trkpt lat="50.105245" lon="4.568192"><time>2026-05-03T06:00:59Z</time></trkpt>
</trkseg>
</trk>
<trk>
<name>nphfg29</name>
<cmt>r</cmt>
<desc>Fagnolle Chemin n°29 </desc>
<link href="https://chemins.be/fagnolle/chemin/29"/><trkseg>
<trkpt lat="50.105170" lon="4.569883"><time>2026-05-03T05:50:59Z</time></trkpt>
<trkpt lat="50.104909" lon="4.570092"><time>2026-05-03T06:00:59Z</time></trkpt>
<trkpt lat="50.104603" lon="4.570049"><time>2026-05-03T06:10:59Z</time></trkpt>
</trkseg></trk>
<trk>
<name>nphfg29</name>
<cmt>v</cmt>
<desc>Fagnolle Chemin n°29 </desc>
<link href="https://chemins.be/fagnolle/chemin/29"/><trkseg>
<trkpt lat="50.104603" lon="4.570049"><time>2026-05-03T06:10:59Z</time></trkpt>
<trkpt lat="50.104289" lon="4.570075"><time>2026-05-03T06:20:59Z</time></trkpt>
</trkseg>
</trk>
<trk>
<name>nphfg3</name>
<cmt>v</cmt>
<desc>Fagnolle Chemin n°3 </desc>
<link href="https://chemins.be/fagnolle/chemin/3"/><trkseg>
<trkpt lat="50.106679" lon="4.580822"><time>2026-05-03T05:50:59Z</time></trkpt>
<trkpt lat="50.107264" lon="4.584370"><time>2026-05-03T06:00:59Z</time></trkpt>
</trkseg>
</trk>
<trk>
<name>nphfg30</name>
<cmt>r</cmt>
<desc>Fagnolle Chemin n°30 Rue de la Foire</desc>
<link href="https://chemins.be/fagnolle/chemin/30"/><trkseg>
<trkpt lat="50.104821" lon="4.569071"><time>2026-05-03T05:50:59Z</time></trkpt>
<trkpt lat="50.104461" lon="4.569307"><time>2026-05-03T06:00:59Z</time></trkpt>
</trkseg>
</trk>
<trk>
<name>nphfg31</name>
<cmt>r</cmt>
<desc>Fagnolle Chemin n°31 Rue de la Foire</desc>
<link href="https://chemins.be/fagnolle/chemin/31"/><trkseg>
<trkpt lat="50.104425" lon="4.569377"><time>2026-05-03T05:50:59Z</time></trkpt>
<trkpt lat="50.104559" lon="4.569965"><time>2026-05-03T06:00:59Z</time></trkpt>
</trkseg>
</trk>
<trk>
<name>nphfg32</name>
<cmt>v</cmt>
<desc>Fagnolle Chemin n°32 </desc>
<link href="https://chemins.be/fagnolle/chemin/32"/><trkseg>
<trkpt lat="50.104302" lon="4.567825"><time>2026-05-03T05:50:59Z</time></trkpt>
<trkpt lat="50.103960" lon="4.567823"><time>2026-05-03T06:00:59Z</time></trkpt>
</trkseg>
</trk>
<trk>
<name>nphfg33</name>
<cmt>d</cmt>
<desc>Fagnolle Sentier n°33 </desc>
<link href="https://chemins.be/fagnolle/sentier/33"/><trkseg>
<trkpt lat="50.106233" lon="4.570683"><time>2026-05-03T05:50:59Z</time></trkpt>
<trkpt lat="50.109348" lon="4.571523"><time>2026-05-03T06:00:59Z</time></trkpt>
<trkpt lat="50.111020" lon="4.571502"><time>2026-05-03T06:10:59Z</time></trkpt>
<trkpt lat="50.113482" lon="4.572435"><time>2026-05-03T06:20:59Z</time></trkpt>
<trkpt lat="50.114264" lon="4.572452"><time>2026-05-03T06:30:59Z</time></trkpt>
<trkpt lat="50.115146" lon="4.572093"><time>2026-05-03T06:40:59Z</time></trkpt>
</trkseg>
</trk>
<trk>
<name>nphfg34</name>
<cmt>r</cmt>
<desc>Fagnolle Sentier n°34 Rue du Bois du Mont / Rue du Bois-du-Mont</desc>
<link href="https://chemins.be/fagnolle/sentier/34"/><trkseg>
<trkpt lat="50.108598" lon="4.577799"><time>2026-05-03T05:50:59Z</time></trkpt>
<trkpt lat="50.110791" lon="4.583650"><time>2026-05-03T06:00:59Z</time></trkpt>
</trkseg>
</trk>
<trk>
<name>nphfg35</name>
<cmt>v</cmt>
<desc>Fagnolle Sentier n°35 </desc>
<link href="https://chemins.be/fagnolle/sentier/35"/><trkseg>
<trkpt lat="50.103316" lon="4.571287"><time>2026-05-03T05:50:59Z</time></trkpt>
<trkpt lat="50.103152" lon="4.572489"><time>2026-05-03T06:00:59Z</time></trkpt>
<trkpt lat="50.102166" lon="4.574473"><time>2026-05-03T06:10:59Z</time></trkpt>
<trkpt lat="50.101239" lon="4.576338"><time>2026-05-03T06:20:59Z</time></trkpt>
<trkpt lat="50.100783" lon="4.577265"><time>2026-05-03T06:30:59Z</time></trkpt>
<trkpt lat="50.099929" lon="4.578194"><time>2026-05-03T06:40:59Z</time></trkpt>
<trkpt lat="50.097976" lon="4.580545"><time>2026-05-03T06:50:59Z</time></trkpt>
</trkseg>
</trk>
<trk>
<name>nphfg36</name>
<cmt>v</cmt>
<desc>Fagnolle Sentier n°36 </desc>
<link href="https://chemins.be/fagnolle/sentier/36"/><trkseg>
<trkpt lat="50.104198" lon="4.570550"><time>2026-05-03T05:50:59Z</time></trkpt>
<trkpt lat="50.103235" lon="4.571287"><time>2026-05-03T06:00:59Z</time></trkpt>
<trkpt lat="50.101068" lon="4.571208"><time>2026-05-03T06:10:59Z</time></trkpt>
<trkpt lat="50.100475" lon="4.571261"><time>2026-05-03T06:20:59Z</time></trkpt>
<trkpt lat="50.099317" lon="4.570292"><time>2026-05-03T06:30:59Z</time></trkpt>
<trkpt lat="50.098398" lon="4.570488"><time>2026-05-03T06:40:59Z</time></trkpt>
</trkseg></trk>
<trk>
<name>nphfg36</name>
<cmt>d</cmt>
<desc>Fagnolle Sentier n°36 </desc>
<link href="https://chemins.be/fagnolle/sentier/36"/><trkseg>
<trkpt lat="50.098398" lon="4.570488"><time>2026-05-03T06:40:59Z</time></trkpt>
<trkpt lat="50.094925" lon="4.572803"><time>2026-05-03T06:50:59Z</time></trkpt>
</trkseg>
</trk>
<trk>
<name>nphfg37</name>
<cmt>d</cmt>
<desc>Fagnolle Sentier n°37 </desc>
<link href="https://chemins.be/fagnolle/sentier/37"/><trkseg>
<trkpt lat="50.100609" lon="4.550198"><time>2026-05-03T05:50:59Z</time></trkpt>
<trkpt lat="50.100305" lon="4.549064"><time>2026-05-03T06:00:59Z</time></trkpt>
<trkpt lat="50.099416" lon="4.547943"><time>2026-05-03T06:10:59Z</time></trkpt>
<trkpt lat="50.099454" lon="4.547104"><time>2026-05-03T06:20:59Z</time></trkpt>
<trkpt lat="50.098777" lon="4.543034"><time>2026-05-03T06:30:59Z</time></trkpt>
<trkpt lat="50.098626" lon="4.541329"><time>2026-05-03T06:40:59Z</time></trkpt>
<trkpt lat="50.098574" lon="4.540602"><time>2026-05-03T06:50:59Z</time></trkpt>
<trkpt lat="50.098450" lon="4.539217"><time>2026-05-03T07:00:59Z</time></trkpt>
<trkpt lat="50.098379" lon="4.538407"><time>2026-05-03T07:10:59Z</time></trkpt>
</trkseg>
</trk>
<trk>
<name>nphfg38</name>
<cmt>d</cmt>
<desc>Fagnolle Sentier n°38 </desc>
<link href="https://chemins.be/fagnolle/sentier/38"/><trkseg>
<trkpt lat="50.108684" lon="4.565453"><time>2026-05-03T05:50:59Z</time></trkpt>
<trkpt lat="50.109622" lon="4.563988"><time>2026-05-03T06:00:59Z</time></trkpt>
<trkpt lat="50.111487" lon="4.561424"><time>2026-05-03T06:10:59Z</time></trkpt>
<trkpt lat="50.111623" lon="4.560991"><time>2026-05-03T06:20:59Z</time></trkpt>
<trkpt lat="50.112120" lon="4.559203"><time>2026-05-03T06:30:59Z</time></trkpt>
</trkseg>
</trk>
<trk>
<name>nphfg38bis</name>
<cmt>q</cmt>
<desc>Fagnolle Sentier n°38bis </desc>
<link href="https://chemins.be/fagnolle/sentier/38bis"/><trkseg>
<trkpt lat="50.111514" lon="4.561424"><time>2026-05-03T05:50:59Z</time></trkpt>
<trkpt lat="50.111883" lon="4.561118"><time>2026-05-03T06:00:59Z</time></trkpt>
<trkpt lat="50.112729" lon="4.560492"><time>2026-05-03T06:10:59Z</time></trkpt>
</trkseg>
</trk>
<trk>
<name>nphfg39</name>
<cmt>d</cmt>
<desc>Fagnolle Sentier n°39 </desc>
<link href="https://chemins.be/fagnolle/sentier/39"/><trkseg>
<trkpt lat="50.104250" lon="4.566217"><time>2026-05-03T05:50:59Z</time></trkpt>
<trkpt lat="50.104073" lon="4.564637"><time>2026-05-03T06:00:59Z</time></trkpt>
<trkpt lat="50.103587" lon="4.562354"><time>2026-05-03T06:10:59Z</time></trkpt>
</trkseg></trk>
<trk>
<name>nphfg39</name>
<cmt>v</cmt>
<desc>Fagnolle Sentier n°39 </desc>
<link href="https://chemins.be/fagnolle/sentier/39"/><trkseg>
<trkpt lat="50.103587" lon="4.562354"><time>2026-05-03T06:10:59Z</time></trkpt>
<trkpt lat="50.103092" lon="4.560034"><time>2026-05-03T06:20:59Z</time></trkpt>
<trkpt lat="50.103111" lon="4.559531"><time>2026-05-03T06:30:59Z</time></trkpt>
</trkseg>
</trk>
<trk>
<name>nphfg4</name>
<cmt>r</cmt>
<desc>Fagnolle Chemin n°4 Rue de l'Hospiteaux / ?</desc>
<link href="https://chemins.be/fagnolle/chemin/4"/><trkseg>
<trkpt lat="50.105795" lon="4.568495"><time>2026-05-03T05:50:59Z</time></trkpt>
<trkpt lat="50.106109" lon="4.568581"><time>2026-05-03T06:00:59Z</time></trkpt>
</trkseg></trk>
<trk>
<name>nphfg4</name>
<cmt>v</cmt>
<desc>Fagnolle Chemin n°4 Rue de l'Hospiteaux / ?</desc>
<link href="https://chemins.be/fagnolle/chemin/4"/><trkseg>
<trkpt lat="50.106109" lon="4.568581"><time>2026-05-03T06:00:59Z</time></trkpt>
<trkpt lat="50.107242" lon="4.567655"><time>2026-05-03T06:10:59Z</time></trkpt>
<trkpt lat="50.108719" lon="4.566082"><time>2026-05-03T06:20:59Z</time></trkpt>
<trkpt lat="50.108658" lon="4.564753"><time>2026-05-03T06:30:59Z</time></trkpt>
</trkseg></trk>
<trk>
<name>nphfg4</name>
<cmt>d</cmt>
<desc>Fagnolle Chemin n°4 Rue de l'Hospiteaux / ?</desc>
<link href="https://chemins.be/fagnolle/chemin/4"/><trkseg>
<trkpt lat="50.108658" lon="4.564753"><time>2026-05-03T06:30:59Z</time></trkpt>
<trkpt lat="50.109857" lon="4.563165"><time>2026-05-03T06:40:59Z</time></trkpt>
<trkpt lat="50.110471" lon="4.561657"><time>2026-05-03T06:50:59Z</time></trkpt>
<trkpt lat="50.111238" lon="4.559717"><time>2026-05-03T07:00:59Z</time></trkpt>
<trkpt lat="50.112473" lon="4.557807"><time>2026-05-03T07:10:59Z</time></trkpt>
<trkpt lat="50.112923" lon="4.557683"><time>2026-05-03T07:20:59Z</time></trkpt>
<trkpt lat="50.115281" lon="4.556056"><time>2026-05-03T07:30:59Z</time></trkpt>
<trkpt lat="50.116182" lon="4.555109"><time>2026-05-03T07:40:59Z</time></trkpt>
<trkpt lat="50.117324" lon="4.554568"><time>2026-05-03T07:50:59Z</time></trkpt>
<trkpt lat="50.117595" lon="4.554191"><time>2026-05-03T08:00:59Z</time></trkpt>
<trkpt lat="50.118478" lon="4.552950"><time>2026-05-03T08:10:59Z</time></trkpt>
<trkpt lat="50.119423" lon="4.552255"><time>2026-05-03T08:20:59Z</time></trkpt>
<trkpt lat="50.120700" lon="4.551882"><time>2026-05-03T08:30:59Z</time></trkpt>
</trkseg>
</trk>
<trk>
<name>nphfg5</name>
<cmt>d</cmt>
<desc>Fagnolle Chemin n°5 </desc>
<link href="https://chemins.be/fagnolle/chemin/5"/><trkseg>
<trkpt lat="50.108532" lon="4.530139"><time>2026-05-03T05:50:59Z</time></trkpt>
<trkpt lat="50.111057" lon="4.531308"><time>2026-05-03T06:00:59Z</time></trkpt>
<trkpt lat="50.111759" lon="4.531017"><time>2026-05-03T06:10:59Z</time></trkpt>
<trkpt lat="50.113159" lon="4.532545"><time>2026-05-03T06:20:59Z</time></trkpt>
<trkpt lat="50.113598" lon="4.532928"><time>2026-05-03T06:30:59Z</time></trkpt>
<trkpt lat="50.113835" lon="4.533108"><time>2026-05-03T06:40:59Z</time></trkpt>
<trkpt lat="50.115288" lon="4.533545"><time>2026-05-03T06:50:59Z</time></trkpt>
<trkpt lat="50.115773" lon="4.533966"><time>2026-05-03T07:00:59Z</time></trkpt>
<trkpt lat="50.116052" lon="4.533856"><time>2026-05-03T07:10:59Z</time></trkpt>
</trkseg>
</trk>
<trk>
<name>nphfg7</name>
<cmt>v</cmt>
<desc>Fagnolle Chemin n°7 </desc>
<link href="https://chemins.be/fagnolle/chemin/7"/><trkseg>
<trkpt lat="50.118320" lon="4.544434"><time>2026-05-03T05:50:59Z</time></trkpt>
<trkpt lat="50.117971" lon="4.543762"><time>2026-05-03T06:00:59Z</time></trkpt>
<trkpt lat="50.117892" lon="4.542363"><time>2026-05-03T06:10:59Z</time></trkpt>
<trkpt lat="50.117517" lon="4.540223"><time>2026-05-03T06:20:59Z</time></trkpt>
<trkpt lat="50.117122" lon="4.538697"><time>2026-05-03T06:30:59Z</time></trkpt>
</trkseg></trk>
<trk>
<name>nphfg7</name>
<cmt>d</cmt>
<desc>Fagnolle Chemin n°7 </desc>
<link href="https://chemins.be/fagnolle/chemin/7"/><trkseg>
<trkpt lat="50.117122" lon="4.538697"><time>2026-05-03T06:30:59Z</time></trkpt>
<trkpt lat="50.116479" lon="4.537185"><time>2026-05-03T06:40:59Z</time></trkpt>
<trkpt lat="50.114425" lon="4.534143"><time>2026-05-03T06:50:59Z</time></trkpt>
<trkpt lat="50.113815" lon="4.533121"><time>2026-05-03T07:00:59Z</time></trkpt>
</trkseg>
</trk>
<trk>
<name>nphfg8</name>
<cmt>v</cmt>
<desc>Fagnolle Chemin n°8 </desc>
<link href="https://chemins.be/fagnolle/chemin/8"/><trkseg>
<trkpt lat="50.113877" lon="4.557071"><time>2026-05-03T05:50:59Z</time></trkpt>
<trkpt lat="50.116507" lon="4.559277"><time>2026-05-03T06:00:59Z</time></trkpt>
<trkpt lat="50.120423" lon="4.561977"><time>2026-05-03T06:10:59Z</time></trkpt>
<trkpt lat="50.121653" lon="4.562933"><time>2026-05-03T06:20:59Z</time></trkpt>
<trkpt lat="50.125863" lon="4.569102"><time>2026-05-03T06:30:59Z</time></trkpt>
<trkpt lat="50.126679" lon="4.569545"><time>2026-05-03T06:40:59Z</time></trkpt>
</trkseg>
</trk>
<trk>
<name>nphfg9</name>
<cmt>v</cmt>
<desc>Fagnolle Chemin n°9 Rue du Quairiat</desc>
<link href="https://chemins.be/fagnolle/chemin/9"/><trkseg>
<trkpt lat="50.105747" lon="4.568368"><time>2026-05-03T05:50:59Z</time></trkpt>
<trkpt lat="50.105945" lon="4.568051"><time>2026-05-03T06:00:59Z</time></trkpt>
<trkpt lat="50.105952" lon="4.567931"><time>2026-05-03T06:10:59Z</time></trkpt>
<trkpt lat="50.105757" lon="4.567375"><time>2026-05-03T06:20:59Z</time></trkpt>
<trkpt lat="50.105546" lon="4.567338"><time>2026-05-03T06:30:59Z</time></trkpt>
</trkseg></trk>
<trk>
<name>nphfg9</name>
<cmt>r</cmt>
<desc>Fagnolle Chemin n°9 Rue du Quairiat</desc>
<link href="https://chemins.be/fagnolle/chemin/9"/><trkseg>
<trkpt lat="50.105546" lon="4.567338"><time>2026-05-03T06:30:59Z</time></trkpt>
<trkpt lat="50.105474" lon="4.565859"><time>2026-05-03T06:40:59Z</time></trkpt>
<trkpt lat="50.103603" lon="4.555339"><time>2026-05-03T06:50:59Z</time></trkpt>
<trkpt lat="50.104022" lon="4.552391"><time>2026-05-03T07:00:59Z</time></trkpt>
<trkpt lat="50.105390" lon="4.550608"><time>2026-05-03T07:10:59Z</time></trkpt>
</trkseg></trk>
<trk>
<name>nphfg9</name>
<cmt>v</cmt>
<desc>Fagnolle Chemin n°9 Rue du Quairiat</desc>
<link href="https://chemins.be/fagnolle/chemin/9"/><trkseg>
<trkpt lat="50.105390" lon="4.550608"><time>2026-05-03T07:10:59Z</time></trkpt>
<trkpt lat="50.106147" lon="4.549981"><time>2026-05-03T07:20:59Z</time></trkpt>
<trkpt lat="50.106526" lon="4.549577"><time>2026-05-03T07:30:59Z</time></trkpt>
<trkpt lat="50.108679" lon="4.546314"><time>2026-05-03T07:40:59Z</time></trkpt>
<trkpt lat="50.109949" lon="4.542990"><time>2026-05-03T07:50:59Z</time></trkpt>
<trkpt lat="50.111366" lon="4.541165"><time>2026-05-03T08:00:59Z</time></trkpt>
<trkpt lat="50.112463" lon="4.539322"><time>2026-05-03T08:10:59Z</time></trkpt>
</trkseg></trk>
<trk>
<name>nphfg9</name>
<cmt>d</cmt>
<desc>Fagnolle Chemin n°9 Rue du Quairiat</desc>
<link href="https://chemins.be/fagnolle/chemin/9"/><trkseg>
<trkpt lat="50.112463" lon="4.539322"><time>2026-05-03T08:10:59Z</time></trkpt>
<trkpt lat="50.112202" lon="4.536098"><time>2026-05-03T08:20:59Z</time></trkpt>
<trkpt lat="50.113184" lon="4.532609"><time>2026-05-03T08:30:59Z</time></trkpt>
</trkseg>
</trk>
<trk>
<name>nphfgi1</name>
<cmt>v</cmt>
<desc>Fagnolle Chemin n°i1 </desc>
<link href="https://chemins.be/fagnolle/chemin/i1"/><trkseg>
<trkpt lat="50.104974" lon="4.578759"><time>2026-05-03T05:50:59Z</time></trkpt>
<trkpt lat="50.104213" lon="4.577008"><time>2026-05-03T06:00:59Z</time></trkpt>
<trkpt lat="50.102397" lon="4.577140"><time>2026-05-03T06:10:59Z</time></trkpt>
<trkpt lat="50.100887" lon="4.577286"><time>2026-05-03T06:20:59Z</time></trkpt>
</trkseg>
</trk>
<trk>
<name>nphfgi2</name>
<cmt>v</cmt>
<desc>Fagnolle Chemin n°i2 </desc>
<link href="https://chemins.be/fagnolle/chemin/i2"/><trkseg>
<trkpt lat="50.105996" lon="4.580637"><time>2026-05-03T05:50:59Z</time></trkpt>
<trkpt lat="50.105321" lon="4.581039"><time>2026-05-03T06:00:59Z</time></trkpt>
<trkpt lat="50.104214" lon="4.581440"><time>2026-05-03T06:10:59Z</time></trkpt>
<trkpt lat="50.103405" lon="4.581492"><time>2026-05-03T06:20:59Z</time></trkpt>
</trkseg>
</trk>
<trk>
<name>nphfgi3</name>
<cmt>v</cmt>
<desc>Fagnolle Chemin n°i3 </desc>
<link href="https://chemins.be/fagnolle/chemin/i3"/><trkseg>
<trkpt lat="50.100313" lon="4.566229"><time>2026-05-03T05:50:59Z</time></trkpt>
<trkpt lat="50.100741" lon="4.568201"><time>2026-05-03T06:00:59Z</time></trkpt>
<trkpt lat="50.101404" lon="4.570849"><time>2026-05-03T06:10:59Z</time></trkpt>
<trkpt lat="50.101194" lon="4.571203"><time>2026-05-03T06:20:59Z</time></trkpt>
<trkpt lat="50.101118" lon="4.571283"><time>2026-05-03T06:30:59Z</time></trkpt>
</trkseg></trk>
<trk>
<name>nphfgi3</name>
<cmt>q</cmt>
<desc>Fagnolle Chemin n°i3 </desc>
<link href="https://chemins.be/fagnolle/chemin/i3"/><trkseg>
<trkpt lat="50.101118" lon="4.571283"><time>2026-05-03T06:30:59Z</time></trkpt>
<trkpt lat="50.101106" lon="4.572222"><time>2026-05-03T06:40:59Z</time></trkpt>
<trkpt lat="50.101217" lon="4.573218"><time>2026-05-03T06:50:59Z</time></trkpt>
</trkseg>
</trk>
<trk>
<name>nphfgi4</name>
<cmt>v</cmt>
<desc>Fagnolle Chemin n°i4 </desc>
<link href="https://chemins.be/fagnolle/chemin/i4"/><trkseg>
<trkpt lat="50.106869" lon="4.580305"><time>2026-05-03T05:50:59Z</time></trkpt>
<trkpt lat="50.107433" lon="4.581216"><time>2026-05-03T06:00:59Z</time></trkpt>
<trkpt lat="50.108076" lon="4.583092"><time>2026-05-03T06:10:59Z</time></trkpt>
<trkpt lat="50.108539" lon="4.583858"><time>2026-05-03T06:20:59Z</time></trkpt>
</trkseg>
</trk>
<trk>
<name>nphfgi5</name>
<cmt>q</cmt>
<desc>Fagnolle Chemin n°i5 </desc>
<link href="https://chemins.be/fagnolle/chemin/i5"/><trkseg>
<trkpt lat="50.101144" lon="4.541016"><time>2026-05-03T05:50:59Z</time></trkpt>
<trkpt lat="50.103198" lon="4.538703"><time>2026-05-03T06:00:59Z</time></trkpt>
</trkseg>
</trk>
<trk>
<name>nphfgi6</name>
<cmt>v</cmt>
<desc>Fagnolle Chemin n°i6 Ligne 156</desc>
<link href="https://chemins.be/fagnolle/chemin/i6"/><trkseg>
<trkpt lat="50.111605" lon="4.560991"><time>2026-05-03T05:50:59Z</time></trkpt>
<trkpt lat="50.111399" lon="4.560403"><time>2026-05-03T06:00:59Z</time></trkpt>
<trkpt lat="50.111238" lon="4.559955"><time>2026-05-03T06:10:59Z</time></trkpt>
<trkpt lat="50.111031" lon="4.559716"><time>2026-05-03T06:20:59Z</time></trkpt>
<trkpt lat="50.110978" lon="4.559352"><time>2026-05-03T06:30:59Z</time></trkpt>
<trkpt lat="50.110692" lon="4.558540"><time>2026-05-03T06:40:59Z</time></trkpt>
<trkpt lat="50.109796" lon="4.556482"><time>2026-05-03T06:50:59Z</time></trkpt>
<trkpt lat="50.109796" lon="4.556370"><time>2026-05-03T07:00:59Z</time></trkpt>
</trkseg>
</trk>
<trk>
<name>nphfgi7</name>
<cmt>v</cmt>
<desc>Fagnolle Chemin n°i7 Rue du Quariat</desc>
<link href="https://chemins.be/fagnolle/chemin/i7"/><trkseg>
<trkpt lat="50.102156" lon="4.543480"><time>2026-05-03T05:50:59Z</time></trkpt>
<trkpt lat="50.102075" lon="4.543578"><time>2026-05-03T06:00:59Z</time></trkpt>
</trkseg>
</trk>
<trk>
<name>nphfgi8</name>
<cmt>v</cmt>
<desc>Fagnolle Chemin n°i8 </desc>
<link href="https://chemins.be/fagnolle/chemin/i8"/><trkseg>
<trkpt lat="50.111944" lon="4.558762"><time>2026-05-03T05:50:59Z</time></trkpt>
<trkpt lat="50.110552" lon="4.555998"><time>2026-05-03T06:00:59Z</time></trkpt>
</trkseg>
</trk>
<trk>
<name>nphfgi9</name>
<cmt>v</cmt>
<desc>Fagnolle Chemin n°i9 </desc>
<link href="https://chemins.be/fagnolle/chemin/i9"/><trkseg>
<trkpt lat="50.094561" lon="4.562294"><time>2026-05-03T05:50:59Z</time></trkpt>
<trkpt lat="50.094148" lon="4.561468"><time>2026-05-03T06:00:59Z</time></trkpt>
<trkpt lat="50.093783" lon="4.558238"><time>2026-05-03T06:10:59Z</time></trkpt>
<trkpt lat="50.093441" lon="4.558265"><time>2026-05-03T06:20:59Z</time></trkpt>
</trkseg>
</trk>
<trk>
<name>nphfgL156</name>
<cmt>v</cmt>
<desc>Fagnolle Chemin n°L156 Tronçon de la ligne L156 à Fagnolle / Ligne 156</desc>
<link href="https://chemins.be/fagnolle/chemin/L156"/><trkseg>
<trkpt lat="50.092003" lon="4.539264"><time>2026-05-03T05:50:59Z</time></trkpt>
<trkpt lat="50.093099" lon="4.539981"><time>2026-05-03T06:00:59Z</time></trkpt>
<trkpt lat="50.095239" lon="4.539989"><time>2026-05-03T06:10:59Z</time></trkpt>
<trkpt lat="50.097874" lon="4.540526"><time>2026-05-03T06:20:59Z</time></trkpt>
<trkpt lat="50.102324" lon="4.545480"><time>2026-05-03T06:30:59Z</time></trkpt>
<trkpt lat="50.104496" lon="4.547920"><time>2026-05-03T06:40:59Z</time></trkpt>
<trkpt lat="50.106237" lon="4.550009"><time>2026-05-03T06:50:59Z</time></trkpt>
<trkpt lat="50.108677" lon="4.553793"><time>2026-05-03T07:00:59Z</time></trkpt>
<trkpt lat="50.111207" lon="4.559509"><time>2026-05-03T07:10:59Z</time></trkpt>
<trkpt lat="50.113305" lon="4.565821"><time>2026-05-03T07:20:59Z</time></trkpt>
<trkpt lat="50.114241" lon="4.570341"><time>2026-05-03T07:30:59Z</time></trkpt>
<trkpt lat="50.114766" lon="4.573251"><time>2026-05-03T07:40:59Z</time></trkpt>
</trkseg>
</trk>
<trk>
<name>nphfgL156bis</name>
<cmt>v</cmt>
<desc>Fagnolle Chemin n°L156bis Rue du Quairiat</desc>
<link href="https://chemins.be/fagnolle/chemin/L156bis"/><trkseg>
<trkpt lat="50.095081" lon="4.537458"><time>2026-05-03T05:50:59Z</time></trkpt>
<trkpt lat="50.097621" lon="4.540249"><time>2026-05-03T06:00:59Z</time></trkpt>
</trkseg>
</trk>
<trk>
<name>nphfr10</name>
<cmt>r</cmt>
<desc>Franchimont Chemin n°10 Grand-Bon-Dieu</desc>
<link href="https://chemins.be/franchimont/chemin/10"/><trkseg>
<trkpt lat="50.192311" lon="4.630864"><time>2026-05-03T05:50:59Z</time></trkpt>
<trkpt lat="50.193747" lon="4.631922"><time>2026-05-03T06:00:59Z</time></trkpt>
</trkseg>
</trk>
<trk>
<name>nphfr11</name>
<cmt>r</cmt>
<desc>Franchimont Chemin n°11 Le Gros Frâne / ?</desc>
<link href="https://chemins.be/franchimont/chemin/11"/><trkseg>
<trkpt lat="50.209260" lon="4.649071"><time>2026-05-03T05:50:59Z</time></trkpt>
<trkpt lat="50.208640" lon="4.648801"><time>2026-05-03T06:00:59Z</time></trkpt>
<trkpt lat="50.207673" lon="4.647213"><time>2026-05-03T06:10:59Z</time></trkpt>
<trkpt lat="50.206738" lon="4.643649"><time>2026-05-03T06:20:59Z</time></trkpt>
<trkpt lat="50.205423" lon="4.640714"><time>2026-05-03T06:30:59Z</time></trkpt>
<trkpt lat="50.204125" lon="4.638465"><time>2026-05-03T06:40:59Z</time></trkpt>
<trkpt lat="50.202482" lon="4.637573"><time>2026-05-03T06:50:59Z</time></trkpt>
<trkpt lat="50.202044" lon="4.636156"><time>2026-05-03T07:00:59Z</time></trkpt>
<trkpt lat="50.198645" lon="4.632719"><time>2026-05-03T07:10:59Z</time></trkpt>
</trkseg></trk>
<trk>
<name>nphfr11</name>
<cmt>s</cmt>
<desc>Franchimont Chemin n°11 Le Gros Frâne / ?</desc>
<link href="https://chemins.be/franchimont/chemin/11"/><trkseg>
<trkpt lat="50.198645" lon="4.632719"><time>2026-05-03T07:10:59Z</time></trkpt>
<trkpt lat="50.198066" lon="4.630111"><time>2026-05-03T07:20:59Z</time></trkpt>
<trkpt lat="50.197917" lon="4.628359"><time>2026-05-03T07:30:59Z</time></trkpt>
<trkpt lat="50.196342" lon="4.625522"><time>2026-05-03T07:40:59Z</time></trkpt>
<trkpt lat="50.195410" lon="4.624074"><time>2026-05-03T07:50:59Z</time></trkpt>
<trkpt lat="50.195151" lon="4.623330"><time>2026-05-03T08:00:59Z</time></trkpt>
</trkseg>
</trk>
<trk>
<name>nphfr12</name>
<cmt>v</cmt>
<desc>Franchimont Chemin n°12 </desc>
<link href="https://chemins.be/franchimont/chemin/12"/><trkseg>
<trkpt lat="50.208041" lon="4.647705"><time>2026-05-03T05:50:59Z</time></trkpt>
<trkpt lat="50.208727" lon="4.646294"><time>2026-05-03T06:00:59Z</time></trkpt>
<trkpt lat="50.208861" lon="4.642975"><time>2026-05-03T06:10:59Z</time></trkpt>
<trkpt lat="50.212076" lon="4.636885"><time>2026-05-03T06:20:59Z</time></trkpt>
</trkseg>
</trk>
<trk>
<name>nphfr13</name>
<cmt>v</cmt>
<desc>Franchimont Chemin n°13 </desc>
<link href="https://chemins.be/franchimont/chemin/13"/><trkseg>
<trkpt lat="50.209332" lon="4.649058"><time>2026-05-03T05:50:59Z</time></trkpt>
<trkpt lat="50.210073" lon="4.647745"><time>2026-05-03T06:00:59Z</time></trkpt>
</trkseg>
</trk>
<trk>
<name>nphfr16</name>
<cmt>v</cmt>
<desc>Franchimont Chemin n°16 </desc>
<link href="https://chemins.be/franchimont/chemin/16"/><trkseg>
<trkpt lat="50.187690" lon="4.634591"><time>2026-05-03T05:50:59Z</time></trkpt>
<trkpt lat="50.187254" lon="4.632698"><time>2026-05-03T06:00:59Z</time></trkpt>
</trkseg>
</trk>
<trk>
<name>nphfr19</name>
<cmt>r</cmt>
<desc>Franchimont Chemin n°19 Rue Principale</desc>
<link href="https://chemins.be/franchimont/chemin/19"/><trkseg>
<trkpt lat="50.188420" lon="4.637690"><time>2026-05-03T05:50:59Z</time></trkpt>
<trkpt lat="50.188543" lon="4.638881"><time>2026-05-03T06:00:59Z</time></trkpt>
<trkpt lat="50.188865" lon="4.639541"><time>2026-05-03T06:10:59Z</time></trkpt>
<trkpt lat="50.189954" lon="4.639351"><time>2026-05-03T06:20:59Z</time></trkpt>
</trkseg>
</trk>
<trk>
<name>nphfr2</name>
<cmt>r</cmt>
<desc>Franchimont Chemin n°2 </desc>
<link href="https://chemins.be/franchimont/chemin/2"/><trkseg>
<trkpt lat="50.189796" lon="4.637557"><time>2026-05-03T05:50:59Z</time></trkpt>
<trkpt lat="50.189580" lon="4.637626"><time>2026-05-03T06:00:59Z</time></trkpt>
<trkpt lat="50.189238" lon="4.637624"><time>2026-05-03T06:10:59Z</time></trkpt>
<trkpt lat="50.188402" lon="4.637606"><time>2026-05-03T06:20:59Z</time></trkpt>
<trkpt lat="50.188117" lon="4.636540"><time>2026-05-03T06:30:59Z</time></trkpt>
<trkpt lat="50.187810" lon="4.636916"><time>2026-05-03T06:40:59Z</time></trkpt>
<trkpt lat="50.187083" lon="4.636422"><time>2026-05-03T06:50:59Z</time></trkpt>
<trkpt lat="50.186322" lon="4.634989"><time>2026-05-03T07:00:59Z</time></trkpt>
<trkpt lat="50.185927" lon="4.634833"><time>2026-05-03T07:10:59Z</time></trkpt>
<trkpt lat="50.185405" lon="4.634984"><time>2026-05-03T07:20:59Z</time></trkpt>
<trkpt lat="50.184937" lon="4.635444"><time>2026-05-03T07:30:59Z</time></trkpt>
<trkpt lat="50.184377" lon="4.636477"><time>2026-05-03T07:40:59Z</time></trkpt>
<trkpt lat="50.182410" lon="4.635836"><time>2026-05-03T07:50:59Z</time></trkpt>
<trkpt lat="50.182043" lon="4.635049"><time>2026-05-03T08:00:59Z</time></trkpt>
<trkpt lat="50.180886" lon="4.633769"><time>2026-05-03T08:10:59Z</time></trkpt>
</trkseg></trk>
<trk>
<name>nphfr2</name>
<cmt>v</cmt>
<desc>Franchimont Chemin n°2 </desc>
<link href="https://chemins.be/franchimont/chemin/2"/><trkseg>
<trkpt lat="50.180886" lon="4.633769"><time>2026-05-03T08:10:59Z</time></trkpt>
<trkpt lat="50.179823" lon="4.634645"><time>2026-05-03T08:20:59Z</time></trkpt>
</trkseg></trk>
<trk>
<name>nphfr2</name>
<cmt>b</cmt>
<desc>Franchimont Chemin n°2 </desc>
<link href="https://chemins.be/franchimont/chemin/2"/><trkseg>
<trkpt lat="50.179823" lon="4.634645"><time>2026-05-03T08:20:59Z</time></trkpt>
<trkpt lat="50.178896" lon="4.635228"><time>2026-05-03T08:30:59Z</time></trkpt>
</trkseg>
</trk>
<trk>
<name>nphfr20</name>
<cmt>r</cmt>
<desc>Franchimont Chemin n°20 Rue Mont de Coliat</desc>
<link href="https://chemins.be/franchimont/chemin/20"/><trkseg>
<trkpt lat="50.188254" lon="4.639355"><time>2026-05-03T05:50:59Z</time></trkpt>
<trkpt lat="50.188405" lon="4.640126"><time>2026-05-03T06:00:59Z</time></trkpt>
<trkpt lat="50.188403" lon="4.641288"><time>2026-05-03T06:10:59Z</time></trkpt>
<trkpt lat="50.188798" lon="4.641333"><time>2026-05-03T06:20:59Z</time></trkpt>
<trkpt lat="50.189194" lon="4.641027"><time>2026-05-03T06:30:59Z</time></trkpt>
<trkpt lat="50.188901" lon="4.639569"><time>2026-05-03T06:40:59Z</time></trkpt>
</trkseg>
</trk>
<trk>
<name>nphfr21</name>
<cmt>r</cmt>
<desc>Franchimont Chemin n°21 Place du Tombois / Rue du Hussard</desc>
<link href="https://chemins.be/franchimont/chemin/21"/><trkseg>
<trkpt lat="50.190154" lon="4.638204"><time>2026-05-03T05:50:59Z</time></trkpt>
<trkpt lat="50.189868" lon="4.637530"><time>2026-05-03T06:00:59Z</time></trkpt>
<trkpt lat="50.189656" lon="4.635960"><time>2026-05-03T06:10:59Z</time></trkpt>
<trkpt lat="50.189307" lon="4.635174"><time>2026-05-03T06:20:59Z</time></trkpt>
<trkpt lat="50.188951" lon="4.633772"><time>2026-05-03T06:30:59Z</time></trkpt>
</trkseg></trk>
<trk>
<name>nphfr21</name>
<cmt>s</cmt>
<desc>Franchimont Chemin n°21 Place du Tombois / Rue du Hussard</desc>
<link href="https://chemins.be/franchimont/chemin/21"/><trkseg>
<trkpt lat="50.188951" lon="4.633772"><time>2026-05-03T06:30:59Z</time></trkpt>
<trkpt lat="50.188339" lon="4.630071"><time>2026-05-03T06:40:59Z</time></trkpt>
</trkseg>
</trk>
<trk>
<name>nphfr22</name>
<cmt>r</cmt>
<desc>Franchimont Chemin n°22 Chemin de Soulwez</desc>
<link href="https://chemins.be/franchimont/chemin/22"/><trkseg>
<trkpt lat="50.191385" lon="4.642244"><time>2026-05-03T05:50:59Z</time></trkpt>
<trkpt lat="50.190897" lon="4.643207"><time>2026-05-03T06:00:59Z</time></trkpt>
</trkseg>
</trk>
<trk>
<name>nphfr23</name>
<cmt>s</cmt>
<desc>Franchimont Chemin n°23 </desc>
<link href="https://chemins.be/franchimont/chemin/23"/><trkseg>
<trkpt lat="50.189809" lon="4.635961"><time>2026-05-03T05:50:59Z</time></trkpt>
<trkpt lat="50.190811" lon="4.634048"><time>2026-05-03T06:00:59Z</time></trkpt>
<trkpt lat="50.192072" lon="4.633089"><time>2026-05-03T06:10:59Z</time></trkpt>
</trkseg>
</trk>
<trk>
<name>nphfr24</name>
<cmt>d</cmt>
<desc>Franchimont Chemin n°24 </desc>
<link href="https://chemins.be/franchimont/chemin/24"/><trkseg>
<trkpt lat="50.177909" lon="4.626318"><time>2026-05-03T05:50:59Z</time></trkpt>
<trkpt lat="50.178260" lon="4.625984"><time>2026-05-03T06:00:59Z</time></trkpt>
<trkpt lat="50.179774" lon="4.624592"><time>2026-05-03T06:10:59Z</time></trkpt>
<trkpt lat="50.180647" lon="4.624079"><time>2026-05-03T06:20:59Z</time></trkpt>
</trkseg>
</trk>
<trk>
<name>nphfr25</name>
<cmt>r</cmt>
<desc>Franchimont Chemin n°25 Rue de Stoumont</desc>
<link href="https://chemins.be/franchimont/chemin/25"/><trkseg>
<trkpt lat="50.179066" lon="4.627416"><time>2026-05-03T05:50:59Z</time></trkpt>
<trkpt lat="50.179033" lon="4.630160"><time>2026-05-03T06:00:59Z</time></trkpt>
</trkseg></trk>
<trk>
<name>nphfr25</name>
<cmt>b</cmt>
<desc>Franchimont Chemin n°25 Rue de Stoumont</desc>
<link href="https://chemins.be/franchimont/chemin/25"/><trkseg>
<trkpt lat="50.179033" lon="4.630160"><time>2026-05-03T06:00:59Z</time></trkpt>
<trkpt lat="50.178958" lon="4.631406"><time>2026-05-03T06:10:59Z</time></trkpt>
<trkpt lat="50.179161" lon="4.633437"><time>2026-05-03T06:20:59Z</time></trkpt>
<trkpt lat="50.178959" lon="4.635060"><time>2026-05-03T06:30:59Z</time></trkpt>
</trkseg>
</trk>
<trk>
<name>nphfr26</name>
<cmt>r</cmt>
<desc>Franchimont Chemin n°26 Rue de Stoumont</desc>
<link href="https://chemins.be/franchimont/chemin/26"/><trkseg>
<trkpt lat="50.179078" lon="4.630287"><time>2026-05-03T05:50:59Z</time></trkpt>
<trkpt lat="50.180026" lon="4.632378"><time>2026-05-03T06:00:59Z</time></trkpt>
<trkpt lat="50.180895" lon="4.633769"><time>2026-05-03T06:10:59Z</time></trkpt>
</trkseg>
</trk>
<trk>
<name>nphfr27</name>
<cmt>r</cmt>
<desc>Franchimont Chemin n°27 Ferme de Bellevue / ? / Rue Terne des Coris</desc>
<link href="https://chemins.be/franchimont/chemin/27"/><trkseg>
<trkpt lat="50.185629" lon="4.647112"><time>2026-05-03T05:50:59Z</time></trkpt>
<trkpt lat="50.184901" lon="4.647023"><time>2026-05-03T06:00:59Z</time></trkpt>
<trkpt lat="50.184614" lon="4.646434"><time>2026-05-03T06:10:59Z</time></trkpt>
</trkseg></trk>
<trk>
<name>nphfr27</name>
<cmt>d</cmt>
<desc>Franchimont Chemin n°27 Ferme de Bellevue / ? / Rue Terne des Coris</desc>
<link href="https://chemins.be/franchimont/chemin/27"/><trkseg>
<trkpt lat="50.184614" lon="4.646434"><time>2026-05-03T06:10:59Z</time></trkpt>
<trkpt lat="50.183897" lon="4.645505"><time>2026-05-03T06:20:59Z</time></trkpt>
<trkpt lat="50.183674" lon="4.644972"><time>2026-05-03T06:30:59Z</time></trkpt>
<trkpt lat="50.183183" lon="4.643499"><time>2026-05-03T06:40:59Z</time></trkpt>
</trkseg></trk>
<trk>
<name>nphfr27</name>
<cmt>q</cmt>
<desc>Franchimont Chemin n°27 Ferme de Bellevue / ? / Rue Terne des Coris</desc>
<link href="https://chemins.be/franchimont/chemin/27"/><trkseg>
<trkpt lat="50.183183" lon="4.643499"><time>2026-05-03T06:40:59Z</time></trkpt>
<trkpt lat="50.182975" lon="4.640464"><time>2026-05-03T06:50:59Z</time></trkpt>
</trkseg></trk>
<trk>
<name>nphfr27</name>
<cmt>d</cmt>
<desc>Franchimont Chemin n°27 Ferme de Bellevue / ? / Rue Terne des Coris</desc>
<link href="https://chemins.be/franchimont/chemin/27"/><trkseg>
<trkpt lat="50.182975" lon="4.640464"><time>2026-05-03T06:50:59Z</time></trkpt>
<trkpt lat="50.182922" lon="4.639689"><time>2026-05-03T07:00:59Z</time></trkpt>
<trkpt lat="50.183034" lon="4.637869"><time>2026-05-03T07:10:59Z</time></trkpt>
</trkseg></trk>
<trk>
<name>nphfr27</name>
<cmt>r</cmt>
<desc>Franchimont Chemin n°27 Ferme de Bellevue / ? / Rue Terne des Coris</desc>
<link href="https://chemins.be/franchimont/chemin/27"/><trkseg>
<trkpt lat="50.183034" lon="4.637869"><time>2026-05-03T07:10:59Z</time></trkpt>
<trkpt lat="50.183146" lon="4.636134"><time>2026-05-03T07:20:59Z</time></trkpt>
</trkseg>
</trk>
<trk>
<name>nphfr3</name>
<cmt>r</cmt>
<desc>Franchimont Chemin n°3 Rue de la Chinelle</desc>
<link href="https://chemins.be/franchimont/chemin/3"/><trkseg>
<trkpt lat="50.188552" lon="4.638993"><time>2026-05-03T05:50:59Z</time></trkpt>
<trkpt lat="50.188308" lon="4.639271"><time>2026-05-03T06:00:59Z</time></trkpt>
<trkpt lat="50.187868" lon="4.639213"><time>2026-05-03T06:10:59Z</time></trkpt>
<trkpt lat="50.187621" lon="4.641032"><time>2026-05-03T06:20:59Z</time></trkpt>
<trkpt lat="50.188066" lon="4.642995"><time>2026-05-03T06:30:59Z</time></trkpt>
<trkpt lat="50.187632" lon="4.643903"><time>2026-05-03T06:40:59Z</time></trkpt>
<trkpt lat="50.186847" lon="4.645116"><time>2026-05-03T06:50:59Z</time></trkpt>
</trkseg>
</trk>
<trk>
<name>nphfr30</name>
<cmt>b</cmt>
<desc>Franchimont Sentier n°30 </desc>
<link href="https://chemins.be/franchimont/sentier/30"/><trkseg>
<trkpt lat="50.185676" lon="4.634818"><time>2026-05-03T05:50:59Z</time></trkpt>
<trkpt lat="50.185550" lon="4.634495"><time>2026-05-03T06:00:59Z</time></trkpt>
<trkpt lat="50.185480" lon="4.634032"><time>2026-05-03T06:10:59Z</time></trkpt>
<trkpt lat="50.185023" lon="4.633246"><time>2026-05-03T06:20:59Z</time></trkpt>
<trkpt lat="50.184648" lon="4.632151"><time>2026-05-03T06:30:59Z</time></trkpt>
</trkseg></trk>
<trk>
<name>nphfr30</name>
<cmt>v</cmt>
<desc>Franchimont Sentier n°30 </desc>
<link href="https://chemins.be/franchimont/sentier/30"/><trkseg>
<trkpt lat="50.184648" lon="4.632151"><time>2026-05-03T06:30:59Z</time></trkpt>
<trkpt lat="50.184210" lon="4.630777"><time>2026-05-03T06:40:59Z</time></trkpt>
<trkpt lat="50.183988" lon="4.629866"><time>2026-05-03T06:50:59Z</time></trkpt>
</trkseg></trk>
<trk>
<name>nphfr30</name>
<cmt>d</cmt>
<desc>Franchimont Sentier n°30 </desc>
<link href="https://chemins.be/franchimont/sentier/30"/><trkseg>
<trkpt lat="50.183988" lon="4.629866"><time>2026-05-03T06:50:59Z</time></trkpt>
<trkpt lat="50.183890" lon="4.629347"><time>2026-05-03T07:00:59Z</time></trkpt>
<trkpt lat="50.183462" lon="4.627846"><time>2026-05-03T07:10:59Z</time></trkpt>
<trkpt lat="50.183384" lon="4.626432"><time>2026-05-03T07:20:59Z</time></trkpt>
</trkseg>
</trk>
<trk>
<name>nphfr31</name>
<cmt>d</cmt>
<desc>Franchimont Sentier n°31 </desc>
<link href="https://chemins.be/franchimont/sentier/31"/><trkseg>
<trkpt lat="50.184775" lon="4.635401"><time>2026-05-03T05:50:59Z</time></trkpt>
<trkpt lat="50.182771" lon="4.634955"><time>2026-05-03T06:00:59Z</time></trkpt>
<trkpt lat="50.181971" lon="4.634993"><time>2026-05-03T06:10:59Z</time></trkpt>
</trkseg>
</trk>
<trk>
<name>nphfr32</name>
<cmt>d</cmt>
<desc>Franchimont Sentier n°32 </desc>
<link href="https://chemins.be/franchimont/sentier/32"/><trkseg>
<trkpt lat="50.178988" lon="4.630272"><time>2026-05-03T05:50:59Z</time></trkpt>
<trkpt lat="50.178225" lon="4.629806"><time>2026-05-03T06:00:59Z</time></trkpt>
</trkseg>
</trk>
<trk>
<name>nphfr33</name>
<cmt>d</cmt>
<desc>Franchimont Sentier n°33 </desc>
<link href="https://chemins.be/franchimont/sentier/33"/><trkseg>
<trkpt lat="50.184704" lon="4.646532"><time>2026-05-03T05:50:59Z</time></trkpt>
<trkpt lat="50.184947" lon="4.646422"><time>2026-05-03T06:00:59Z</time></trkpt>
<trkpt lat="50.186139" lon="4.644006"><time>2026-05-03T06:10:59Z</time></trkpt>
</trkseg></trk>
<trk>
<name>nphfr33</name>
<cmt>s</cmt>
<desc>Franchimont Sentier n°33 </desc>
<link href="https://chemins.be/franchimont/sentier/33"/><trkseg>
<trkpt lat="50.186139" lon="4.644006"><time>2026-05-03T06:10:59Z</time></trkpt>
<trkpt lat="50.186742" lon="4.643855"><time>2026-05-03T06:20:59Z</time></trkpt>
<trkpt lat="50.187192" lon="4.643858"><time>2026-05-03T06:30:59Z</time></trkpt>
<trkpt lat="50.187578" lon="4.643958"><time>2026-05-03T06:40:59Z</time></trkpt>
</trkseg>
</trk>
<trk>
<name>nphfr34</name>
<cmt>d</cmt>
<desc>Franchimont Sentier n°34 </desc>
<link href="https://chemins.be/franchimont/sentier/34"/><trkseg>
<trkpt lat="50.187650" lon="4.662205"><time>2026-05-03T05:50:59Z</time></trkpt>
<trkpt lat="50.187600" lon="4.660636"><time>2026-05-03T06:00:59Z</time></trkpt>
<trkpt lat="50.186918" lon="4.656627"><time>2026-05-03T06:10:59Z</time></trkpt>
<trkpt lat="50.187190" lon="4.655495"><time>2026-05-03T06:20:59Z</time></trkpt>
<trkpt lat="50.187547" lon="4.649363"><time>2026-05-03T06:30:59Z</time></trkpt>
<trkpt lat="50.187792" lon="4.648483"><time>2026-05-03T06:40:59Z</time></trkpt>
<trkpt lat="50.188357" lon="4.645223"><time>2026-05-03T06:50:59Z</time></trkpt>
</trkseg>
</trk>
<trk>
<name>nphfr35</name>
<cmt>v</cmt>
<desc>Franchimont Sentier n°35 </desc>
<link href="https://chemins.be/franchimont/sentier/35"/><trkseg>
<trkpt lat="50.187650" lon="4.643903"><time>2026-05-03T05:50:59Z</time></trkpt>
<trkpt lat="50.188233" lon="4.644676"><time>2026-05-03T06:00:59Z</time></trkpt>
</trkseg></trk>
<trk>
<name>nphfr35</name>
<cmt>d</cmt>
<desc>Franchimont Sentier n°35 </desc>
<link href="https://chemins.be/franchimont/sentier/35"/><trkseg>
<trkpt lat="50.188233" lon="4.644676"><time>2026-05-03T06:00:59Z</time></trkpt>
<trkpt lat="50.188580" lon="4.646149"><time>2026-05-03T06:10:59Z</time></trkpt>
<trkpt lat="50.188588" lon="4.646541"><time>2026-05-03T06:20:59Z</time></trkpt>
<trkpt lat="50.188792" lon="4.647494"><time>2026-05-03T06:30:59Z</time></trkpt>
<trkpt lat="50.188818" lon="4.648125"><time>2026-05-03T06:40:59Z</time></trkpt>
<trkpt lat="50.189556" lon="4.651252"><time>2026-05-03T06:50:59Z</time></trkpt>
<trkpt lat="50.189706" lon="4.652401"><time>2026-05-03T07:00:59Z</time></trkpt>
<trkpt lat="50.189530" lon="4.654570"><time>2026-05-03T07:10:59Z</time></trkpt>
<trkpt lat="50.189793" lon="4.657303"><time>2026-05-03T07:20:59Z</time></trkpt>
<trkpt lat="50.189503" lon="4.658253"><time>2026-05-03T07:30:59Z</time></trkpt>
<trkpt lat="50.189882" lon="4.661322"><time>2026-05-03T07:40:59Z</time></trkpt>
</trkseg>
</trk>
<trk>
<name>nphfr36</name>
<cmt>s</cmt>
<desc>Franchimont Sentier n°36 </desc>
<link href="https://chemins.be/franchimont/sentier/36"/><trkseg>
<trkpt lat="50.188810" lon="4.647466"><time>2026-05-03T05:50:59Z</time></trkpt>
<trkpt lat="50.189277" lon="4.647651"><time>2026-05-03T06:00:59Z</time></trkpt>
<trkpt lat="50.189959" lon="4.648551"><time>2026-05-03T06:10:59Z</time></trkpt>
<trkpt lat="50.190190" lon="4.649631"><time>2026-05-03T06:20:59Z</time></trkpt>
<trkpt lat="50.190413" lon="4.650178"><time>2026-05-03T06:30:59Z</time></trkpt>
<trkpt lat="50.191293" lon="4.650828"><time>2026-05-03T06:40:59Z</time></trkpt>
<trkpt lat="50.191694" lon="4.651951"><time>2026-05-03T06:50:59Z</time></trkpt>
</trkseg>
</trk>
<trk>
<name>nphfr37</name>
<cmt>v</cmt>
<desc>Franchimont Sentier n°37 </desc>
<link href="https://chemins.be/franchimont/sentier/37"/><trkseg>
<trkpt lat="50.189221" lon="4.640985"><time>2026-05-03T05:50:59Z</time></trkpt>
<trkpt lat="50.189491" lon="4.640931"><time>2026-05-03T06:00:59Z</time></trkpt>
<trkpt lat="50.189626" lon="4.641141"><time>2026-05-03T06:10:59Z</time></trkpt>
<trkpt lat="50.189695" lon="4.642178"><time>2026-05-03T06:20:59Z</time></trkpt>
</trkseg>
</trk>
<trk>
<name>nphfr38</name>
<cmt>v</cmt>
<desc>Franchimont Sentier n°38 </desc>
<link href="https://chemins.be/franchimont/sentier/38"/><trkseg>
<trkpt lat="50.190515" lon="4.641357"><time>2026-05-03T05:50:59Z</time></trkpt>
<trkpt lat="50.190353" lon="4.641622"><time>2026-05-03T06:00:59Z</time></trkpt>
<trkpt lat="50.189967" lon="4.641171"><time>2026-05-03T06:10:59Z</time></trkpt>
<trkpt lat="50.189679" lon="4.641296"><time>2026-05-03T06:20:59Z</time></trkpt>
</trkseg>
</trk>
<trk>
<name>nphfr39</name>
<cmt>s</cmt>
<desc>Franchimont Sentier n°39 </desc>
<link href="https://chemins.be/franchimont/sentier/39"/><trkseg>
<trkpt lat="50.189687" lon="4.641758"><time>2026-05-03T05:50:59Z</time></trkpt>
<trkpt lat="50.190263" lon="4.641495"><time>2026-05-03T06:00:59Z</time></trkpt>
</trkseg>
</trk>
<trk>
<name>nphfr4</name>
<cmt>v</cmt>
<desc>Franchimont Chemin n°4 </desc>
<link href="https://chemins.be/franchimont/chemin/4"/><trkseg>
<trkpt lat="50.186874" lon="4.645173"><time>2026-05-03T05:50:59Z</time></trkpt>
<trkpt lat="50.187846" lon="4.648413"><time>2026-05-03T06:00:59Z</time></trkpt>
<trkpt lat="50.189581" lon="4.652036"><time>2026-05-03T06:10:59Z</time></trkpt>
<trkpt lat="50.190554" lon="4.654899"><time>2026-05-03T06:20:59Z</time></trkpt>
<trkpt lat="50.190913" lon="4.658850"><time>2026-05-03T06:30:59Z</time></trkpt>
<trkpt lat="50.190838" lon="4.660026"><time>2026-05-03T06:40:59Z</time></trkpt>
</trkseg>
</trk>
<trk>
<name>nphfr40</name>
<cmt>s</cmt>
<desc>Franchimont Sentier n°40 </desc>
<link href="https://chemins.be/franchimont/sentier/40"/><trkseg>
<trkpt lat="50.190271" lon="4.638358"><time>2026-05-03T05:50:59Z</time></trkpt>
<trkpt lat="50.190509" lon="4.640026"><time>2026-05-03T06:00:59Z</time></trkpt>
<trkpt lat="50.190347" lon="4.640151"><time>2026-05-03T06:10:59Z</time></trkpt>
</trkseg></trk>
<trk>
<name>nphfr40</name>
<cmt>b</cmt>
<desc>Franchimont Sentier n°40 </desc>
<link href="https://chemins.be/franchimont/sentier/40"/><trkseg>
<trkpt lat="50.190347" lon="4.640151"><time>2026-05-03T06:10:59Z</time></trkpt>
<trkpt lat="50.190545" lon="4.640068"><time>2026-05-03T06:20:59Z</time></trkpt>
<trkpt lat="50.190769" lon="4.640294"><time>2026-05-03T06:30:59Z</time></trkpt>
<trkpt lat="50.190804" lon="4.640854"><time>2026-05-03T06:40:59Z</time></trkpt>
</trkseg>
</trk>
<trk>
<name>nphfr42</name>
<cmt>s</cmt>
<desc>Franchimont Sentier n°42 </desc>
<link href="https://chemins.be/franchimont/sentier/42"/><trkseg>
<trkpt lat="50.190938" lon="4.641289"><time>2026-05-03T05:50:59Z</time></trkpt>
<trkpt lat="50.190918" lon="4.642115"><time>2026-05-03T06:00:59Z</time></trkpt>
<trkpt lat="50.190664" lon="4.642912"><time>2026-05-03T06:10:59Z</time></trkpt>
</trkseg>
</trk>
<trk>
<name>nphfr43</name>
<cmt>v</cmt>
<desc>Franchimont Sentier n°43 </desc>
<link href="https://chemins.be/franchimont/sentier/43"/><trkseg>
<trkpt lat="50.191307" lon="4.641053"><time>2026-05-03T05:50:59Z</time></trkpt>
<trkpt lat="50.191523" lon="4.641124"><time>2026-05-03T06:00:59Z</time></trkpt>
<trkpt lat="50.191630" lon="4.641503"><time>2026-05-03T06:10:59Z</time></trkpt>
<trkpt lat="50.192088" lon="4.641562"><time>2026-05-03T06:20:59Z</time></trkpt>
<trkpt lat="50.192869" lon="4.642098"><time>2026-05-03T06:30:59Z</time></trkpt>
<trkpt lat="50.194269" lon="4.643255"><time>2026-05-03T06:40:59Z</time></trkpt>
<trkpt lat="50.195094" lon="4.643974"><time>2026-05-03T06:50:59Z</time></trkpt>
</trkseg></trk>
<trk>
<name>nphfr43</name>
<cmt>d</cmt>
<desc>Franchimont Sentier n°43 </desc>
<link href="https://chemins.be/franchimont/sentier/43"/><trkseg>
<trkpt lat="50.195094" lon="4.643974"><time>2026-05-03T06:50:59Z</time></trkpt>
<trkpt lat="50.195848" lon="4.644608"><time>2026-05-03T07:00:59Z</time></trkpt>
<trkpt lat="50.196377" lon="4.645340"><time>2026-05-03T07:10:59Z</time></trkpt>
</trkseg>
</trk>
<trk>
<name>nphfr44</name>
<cmt>d</cmt>
<desc>Franchimont Sentier n°44 </desc>
<link href="https://chemins.be/franchimont/sentier/44"/><trkseg>
<trkpt lat="50.192187" lon="4.641646"><time>2026-05-03T05:50:59Z</time></trkpt>
<trkpt lat="50.192763" lon="4.641454"><time>2026-05-03T06:00:59Z</time></trkpt>
<trkpt lat="50.193726" lon="4.640899"><time>2026-05-03T06:10:59Z</time></trkpt>
<trkpt lat="50.195713" lon="4.640714"><time>2026-05-03T06:20:59Z</time></trkpt>
<trkpt lat="50.196073" lon="4.640898"><time>2026-05-03T06:30:59Z</time></trkpt>
<trkpt lat="50.196504" lon="4.640789"><time>2026-05-03T06:40:59Z</time></trkpt>
<trkpt lat="50.197430" lon="4.641130"><time>2026-05-03T06:50:59Z</time></trkpt>
<trkpt lat="50.198850" lon="4.641222"><time>2026-05-03T07:00:59Z</time></trkpt>
<trkpt lat="50.199129" lon="4.640874"><time>2026-05-03T07:10:59Z</time></trkpt>
<trkpt lat="50.200605" lon="4.640406"><time>2026-05-03T07:20:59Z</time></trkpt>
<trkpt lat="50.201189" lon="4.640605"><time>2026-05-03T07:30:59Z</time></trkpt>
<trkpt lat="50.201953" lon="4.640792"><time>2026-05-03T07:40:59Z</time></trkpt>
<trkpt lat="50.202365" lon="4.641284"><time>2026-05-03T07:50:59Z</time></trkpt>
<trkpt lat="50.204078" lon="4.643255"><time>2026-05-03T08:00:59Z</time></trkpt>
<trkpt lat="50.204778" lon="4.643806"><time>2026-05-03T08:10:59Z</time></trkpt>
<trkpt lat="50.206551" lon="4.646408"><time>2026-05-03T08:20:59Z</time></trkpt>
<trkpt lat="50.207245" lon="4.645991"><time>2026-05-03T08:30:59Z</time></trkpt>
</trkseg>
</trk>
<trk>
<name>nphfr45</name>
<cmt>d</cmt>
<desc>Franchimont Sentier n°45 </desc>
<link href="https://chemins.be/franchimont/sentier/45"/><trkseg>
<trkpt lat="50.193726" lon="4.640857"><time>2026-05-03T05:50:59Z</time></trkpt>
<trkpt lat="50.195869" lon="4.639707"><time>2026-05-03T06:00:59Z</time></trkpt>
<trkpt lat="50.196373" lon="4.639345"><time>2026-05-03T06:10:59Z</time></trkpt>
<trkpt lat="50.196984" lon="4.639223"><time>2026-05-03T06:20:59Z</time></trkpt>
<trkpt lat="50.198517" lon="4.637299"><time>2026-05-03T06:30:59Z</time></trkpt>
<trkpt lat="50.198904" lon="4.637315"><time>2026-05-03T06:40:59Z</time></trkpt>
<trkpt lat="50.200397" lon="4.637029"><time>2026-05-03T06:50:59Z</time></trkpt>
<trkpt lat="50.202302" lon="4.637278"><time>2026-05-03T07:00:59Z</time></trkpt>
<trkpt lat="50.202464" lon="4.637447"><time>2026-05-03T07:10:59Z</time></trkpt>
</trkseg>
</trk>
<trk>
<name>nphfr5</name>
<cmt>r</cmt>
<desc>Franchimont Chemin n°5 Chemin de Soulwez / Rue du Pige</desc>
<link href="https://chemins.be/franchimont/chemin/5"/><trkseg>
<trkpt lat="50.188074" lon="4.643163"><time>2026-05-03T05:50:59Z</time></trkpt>
<trkpt lat="50.189065" lon="4.642427"><time>2026-05-03T06:00:59Z</time></trkpt>
<trkpt lat="50.189650" lon="4.642276"><time>2026-05-03T06:10:59Z</time></trkpt>
<trkpt lat="50.190054" lon="4.642474"><time>2026-05-03T06:20:59Z</time></trkpt>
<trkpt lat="50.190879" lon="4.643235"><time>2026-05-03T06:30:59Z</time></trkpt>
<trkpt lat="50.190833" lon="4.643781"><time>2026-05-03T06:40:59Z</time></trkpt>
<trkpt lat="50.192329" lon="4.646115"><time>2026-05-03T06:50:59Z</time></trkpt>
<trkpt lat="50.192562" lon="4.646508"><time>2026-05-03T07:00:59Z</time></trkpt>
<trkpt lat="50.193218" lon="4.646344"><time>2026-05-03T07:10:59Z</time></trkpt>
<trkpt lat="50.193861" lon="4.648490"><time>2026-05-03T07:20:59Z</time></trkpt>
<trkpt lat="50.193894" lon="4.649695"><time>2026-05-03T07:30:59Z</time></trkpt>
<trkpt lat="50.193718" lon="4.651795"><time>2026-05-03T07:40:59Z</time></trkpt>
<trkpt lat="50.193895" lon="4.652902"><time>2026-05-03T07:50:59Z</time></trkpt>
<trkpt lat="50.194630" lon="4.653803"><time>2026-05-03T08:00:59Z</time></trkpt>
</trkseg>
</trk>
<trk>
<name>nphfr6</name>
<cmt>r</cmt>
<desc>Franchimont Chemin n°6 Chemin de Soulwez</desc>
<link href="https://chemins.be/franchimont/chemin/6"/><trkseg>
<trkpt lat="50.190597" lon="4.641063"><time>2026-05-03T05:50:59Z</time></trkpt>
<trkpt lat="50.191235" lon="4.641193"><time>2026-05-03T06:00:59Z</time></trkpt>
<trkpt lat="50.191457" lon="4.642118"><time>2026-05-03T06:10:59Z</time></trkpt>
<trkpt lat="50.191338" lon="4.643238"><time>2026-05-03T06:20:59Z</time></trkpt>
<trkpt lat="50.191418" lon="4.643728"><time>2026-05-03T06:30:59Z</time></trkpt>
<trkpt lat="50.192314" lon="4.644938"><time>2026-05-03T06:40:59Z</time></trkpt>
</trkseg></trk>
<trk>
<name>nphfr6</name>
<cmt>v</cmt>
<desc>Franchimont Chemin n°6 Chemin de Soulwez</desc>
<link href="https://chemins.be/franchimont/chemin/6"/><trkseg>
<trkpt lat="50.192314" lon="4.644938"><time>2026-05-03T06:40:59Z</time></trkpt>
<trkpt lat="50.192898" lon="4.645194"><time>2026-05-03T06:50:59Z</time></trkpt>
<trkpt lat="50.193661" lon="4.645576"><time>2026-05-03T07:00:59Z</time></trkpt>
</trkseg></trk>
<trk>
<name>nphfr6</name>
<cmt>r</cmt>
<desc>Franchimont Chemin n°6 Chemin de Soulwez</desc>
<link href="https://chemins.be/franchimont/chemin/6"/><trkseg>
<trkpt lat="50.193661" lon="4.645576"><time>2026-05-03T07:00:59Z</time></trkpt>
<trkpt lat="50.194822" lon="4.645205"><time>2026-05-03T07:10:59Z</time></trkpt>
<trkpt lat="50.195550" lon="4.645251"><time>2026-05-03T07:20:59Z</time></trkpt>
<trkpt lat="50.196808" lon="4.645608"><time>2026-05-03T07:30:59Z</time></trkpt>
</trkseg></trk>
<trk>
<name>nphfr6</name>
<cmt>v</cmt>
<desc>Franchimont Chemin n°6 Chemin de Soulwez</desc>
<link href="https://chemins.be/franchimont/chemin/6"/><trkseg>
<trkpt lat="50.196808" lon="4.645608"><time>2026-05-03T07:30:59Z</time></trkpt>
<trkpt lat="50.196932" lon="4.646337"><time>2026-05-03T07:40:59Z</time></trkpt>
<trkpt lat="50.197470" lon="4.646649"><time>2026-05-03T07:50:59Z</time></trkpt>
<trkpt lat="50.197993" lon="4.646176"><time>2026-05-03T08:00:59Z</time></trkpt>
<trkpt lat="50.198320" lon="4.644819"><time>2026-05-03T08:10:59Z</time></trkpt>
<trkpt lat="50.198915" lon="4.644136"><time>2026-05-03T08:20:59Z</time></trkpt>
</trkseg>
</trk>
<trk>
<name>nphfr7</name>
<cmt>v</cmt>
<desc>Franchimont Chemin n°7 </desc>
<link href="https://chemins.be/franchimont/chemin/7"/><trkseg>
<trkpt lat="50.191961" lon="4.634195"><time>2026-05-03T05:50:59Z</time></trkpt>
<trkpt lat="50.192330" lon="4.634001"><time>2026-05-03T06:00:59Z</time></trkpt>
<trkpt lat="50.192648" lon="4.632630"><time>2026-05-03T06:10:59Z</time></trkpt>
<trkpt lat="50.194221" lon="4.632737"><time>2026-05-03T06:20:59Z</time></trkpt>
<trkpt lat="50.194582" lon="4.632501"><time>2026-05-03T06:30:59Z</time></trkpt>
<trkpt lat="50.196451" lon="4.632777"><time>2026-05-03T06:40:59Z</time></trkpt>
<trkpt lat="50.198528" lon="4.632621"><time>2026-05-03T06:50:59Z</time></trkpt>
<trkpt lat="50.200094" lon="4.632153"><time>2026-05-03T07:00:59Z</time></trkpt>
<trkpt lat="50.201671" lon="4.630439"><time>2026-05-03T07:10:59Z</time></trkpt>
<trkpt lat="50.202732" lon="4.630445"><time>2026-05-03T07:20:59Z</time></trkpt>
<trkpt lat="50.204018" lon="4.630298"><time>2026-05-03T07:30:59Z</time></trkpt>
<trkpt lat="50.204924" lon="4.630975"><time>2026-05-03T07:40:59Z</time></trkpt>
<trkpt lat="50.206005" lon="4.630028"><time>2026-05-03T07:50:59Z</time></trkpt>
<trkpt lat="50.207112" lon="4.629824"><time>2026-05-03T08:00:59Z</time></trkpt>
<trkpt lat="50.208659" lon="4.629553"><time>2026-05-03T08:10:59Z</time></trkpt>
<trkpt lat="50.210072" lon="4.628804"><time>2026-05-03T08:20:59Z</time></trkpt>
<trkpt lat="50.211111" lon="4.626540"><time>2026-05-03T08:30:59Z</time></trkpt>
</trkseg>
</trk>
<trk>
<name>nphfr8</name>
<cmt>r</cmt>
<desc>Franchimont Chemin n°8 Rue de Florennes / Gibet</desc>
<link href="https://chemins.be/franchimont/chemin/8"/><trkseg>
<trkpt lat="50.191980" lon="4.634153"><time>2026-05-03T05:50:59Z</time></trkpt>
<trkpt lat="50.192336" lon="4.631746"><time>2026-05-03T06:00:59Z</time></trkpt>
<trkpt lat="50.192221" lon="4.630863"><time>2026-05-03T06:10:59Z</time></trkpt>
<trkpt lat="50.192638" lon="4.629353"><time>2026-05-03T06:20:59Z</time></trkpt>
<trkpt lat="50.193241" lon="4.628782"><time>2026-05-03T06:30:59Z</time></trkpt>
<trkpt lat="50.197541" lon="4.623959"><time>2026-05-03T06:40:59Z</time></trkpt>
</trkseg>
</trk>
<trk>
<name>nphfr9</name>
<cmt>r</cmt>
<desc>Franchimont Chemin n°9 Rue du Champ Bouval / Rue Couture</desc>
<link href="https://chemins.be/franchimont/chemin/9"/><trkseg>
<trkpt lat="50.192651" lon="4.623611"><time>2026-05-03T05:50:59Z</time></trkpt>
<trkpt lat="50.193232" lon="4.628754"><time>2026-05-03T06:00:59Z</time></trkpt>
<trkpt lat="50.193603" lon="4.631809"><time>2026-05-03T06:10:59Z</time></trkpt>
<trkpt lat="50.194420" lon="4.632598"><time>2026-05-03T06:20:59Z</time></trkpt>
<trkpt lat="50.195224" lon="4.634437"><time>2026-05-03T06:30:59Z</time></trkpt>
<trkpt lat="50.196217" lon="4.636613"><time>2026-05-03T06:40:59Z</time></trkpt>
<trkpt lat="50.196307" lon="4.640605"><time>2026-05-03T06:50:59Z</time></trkpt>
<trkpt lat="50.196802" lon="4.644250"><time>2026-05-03T07:00:59Z</time></trkpt>
<trkpt lat="50.196808" lon="4.645580"><time>2026-05-03T07:10:59Z</time></trkpt>
</trkseg></trk>
<trk>
<name>nphfr9</name>
<cmt>v</cmt>
<desc>Franchimont Chemin n°9 Rue du Champ Bouval / Rue Couture</desc>
<link href="https://chemins.be/franchimont/chemin/9"/><trkseg>
<trkpt lat="50.196808" lon="4.645580"><time>2026-05-03T07:10:59Z</time></trkpt>
<trkpt lat="50.196932" lon="4.646253"><time>2026-05-03T07:20:59Z</time></trkpt>
</trkseg></trk>
<trk>
<name>nphfr9</name>
<cmt>d</cmt>
<desc>Franchimont Chemin n°9 Rue du Champ Bouval / Rue Couture</desc>
<link href="https://chemins.be/franchimont/chemin/9"/><trkseg>
<trkpt lat="50.196932" lon="4.646253"><time>2026-05-03T07:20:59Z</time></trkpt>
<trkpt lat="50.197118" lon="4.647459"><time>2026-05-03T07:30:59Z</time></trkpt>
<trkpt lat="50.197734" lon="4.649185"><time>2026-05-03T07:40:59Z</time></trkpt>
<trkpt lat="50.197668" lon="4.650544"><time>2026-05-03T07:50:59Z</time></trkpt>
</trkseg>
</trk>
<trk>
<name>nphfri1</name>
<cmt>v</cmt>
<desc>Franchimont Chemin n°i1 </desc>
<link href="https://chemins.be/franchimont/chemin/i1"/><trkseg>
<trkpt lat="50.185307" lon="4.634956"><time>2026-05-03T05:50:59Z</time></trkpt>
<trkpt lat="50.184941" lon="4.633819"><time>2026-05-03T06:00:59Z</time></trkpt>
<trkpt lat="50.184639" lon="4.632207"><time>2026-05-03T06:10:59Z</time></trkpt>
</trkseg>
</trk>
<trk>
<name>nphfri2</name>
<cmt>r</cmt>
<desc>Franchimont Chemin n°i2 Gros Hêtre</desc>
<link href="https://chemins.be/franchimont/chemin/i2"/><trkseg>
<trkpt lat="50.179058" lon="4.626968"><time>2026-05-03T05:50:59Z</time></trkpt>
<trkpt lat="50.178627" lon="4.626896"><time>2026-05-03T06:00:59Z</time></trkpt>
<trkpt lat="50.177926" lon="4.626696"><time>2026-05-03T06:10:59Z</time></trkpt>
<trkpt lat="50.177819" lon="4.626472"><time>2026-05-03T06:20:59Z</time></trkpt>
</trkseg>
</trk>
<trk>
<name>nphfri3</name>
<cmt>r</cmt>
<desc>Franchimont Chemin n°i3 Rue Terne des Coris</desc>
<link href="https://chemins.be/franchimont/chemin/i3"/><trkseg>
<trkpt lat="50.183051" lon="4.637867"><time>2026-05-03T05:50:59Z</time></trkpt>
<trkpt lat="50.183651" lon="4.638517"><time>2026-05-03T06:00:59Z</time></trkpt>
<trkpt lat="50.184652" lon="4.639737"><time>2026-05-03T06:10:59Z</time></trkpt>
</trkseg></trk>
<trk>
<name>nphfri3</name>
<cmt>v</cmt>
<desc>Franchimont Chemin n°i3 Rue Terne des Coris</desc>
<link href="https://chemins.be/franchimont/chemin/i3"/><trkseg>
<trkpt lat="50.184652" lon="4.639737"><time>2026-05-03T06:10:59Z</time></trkpt>
<trkpt lat="50.185530" lon="4.639360"><time>2026-05-03T06:20:59Z</time></trkpt>
<trkpt lat="50.186478" lon="4.640026"><time>2026-05-03T06:30:59Z</time></trkpt>
<trkpt lat="50.186808" lon="4.642171"><time>2026-05-03T06:40:59Z</time></trkpt>
<trkpt lat="50.187646" lon="4.643695"><time>2026-05-03T06:50:59Z</time></trkpt>
</trkseg>
</trk>
<trk>
<name>nphfri4</name>
<cmt>q</cmt>
<desc>Franchimont Sentier n°i4 </desc>
<link href="https://chemins.be/franchimont/sentier/i4"/><trkseg>
<trkpt lat="50.193541" lon="4.647018"><time>2026-05-03T05:50:59Z</time></trkpt>
<trkpt lat="50.194612" lon="4.646240"><time>2026-05-03T06:00:59Z</time></trkpt>
<trkpt lat="50.195467" lon="4.646063"><time>2026-05-03T06:10:59Z</time></trkpt>
<trkpt lat="50.196140" lon="4.646515"><time>2026-05-03T06:20:59Z</time></trkpt>
<trkpt lat="50.196724" lon="4.646686"><time>2026-05-03T06:30:59Z</time></trkpt>
</trkseg>
</trk>
<trk>
<name>nphfri5</name>
<cmt>v</cmt>
<desc>Franchimont Chemin n°i5 </desc>
<link href="https://chemins.be/franchimont/chemin/i5"/><trkseg>
<trkpt lat="50.188411" lon="4.641373"><time>2026-05-03T05:50:59Z</time></trkpt>
<trkpt lat="50.187998" lon="4.641370"><time>2026-05-03T06:00:59Z</time></trkpt>
</trkseg></trk>
<trk>
<name>nphfri5</name>
<cmt>q</cmt>
<desc>Franchimont Chemin n°i5 </desc>
<link href="https://chemins.be/franchimont/chemin/i5"/><trkseg>
<trkpt lat="50.187998" lon="4.641370"><time>2026-05-03T06:00:59Z</time></trkpt>
<trkpt lat="50.187665" lon="4.641368"><time>2026-05-03T06:10:59Z</time></trkpt>
</trkseg>
</trk>
<trk>
<name>nphfri6</name>
<cmt>v</cmt>
<desc>Franchimont Chemin n°i6 </desc>
<link href="https://chemins.be/franchimont/chemin/i6"/><trkseg>
<trkpt lat="50.188083" lon="4.643163"><time>2026-05-03T05:50:59Z</time></trkpt>
<trkpt lat="50.188120" lon="4.642995"><time>2026-05-03T06:00:59Z</time></trkpt>
<trkpt lat="50.188077" lon="4.642295"><time>2026-05-03T06:10:59Z</time></trkpt>
<trkpt lat="50.187998" lon="4.641370"><time>2026-05-03T06:20:59Z</time></trkpt>
</trkseg>
</trk>
<trk>
<name>nphjg10</name>
<cmt>r</cmt>
<desc>Jamagne Chemin n°10 Ruelle des Afflidgis</desc>
<link href="https://chemins.be/jamagne/chemin/10"/><trkseg>
<trkpt lat="50.217535" lon="4.529515"><time>2026-05-03T05:50:59Z</time></trkpt>
<trkpt lat="50.217733" lon="4.529725"><time>2026-05-03T06:00:59Z</time></trkpt>
<trkpt lat="50.217831" lon="4.530202"><time>2026-05-03T06:10:59Z</time></trkpt>
<trkpt lat="50.218281" lon="4.529938"><time>2026-05-03T06:20:59Z</time></trkpt>
<trkpt lat="50.218587" lon="4.529953"><time>2026-05-03T06:30:59Z</time></trkpt>
<trkpt lat="50.218856" lon="4.530388"><time>2026-05-03T06:40:59Z</time></trkpt>
</trkseg></trk>
<trk>
<name>nphjg10</name>
<cmt>v</cmt>
<desc>Jamagne Chemin n°10 Ruelle des Afflidgis</desc>
<link href="https://chemins.be/jamagne/chemin/10"/><trkseg>
<trkpt lat="50.218856" lon="4.530388"><time>2026-05-03T06:40:59Z</time></trkpt>
<trkpt lat="50.219531" lon="4.529858"><time>2026-05-03T06:50:59Z</time></trkpt>
<trkpt lat="50.219999" lon="4.529425"><time>2026-05-03T07:00:59Z</time></trkpt>
<trkpt lat="50.220098" lon="4.529159"><time>2026-05-03T07:10:59Z</time></trkpt>
<trkpt lat="50.219794" lon="4.528023"><time>2026-05-03T07:20:59Z</time></trkpt>
</trkseg>
</trk>
<trk>
<name>nphjg11</name>
<cmt>v</cmt>
<desc>Jamagne Chemin n°11 </desc>
<link href="https://chemins.be/jamagne/chemin/11"/><trkseg>
<trkpt lat="50.217093" lon="4.530984"><time>2026-05-03T05:50:59Z</time></trkpt>
<trkpt lat="50.217245" lon="4.531447"><time>2026-05-03T06:00:59Z</time></trkpt>
<trkpt lat="50.217388" lon="4.531672"><time>2026-05-03T06:10:59Z</time></trkpt>
<trkpt lat="50.217424" lon="4.531994"><time>2026-05-03T06:20:59Z</time></trkpt>
</trkseg>
</trk>
<trk>
<name>nphjg12</name>
<cmt>v</cmt>
<desc>Jamagne Chemin n°12 Rue de la Tannerie</desc>
<link href="https://chemins.be/jamagne/chemin/12"/><trkseg>
<trkpt lat="50.214722" lon="4.529295"><time>2026-05-03T05:50:59Z</time></trkpt>
<trkpt lat="50.214595" lon="4.529701"><time>2026-05-03T06:00:59Z</time></trkpt>
<trkpt lat="50.214522" lon="4.530317"><time>2026-05-03T06:10:59Z</time></trkpt>
</trkseg>
</trk>
<trk>
<name>nphjg15</name>
<cmt>v</cmt>
<desc>Jamagne Chemin n°15 </desc>
<link href="https://chemins.be/jamagne/chemin/15"/><trkseg>
<trkpt lat="50.214406" lon="4.551668"><time>2026-05-03T05:50:59Z</time></trkpt>
<trkpt lat="50.215598" lon="4.550665"><time>2026-05-03T06:00:59Z</time></trkpt>
<trkpt lat="50.221007" lon="4.547155"><time>2026-05-03T06:10:59Z</time></trkpt>
<trkpt lat="50.221160" lon="4.545885"><time>2026-05-03T06:20:59Z</time></trkpt>
<trkpt lat="50.221495" lon="4.545313"><time>2026-05-03T06:30:59Z</time></trkpt>
<trkpt lat="50.224863" lon="4.541858"><time>2026-05-03T06:40:59Z</time></trkpt>
<trkpt lat="50.225602" lon="4.540818"><time>2026-05-03T06:50:59Z</time></trkpt>
</trkseg></trk>
<trk>
<name>nphjg15</name>
<cmt>d</cmt>
<desc>Jamagne Chemin n°15 </desc>
<link href="https://chemins.be/jamagne/chemin/15"/><trkseg>
<trkpt lat="50.225602" lon="4.540818"><time>2026-05-03T06:50:59Z</time></trkpt>
<trkpt lat="50.225773" lon="4.540465"><time>2026-05-03T07:00:59Z</time></trkpt>
<trkpt lat="50.227376" lon="4.538335"><time>2026-05-03T07:10:59Z</time></trkpt>
</trkseg>
</trk>
<trk>
<name>nphjg16</name>
<cmt>s</cmt>
<desc>Jamagne Chemin n°16 </desc>
<link href="https://chemins.be/jamagne/chemin/16"/><trkseg>
<trkpt lat="50.210200" lon="4.552998"><time>2026-05-03T05:50:59Z</time></trkpt>
<trkpt lat="50.211978" lon="4.554294"><time>2026-05-03T06:00:59Z</time></trkpt>
</trkseg>
</trk>
<trk>
<name>nphjg17</name>
<cmt>v</cmt>
<desc>Jamagne Chemin n°17 </desc>
<link href="https://chemins.be/jamagne/chemin/17"/><trkseg>
<trkpt lat="50.219442" lon="4.535504"><time>2026-05-03T05:50:59Z</time></trkpt>
<trkpt lat="50.218611" lon="4.538164"><time>2026-05-03T06:00:59Z</time></trkpt>
<trkpt lat="50.217926" lon="4.539324"><time>2026-05-03T06:10:59Z</time></trkpt>
<trkpt lat="50.217636" lon="4.540921"><time>2026-05-03T06:20:59Z</time></trkpt>
<trkpt lat="50.216536" lon="4.542738"><time>2026-05-03T06:30:59Z</time></trkpt>
<trkpt lat="50.215230" lon="4.550061"><time>2026-05-03T06:40:59Z</time></trkpt>
<trkpt lat="50.214617" lon="4.551040"><time>2026-05-03T06:50:59Z</time></trkpt>
<trkpt lat="50.213616" lon="4.553235"><time>2026-05-03T07:00:59Z</time></trkpt>
</trkseg>
</trk>
<trk>
<name>nphjg19</name>
<cmt>v</cmt>
<desc>Jamagne Chemin n°19 </desc>
<link href="https://chemins.be/jamagne/chemin/19"/><trkseg>
<trkpt lat="50.219407" lon="4.534874"><time>2026-05-03T05:50:59Z</time></trkpt>
<trkpt lat="50.218624" lon="4.535249"><time>2026-05-03T06:00:59Z</time></trkpt>
<trkpt lat="50.217932" lon="4.535219"><time>2026-05-03T06:10:59Z</time></trkpt>
<trkpt lat="50.217302" lon="4.535259"><time>2026-05-03T06:20:59Z</time></trkpt>
<trkpt lat="50.216529" lon="4.535438"><time>2026-05-03T06:30:59Z</time></trkpt>
<trkpt lat="50.215566" lon="4.535827"><time>2026-05-03T06:40:59Z</time></trkpt>
<trkpt lat="50.214694" lon="4.536104"><time>2026-05-03T06:50:59Z</time></trkpt>
<trkpt lat="50.213921" lon="4.536158"><time>2026-05-03T07:00:59Z</time></trkpt>
<trkpt lat="50.210428" lon="4.538905"><time>2026-05-03T07:10:59Z</time></trkpt>
<trkpt lat="50.209177" lon="4.539993"><time>2026-05-03T07:20:59Z</time></trkpt>
<trkpt lat="50.208167" lon="4.542259"><time>2026-05-03T07:30:59Z</time></trkpt>
<trkpt lat="50.207495" lon="4.542895"><time>2026-05-03T07:40:59Z</time></trkpt>
<trkpt lat="50.206939" lon="4.542133"><time>2026-05-03T07:50:59Z</time></trkpt>
<trkpt lat="50.204309" lon="4.541178"><time>2026-05-03T08:00:59Z</time></trkpt>
<trkpt lat="50.203493" lon="4.541051"><time>2026-05-03T08:10:59Z</time></trkpt>
</trkseg>
</trk>
<trk>
<name>nphjg2</name>
<cmt>v</cmt>
<desc>Jamagne Chemin n°2 Rue du Ry des Gattes</desc>
<link href="https://chemins.be/jamagne/chemin/2"/><trkseg>
<trkpt lat="50.219704" lon="4.534693"><time>2026-05-03T05:50:59Z</time></trkpt>
<trkpt lat="50.220289" lon="4.534358"><time>2026-05-03T06:00:59Z</time></trkpt>
<trkpt lat="50.220657" lon="4.534514"><time>2026-05-03T06:10:59Z</time></trkpt>
<trkpt lat="50.221097" lon="4.535076"><time>2026-05-03T06:20:59Z</time></trkpt>
<trkpt lat="50.221770" lon="4.535849"><time>2026-05-03T06:30:59Z</time></trkpt>
<trkpt lat="50.222174" lon="4.536103"><time>2026-05-03T06:40:59Z</time></trkpt>
<trkpt lat="50.225566" lon="4.540767"><time>2026-05-03T06:50:59Z</time></trkpt>
</trkseg>
</trk>
<trk>
<name>nphjg20</name>
<cmt>r</cmt>
<desc>Jamagne Chemin n°20 Rue Saint-Martin</desc>
<link href="https://chemins.be/jamagne/chemin/20"/><trkseg>
<trkpt lat="50.217309" lon="4.530873"><time>2026-05-03T05:50:59Z</time></trkpt>
<trkpt lat="50.217084" lon="4.530942"><time>2026-05-03T06:00:59Z</time></trkpt>
<trkpt lat="50.216724" lon="4.531123"><time>2026-05-03T06:10:59Z</time></trkpt>
<trkpt lat="50.215581" lon="4.531554"><time>2026-05-03T06:20:59Z</time></trkpt>
</trkseg></trk>
<trk>
<name>nphjg20</name>
<cmt>v</cmt>
<desc>Jamagne Chemin n°20 Rue Saint-Martin</desc>
<link href="https://chemins.be/jamagne/chemin/20"/><trkseg>
<trkpt lat="50.215581" lon="4.531554"><time>2026-05-03T06:20:59Z</time></trkpt>
<trkpt lat="50.215030" lon="4.533878"><time>2026-05-03T06:30:59Z</time></trkpt>
<trkpt lat="50.213885" lon="4.536143"><time>2026-05-03T06:40:59Z</time></trkpt>
</trkseg>
</trk>
<trk>
<name>nphjg22</name>
<cmt>s</cmt>
<desc>Jamagne Chemin n°22 </desc>
<link href="https://chemins.be/jamagne/chemin/22"/><trkseg>
<trkpt lat="50.216852" lon="4.515767"><time>2026-05-03T05:50:59Z</time></trkpt>
<trkpt lat="50.215637" lon="4.517192"><time>2026-05-03T06:00:59Z</time></trkpt>
<trkpt lat="50.214736" lon="4.518633"><time>2026-05-03T06:10:59Z</time></trkpt>
<trkpt lat="50.213143" lon="4.519818"><time>2026-05-03T06:20:59Z</time></trkpt>
<trkpt lat="50.211424" lon="4.521144"><time>2026-05-03T06:30:59Z</time></trkpt>
<trkpt lat="50.210102" lon="4.521644"><time>2026-05-03T06:40:59Z</time></trkpt>
<trkpt lat="50.209307" lon="4.521977"><time>2026-05-03T06:50:59Z</time></trkpt>
<trkpt lat="50.208235" lon="4.523355"><time>2026-05-03T07:00:59Z</time></trkpt>
</trkseg></trk>
<trk>
<name>nphjg22</name>
<cmt>v</cmt>
<desc>Jamagne Chemin n°22 </desc>
<link href="https://chemins.be/jamagne/chemin/22"/><trkseg>
<trkpt lat="50.208235" lon="4.523355"><time>2026-05-03T07:00:59Z</time></trkpt>
<trkpt lat="50.207397" lon="4.524487"><time>2026-05-03T07:10:59Z</time></trkpt>
</trkseg></trk>
<trk>
<name>nphjg22</name>
<cmt>r</cmt>
<desc>Jamagne Chemin n°22 </desc>
<link href="https://chemins.be/jamagne/chemin/22"/><trkseg>
<trkpt lat="50.207397" lon="4.524487"><time>2026-05-03T07:10:59Z</time></trkpt>
<trkpt lat="50.205842" lon="4.527374"><time>2026-05-03T07:20:59Z</time></trkpt>
<trkpt lat="50.204491" lon="4.528728"><time>2026-05-03T07:30:59Z</time></trkpt>
</trkseg></trk>
<trk>
<name>nphjg22</name>
<cmt>s</cmt>
<desc>Jamagne Chemin n°22 </desc>
<link href="https://chemins.be/jamagne/chemin/22"/><trkseg>
<trkpt lat="50.204491" lon="4.528728"><time>2026-05-03T07:30:59Z</time></trkpt>
<trkpt lat="50.204437" lon="4.528490"><time>2026-05-03T07:40:59Z</time></trkpt>
<trkpt lat="50.203583" lon="4.529089"><time>2026-05-03T07:50:59Z</time></trkpt>
<trkpt lat="50.201883" lon="4.529111"><time>2026-05-03T08:00:59Z</time></trkpt>
<trkpt lat="50.200621" lon="4.531614"><time>2026-05-03T08:10:59Z</time></trkpt>
</trkseg>
</trk>
<trk>
<name>nphjg23</name>
<cmt>v</cmt>
<desc>Jamagne Chemin n°23 </desc>
<link href="https://chemins.be/jamagne/chemin/23"/><trkseg>
<trkpt lat="50.201658" lon="4.529153"><time>2026-05-03T05:50:59Z</time></trkpt>
<trkpt lat="50.201872" lon="4.530694"><time>2026-05-03T06:00:59Z</time></trkpt>
<trkpt lat="50.202014" lon="4.531759"><time>2026-05-03T06:10:59Z</time></trkpt>
<trkpt lat="50.202378" lon="4.535136"><time>2026-05-03T06:20:59Z</time></trkpt>
</trkseg>
</trk>
<trk>
<name>nphjg24</name>
<cmt>v</cmt>
<desc>Jamagne Chemin n°24 </desc>
<link href="https://chemins.be/jamagne/chemin/24"/><trkseg>
<trkpt lat="50.202787" lon="4.526105"><time>2026-05-03T05:50:59Z</time></trkpt>
<trkpt lat="50.203402" lon="4.522911"><time>2026-05-03T06:00:59Z</time></trkpt>
<trkpt lat="50.204308" lon="4.518039"><time>2026-05-03T06:10:59Z</time></trkpt>
</trkseg>
</trk>
<trk>
<name>nphjg25</name>
<cmt>s</cmt>
<desc>Jamagne Chemin n°25 </desc>
<link href="https://chemins.be/jamagne/chemin/25"/><trkseg>
<trkpt lat="50.215945" lon="4.529103"><time>2026-05-03T05:50:59Z</time></trkpt>
<trkpt lat="50.215504" lon="4.528989"><time>2026-05-03T06:00:59Z</time></trkpt>
<trkpt lat="50.215154" lon="4.528442"><time>2026-05-03T06:10:59Z</time></trkpt>
</trkseg></trk>
<trk>
<name>nphjg25</name>
<cmt>v</cmt>
<desc>Jamagne Chemin n°25 </desc>
<link href="https://chemins.be/jamagne/chemin/25"/><trkseg>
<trkpt lat="50.215154" lon="4.528442"><time>2026-05-03T06:10:59Z</time></trkpt>
<trkpt lat="50.215065" lon="4.527713"><time>2026-05-03T06:20:59Z</time></trkpt>
<trkpt lat="50.212929" lon="4.525576"><time>2026-05-03T06:30:59Z</time></trkpt>
<trkpt lat="50.211924" lon="4.524018"><time>2026-05-03T06:40:59Z</time></trkpt>
<trkpt lat="50.211287" lon="4.522460"><time>2026-05-03T06:50:59Z</time></trkpt>
<trkpt lat="50.210399" lon="4.521351"><time>2026-05-03T07:00:59Z</time></trkpt>
</trkseg></trk>
<trk>
<name>nphjg25</name>
<cmt>s</cmt>
<desc>Jamagne Chemin n°25 </desc>
<link href="https://chemins.be/jamagne/chemin/25"/><trkseg>
<trkpt lat="50.210399" lon="4.521351"><time>2026-05-03T07:00:59Z</time></trkpt>
<trkpt lat="50.209131" lon="4.521809"><time>2026-05-03T07:10:59Z</time></trkpt>
</trkseg></trk>
<trk>
<name>nphjg25</name>
<cmt>d</cmt>
<desc>Jamagne Chemin n°25 </desc>
<link href="https://chemins.be/jamagne/chemin/25"/><trkseg>
<trkpt lat="50.209131" lon="4.521809"><time>2026-05-03T07:10:59Z</time></trkpt>
<trkpt lat="50.206668" lon="4.521171"><time>2026-05-03T07:20:59Z</time></trkpt>
<trkpt lat="50.205858" lon="4.521728"><time>2026-05-03T07:30:59Z</time></trkpt>
<trkpt lat="50.205633" lon="4.521938"><time>2026-05-03T07:40:59Z</time></trkpt>
<trkpt lat="50.205363" lon="4.522007"><time>2026-05-03T07:50:59Z</time></trkpt>
</trkseg></trk>
<trk>
<name>nphjg25</name>
<cmt>s</cmt>
<desc>Jamagne Chemin n°25 </desc>
<link href="https://chemins.be/jamagne/chemin/25"/><trkseg>
<trkpt lat="50.205363" lon="4.522007"><time>2026-05-03T07:50:59Z</time></trkpt>
<trkpt lat="50.203475" lon="4.522393"><time>2026-05-03T08:00:59Z</time></trkpt>
</trkseg></trk>
<trk>
<name>nphjg25</name>
<cmt>v</cmt>
<desc>Jamagne Chemin n°25 </desc>
<link href="https://chemins.be/jamagne/chemin/25"/><trkseg>
<trkpt lat="50.203475" lon="4.522393"><time>2026-05-03T08:00:59Z</time></trkpt>
<trkpt lat="50.203439" lon="4.522603"><time>2026-05-03T08:10:59Z</time></trkpt>
<trkpt lat="50.201830" lon="4.522220"><time>2026-05-03T08:20:59Z</time></trkpt>
<trkpt lat="50.200211" lon="4.522355"><time>2026-05-03T08:30:59Z</time></trkpt>
</trkseg>
</trk>
<trk>
<name>nphjg26</name>
<cmt>v</cmt>
<desc>Jamagne Chemin n°26 </desc>
<link href="https://chemins.be/jamagne/chemin/26"/><trkseg>
<trkpt lat="50.215959" lon="4.524745"><time>2026-05-03T05:50:59Z</time></trkpt>
<trkpt lat="50.215538" lon="4.523623"><time>2026-05-03T06:00:59Z</time></trkpt>
<trkpt lat="50.214865" lon="4.522878"><time>2026-05-03T06:10:59Z</time></trkpt>
<trkpt lat="50.213988" lon="4.519625"><time>2026-05-03T06:20:59Z</time></trkpt>
</trkseg></trk>
<trk>
<name>nphjg26</name>
<cmt>d</cmt>
<desc>Jamagne Chemin n°26 </desc>
<link href="https://chemins.be/jamagne/chemin/26"/><trkseg>
<trkpt lat="50.213988" lon="4.519625"><time>2026-05-03T06:20:59Z</time></trkpt>
<trkpt lat="50.213298" lon="4.518334"><time>2026-05-03T06:30:59Z</time></trkpt>
</trkseg></trk>
<trk>
<name>nphjg26</name>
<cmt>v</cmt>
<desc>Jamagne Chemin n°26 </desc>
<link href="https://chemins.be/jamagne/chemin/26"/><trkseg>
<trkpt lat="50.213298" lon="4.518334"><time>2026-05-03T06:30:59Z</time></trkpt>
<trkpt lat="50.213011" lon="4.517773"><time>2026-05-03T06:40:59Z</time></trkpt>
<trkpt lat="50.212535" lon="4.517085"><time>2026-05-03T06:50:59Z</time></trkpt>
</trkseg></trk>
<trk>
<name>nphjg26</name>
<cmt>d</cmt>
<desc>Jamagne Chemin n°26 </desc>
<link href="https://chemins.be/jamagne/chemin/26"/><trkseg>
<trkpt lat="50.212535" lon="4.517085"><time>2026-05-03T06:50:59Z</time></trkpt>
<trkpt lat="50.212213" lon="4.516117"><time>2026-05-03T07:00:59Z</time></trkpt>
</trkseg>
</trk>
<trk>
<name>nphjg27</name>
<cmt>r</cmt>
<desc>Jamagne Chemin n°27 Rue Ry-des-Gattes / rue du Ry des Gattes</desc>
<link href="https://chemins.be/jamagne/chemin/27"/><trkseg>
<trkpt lat="50.217410" lon="4.529094"><time>2026-05-03T05:50:59Z</time></trkpt>
<trkpt lat="50.217914" lon="4.528773"><time>2026-05-03T06:00:59Z</time></trkpt>
<trkpt lat="50.218687" lon="4.528692"><time>2026-05-03T06:10:59Z</time></trkpt>
<trkpt lat="50.219578" lon="4.528064"><time>2026-05-03T06:20:59Z</time></trkpt>
<trkpt lat="50.220073" lon="4.527912"><time>2026-05-03T06:30:59Z</time></trkpt>
<trkpt lat="50.220524" lon="4.526442"><time>2026-05-03T06:40:59Z</time></trkpt>
<trkpt lat="50.220184" lon="4.525740"><time>2026-05-03T06:50:59Z</time></trkpt>
</trkseg></trk>
<trk>
<name>nphjg27</name>
<cmt>v</cmt>
<desc>Jamagne Chemin n°27 Rue Ry-des-Gattes / rue du Ry des Gattes</desc>
<link href="https://chemins.be/jamagne/chemin/27"/><trkseg>
<trkpt lat="50.220184" lon="4.525740"><time>2026-05-03T06:50:59Z</time></trkpt>
<trkpt lat="50.220841" lon="4.524691"><time>2026-05-03T07:00:59Z</time></trkpt>
<trkpt lat="50.221402" lon="4.522395"><time>2026-05-03T07:10:59Z</time></trkpt>
<trkpt lat="50.221961" lon="4.521054"><time>2026-05-03T07:20:59Z</time></trkpt>
<trkpt lat="50.223241" lon="4.518758"><time>2026-05-03T07:30:59Z</time></trkpt>
<trkpt lat="50.224404" lon="4.516183"><time>2026-05-03T07:40:59Z</time></trkpt>
<trkpt lat="50.225764" lon="4.514015"><time>2026-05-03T07:50:59Z</time></trkpt>
<trkpt lat="50.227709" lon="4.511666"><time>2026-05-03T08:00:59Z</time></trkpt>
<trkpt lat="50.228574" lon="4.509861"><time>2026-05-03T08:10:59Z</time></trkpt>
</trkseg>
</trk>
<trk>
<name>nphjg28</name>
<cmt>v</cmt>
<desc>Jamagne Chemin n°28 </desc>
<link href="https://chemins.be/jamagne/chemin/28"/><trkseg>
<trkpt lat="50.219759" lon="4.513730"><time>2026-05-03T05:50:59Z</time></trkpt>
<trkpt lat="50.222264" lon="4.516709"><time>2026-05-03T06:00:59Z</time></trkpt>
<trkpt lat="50.223205" lon="4.518785"><time>2026-05-03T06:10:59Z</time></trkpt>
</trkseg></trk>
<trk>
<name>nphjg28</name>
<cmt>s</cmt>
<desc>Jamagne Chemin n°28 </desc>
<link href="https://chemins.be/jamagne/chemin/28"/><trkseg>
<trkpt lat="50.223205" lon="4.518785"><time>2026-05-03T06:10:59Z</time></trkpt>
<trkpt lat="50.223582" lon="4.519249"><time>2026-05-03T06:20:59Z</time></trkpt>
<trkpt lat="50.223860" lon="4.519726"><time>2026-05-03T06:30:59Z</time></trkpt>
<trkpt lat="50.224093" lon="4.520176"><time>2026-05-03T06:40:59Z</time></trkpt>
</trkseg></trk>
<trk>
<name>nphjg28</name>
<cmt>v</cmt>
<desc>Jamagne Chemin n°28 </desc>
<link href="https://chemins.be/jamagne/chemin/28"/><trkseg>
<trkpt lat="50.224093" lon="4.520176"><time>2026-05-03T06:40:59Z</time></trkpt>
<trkpt lat="50.224336" lon="4.520275"><time>2026-05-03T06:50:59Z</time></trkpt>
<trkpt lat="50.225290" lon="4.521564"><time>2026-05-03T07:00:59Z</time></trkpt>
</trkseg></trk>
<trk>
<name>nphjg28</name>
<cmt>d</cmt>
<desc>Jamagne Chemin n°28 </desc>
<link href="https://chemins.be/jamagne/chemin/28"/><trkseg>
<trkpt lat="50.225290" lon="4.521564"><time>2026-05-03T07:00:59Z</time></trkpt>
<trkpt lat="50.225306" lon="4.521664"><time>2026-05-03T07:10:59Z</time></trkpt>
</trkseg></trk>
<trk>
<name>nphjg28</name>
<cmt>v</cmt>
<desc>Jamagne Chemin n°28 </desc>
<link href="https://chemins.be/jamagne/chemin/28"/><trkseg>
<trkpt lat="50.225306" lon="4.521664"><time>2026-05-03T07:10:59Z</time></trkpt>
<trkpt lat="50.224903" lon="4.523156"><time>2026-05-03T07:20:59Z</time></trkpt>
<trkpt lat="50.226526" lon="4.529083"><time>2026-05-03T07:30:59Z</time></trkpt>
<trkpt lat="50.226507" lon="4.530022"><time>2026-05-03T07:40:59Z</time></trkpt>
<trkpt lat="50.227069" lon="4.533611"><time>2026-05-03T07:50:59Z</time></trkpt>
<trkpt lat="50.227890" lon="4.537748"><time>2026-05-03T08:00:59Z</time></trkpt>
</trkseg></trk>
<trk>
<name>nphjg28</name>
<cmt>s</cmt>
<desc>Jamagne Chemin n°28 </desc>
<link href="https://chemins.be/jamagne/chemin/28"/><trkseg>
<trkpt lat="50.227890" lon="4.537748"><time>2026-05-03T08:00:59Z</time></trkpt>
<trkpt lat="50.228015" lon="4.538352"><time>2026-05-03T08:10:59Z</time></trkpt>
</trkseg>
</trk>
<trk>
<name>nphjg29</name>
<cmt>v</cmt>
<desc>Jamagne Chemin n°29 Ruelle des Affligis</desc>
<link href="https://chemins.be/jamagne/chemin/29"/><trkseg>
<trkpt lat="50.218855" lon="4.530570"><time>2026-05-03T05:50:59Z</time></trkpt>
<trkpt lat="50.219179" lon="4.530753"><time>2026-05-03T06:00:59Z</time></trkpt>
<trkpt lat="50.219601" lon="4.530839"><time>2026-05-03T06:10:59Z</time></trkpt>
<trkpt lat="50.219987" lon="4.531317"><time>2026-05-03T06:20:59Z</time></trkpt>
<trkpt lat="50.220327" lon="4.532411"><time>2026-05-03T06:30:59Z</time></trkpt>
<trkpt lat="50.220784" lon="4.534010"><time>2026-05-03T06:40:59Z</time></trkpt>
<trkpt lat="50.221142" lon="4.535090"><time>2026-05-03T06:50:59Z</time></trkpt>
</trkseg>
</trk>
<trk>
<name>nphjg30</name>
<cmt>v</cmt>
<desc>Jamagne Chemin n°30 </desc>
<link href="https://chemins.be/jamagne/chemin/30"/><trkseg>
<trkpt lat="50.220304" lon="4.534377"><time>2026-05-03T05:50:59Z</time></trkpt>
<trkpt lat="50.220712" lon="4.533925"><time>2026-05-03T06:00:59Z</time></trkpt>
<trkpt lat="50.221278" lon="4.533787"><time>2026-05-03T06:10:59Z</time></trkpt>
<trkpt lat="50.221558" lon="4.533130"><time>2026-05-03T06:20:59Z</time></trkpt>
<trkpt lat="50.224077" lon="4.531933"><time>2026-05-03T06:30:59Z</time></trkpt>
<trkpt lat="50.225463" lon="4.530535"><time>2026-05-03T06:40:59Z</time></trkpt>
<trkpt lat="50.226264" lon="4.530120"><time>2026-05-03T06:50:59Z</time></trkpt>
<trkpt lat="50.226543" lon="4.530022"><time>2026-05-03T07:00:59Z</time></trkpt>
<trkpt lat="50.227646" lon="4.529681"><time>2026-05-03T07:10:59Z</time></trkpt>
<trkpt lat="50.228549" lon="4.528991"><time>2026-05-03T07:20:59Z</time></trkpt>
<trkpt lat="50.229357" lon="4.528719"><time>2026-05-03T07:30:59Z</time></trkpt>
<trkpt lat="50.230013" lon="4.528155"><time>2026-05-03T07:40:59Z</time></trkpt>
</trkseg>
</trk>
<trk>
<name>nphjg30bis</name>
<cmt>s</cmt>
<desc>Jamagne Chemin n°30bis </desc>
<link href="https://chemins.be/jamagne/chemin/30bis"/><trkseg>
<trkpt lat="50.217650" lon="4.531393"><time>2026-05-03T05:50:59Z</time></trkpt>
<trkpt lat="50.217397" lon="4.531672"><time>2026-05-03T06:00:59Z</time></trkpt>
</trkseg>
</trk>
<trk>
<name>nphjg31</name>
<cmt>v</cmt>
<desc>Jamagne Chemin n°31 </desc>
<link href="https://chemins.be/jamagne/chemin/31"/><trkseg>
<trkpt lat="50.227502" lon="4.538125"><time>2026-05-03T05:50:59Z</time></trkpt>
<trkpt lat="50.228592" lon="4.537036"><time>2026-05-03T06:00:59Z</time></trkpt>
<trkpt lat="50.230502" lon="4.534492"><time>2026-05-03T06:10:59Z</time></trkpt>
</trkseg>
</trk>
<trk>
<name>nphjg32</name>
<cmt>v</cmt>
<desc>Jamagne Chemin n°32 </desc>
<link href="https://chemins.be/jamagne/chemin/32"/><trkseg>
<trkpt lat="50.222462" lon="4.536034"><time>2026-05-03T05:50:59Z</time></trkpt>
<trkpt lat="50.223496" lon="4.536107"><time>2026-05-03T06:00:59Z</time></trkpt>
<trkpt lat="50.224169" lon="4.537049"><time>2026-05-03T06:10:59Z</time></trkpt>
<trkpt lat="50.226244" lon="4.538233"><time>2026-05-03T06:20:59Z</time></trkpt>
<trkpt lat="50.227477" lon="4.538160"><time>2026-05-03T06:30:59Z</time></trkpt>
</trkseg>
</trk>
<trk>
<name>nphjg33</name>
<cmt>d</cmt>
<desc>Jamagne Sentier n°33 </desc>
<link href="https://chemins.be/jamagne/sentier/33"/><trkseg>
<trkpt lat="50.216733" lon="4.530997"><time>2026-05-03T05:50:59Z</time></trkpt>
<trkpt lat="50.216652" lon="4.530843"><time>2026-05-03T06:00:59Z</time></trkpt>
<trkpt lat="50.216320" lon="4.530645"><time>2026-05-03T06:10:59Z</time></trkpt>
<trkpt lat="50.215601" lon="4.530391"><time>2026-05-03T06:20:59Z</time></trkpt>
<trkpt lat="50.214595" lon="4.530037"><time>2026-05-03T06:30:59Z</time></trkpt>
</trkseg>
</trk>
<trk>
<name>nphjg34</name>
<cmt>v</cmt>
<desc>Jamagne Sentier n°34 </desc>
<link href="https://chemins.be/jamagne/sentier/34"/><trkseg>
<trkpt lat="50.215573" lon="4.531540"><time>2026-05-03T05:50:59Z</time></trkpt>
<trkpt lat="50.214169" lon="4.532375"><time>2026-05-03T06:00:59Z</time></trkpt>
<trkpt lat="50.213395" lon="4.532457"><time>2026-05-03T06:10:59Z</time></trkpt>
<trkpt lat="50.212831" lon="4.532792"><time>2026-05-03T06:20:59Z</time></trkpt>
</trkseg></trk>
<trk>
<name>nphjg34</name>
<cmt>d</cmt>
<desc>Jamagne Sentier n°34 </desc>
<link href="https://chemins.be/jamagne/sentier/34"/><trkseg>
<trkpt lat="50.212831" lon="4.532792"><time>2026-05-03T06:20:59Z</time></trkpt>
<trkpt lat="50.212136" lon="4.533349"><time>2026-05-03T06:30:59Z</time></trkpt>
<trkpt lat="50.210723" lon="4.534311"><time>2026-05-03T06:40:59Z</time></trkpt>
<trkpt lat="50.210101" lon="4.534925"><time>2026-05-03T06:50:59Z</time></trkpt>
</trkseg></trk>
<trk>
<name>nphjg34</name>
<cmt>q</cmt>
<desc>Jamagne Sentier n°34 </desc>
<link href="https://chemins.be/jamagne/sentier/34"/><trkseg>
<trkpt lat="50.210101" lon="4.534925"><time>2026-05-03T06:50:59Z</time></trkpt>
<trkpt lat="50.208976" lon="4.536308"><time>2026-05-03T07:00:59Z</time></trkpt>
</trkseg>
</trk>
<trk>
<name>nphjg35</name>
<cmt>q</cmt>
<desc>Jamagne Sentier n°35 </desc>
<link href="https://chemins.be/jamagne/sentier/35"/><trkseg>
<trkpt lat="50.206468" lon="4.542155"><time>2026-05-03T05:50:59Z</time></trkpt>
<trkpt lat="50.203966" lon="4.543673"><time>2026-05-03T06:00:59Z</time></trkpt>
</trkseg>
</trk>
<trk>
<name>nphjg36</name>
<cmt>q</cmt>
<desc>Jamagne Sentier n°36 </desc>
<link href="https://chemins.be/jamagne/sentier/36"/><trkseg>
<trkpt lat="50.207453" lon="4.518708"><time>2026-05-03T05:50:59Z</time></trkpt>
<trkpt lat="50.205994" lon="4.521070"><time>2026-05-03T06:00:59Z</time></trkpt>
<trkpt lat="50.205804" lon="4.521854"><time>2026-05-03T06:10:59Z</time></trkpt>
</trkseg></trk>
<trk>
<name>nphjg36</name>
<cmt>v</cmt>
<desc>Jamagne Sentier n°36 </desc>
<link href="https://chemins.be/jamagne/sentier/36"/><trkseg>
<trkpt lat="50.205804" lon="4.521854"><time>2026-05-03T06:10:59Z</time></trkpt>
<trkpt lat="50.205462" lon="4.522287"><time>2026-05-03T06:20:59Z</time></trkpt>
</trkseg></trk>
<trk>
<name>nphjg36</name>
<cmt>q</cmt>
<desc>Jamagne Sentier n°36 </desc>
<link href="https://chemins.be/jamagne/sentier/36"/><trkseg>
<trkpt lat="50.205462" lon="4.522287"><time>2026-05-03T06:20:59Z</time></trkpt>
<trkpt lat="50.204732" lon="4.523364"><time>2026-05-03T06:30:59Z</time></trkpt>
<trkpt lat="50.202912" lon="4.526482"><time>2026-05-03T06:40:59Z</time></trkpt>
</trkseg>
</trk>
<trk>
<name>nphjg37</name>
<cmt>d</cmt>
<desc>Jamagne Sentier n°37 </desc>
<link href="https://chemins.be/jamagne/sentier/37"/><trkseg>
<trkpt lat="50.221320" lon="4.522871"><time>2026-05-03T05:50:59Z</time></trkpt>
<trkpt lat="50.220873" lon="4.521104"><time>2026-05-03T06:00:59Z</time></trkpt>
<trkpt lat="50.220874" lon="4.520754"><time>2026-05-03T06:10:59Z</time></trkpt>
<trkpt lat="50.222048" lon="4.516287"><time>2026-05-03T06:20:59Z</time></trkpt>
<trkpt lat="50.222347" lon="4.514887"><time>2026-05-03T06:30:59Z</time></trkpt>
<trkpt lat="50.222475" lon="4.513066"><time>2026-05-03T06:40:59Z</time></trkpt>
<trkpt lat="50.222288" lon="4.511916"><time>2026-05-03T06:50:59Z</time></trkpt>
</trkseg>
</trk>
<trk>
<name>nphjg38</name>
<cmt>q</cmt>
<desc>Jamagne Sentier n°38 </desc>
<link href="https://chemins.be/jamagne/sentier/38"/><trkseg>
<trkpt lat="50.213648" lon="4.518965"><time>2026-05-03T05:50:59Z</time></trkpt>
<trkpt lat="50.213523" lon="4.518222"><time>2026-05-03T06:00:59Z</time></trkpt>
<trkpt lat="50.213273" lon="4.516456"><time>2026-05-03T06:10:59Z</time></trkpt>
<trkpt lat="50.213076" lon="4.515797"><time>2026-05-03T06:20:59Z</time></trkpt>
</trkseg>
</trk>
<trk>
<name>nphjg39</name>
<cmt>d</cmt>
<desc>Jamagne Sentier n°39 </desc>
<link href="https://chemins.be/jamagne/sentier/39"/><trkseg>
<trkpt lat="50.219482" lon="4.532506"><time>2026-05-03T05:50:59Z</time></trkpt>
<trkpt lat="50.219986" lon="4.532396"><time>2026-05-03T06:00:59Z</time></trkpt>
<trkpt lat="50.220308" lon="4.532287"><time>2026-05-03T06:10:59Z</time></trkpt>
<trkpt lat="50.222673" lon="4.532685"><time>2026-05-03T06:20:59Z</time></trkpt>
<trkpt lat="50.224723" lon="4.532846"><time>2026-05-03T06:30:59Z</time></trkpt>
<trkpt lat="50.227116" lon="4.533957"><time>2026-05-03T06:40:59Z</time></trkpt>
<trkpt lat="50.230520" lon="4.534366"><time>2026-05-03T06:50:59Z</time></trkpt>
</trkseg>
</trk>
<trk>
<name>nphjg40</name>
<cmt>s</cmt>
<desc>Jamagne Sentier n°40 Ruelle des Afflidgis</desc>
<link href="https://chemins.be/jamagne/sentier/40"/><trkseg>
<trkpt lat="50.219123" lon="4.532056"><time>2026-05-03T05:50:59Z</time></trkpt>
<trkpt lat="50.219402" lon="4.531973"><time>2026-05-03T06:00:59Z</time></trkpt>
<trkpt lat="50.219286" lon="4.531034"><time>2026-05-03T06:10:59Z</time></trkpt>
<trkpt lat="50.219547" lon="4.530993"><time>2026-05-03T06:20:59Z</time></trkpt>
<trkpt lat="50.219646" lon="4.530657"><time>2026-05-03T06:30:59Z</time></trkpt>
<trkpt lat="50.219998" lon="4.530154"><time>2026-05-03T06:40:59Z</time></trkpt>
<trkpt lat="50.220017" lon="4.529439"><time>2026-05-03T06:50:59Z</time></trkpt>
</trkseg></trk>
<trk>
<name>nphjg40</name>
<cmt>q</cmt>
<desc>Jamagne Sentier n°40 Ruelle des Afflidgis</desc>
<link href="https://chemins.be/jamagne/sentier/40"/><trkseg>
<trkpt lat="50.220017" lon="4.529439"><time>2026-05-03T06:50:59Z</time></trkpt>
<trkpt lat="50.220224" lon="4.529159"><time>2026-05-03T07:00:59Z</time></trkpt>
<trkpt lat="50.220675" lon="4.528376"><time>2026-05-03T07:10:59Z</time></trkpt>
<trkpt lat="50.221054" lon="4.527285"><time>2026-05-03T07:20:59Z</time></trkpt>
<trkpt lat="50.221522" lon="4.526431"><time>2026-05-03T07:30:59Z</time></trkpt>
<trkpt lat="50.223133" lon="4.525136"><time>2026-05-03T07:40:59Z</time></trkpt>
<trkpt lat="50.223521" lon="4.525612"><time>2026-05-03T07:50:59Z</time></trkpt>
</trkseg>
</trk>
<trk>
<name>nphjg41</name>
<cmt>d</cmt>
<desc>Jamagne Sentier n°41 </desc>
<link href="https://chemins.be/jamagne/sentier/41"/><trkseg>
<trkpt lat="50.218187" lon="4.532754"><time>2026-05-03T05:50:59Z</time></trkpt>
<trkpt lat="50.218285" lon="4.533511"><time>2026-05-03T06:00:59Z</time></trkpt>
<trkpt lat="50.217906" lon="4.535218"><time>2026-05-03T06:10:59Z</time></trkpt>
<trkpt lat="50.217786" lon="4.536325"><time>2026-05-03T06:20:59Z</time></trkpt>
<trkpt lat="50.218018" lon="4.537853"><time>2026-05-03T06:30:59Z</time></trkpt>
<trkpt lat="50.218043" lon="4.538778"><time>2026-05-03T06:40:59Z</time></trkpt>
</trkseg>
</trk>
<trk>
<name>nphjg42</name>
<cmt>q</cmt>
<desc>Jamagne Sentier n°42 </desc>
<link href="https://chemins.be/jamagne/sentier/42"/><trkseg>
<trkpt lat="50.214495" lon="4.530317"><time>2026-05-03T05:50:59Z</time></trkpt>
<trkpt lat="50.214018" lon="4.531100"><time>2026-05-03T06:00:59Z</time></trkpt>
<trkpt lat="50.213496" lon="4.531350"><time>2026-05-03T06:10:59Z</time></trkpt>
<trkpt lat="50.213027" lon="4.532652"><time>2026-05-03T06:20:59Z</time></trkpt>
</trkseg>
</trk>
<trk>
<name>nphjg7</name>
<cmt>r</cmt>
<desc>Jamagne Chemin n°7 Ruelle des Affligis</desc>
<link href="https://chemins.be/jamagne/chemin/7"/><trkseg>
<trkpt lat="50.218207" lon="4.531381"><time>2026-05-03T05:50:59Z</time></trkpt>
<trkpt lat="50.218289" lon="4.530708"><time>2026-05-03T06:00:59Z</time></trkpt>
</trkseg></trk>
<trk>
<name>nphjg7</name>
<cmt>v</cmt>
<desc>Jamagne Chemin n°7 Ruelle des Affligis</desc>
<link href="https://chemins.be/jamagne/chemin/7"/><trkseg>
<trkpt lat="50.218289" lon="4.530708"><time>2026-05-03T06:00:59Z</time></trkpt>
<trkpt lat="50.218271" lon="4.530400"><time>2026-05-03T06:10:59Z</time></trkpt>
<trkpt lat="50.218245" lon="4.529951"><time>2026-05-03T06:20:59Z</time></trkpt>
</trkseg>
</trk>
<trk>
<name>nphjg8</name>
<cmt>v</cmt>
<desc>Jamagne Chemin n°8 </desc>
<link href="https://chemins.be/jamagne/chemin/8"/><trkseg>
<trkpt lat="50.218620" lon="4.531592"><time>2026-05-03T05:50:59Z</time></trkpt>
<trkpt lat="50.218657" lon="4.531144"><time>2026-05-03T06:00:59Z</time></trkpt>
<trkpt lat="50.218784" lon="4.530542"><time>2026-05-03T06:10:59Z</time></trkpt>
</trkseg>
</trk>
<trk>
<name>nphjg9</name>
<cmt>r</cmt>
<desc>Jamagne Chemin n°9 Ruelle des Affligis</desc>
<link href="https://chemins.be/jamagne/chemin/9"/><trkseg>
<trkpt lat="50.218307" lon="4.530610"><time>2026-05-03T05:50:59Z</time></trkpt>
<trkpt lat="50.218730" lon="4.530598"><time>2026-05-03T06:00:59Z</time></trkpt>
</trkseg>
</trk>
<trk>
<name>nphjgi1</name>
<cmt>v</cmt>
<desc>Jamagne Chemin n°i1 Rue du Ry des Gattes</desc>
<link href="https://chemins.be/jamagne/chemin/i1"/><trkseg>
<trkpt lat="50.221971" lon="4.521049"><time>2026-05-03T05:50:59Z</time></trkpt>
<trkpt lat="50.222244" lon="4.521296"><time>2026-05-03T06:00:59Z</time></trkpt>
<trkpt lat="50.222308" lon="4.521408"><time>2026-05-03T06:10:59Z</time></trkpt>
<trkpt lat="50.223203" lon="4.520411"><time>2026-05-03T06:20:59Z</time></trkpt>
<trkpt lat="50.223656" lon="4.520135"><time>2026-05-03T06:30:59Z</time></trkpt>
<trkpt lat="50.224084" lon="4.520176"><time>2026-05-03T06:40:59Z</time></trkpt>
</trkseg>
</trk>
<trk>
<name>nphjgi2</name>
<cmt>d</cmt>
<desc>Jamagne Chemin n°i2 </desc>
<link href="https://chemins.be/jamagne/chemin/i2"/><trkseg>
<trkpt lat="50.210300" lon="4.521406"><time>2026-05-03T05:50:59Z</time></trkpt>
<trkpt lat="50.209285" lon="4.522259"><time>2026-05-03T06:00:59Z</time></trkpt>
<trkpt lat="50.208816" lon="4.522799"><time>2026-05-03T06:10:59Z</time></trkpt>
<trkpt lat="50.208754" lon="4.523114"><time>2026-05-03T06:20:59Z</time></trkpt>
<trkpt lat="50.208552" lon="4.523142"><time>2026-05-03T06:30:59Z</time></trkpt>
<trkpt lat="50.208351" lon="4.523396"><time>2026-05-03T06:40:59Z</time></trkpt>
<trkpt lat="50.208241" lon="4.523378"><time>2026-05-03T06:50:59Z</time></trkpt>
</trkseg>
</trk>
<trk>
<name>nphjgi3</name>
<cmt>s</cmt>
<desc>Jamagne Chemin n°i3 </desc>
<link href="https://chemins.be/jamagne/chemin/i3"/><trkseg>
<trkpt lat="50.222763" lon="4.519667"><time>2026-05-03T05:50:59Z</time></trkpt>
<trkpt lat="50.222907" lon="4.519794"><time>2026-05-03T06:00:59Z</time></trkpt>
<trkpt lat="50.223338" lon="4.519767"><time>2026-05-03T06:10:59Z</time></trkpt>
<trkpt lat="50.223536" lon="4.519950"><time>2026-05-03T06:20:59Z</time></trkpt>
</trkseg>
</trk>
<trk>
<name>nphjgL136B</name>
<cmt>t</cmt>
<desc>Jamagne Chemin n°L136B </desc>
<link href="https://chemins.be/jamagne/chemin/L136B"/><trkseg>
<trkpt lat="50.229227" lon="4.519589"><time>2026-05-03T05:50:59Z</time></trkpt>
<trkpt lat="50.224589" lon="4.519435"><time>2026-05-03T06:00:59Z</time></trkpt>
<trkpt lat="50.223219" lon="4.520247"><time>2026-05-03T06:10:59Z</time></trkpt>
<trkpt lat="50.222279" lon="4.521288"><time>2026-05-03T06:20:59Z</time></trkpt>
<trkpt lat="50.221617" lon="4.522639"><time>2026-05-03T06:30:59Z</time></trkpt>
<trkpt lat="50.220616" lon="4.525290"><time>2026-05-03T06:40:59Z</time></trkpt>
<trkpt lat="50.219192" lon="4.527675"><time>2026-05-03T06:50:59Z</time></trkpt>
<trkpt lat="50.217153" lon="4.528410"><time>2026-05-03T07:00:59Z</time></trkpt>
<trkpt lat="50.215379" lon="4.528513"><time>2026-05-03T07:10:59Z</time></trkpt>
<trkpt lat="50.214290" lon="4.528740"><time>2026-05-03T07:20:59Z</time></trkpt>
<trkpt lat="50.209752" lon="4.527807"><time>2026-05-03T07:30:59Z</time></trkpt>
<trkpt lat="50.203995" lon="4.529735"><time>2026-05-03T07:40:59Z</time></trkpt>
<trkpt lat="50.200331" lon="4.532986"><time>2026-05-03T07:50:59Z</time></trkpt>
</trkseg>
</trk>
<trk>
<name>nphjl10</name>
<cmt>v</cmt>
<desc>Jamiolle Chemin n°10 </desc>
<link href="https://chemins.be/jamiolle/chemin/10"/><trkseg>
<trkpt lat="50.220275" lon="4.495445"><time>2026-05-03T05:50:59Z</time></trkpt>
<trkpt lat="50.219836" lon="4.493706"><time>2026-05-03T06:00:59Z</time></trkpt>
<trkpt lat="50.219065" lon="4.492331"><time>2026-05-03T06:10:59Z</time></trkpt>
<trkpt lat="50.217439" lon="4.490758"><time>2026-05-03T06:20:59Z</time></trkpt>
<trkpt lat="50.216506" lon="4.488625"><time>2026-05-03T06:30:59Z</time></trkpt>
<trkpt lat="50.213813" lon="4.484570"><time>2026-05-03T06:40:59Z</time></trkpt>
</trkseg>
</trk>
<trk>
<name>nphjl11</name>
<cmt>v</cmt>
<desc>Jamiolle Chemin n°11 </desc>
<link href="https://chemins.be/jamiolle/chemin/11"/><trkseg>
<trkpt lat="50.215689" lon="4.487320"><time>2026-05-03T05:50:59Z</time></trkpt>
<trkpt lat="50.216228" lon="4.487798"><time>2026-05-03T06:00:59Z</time></trkpt>
<trkpt lat="50.218566" lon="4.488168"><time>2026-05-03T06:10:59Z</time></trkpt>
<trkpt lat="50.219401" lon="4.488535"><time>2026-05-03T06:20:59Z</time></trkpt>
</trkseg>
</trk>
<trk>
<name>nphjl12</name>
<cmt>v</cmt>
<desc>Jamiolle Chemin n°12 </desc>
<link href="https://chemins.be/jamiolle/chemin/12"/><trkseg>
<trkpt lat="50.215881" lon="4.501640"><time>2026-05-03T05:50:59Z</time></trkpt>
<trkpt lat="50.216715" lon="4.503128"><time>2026-05-03T06:00:59Z</time></trkpt>
<trkpt lat="50.217462" lon="4.502598"><time>2026-05-03T06:10:59Z</time></trkpt>
<trkpt lat="50.219990" lon="4.501148"><time>2026-05-03T06:20:59Z</time></trkpt>
<trkpt lat="50.221447" lon="4.500129"><time>2026-05-03T06:30:59Z</time></trkpt>
<trkpt lat="50.222603" lon="4.499383"><time>2026-05-03T06:40:59Z</time></trkpt>
<trkpt lat="50.223121" lon="4.499320"><time>2026-05-03T06:50:59Z</time></trkpt>
<trkpt lat="50.223759" lon="4.499126"><time>2026-05-03T07:00:59Z</time></trkpt>
</trkseg>
</trk>
<trk>
<name>nphjl13</name>
<cmt>d</cmt>
<desc>Jamiolle Chemin n°13 </desc>
<link href="https://chemins.be/jamiolle/chemin/13"/><trkseg>
<trkpt lat="50.212150" lon="4.515934"><time>2026-05-03T05:50:59Z</time></trkpt>
<trkpt lat="50.211792" lon="4.514757"><time>2026-05-03T06:00:59Z</time></trkpt>
<trkpt lat="50.210409" lon="4.513491"><time>2026-05-03T06:10:59Z</time></trkpt>
<trkpt lat="50.208784" lon="4.513131"><time>2026-05-03T06:20:59Z</time></trkpt>
<trkpt lat="50.206222" lon="4.513105"><time>2026-05-03T06:30:59Z</time></trkpt>
<trkpt lat="50.205609" lon="4.512818"><time>2026-05-03T06:40:59Z</time></trkpt>
</trkseg>
</trk>
<trk>
<name>nphjl14</name>
<cmt>v</cmt>
<desc>Jamiolle Chemin n°14 </desc>
<link href="https://chemins.be/jamiolle/chemin/14"/><trkseg>
<trkpt lat="50.206234" lon="4.502023"><time>2026-05-03T05:50:59Z</time></trkpt>
<trkpt lat="50.206393" lon="4.503477"><time>2026-05-03T06:00:59Z</time></trkpt>
<trkpt lat="50.206639" lon="4.508283"><time>2026-05-03T06:10:59Z</time></trkpt>
<trkpt lat="50.206315" lon="4.509220"><time>2026-05-03T06:20:59Z</time></trkpt>
</trkseg></trk>
<trk>
<name>nphjl14</name>
<cmt>d</cmt>
<desc>Jamiolle Chemin n°14 </desc>
<link href="https://chemins.be/jamiolle/chemin/14"/><trkseg>
<trkpt lat="50.206315" lon="4.509220"><time>2026-05-03T06:20:59Z</time></trkpt>
<trkpt lat="50.205584" lon="4.511445"><time>2026-05-03T06:30:59Z</time></trkpt>
<trkpt lat="50.205590" lon="4.512697"><time>2026-05-03T06:40:59Z</time></trkpt>
</trkseg>
</trk>
<trk>
<name>nphjl15</name>
<cmt>v</cmt>
<desc>Jamiolle Chemin n°15 Tienne de la Justice</desc>
<link href="https://chemins.be/jamiolle/chemin/15"/><trkseg>
<trkpt lat="50.208853" lon="4.506888"><time>2026-05-03T05:50:59Z</time></trkpt>
<trkpt lat="50.208951" lon="4.507631"><time>2026-05-03T06:00:59Z</time></trkpt>
<trkpt lat="50.209068" lon="4.507729"><time>2026-05-03T06:10:59Z</time></trkpt>
<trkpt lat="50.209011" lon="4.510139"><time>2026-05-03T06:20:59Z</time></trkpt>
<trkpt lat="50.210373" lon="4.513351"><time>2026-05-03T06:30:59Z</time></trkpt>
</trkseg>
</trk>
<trk>
<name>nphjl16</name>
<cmt>r</cmt>
<desc>Jamiolle Chemin n°16 Petit-Floriveau / Rue de Floriveau</desc>
<link href="https://chemins.be/jamiolle/chemin/16"/><trkseg>
<trkpt lat="50.209788" lon="4.506905"><time>2026-05-03T05:50:59Z</time></trkpt>
<trkpt lat="50.208888" lon="4.507841"><time>2026-05-03T06:00:59Z</time></trkpt>
<trkpt lat="50.207222" lon="4.509461"><time>2026-05-03T06:10:59Z</time></trkpt>
</trkseg></trk>
<trk>
<name>nphjl16</name>
<cmt>v</cmt>
<desc>Jamiolle Chemin n°16 Petit-Floriveau / Rue de Floriveau</desc>
<link href="https://chemins.be/jamiolle/chemin/16"/><trkseg>
<trkpt lat="50.207222" lon="4.509461"><time>2026-05-03T06:10:59Z</time></trkpt>
<trkpt lat="50.205370" lon="4.513112"><time>2026-05-03T06:20:59Z</time></trkpt>
</trkseg>
</trk>
<trk>
<name>nphjl17</name>
<cmt>v</cmt>
<desc>Jamiolle Chemin n°17 </desc>
<link href="https://chemins.be/jamiolle/chemin/17"/><trkseg>
<trkpt lat="50.211927" lon="4.507135"><time>2026-05-03T05:50:59Z</time></trkpt>
<trkpt lat="50.212046" lon="4.505791"><time>2026-05-03T06:00:59Z</time></trkpt>
</trkseg>
</trk>
<trk>
<name>nphjl18</name>
<cmt>v</cmt>
<desc>Jamiolle Chemin n°18 </desc>
<link href="https://chemins.be/jamiolle/chemin/18"/><trkseg>
<trkpt lat="50.212844" lon="4.500105"><time>2026-05-03T05:50:59Z</time></trkpt>
<trkpt lat="50.213419" lon="4.500317"><time>2026-05-03T06:00:59Z</time></trkpt>
<trkpt lat="50.214300" lon="4.500333"><time>2026-05-03T06:10:59Z</time></trkpt>
<trkpt lat="50.214144" lon="4.502869"><time>2026-05-03T06:20:59Z</time></trkpt>
</trkseg>
</trk>
<trk>
<name>nphjl19</name>
<cmt>v</cmt>
<desc>Jamiolle Chemin n°19 </desc>
<link href="https://chemins.be/jamiolle/chemin/19"/><trkseg>
<trkpt lat="50.212821" lon="4.504392"><time>2026-05-03T05:50:59Z</time></trkpt>
<trkpt lat="50.213953" lon="4.504942"><time>2026-05-03T06:00:59Z</time></trkpt>
</trkseg>
</trk>
<trk>
<name>nphjl21</name>
<cmt>v</cmt>
<desc>Jamiolle Sentier n°21 </desc>
<link href="https://chemins.be/jamiolle/sentier/21"/><trkseg>
<trkpt lat="50.214282" lon="4.500305"><time>2026-05-03T05:50:59Z</time></trkpt>
<trkpt lat="50.214830" lon="4.500166"><time>2026-05-03T06:00:59Z</time></trkpt>
<trkpt lat="50.214958" lon="4.498920"><time>2026-05-03T06:10:59Z</time></trkpt>
<trkpt lat="50.214868" lon="4.498877"><time>2026-05-03T06:20:59Z</time></trkpt>
<trkpt lat="50.215023" lon="4.496692"><time>2026-05-03T06:30:59Z</time></trkpt>
<trkpt lat="50.215035" lon="4.493918"><time>2026-05-03T06:40:59Z</time></trkpt>
<trkpt lat="50.215198" lon="4.492840"><time>2026-05-03T06:50:59Z</time></trkpt>
<trkpt lat="50.215420" lon="4.487208"><time>2026-05-03T07:00:59Z</time></trkpt>
</trkseg>
</trk>
<trk>
<name>nphjl22</name>
<cmt>q</cmt>
<desc>Jamiolle Sentier n°22 </desc>
<link href="https://chemins.be/jamiolle/sentier/22"/><trkseg>
<trkpt lat="50.212810" lon="4.489849"><time>2026-05-03T05:50:59Z</time></trkpt>
<trkpt lat="50.213369" lon="4.488632"><time>2026-05-03T06:00:59Z</time></trkpt>
<trkpt lat="50.213675" lon="4.487862"><time>2026-05-03T06:10:59Z</time></trkpt>
<trkpt lat="50.214585" lon="4.485748"><time>2026-05-03T06:20:59Z</time></trkpt>
<trkpt lat="50.214821" lon="4.483857"><time>2026-05-03T06:30:59Z</time></trkpt>
</trkseg>
</trk>
<trk>
<name>nphjl23</name>
<cmt>d</cmt>
<desc>Jamiolle Sentier n°23 </desc>
<link href="https://chemins.be/jamiolle/sentier/23"/><trkseg>
<trkpt lat="50.212608" lon="4.509029"><time>2026-05-03T05:50:59Z</time></trkpt>
<trkpt lat="50.213001" lon="4.511370"><time>2026-05-03T06:00:59Z</time></trkpt>
<trkpt lat="50.212865" lon="4.511902"><time>2026-05-03T06:10:59Z</time></trkpt>
<trkpt lat="50.212882" lon="4.513051"><time>2026-05-03T06:20:59Z</time></trkpt>
<trkpt lat="50.213051" lon="4.514158"><time>2026-05-03T06:30:59Z</time></trkpt>
<trkpt lat="50.213239" lon="4.515504"><time>2026-05-03T06:40:59Z</time></trkpt>
</trkseg>
</trk>
<trk>
<name>nphjl24</name>
<cmt>d</cmt>
<desc>Jamiolle Sentier n°24 </desc>
<link href="https://chemins.be/jamiolle/sentier/24"/><trkseg>
<trkpt lat="50.212556" lon="4.508006"><time>2026-05-03T05:50:59Z</time></trkpt>
<trkpt lat="50.212554" lon="4.509183"><time>2026-05-03T06:00:59Z</time></trkpt>
<trkpt lat="50.211868" lon="4.511618"><time>2026-05-03T06:10:59Z</time></trkpt>
<trkpt lat="50.210840" lon="4.513815"><time>2026-05-03T06:20:59Z</time></trkpt>
<trkpt lat="50.209506" lon="4.516195"><time>2026-05-03T06:30:59Z</time></trkpt>
<trkpt lat="50.209081" lon="4.516321"><time>2026-05-03T06:40:59Z</time></trkpt>
</trkseg></trk>
<trk>
<name>nphjl24</name>
<cmt>v</cmt>
<desc>Jamiolle Sentier n°24 </desc>
<link href="https://chemins.be/jamiolle/sentier/24"/><trkseg>
<trkpt lat="50.209081" lon="4.516321"><time>2026-05-03T06:40:59Z</time></trkpt>
<trkpt lat="50.207460" lon="4.518667"><time>2026-05-03T06:50:59Z</time></trkpt>
</trkseg>
</trk>
<trk>
<name>nphjl25</name>
<cmt>v</cmt>
<desc>Jamiolle Sentier n°25 </desc>
<link href="https://chemins.be/jamiolle/sentier/25"/><trkseg>
<trkpt lat="50.212674" lon="4.506885"><time>2026-05-03T05:50:59Z</time></trkpt>
<trkpt lat="50.213375" lon="4.507294"><time>2026-05-03T06:00:59Z</time></trkpt>
<trkpt lat="50.213266" lon="4.508176"><time>2026-05-03T06:10:59Z</time></trkpt>
</trkseg>
</trk>
<trk>
<name>nphjl3</name>
<cmt>r</cmt>
<desc>Jamiolle Chemin n°3 Chemin d'Yves-Gomezée</desc>
<link href="https://chemins.be/jamiolle/chemin/3"/><trkseg>
<trkpt lat="50.212862" lon="4.500021"><time>2026-05-03T05:50:59Z</time></trkpt>
<trkpt lat="50.213096" lon="4.499685"><time>2026-05-03T06:00:59Z</time></trkpt>
<trkpt lat="50.213186" lon="4.498971"><time>2026-05-03T06:10:59Z</time></trkpt>
<trkpt lat="50.212929" lon="4.496070"><time>2026-05-03T06:20:59Z</time></trkpt>
<trkpt lat="50.212517" lon="4.494752"><time>2026-05-03T06:30:59Z</time></trkpt>
<trkpt lat="50.212941" lon="4.493436"><time>2026-05-03T06:40:59Z</time></trkpt>
<trkpt lat="50.213060" lon="4.491237"><time>2026-05-03T06:50:59Z</time></trkpt>
</trkseg></trk>
<trk>
<name>nphjl3</name>
<cmt>v</cmt>
<desc>Jamiolle Chemin n°3 Chemin d'Yves-Gomezée</desc>
<link href="https://chemins.be/jamiolle/chemin/3"/><trkseg>
<trkpt lat="50.213060" lon="4.491237"><time>2026-05-03T06:50:59Z</time></trkpt>
<trkpt lat="50.212506" lon="4.487733"><time>2026-05-03T07:00:59Z</time></trkpt>
<trkpt lat="50.212597" lon="4.487173"><time>2026-05-03T07:10:59Z</time></trkpt>
<trkpt lat="50.212498" lon="4.486752"><time>2026-05-03T07:20:59Z</time></trkpt>
<trkpt lat="50.212455" lon="4.485071"><time>2026-05-03T07:30:59Z</time></trkpt>
</trkseg>
</trk>
<trk>
<name>nphjl5</name>
<cmt>v</cmt>
<desc>Jamiolle Chemin n°5 </desc>
<link href="https://chemins.be/jamiolle/chemin/5"/><trkseg>
<trkpt lat="50.215001" lon="4.483802"><time>2026-05-03T05:50:59Z</time></trkpt>
<trkpt lat="50.215828" lon="4.483832"><time>2026-05-03T06:00:59Z</time></trkpt>
<trkpt lat="50.217285" lon="4.482672"><time>2026-05-03T06:10:59Z</time></trkpt>
</trkseg>
</trk>
<trk>
<name>nphjl6</name>
<cmt>v</cmt>
<desc>Jamiolle Chemin n°6 </desc>
<link href="https://chemins.be/jamiolle/chemin/6"/><trkseg>
<trkpt lat="50.204970" lon="4.498639"><time>2026-05-03T05:50:59Z</time></trkpt>
<trkpt lat="50.205050" lon="4.497785"><time>2026-05-03T06:00:59Z</time></trkpt>
<trkpt lat="50.205936" lon="4.494650"><time>2026-05-03T06:10:59Z</time></trkpt>
<trkpt lat="50.206590" lon="4.492513"><time>2026-05-03T06:20:59Z</time></trkpt>
<trkpt lat="50.207132" lon="4.489871"><time>2026-05-03T06:30:59Z</time></trkpt>
</trkseg></trk>
<trk>
<name>nphjl6</name>
<cmt>d</cmt>
<desc>Jamiolle Chemin n°6 </desc>
<link href="https://chemins.be/jamiolle/chemin/6"/><trkseg>
<trkpt lat="50.207132" lon="4.489871"><time>2026-05-03T06:30:59Z</time></trkpt>
<trkpt lat="50.207849" lon="4.487511"><time>2026-05-03T06:40:59Z</time></trkpt>
</trkseg>
</trk>
<trk>
<name>nphjl7</name>
<cmt>s</cmt>
<desc>Jamiolle Chemin n°7 </desc>
<link href="https://chemins.be/jamiolle/chemin/7"/><trkseg>
<trkpt lat="50.206803" lon="4.491319"><time>2026-05-03T05:50:59Z</time></trkpt>
<trkpt lat="50.205902" lon="4.492493"><time>2026-05-03T06:00:59Z</time></trkpt>
<trkpt lat="50.205209" lon="4.493332"><time>2026-05-03T06:10:59Z</time></trkpt>
<trkpt lat="50.203769" lon="4.494533"><time>2026-05-03T06:20:59Z</time></trkpt>
<trkpt lat="50.203310" lon="4.494840"><time>2026-05-03T06:30:59Z</time></trkpt>
</trkseg></trk>
<trk>
<name>nphjl7</name>
<cmt>v</cmt>
<desc>Jamiolle Chemin n°7 </desc>
<link href="https://chemins.be/jamiolle/chemin/7"/><trkseg>
<trkpt lat="50.203310" lon="4.494840"><time>2026-05-03T06:30:59Z</time></trkpt>
<trkpt lat="50.201744" lon="4.496670"><time>2026-05-03T06:40:59Z</time></trkpt>
<trkpt lat="50.200474" lon="4.498964"><time>2026-05-03T06:50:59Z</time></trkpt>
</trkseg>
</trk>
<trk>
<name>nphjl8</name>
<cmt>s</cmt>
<desc>Jamiolle Chemin n°8 </desc>
<link href="https://chemins.be/jamiolle/chemin/8"/><trkseg>
<trkpt lat="50.203706" lon="4.494715"><time>2026-05-03T05:50:59Z</time></trkpt>
<trkpt lat="50.204524" lon="4.494983"><time>2026-05-03T06:00:59Z</time></trkpt>
<trkpt lat="50.205747" lon="4.494608"><time>2026-05-03T06:10:59Z</time></trkpt>
</trkseg>
</trk>
<trk>
<name>nphjl9</name>
<cmt>v</cmt>
<desc>Jamiolle Chemin n°9 </desc>
<link href="https://chemins.be/jamiolle/chemin/9"/><trkseg>
<trkpt lat="50.208835" lon="4.506650"><time>2026-05-03T05:50:59Z</time></trkpt>
<trkpt lat="50.209594" lon="4.503206"><time>2026-05-03T06:00:59Z</time></trkpt>
<trkpt lat="50.209596" lon="4.501819"><time>2026-05-03T06:10:59Z</time></trkpt>
<trkpt lat="50.210265" lon="4.498781"><time>2026-05-03T06:20:59Z</time></trkpt>
<trkpt lat="50.211042" lon="4.494916"><time>2026-05-03T06:30:59Z</time></trkpt>
<trkpt lat="50.211251" lon="4.492759"><time>2026-05-03T06:40:59Z</time></trkpt>
<trkpt lat="50.211684" lon="4.491696"><time>2026-05-03T06:50:59Z</time></trkpt>
<trkpt lat="50.212941" lon="4.493198"><time>2026-05-03T07:00:59Z</time></trkpt>
</trkseg>
</trk>
<trk>
<name>nphjli1</name>
<cmt>v</cmt>
<desc>Jamiolle Sentier n°i1 </desc>
<link href="https://chemins.be/jamiolle/sentier/i1"/><trkseg>
<trkpt lat="50.212763" lon="4.500091"><time>2026-05-03T05:50:59Z</time></trkpt>
<trkpt lat="50.211010" lon="4.499315"><time>2026-05-03T06:00:59Z</time></trkpt>
<trkpt lat="50.210229" lon="4.498809"><time>2026-05-03T06:10:59Z</time></trkpt>
</trkseg>
</trk>
<trk>
<name>nphjli2</name>
<cmt>v</cmt>
<desc>Jamiolle Chemin n°i2 </desc>
<link href="https://chemins.be/jamiolle/chemin/i2"/><trkseg>
<trkpt lat="50.207303" lon="4.509615"><time>2026-05-03T05:50:59Z</time></trkpt>
<trkpt lat="50.206711" lon="4.508409"><time>2026-05-03T06:00:59Z</time></trkpt>
</trkseg>
</trk>
<trk>
<name>nphmr1</name>
<cmt>r</cmt>
<desc>Merlemont Chemin n°1 Rue des Orchdees / Rue des Tilleuls</desc>
<link href="https://chemins.be/merlemont/chemin/1"/><trkseg>
<trkpt lat="50.173748" lon="4.608909"><time>2026-05-03T05:50:59Z</time></trkpt>
<trkpt lat="50.174313" lon="4.609612"><time>2026-05-03T06:00:59Z</time></trkpt>
<trkpt lat="50.174601" lon="4.609487"><time>2026-05-03T06:10:59Z</time></trkpt>
<trkpt lat="50.176445" lon="4.613192"><time>2026-05-03T06:20:59Z</time></trkpt>
<trkpt lat="50.176891" lon="4.614847"><time>2026-05-03T06:30:59Z</time></trkpt>
</trkseg></trk>
<trk>
<name>nphmr1</name>
<cmt>s</cmt>
<desc>Merlemont Chemin n°1 Rue des Orchdees / Rue des Tilleuls</desc>
<link href="https://chemins.be/merlemont/chemin/1"/><trkseg>
<trkpt lat="50.176891" lon="4.614847"><time>2026-05-03T06:30:59Z</time></trkpt>
<trkpt lat="50.177701" lon="4.614543"><time>2026-05-03T06:40:59Z</time></trkpt>
<trkpt lat="50.178326" lon="4.616380"><time>2026-05-03T06:50:59Z</time></trkpt>
</trkseg></trk>
<trk>
<name>nphmr1</name>
<cmt>r</cmt>
<desc>Merlemont Chemin n°1 Rue des Orchdees / Rue des Tilleuls</desc>
<link href="https://chemins.be/merlemont/chemin/1"/><trkseg>
<trkpt lat="50.178326" lon="4.616380"><time>2026-05-03T06:50:59Z</time></trkpt>
<trkpt lat="50.179105" lon="4.618022"><time>2026-05-03T07:00:59Z</time></trkpt>
<trkpt lat="50.180134" lon="4.620408"><time>2026-05-03T07:10:59Z</time></trkpt>
</trkseg>
</trk>
<trk>
<name>nphmr10</name>
<cmt>v</cmt>
<desc>Merlemont Chemin n°10 </desc>
<link href="https://chemins.be/merlemont/chemin/10"/><trkseg>
<trkpt lat="50.174168" lon="4.660694"><time>2026-05-03T05:50:59Z</time></trkpt>
<trkpt lat="50.174521" lon="4.659646"><time>2026-05-03T06:00:59Z</time></trkpt>
<trkpt lat="50.174748" lon="4.658975"><time>2026-05-03T06:10:59Z</time></trkpt>
<trkpt lat="50.174687" lon="4.657995"><time>2026-05-03T06:20:59Z</time></trkpt>
<trkpt lat="50.174780" lon="4.657016"><time>2026-05-03T06:30:59Z</time></trkpt>
<trkpt lat="50.175242" lon="4.655493"><time>2026-05-03T06:40:59Z</time></trkpt>
<trkpt lat="50.175657" lon="4.655047"><time>2026-05-03T06:50:59Z</time></trkpt>
<trkpt lat="50.175652" lon="4.653325"><time>2026-05-03T07:00:59Z</time></trkpt>
<trkpt lat="50.174409" lon="4.650378"><time>2026-05-03T07:10:59Z</time></trkpt>
<trkpt lat="50.174341" lon="4.649033"><time>2026-05-03T07:20:59Z</time></trkpt>
<trkpt lat="50.174778" lon="4.646249"><time>2026-05-03T07:30:59Z</time></trkpt>
<trkpt lat="50.175724" lon="4.645626"><time>2026-05-03T07:40:59Z</time></trkpt>
<trkpt lat="50.175596" lon="4.642993"><time>2026-05-03T07:50:59Z</time></trkpt>
<trkpt lat="50.175536" lon="4.641775"><time>2026-05-03T08:00:59Z</time></trkpt>
<trkpt lat="50.175648" lon="4.640123"><time>2026-05-03T08:10:59Z</time></trkpt>
<trkpt lat="50.175363" lon="4.638834"><time>2026-05-03T08:20:59Z</time></trkpt>
<trkpt lat="50.174924" lon="4.638061"><time>2026-05-03T08:30:59Z</time></trkpt>
<trkpt lat="50.174728" lon="4.637178"><time>2026-05-03T08:40:59Z</time></trkpt>
<trkpt lat="50.174595" lon="4.636772"><time>2026-05-03T08:50:59Z</time></trkpt>
<trkpt lat="50.174461" lon="4.636001"><time>2026-05-03T09:00:59Z</time></trkpt>
</trkseg>
</trk>
<trk>
<name>nphmr11</name>
<cmt>v</cmt>
<desc>Merlemont Chemin n°11 </desc>
<link href="https://chemins.be/merlemont/chemin/11"/><trkseg>
<trkpt lat="50.170958" lon="4.614494"><time>2026-05-03T05:50:59Z</time></trkpt>
<trkpt lat="50.169996" lon="4.614293"><time>2026-05-03T06:00:59Z</time></trkpt>
<trkpt lat="50.169024" lon="4.615100"><time>2026-05-03T06:10:59Z</time></trkpt>
</trkseg>
</trk>
<trk>
<name>nphmr14</name>
<cmt>v</cmt>
<desc>Merlemont Chemin n°14 </desc>
<link href="https://chemins.be/merlemont/chemin/14"/><trkseg>
<trkpt lat="50.173667" lon="4.609020"><time>2026-05-03T05:50:59Z</time></trkpt>
<trkpt lat="50.173225" lon="4.609821"><time>2026-05-03T06:00:59Z</time></trkpt>
<trkpt lat="50.172736" lon="4.611423"><time>2026-05-03T06:10:59Z</time></trkpt>
<trkpt lat="50.172226" lon="4.614263"><time>2026-05-03T06:20:59Z</time></trkpt>
<trkpt lat="50.172200" lon="4.615052"><time>2026-05-03T06:30:59Z</time></trkpt>
</trkseg></trk>
<trk>
<name>nphmr14</name>
<cmt>b</cmt>
<desc>Merlemont Chemin n°14 </desc>
<link href="https://chemins.be/merlemont/chemin/14"/><trkseg>
<trkpt lat="50.172200" lon="4.615052"><time>2026-05-03T06:30:59Z</time></trkpt>
<trkpt lat="50.172133" lon="4.615620"><time>2026-05-03T06:40:59Z</time></trkpt>
<trkpt lat="50.172038" lon="4.618013"><time>2026-05-03T06:50:59Z</time></trkpt>
<trkpt lat="50.172160" lon="4.620100"><time>2026-05-03T07:00:59Z</time></trkpt>
<trkpt lat="50.172023" lon="4.620939"><time>2026-05-03T07:10:59Z</time></trkpt>
</trkseg>
</trk>
<trk>
<name>nphmr15</name>
<cmt>r</cmt>
<desc>Merlemont Chemin n°15 Rue des Tilleuls</desc>
<link href="https://chemins.be/merlemont/chemin/15"/><trkseg>
<trkpt lat="50.174797" lon="4.610062"><time>2026-05-03T05:50:59Z</time></trkpt>
<trkpt lat="50.174503" lon="4.613238"><time>2026-05-03T06:00:59Z</time></trkpt>
</trkseg></trk>
<trk>
<name>nphmr15</name>
<cmt>v</cmt>
<desc>Merlemont Chemin n°15 Rue des Tilleuls</desc>
<link href="https://chemins.be/merlemont/chemin/15"/><trkseg>
<trkpt lat="50.174503" lon="4.613238"><time>2026-05-03T06:00:59Z</time></trkpt>
<trkpt lat="50.174788" lon="4.614528"><time>2026-05-03T06:10:59Z</time></trkpt>
<trkpt lat="50.174625" lon="4.619343"><time>2026-05-03T06:20:59Z</time></trkpt>
<trkpt lat="50.174633" lon="4.619707"><time>2026-05-03T06:30:59Z</time></trkpt>
<trkpt lat="50.174810" lon="4.620884"><time>2026-05-03T06:40:59Z</time></trkpt>
<trkpt lat="50.175472" lon="4.622567"><time>2026-05-03T06:50:59Z</time></trkpt>
<trkpt lat="50.176344" lon="4.626520"><time>2026-05-03T07:00:59Z</time></trkpt>
<trkpt lat="50.176801" lon="4.631086"><time>2026-05-03T07:10:59Z</time></trkpt>
<trkpt lat="50.176889" lon="4.631885"><time>2026-05-03T07:20:59Z</time></trkpt>
<trkpt lat="50.176976" lon="4.633537"><time>2026-05-03T07:30:59Z</time></trkpt>
<trkpt lat="50.177472" lon="4.636536"><time>2026-05-03T07:40:59Z</time></trkpt>
<trkpt lat="50.178907" lon="4.645672"><time>2026-05-03T07:50:59Z</time></trkpt>
<trkpt lat="50.178536" lon="4.646790"><time>2026-05-03T08:00:59Z</time></trkpt>
<trkpt lat="50.179134" lon="4.648670"><time>2026-05-03T08:10:59Z</time></trkpt>
<trkpt lat="50.179293" lon="4.649693"><time>2026-05-03T08:20:59Z</time></trkpt>
<trkpt lat="50.179156" lon="4.650406"><time>2026-05-03T08:30:59Z</time></trkpt>
<trkpt lat="50.179207" lon="4.651582"><time>2026-05-03T08:40:59Z</time></trkpt>
<trkpt lat="50.179430" lon="4.652256"><time>2026-05-03T08:50:59Z</time></trkpt>
</trkseg>
</trk>
<trk>
<name>nphmr16</name>
<cmt>v</cmt>
<desc>Merlemont Chemin n°16 </desc>
<link href="https://chemins.be/merlemont/chemin/16"/><trkseg>
<trkpt lat="50.175944" lon="4.612280"><time>2026-05-03T05:50:59Z</time></trkpt>
<trkpt lat="50.176048" lon="4.613960"><time>2026-05-03T06:00:59Z</time></trkpt>
<trkpt lat="50.176714" lon="4.617800"><time>2026-05-03T06:10:59Z</time></trkpt>
</trkseg></trk>
<trk>
<name>nphmr16</name>
<cmt>d</cmt>
<desc>Merlemont Chemin n°16 </desc>
<link href="https://chemins.be/merlemont/chemin/16"/><trkseg>
<trkpt lat="50.176714" lon="4.617800"><time>2026-05-03T06:10:59Z</time></trkpt>
<trkpt lat="50.176592" lon="4.620011"><time>2026-05-03T06:20:59Z</time></trkpt>
<trkpt lat="50.177002" lon="4.621805"><time>2026-05-03T06:30:59Z</time></trkpt>
<trkpt lat="50.177224" lon="4.623010"><time>2026-05-03T06:40:59Z</time></trkpt>
<trkpt lat="50.177457" lon="4.623446"><time>2026-05-03T06:50:59Z</time></trkpt>
<trkpt lat="50.177688" lon="4.624679"><time>2026-05-03T07:00:59Z</time></trkpt>
</trkseg></trk>
<trk>
<name>nphmr16</name>
<cmt>v</cmt>
<desc>Merlemont Chemin n°16 </desc>
<link href="https://chemins.be/merlemont/chemin/16"/><trkseg>
<trkpt lat="50.177688" lon="4.624679"><time>2026-05-03T07:00:59Z</time></trkpt>
<trkpt lat="50.177758" lon="4.625337"><time>2026-05-03T07:10:59Z</time></trkpt>
<trkpt lat="50.177684" lon="4.626359"><time>2026-05-03T07:20:59Z</time></trkpt>
</trkseg>
</trk>
<trk>
<name>nphmr17</name>
<cmt>v</cmt>
<desc>Merlemont Chemin n°17 Gros Hetre</desc>
<link href="https://chemins.be/merlemont/chemin/17"/><trkseg>
<trkpt lat="50.177828" lon="4.626346"><time>2026-05-03T05:50:59Z</time></trkpt>
<trkpt lat="50.177612" lon="4.626554"><time>2026-05-03T06:00:59Z</time></trkpt>
<trkpt lat="50.177296" lon="4.626889"><time>2026-05-03T06:10:59Z</time></trkpt>
<trkpt lat="50.176469" lon="4.627066"><time>2026-05-03T06:20:59Z</time></trkpt>
</trkseg></trk>
<trk>
<name>nphmr17</name>
<cmt>d</cmt>
<desc>Merlemont Chemin n°17 Gros Hetre</desc>
<link href="https://chemins.be/merlemont/chemin/17"/><trkseg>
<trkpt lat="50.176469" lon="4.627066"><time>2026-05-03T06:20:59Z</time></trkpt>
<trkpt lat="50.175561" lon="4.627075"><time>2026-05-03T06:30:59Z</time></trkpt>
<trkpt lat="50.174471" lon="4.627825"><time>2026-05-03T06:40:59Z</time></trkpt>
</trkseg></trk>
<trk>
<name>nphmr17</name>
<cmt>b</cmt>
<desc>Merlemont Chemin n°17 Gros Hetre</desc>
<link href="https://chemins.be/merlemont/chemin/17"/><trkseg>
<trkpt lat="50.174471" lon="4.627825"><time>2026-05-03T06:40:59Z</time></trkpt>
<trkpt lat="50.173915" lon="4.627430"><time>2026-05-03T06:50:59Z</time></trkpt>
<trkpt lat="50.173311" lon="4.628141"><time>2026-05-03T07:00:59Z</time></trkpt>
<trkpt lat="50.173068" lon="4.628042"><time>2026-05-03T07:10:59Z</time></trkpt>
<trkpt lat="50.172844" lon="4.627747"><time>2026-05-03T07:20:59Z</time></trkpt>
</trkseg>
</trk>
<trk>
<name>nphmr18</name>
<cmt>v</cmt>
<desc>Merlemont Chemin n°18 </desc>
<link href="https://chemins.be/merlemont/chemin/18"/><trkseg>
<trkpt lat="50.175632" lon="4.642937"><time>2026-05-03T05:50:59Z</time></trkpt>
<trkpt lat="50.175706" lon="4.642168"><time>2026-05-03T06:00:59Z</time></trkpt>
<trkpt lat="50.175672" lon="4.641230"><time>2026-05-03T06:10:59Z</time></trkpt>
<trkpt lat="50.175673" lon="4.640852"><time>2026-05-03T06:20:59Z</time></trkpt>
<trkpt lat="50.175773" lon="4.640306"><time>2026-05-03T06:30:59Z</time></trkpt>
</trkseg></trk>
<trk>
<name>nphmr18</name>
<cmt>b</cmt>
<desc>Merlemont Chemin n°18 </desc>
<link href="https://chemins.be/merlemont/chemin/18"/><trkseg>
<trkpt lat="50.175773" lon="4.640306"><time>2026-05-03T06:30:59Z</time></trkpt>
<trkpt lat="50.175955" lon="4.639341"><time>2026-05-03T06:40:59Z</time></trkpt>
<trkpt lat="50.176109" lon="4.638894"><time>2026-05-03T06:50:59Z</time></trkpt>
<trkpt lat="50.176128" lon="4.638656"><time>2026-05-03T07:00:59Z</time></trkpt>
</trkseg></trk>
<trk>
<name>nphmr18</name>
<cmt>v</cmt>
<desc>Merlemont Chemin n°18 </desc>
<link href="https://chemins.be/merlemont/chemin/18"/><trkseg>
<trkpt lat="50.176128" lon="4.638656"><time>2026-05-03T07:00:59Z</time></trkpt>
<trkpt lat="50.176561" lon="4.637889"><time>2026-05-03T07:10:59Z</time></trkpt>
<trkpt lat="50.176976" lon="4.637205"><time>2026-05-03T07:20:59Z</time></trkpt>
<trkpt lat="50.177562" lon="4.636536"><time>2026-05-03T07:30:59Z</time></trkpt>
<trkpt lat="50.178167" lon="4.635588"><time>2026-05-03T07:40:59Z</time></trkpt>
<trkpt lat="50.178842" lon="4.635213"><time>2026-05-03T07:50:59Z</time></trkpt>
</trkseg>
</trk>
<trk>
<name>nphmr19</name>
<cmt>v</cmt>
<desc>Merlemont Chemin n°19 </desc>
<link href="https://chemins.be/merlemont/chemin/19"/><trkseg>
<trkpt lat="50.175751" lon="4.645654"><time>2026-05-03T05:50:59Z</time></trkpt>
<trkpt lat="50.176019" lon="4.646663"><time>2026-05-03T06:00:59Z</time></trkpt>
<trkpt lat="50.177162" lon="4.649596"><time>2026-05-03T06:10:59Z</time></trkpt>
</trkseg>
</trk>
<trk>
<name>nphmr19bis</name>
<cmt>b</cmt>
<desc>Merlemont Chemin n°19bis </desc>
<link href="https://chemins.be/merlemont/chemin/19bis"/><trkseg>
<trkpt lat="50.175390" lon="4.638750"><time>2026-05-03T05:50:59Z</time></trkpt>
<trkpt lat="50.175686" lon="4.639046"><time>2026-05-03T06:00:59Z</time></trkpt>
<trkpt lat="50.175812" lon="4.639032"><time>2026-05-03T06:10:59Z</time></trkpt>
<trkpt lat="50.176073" lon="4.638768"><time>2026-05-03T06:20:59Z</time></trkpt>
</trkseg>
</trk>
<trk>
<name>nphmr2</name>
<cmt>r</cmt>
<desc>Merlemont Chemin n°2 Rue du Moulignat / ?</desc>
<link href="https://chemins.be/merlemont/chemin/2"/><trkseg>
<trkpt lat="50.172632" lon="4.604955"><time>2026-05-03T05:50:59Z</time></trkpt>
<trkpt lat="50.173209" lon="4.604440"><time>2026-05-03T06:00:59Z</time></trkpt>
<trkpt lat="50.173249" lon="4.602173"><time>2026-05-03T06:10:59Z</time></trkpt>
<trkpt lat="50.173826" lon="4.601476"><time>2026-05-03T06:20:59Z</time></trkpt>
<trkpt lat="50.174512" lon="4.599939"><time>2026-05-03T06:30:59Z</time></trkpt>
</trkseg></trk>
<trk>
<name>nphmr2</name>
<cmt>v</cmt>
<desc>Merlemont Chemin n°2 Rue du Moulignat / ?</desc>
<link href="https://chemins.be/merlemont/chemin/2"/><trkseg>
<trkpt lat="50.174512" lon="4.599939"><time>2026-05-03T06:30:59Z</time></trkpt>
<trkpt lat="50.174756" lon="4.599632"><time>2026-05-03T06:40:59Z</time></trkpt>
<trkpt lat="50.175458" lon="4.599328"><time>2026-05-03T06:50:59Z</time></trkpt>
</trkseg>
</trk>
<trk>
<name>nphmr20</name>
<cmt>v</cmt>
<desc>Merlemont Chemin n°20 </desc>
<link href="https://chemins.be/merlemont/chemin/20"/><trkseg>
<trkpt lat="50.178881" lon="4.645196"><time>2026-05-03T05:50:59Z</time></trkpt>
<trkpt lat="50.179922" lon="4.646238"><time>2026-05-03T06:00:59Z</time></trkpt>
<trkpt lat="50.180595" lon="4.646760"><time>2026-05-03T06:10:59Z</time></trkpt>
<trkpt lat="50.181469" lon="4.645659"><time>2026-05-03T06:20:59Z</time></trkpt>
</trkseg>
</trk>
<trk>
<name>nphmr21</name>
<cmt>d</cmt>
<desc>Merlemont Chemin n°21 </desc>
<link href="https://chemins.be/merlemont/chemin/21"/><trkseg>
<trkpt lat="50.171050" lon="4.645375"><time>2026-05-03T05:50:59Z</time></trkpt>
<trkpt lat="50.169951" lon="4.646166"><time>2026-05-03T06:00:59Z</time></trkpt>
</trkseg>
</trk>
<trk>
<name>nphmr22</name>
<cmt>v</cmt>
<desc>Merlemont Chemin n°22 </desc>
<link href="https://chemins.be/merlemont/chemin/22"/><trkseg>
<trkpt lat="50.176227" lon="4.660398"><time>2026-05-03T05:50:59Z</time></trkpt>
<trkpt lat="50.176185" lon="4.659334"><time>2026-05-03T06:00:59Z</time></trkpt>
<trkpt lat="50.175902" lon="4.657652"><time>2026-05-03T06:10:59Z</time></trkpt>
<trkpt lat="50.175600" lon="4.656125"><time>2026-05-03T06:20:59Z</time></trkpt>
<trkpt lat="50.175602" lon="4.655159"><time>2026-05-03T06:30:59Z</time></trkpt>
</trkseg>
</trk>
<trk>
<name>nphmr24</name>
<cmt>v</cmt>
<desc>Merlemont Chemin n°24 Wez de Chine / Rue de Marmont / ?</desc>
<link href="https://chemins.be/merlemont/chemin/24"/><trkseg>
<trkpt lat="50.190709" lon="4.671929"><time>2026-05-03T05:50:59Z</time></trkpt>
<trkpt lat="50.190231" lon="4.669055"><time>2026-05-03T06:00:59Z</time></trkpt>
<trkpt lat="50.188865" lon="4.668612"><time>2026-05-03T06:10:59Z</time></trkpt>
<trkpt lat="50.187322" lon="4.667258"><time>2026-05-03T06:20:59Z</time></trkpt>
<trkpt lat="50.186473" lon="4.665530"><time>2026-05-03T06:30:59Z</time></trkpt>
<trkpt lat="50.185788" lon="4.663997"><time>2026-05-03T06:40:59Z</time></trkpt>
<trkpt lat="50.185105" lon="4.662469"><time>2026-05-03T06:50:59Z</time></trkpt>
<trkpt lat="50.184845" lon="4.662216"><time>2026-05-03T07:00:59Z</time></trkpt>
<trkpt lat="50.183667" lon="4.662418"><time>2026-05-03T07:10:59Z</time></trkpt>
<trkpt lat="50.181169" lon="4.661773"><time>2026-05-03T07:20:59Z</time></trkpt>
<trkpt lat="50.180351" lon="4.661684"><time>2026-05-03T07:30:59Z</time></trkpt>
<trkpt lat="50.179388" lon="4.661986"><time>2026-05-03T07:40:59Z</time></trkpt>
<trkpt lat="50.178750" lon="4.662052"><time>2026-05-03T07:50:59Z</time></trkpt>
<trkpt lat="50.178436" lon="4.661658"><time>2026-05-03T08:00:59Z</time></trkpt>
<trkpt lat="50.176674" lon="4.661521"><time>2026-05-03T08:10:59Z</time></trkpt>
</trkseg></trk>
<trk>
<name>nphmr24</name>
<cmt>r</cmt>
<desc>Merlemont Chemin n°24 Wez de Chine / Rue de Marmont / ?</desc>
<link href="https://chemins.be/merlemont/chemin/24"/><trkseg>
<trkpt lat="50.176674" lon="4.661521"><time>2026-05-03T08:10:59Z</time></trkpt>
<trkpt lat="50.176236" lon="4.660510"><time>2026-05-03T08:20:59Z</time></trkpt>
<trkpt lat="50.175707" lon="4.659989"><time>2026-05-03T08:30:59Z</time></trkpt>
<trkpt lat="50.175195" lon="4.659748"><time>2026-05-03T08:40:59Z</time></trkpt>
</trkseg></trk>
<trk>
<name>nphmr24</name>
<cmt>d</cmt>
<desc>Merlemont Chemin n°24 Wez de Chine / Rue de Marmont / ?</desc>
<link href="https://chemins.be/merlemont/chemin/24"/><trkseg>
<trkpt lat="50.175195" lon="4.659748"><time>2026-05-03T08:40:59Z</time></trkpt>
<trkpt lat="50.174698" lon="4.660809"><time>2026-05-03T08:50:59Z</time></trkpt>
<trkpt lat="50.174195" lon="4.660778"><time>2026-05-03T09:00:59Z</time></trkpt>
<trkpt lat="50.173350" lon="4.660717"><time>2026-05-03T09:10:59Z</time></trkpt>
<trkpt lat="50.172963" lon="4.660658"><time>2026-05-03T09:20:59Z</time></trkpt>
</trkseg>
</trk>
<trk>
<name>nphmr25</name>
<cmt>r</cmt>
<desc>Merlemont Chemin n°25 </desc>
<link href="https://chemins.be/merlemont/chemin/25"/><trkseg>
<trkpt lat="50.176656" lon="4.661479"><time>2026-05-03T05:50:59Z</time></trkpt>
<trkpt lat="50.176539" lon="4.661814"><time>2026-05-03T06:00:59Z</time></trkpt>
</trkseg>
</trk>
<trk>
<name>nphmr27</name>
<cmt>v</cmt>
<desc>Merlemont Chemin n°27 </desc>
<link href="https://chemins.be/merlemont/chemin/27"/><trkseg>
<trkpt lat="50.190231" lon="4.669055"><time>2026-05-03T05:50:59Z</time></trkpt>
<trkpt lat="50.191008" lon="4.667309"><time>2026-05-03T06:00:59Z</time></trkpt>
<trkpt lat="50.190829" lon="4.660306"><time>2026-05-03T06:10:59Z</time></trkpt>
</trkseg>
</trk>
<trk>
<name>nphmr28</name>
<cmt>d</cmt>
<desc>Merlemont Chemin n°28 </desc>
<link href="https://chemins.be/merlemont/chemin/28"/><trkseg>
<trkpt lat="50.191075" lon="4.666049"><time>2026-05-03T05:50:59Z</time></trkpt>
<trkpt lat="50.192337" lon="4.661099"><time>2026-05-03T06:00:59Z</time></trkpt>
</trkseg>
</trk>
<trk>
<name>nphmr29</name>
<cmt>v</cmt>
<desc>Merlemont Chemin n°29 </desc>
<link href="https://chemins.be/merlemont/chemin/29"/><trkseg>
<trkpt lat="50.161284" lon="4.664282"><time>2026-05-03T05:50:59Z</time></trkpt>
<trkpt lat="50.160712" lon="4.663032"><time>2026-05-03T06:00:59Z</time></trkpt>
<trkpt lat="50.158501" lon="4.655392"><time>2026-05-03T06:10:59Z</time></trkpt>
<trkpt lat="50.158354" lon="4.653166"><time>2026-05-03T06:20:59Z</time></trkpt>
<trkpt lat="50.158079" lon="4.651793"><time>2026-05-03T06:30:59Z</time></trkpt>
<trkpt lat="50.157945" lon="4.647691"><time>2026-05-03T06:40:59Z</time></trkpt>
<trkpt lat="50.158137" lon="4.642599"><time>2026-05-03T06:50:59Z</time></trkpt>
<trkpt lat="50.158103" lon="4.641969"><time>2026-05-03T07:00:59Z</time></trkpt>
</trkseg>
</trk>
<trk>
<name>nphmr30</name>
<cmt>r</cmt>
<desc>Merlemont Chemin n°30 Rue des Corneilles</desc>
<link href="https://chemins.be/merlemont/chemin/30"/><trkseg>
<trkpt lat="50.172041" lon="4.604071"><time>2026-05-03T05:50:59Z</time></trkpt>
<trkpt lat="50.172022" lon="4.604379"><time>2026-05-03T06:00:59Z</time></trkpt>
<trkpt lat="50.172174" lon="4.604925"><time>2026-05-03T06:10:59Z</time></trkpt>
</trkseg>
</trk>
<trk>
<name>nphmr32</name>
<cmt>s</cmt>
<desc>Merlemont Sentier n°32 </desc>
<link href="https://chemins.be/merlemont/sentier/32"/><trkseg>
<trkpt lat="50.172728" lon="4.606524"><time>2026-05-03T05:50:59Z</time></trkpt>
<trkpt lat="50.172923" lon="4.607925"><time>2026-05-03T06:00:59Z</time></trkpt>
</trkseg>
</trk>
<trk>
<name>nphmr33</name>
<cmt>v</cmt>
<desc>Merlemont Sentier n°33 </desc>
<link href="https://chemins.be/merlemont/sentier/33"/><trkseg>
<trkpt lat="50.173624" lon="4.608012"><time>2026-05-03T05:50:59Z</time></trkpt>
<trkpt lat="50.173336" lon="4.608235"><time>2026-05-03T06:00:59Z</time></trkpt>
</trkseg>
</trk>
<trk>
<name>nphmr34</name>
<cmt>d</cmt>
<desc>Merlemont Sentier n°34 </desc>
<link href="https://chemins.be/merlemont/sentier/34"/><trkseg>
<trkpt lat="50.174138" lon="4.593778"><time>2026-05-03T05:50:59Z</time></trkpt>
<trkpt lat="50.174261" lon="4.595164"><time>2026-05-03T06:00:59Z</time></trkpt>
<trkpt lat="50.174403" lon="4.596019"><time>2026-05-03T06:10:59Z</time></trkpt>
</trkseg></trk>
<trk>
<name>nphmr34</name>
<cmt>v</cmt>
<desc>Merlemont Sentier n°34 </desc>
<link href="https://chemins.be/merlemont/sentier/34"/><trkseg>
<trkpt lat="50.174403" lon="4.596019"><time>2026-05-03T06:10:59Z</time></trkpt>
<trkpt lat="50.174813" lon="4.597799"><time>2026-05-03T06:20:59Z</time></trkpt>
<trkpt lat="50.175062" lon="4.599186"><time>2026-05-03T06:30:59Z</time></trkpt>
</trkseg></trk>
<trk>
<name>nphmr34</name>
<cmt>d</cmt>
<desc>Merlemont Sentier n°34 </desc>
<link href="https://chemins.be/merlemont/sentier/34"/><trkseg>
<trkpt lat="50.175062" lon="4.599186"><time>2026-05-03T06:30:59Z</time></trkpt>
<trkpt lat="50.174711" lon="4.599520"><time>2026-05-03T06:40:59Z</time></trkpt>
</trkseg>
</trk>
<trk>
<name>nphmr35</name>
<cmt>d</cmt>
<desc>Merlemont Sentier n°35 </desc>
<link href="https://chemins.be/merlemont/sentier/35"/><trkseg>
<trkpt lat="50.174826" lon="4.609502"><time>2026-05-03T05:50:59Z</time></trkpt>
<trkpt lat="50.174604" lon="4.608143"><time>2026-05-03T06:00:59Z</time></trkpt>
<trkpt lat="50.174086" lon="4.606069"><time>2026-05-03T06:10:59Z</time></trkpt>
<trkpt lat="50.173711" lon="4.604975"><time>2026-05-03T06:20:59Z</time></trkpt>
<trkpt lat="50.173812" lon="4.603939"><time>2026-05-03T06:30:59Z</time></trkpt>
<trkpt lat="50.173553" lon="4.602902"><time>2026-05-03T06:40:59Z</time></trkpt>
<trkpt lat="50.173619" lon="4.601811"><time>2026-05-03T06:50:59Z</time></trkpt>
</trkseg>
</trk>
<trk>
<name>nphmr36</name>
<cmt>d</cmt>
<desc>Merlemont Sentier n°36 </desc>
<link href="https://chemins.be/merlemont/sentier/36"/><trkseg>
<trkpt lat="50.174127" lon="4.608015"><time>2026-05-03T05:50:59Z</time></trkpt>
<trkpt lat="50.174604" lon="4.608171"><time>2026-05-03T06:00:59Z</time></trkpt>
<trkpt lat="50.175117" lon="4.607880"><time>2026-05-03T06:10:59Z</time></trkpt>
<trkpt lat="50.175603" lon="4.607364"><time>2026-05-03T06:20:59Z</time></trkpt>
</trkseg>
</trk>
<trk>
<name>nphmr37</name>
<cmt>v</cmt>
<desc>Merlemont Sentier n°37 </desc>
<link href="https://chemins.be/merlemont/sentier/37"/><trkseg>
<trkpt lat="50.174691" lon="4.609375"><time>2026-05-03T05:50:59Z</time></trkpt>
<trkpt lat="50.175059" lon="4.609405"><time>2026-05-03T06:00:59Z</time></trkpt>
<trkpt lat="50.175474" lon="4.609141"><time>2026-05-03T06:10:59Z</time></trkpt>
<trkpt lat="50.175630" lon="4.607420"><time>2026-05-03T06:20:59Z</time></trkpt>
<trkpt lat="50.175828" lon="4.607127"><time>2026-05-03T06:30:59Z</time></trkpt>
<trkpt lat="50.176683" lon="4.606810"><time>2026-05-03T06:40:59Z</time></trkpt>
<trkpt lat="50.177547" lon="4.606492"><time>2026-05-03T06:50:59Z</time></trkpt>
<trkpt lat="50.177997" lon="4.606074"><time>2026-05-03T07:00:59Z</time></trkpt>
<trkpt lat="50.178762" lon="4.605868"><time>2026-05-03T07:10:59Z</time></trkpt>
<trkpt lat="50.179006" lon="4.605169"><time>2026-05-03T07:20:59Z</time></trkpt>
<trkpt lat="50.179455" lon="4.605605"><time>2026-05-03T07:30:59Z</time></trkpt>
</trkseg>
</trk>
<trk>
<name>nphmr38</name>
<cmt>v</cmt>
<desc>Merlemont Sentier n°38 Place Saint-Nicolas</desc>
<link href="https://chemins.be/merlemont/sentier/38"/><trkseg>
<trkpt lat="50.172529" lon="4.607293"><time>2026-05-03T05:50:59Z</time></trkpt>
<trkpt lat="50.172179" lon="4.606759"><time>2026-05-03T06:00:59Z</time></trkpt>
</trkseg></trk>
<trk>
<name>nphmr38</name>
<cmt>s</cmt>
<desc>Merlemont Sentier n°38 Place Saint-Nicolas</desc>
<link href="https://chemins.be/merlemont/sentier/38"/><trkseg>
<trkpt lat="50.172179" lon="4.606759"><time>2026-05-03T06:00:59Z</time></trkpt>
<trkpt lat="50.171714" lon="4.605441"><time>2026-05-03T06:10:59Z</time></trkpt>
<trkpt lat="50.171625" lon="4.604922"><time>2026-05-03T06:20:59Z</time></trkpt>
<trkpt lat="50.171338" lon="4.604599"><time>2026-05-03T06:30:59Z</time></trkpt>
<trkpt lat="50.171077" lon="4.604948"><time>2026-05-03T06:40:59Z</time></trkpt>
<trkpt lat="50.170736" lon="4.604736"><time>2026-05-03T06:50:59Z</time></trkpt>
</trkseg>
</trk>
<trk>
<name>nphmr39</name>
<cmt>s</cmt>
<desc>Merlemont Sentier n°39 </desc>
<link href="https://chemins.be/merlemont/sentier/39"/><trkseg>
<trkpt lat="50.172197" lon="4.606745"><time>2026-05-03T05:50:59Z</time></trkpt>
<trkpt lat="50.171073" lon="4.606991"><time>2026-05-03T06:00:59Z</time></trkpt>
<trkpt lat="50.171072" lon="4.607215"><time>2026-05-03T06:10:59Z</time></trkpt>
<trkpt lat="50.170980" lon="4.608195"><time>2026-05-03T06:20:59Z</time></trkpt>
<trkpt lat="50.170899" lon="4.608348"><time>2026-05-03T06:30:59Z</time></trkpt>
<trkpt lat="50.170800" lon="4.608642"><time>2026-05-03T06:40:59Z</time></trkpt>
</trkseg>
</trk>
<trk>
<name>nphmr40</name>
<cmt>s</cmt>
<desc>Merlemont Sentier n°40 </desc>
<link href="https://chemins.be/merlemont/sentier/40"/><trkseg>
<trkpt lat="50.170134" lon="4.608918"><time>2026-05-03T05:50:59Z</time></trkpt>
<trkpt lat="50.169010" lon="4.609011"><time>2026-05-03T06:00:59Z</time></trkpt>
<trkpt lat="50.166742" lon="4.609839"><time>2026-05-03T06:10:59Z</time></trkpt>
<trkpt lat="50.165392" lon="4.610616"><time>2026-05-03T06:20:59Z</time></trkpt>
<trkpt lat="50.163945" lon="4.610609"><time>2026-05-03T06:30:59Z</time></trkpt>
</trkseg>
</trk>
<trk>
<name>nphmr41</name>
<cmt>s</cmt>
<desc>Merlemont Sentier n°41 </desc>
<link href="https://chemins.be/merlemont/sentier/41"/><trkseg>
<trkpt lat="50.162528" lon="4.599909"><time>2026-05-03T05:50:59Z</time></trkpt>
<trkpt lat="50.162430" lon="4.599363"><time>2026-05-03T06:00:59Z</time></trkpt>
<trkpt lat="50.162199" lon="4.597864"><time>2026-05-03T06:10:59Z</time></trkpt>
<trkpt lat="50.162327" lon="4.596941"><time>2026-05-03T06:20:59Z</time></trkpt>
<trkpt lat="50.162492" lon="4.595654"><time>2026-05-03T06:30:59Z</time></trkpt>
</trkseg>
</trk>
<trk>
<name>nphmr42</name>
<cmt>d</cmt>
<desc>Merlemont Sentier n°42 </desc>
<link href="https://chemins.be/merlemont/sentier/42"/><trkseg>
<trkpt lat="50.178234" lon="4.629750"><time>2026-05-03T05:50:59Z</time></trkpt>
<trkpt lat="50.177678" lon="4.629173"><time>2026-05-03T06:00:59Z</time></trkpt>
<trkpt lat="50.176522" lon="4.627515"><time>2026-05-03T06:10:59Z</time></trkpt>
<trkpt lat="50.176082" lon="4.627078"><time>2026-05-03T06:20:59Z</time></trkpt>
<trkpt lat="50.175633" lon="4.626768"><time>2026-05-03T06:30:59Z</time></trkpt>
<trkpt lat="50.174645" lon="4.626454"><time>2026-05-03T06:40:59Z</time></trkpt>
</trkseg></trk>
<trk>
<name>nphmr42</name>
<cmt>b</cmt>
<desc>Merlemont Sentier n°42 </desc>
<link href="https://chemins.be/merlemont/sentier/42"/><trkseg>
<trkpt lat="50.174645" lon="4.626454"><time>2026-05-03T06:40:59Z</time></trkpt>
<trkpt lat="50.173756" lon="4.625876"><time>2026-05-03T06:50:59Z</time></trkpt>
</trkseg>
</trk>
<trk>
<name>nphmr43</name>
<cmt>b</cmt>
<desc>Merlemont Sentier n°43 </desc>
<link href="https://chemins.be/merlemont/sentier/43"/><trkseg>
<trkpt lat="50.173818" lon="4.634443"><time>2026-05-03T05:50:59Z</time></trkpt>
<trkpt lat="50.173620" lon="4.634330"><time>2026-05-03T06:00:59Z</time></trkpt>
<trkpt lat="50.173333" lon="4.634133"><time>2026-05-03T06:10:59Z</time></trkpt>
<trkpt lat="50.173055" lon="4.633725"><time>2026-05-03T06:20:59Z</time></trkpt>
</trkseg>
</trk>
<trk>
<name>nphmr44</name>
<cmt>b</cmt>
<desc>Merlemont Sentier n°44 </desc>
<link href="https://chemins.be/merlemont/sentier/44"/><trkseg>
<trkpt lat="50.174515" lon="4.636099"><time>2026-05-03T05:50:59Z</time></trkpt>
<trkpt lat="50.175467" lon="4.636665"><time>2026-05-03T06:00:59Z</time></trkpt>
<trkpt lat="50.177112" lon="4.636828"><time>2026-05-03T06:10:59Z</time></trkpt>
</trkseg>
</trk>
<trk>
<name>nphmr45</name>
<cmt>d</cmt>
<desc>Merlemont Sentier n°45 </desc>
<link href="https://chemins.be/merlemont/sentier/45"/><trkseg>
<trkpt lat="50.175328" lon="4.645805"><time>2026-05-03T05:50:59Z</time></trkpt>
<trkpt lat="50.174976" lon="4.642905"><time>2026-05-03T06:00:59Z</time></trkpt>
<trkpt lat="50.174608" lon="4.642665"><time>2026-05-03T06:10:59Z</time></trkpt>
<trkpt lat="50.174205" lon="4.641893"><time>2026-05-03T06:20:59Z</time></trkpt>
<trkpt lat="50.173678" lon="4.640462"><time>2026-05-03T06:30:59Z</time></trkpt>
<trkpt lat="50.173294" lon="4.639130"><time>2026-05-03T06:40:59Z</time></trkpt>
<trkpt lat="50.173116" lon="4.638569"><time>2026-05-03T06:50:59Z</time></trkpt>
<trkpt lat="50.173019" lon="4.633767"><time>2026-05-03T07:00:59Z</time></trkpt>
</trkseg>
</trk>
<trk>
<name>nphmr46</name>
<cmt>d</cmt>
<desc>Merlemont Sentier n°46 </desc>
<link href="https://chemins.be/merlemont/sentier/46"/><trkseg>
<trkpt lat="50.176675" lon="4.661115"><time>2026-05-03T05:50:59Z</time></trkpt>
<trkpt lat="50.177236" lon="4.659873"><time>2026-05-03T06:00:59Z</time></trkpt>
<trkpt lat="50.177437" lon="4.658684"><time>2026-05-03T06:10:59Z</time></trkpt>
<trkpt lat="50.178053" lon="4.656574"><time>2026-05-03T06:20:59Z</time></trkpt>
<trkpt lat="50.177724" lon="4.654990"><time>2026-05-03T06:30:59Z</time></trkpt>
<trkpt lat="50.176884" lon="4.653010"><time>2026-05-03T06:40:59Z</time></trkpt>
<trkpt lat="50.176394" lon="4.651258"><time>2026-05-03T06:50:59Z</time></trkpt>
<trkpt lat="50.176638" lon="4.650825"><time>2026-05-03T07:00:59Z</time></trkpt>
<trkpt lat="50.176523" lon="4.650110"><time>2026-05-03T07:10:59Z</time></trkpt>
<trkpt lat="50.175929" lon="4.646565"><time>2026-05-03T07:20:59Z</time></trkpt>
</trkseg>
</trk>
<trk>
<name>nphmr47</name>
<cmt>v</cmt>
<desc>Merlemont Sentier n°47 </desc>
<link href="https://chemins.be/merlemont/sentier/47"/><trkseg>
<trkpt lat="50.179529" lon="4.652452"><time>2026-05-03T05:50:59Z</time></trkpt>
<trkpt lat="50.179606" lon="4.654189"><time>2026-05-03T06:00:59Z</time></trkpt>
<trkpt lat="50.179713" lon="4.654301"><time>2026-05-03T06:10:59Z</time></trkpt>
</trkseg></trk>
<trk>
<name>nphmr47</name>
<cmt>d</cmt>
<desc>Merlemont Sentier n°47 </desc>
<link href="https://chemins.be/merlemont/sentier/47"/><trkseg>
<trkpt lat="50.179713" lon="4.654301"><time>2026-05-03T06:10:59Z</time></trkpt>
<trkpt lat="50.179122" lon="4.656874"><time>2026-05-03T06:20:59Z</time></trkpt>
<trkpt lat="50.178611" lon="4.659825"><time>2026-05-03T06:30:59Z</time></trkpt>
<trkpt lat="50.178700" lon="4.660470"><time>2026-05-03T06:40:59Z</time></trkpt>
<trkpt lat="50.178454" lon="4.661742"><time>2026-05-03T06:50:59Z</time></trkpt>
</trkseg>
</trk>
<trk>
<name>nphmr48</name>
<cmt>v</cmt>
<desc>Merlemont Sentier n°48 </desc>
<link href="https://chemins.be/merlemont/sentier/48"/><trkseg>
<trkpt lat="50.179520" lon="4.652368"><time>2026-05-03T05:50:59Z</time></trkpt>
<trkpt lat="50.180104" lon="4.652428"><time>2026-05-03T06:00:59Z</time></trkpt>
<trkpt lat="50.180689" lon="4.652249"><time>2026-05-03T06:10:59Z</time></trkpt>
<trkpt lat="50.181974" lon="4.652747"><time>2026-05-03T06:20:59Z</time></trkpt>
<trkpt lat="50.182154" lon="4.652412"><time>2026-05-03T06:30:59Z</time></trkpt>
<trkpt lat="50.182238" lon="4.651250"><time>2026-05-03T06:40:59Z</time></trkpt>
<trkpt lat="50.182295" lon="4.650144"><time>2026-05-03T06:50:59Z</time></trkpt>
<trkpt lat="50.182459" lon="4.649291"><time>2026-05-03T07:00:59Z</time></trkpt>
<trkpt lat="50.182964" lon="4.648412"><time>2026-05-03T07:10:59Z</time></trkpt>
</trkseg>
</trk>
<trk>
<name>nphmr49</name>
<cmt>d</cmt>
<desc>Merlemont Sentier n°49 </desc>
<link href="https://chemins.be/merlemont/sentier/49"/><trkseg>
<trkpt lat="50.190845" lon="4.667784"><time>2026-05-03T05:50:59Z</time></trkpt>
<trkpt lat="50.190768" lon="4.666467"><time>2026-05-03T06:00:59Z</time></trkpt>
<trkpt lat="50.190591" lon="4.665416"><time>2026-05-03T06:10:59Z</time></trkpt>
<trkpt lat="50.190237" lon="4.663005"><time>2026-05-03T06:20:59Z</time></trkpt>
<trkpt lat="50.189882" lon="4.661350"><time>2026-05-03T06:30:59Z</time></trkpt>
</trkseg>
</trk>
<trk>
<name>nphmr6</name>
<cmt>r</cmt>
<desc>Merlemont Chemin n°6 Rue Tienne Wérichet / Rue Moriachamps / ?</desc>
<link href="https://chemins.be/merlemont/chemin/6"/><trkseg>
<trkpt lat="50.164007" lon="4.602309"><time>2026-05-03T05:50:59Z</time></trkpt>
<trkpt lat="50.164520" lon="4.601934"><time>2026-05-03T06:00:59Z</time></trkpt>
</trkseg></trk>
<trk>
<name>nphmr6</name>
<cmt>v</cmt>
<desc>Merlemont Chemin n°6 Rue Tienne Wérichet / Rue Moriachamps / ?</desc>
<link href="https://chemins.be/merlemont/chemin/6"/><trkseg>
<trkpt lat="50.164520" lon="4.601934"><time>2026-05-03T06:00:59Z</time></trkpt>
<trkpt lat="50.165447" lon="4.601281"><time>2026-05-03T06:10:59Z</time></trkpt>
<trkpt lat="50.165744" lon="4.601156"><time>2026-05-03T06:20:59Z</time></trkpt>
<trkpt lat="50.166472" lon="4.601132"><time>2026-05-03T06:30:59Z</time></trkpt>
</trkseg></trk>
<trk>
<name>nphmr6</name>
<cmt>d</cmt>
<desc>Merlemont Chemin n°6 Rue Tienne Wérichet / Rue Moriachamps / ?</desc>
<link href="https://chemins.be/merlemont/chemin/6"/><trkseg>
<trkpt lat="50.166472" lon="4.601132"><time>2026-05-03T06:30:59Z</time></trkpt>
<trkpt lat="50.167237" lon="4.601065"><time>2026-05-03T06:40:59Z</time></trkpt>
</trkseg></trk>
<trk>
<name>nphmr6</name>
<cmt>v</cmt>
<desc>Merlemont Chemin n°6 Rue Tienne Wérichet / Rue Moriachamps / ?</desc>
<link href="https://chemins.be/merlemont/chemin/6"/><trkseg>
<trkpt lat="50.167237" lon="4.601065"><time>2026-05-03T06:40:59Z</time></trkpt>
<trkpt lat="50.168082" lon="4.601000"><time>2026-05-03T06:50:59Z</time></trkpt>
</trkseg></trk>
<trk>
<name>nphmr6</name>
<cmt>r</cmt>
<desc>Merlemont Chemin n°6 Rue Tienne Wérichet / Rue Moriachamps / ?</desc>
<link href="https://chemins.be/merlemont/chemin/6"/><trkseg>
<trkpt lat="50.168082" lon="4.601000"><time>2026-05-03T06:50:59Z</time></trkpt>
<trkpt lat="50.168523" lon="4.601002"><time>2026-05-03T07:00:59Z</time></trkpt>
<trkpt lat="50.168802" lon="4.600709"><time>2026-05-03T07:10:59Z</time></trkpt>
<trkpt lat="50.168850" lon="4.599198"><time>2026-05-03T07:20:59Z</time></trkpt>
</trkseg></trk>
<trk>
<name>nphmr6</name>
<cmt>v</cmt>
<desc>Merlemont Chemin n°6 Rue Tienne Wérichet / Rue Moriachamps / ?</desc>
<link href="https://chemins.be/merlemont/chemin/6"/><trkseg>
<trkpt lat="50.168850" lon="4.599198"><time>2026-05-03T07:20:59Z</time></trkpt>
<trkpt lat="50.168924" lon="4.598302"><time>2026-05-03T07:30:59Z</time></trkpt>
<trkpt lat="50.169087" lon="4.597379"><time>2026-05-03T07:40:59Z</time></trkpt>
<trkpt lat="50.169154" lon="4.595546"><time>2026-05-03T07:50:59Z</time></trkpt>
</trkseg>
</trk>
<trk>
<name>nphmr8</name>
<cmt>v</cmt>
<desc>Merlemont Chemin n°8 </desc>
<link href="https://chemins.be/merlemont/chemin/8"/><trkseg>
<trkpt lat="50.162607" lon="4.600735"><time>2026-05-03T05:50:59Z</time></trkpt>
<trkpt lat="50.162834" lon="4.599812"><time>2026-05-03T06:00:59Z</time></trkpt>
<trkpt lat="50.162538" lon="4.599573"><time>2026-05-03T06:10:59Z</time></trkpt>
<trkpt lat="50.161918" lon="4.599108"><time>2026-05-03T06:20:59Z</time></trkpt>
</trkseg></trk>
<trk>
<name>nphmr8</name>
<cmt>d</cmt>
<desc>Merlemont Chemin n°8 </desc>
<link href="https://chemins.be/merlemont/chemin/8"/><trkseg>
<trkpt lat="50.161918" lon="4.599108"><time>2026-05-03T06:20:59Z</time></trkpt>
<trkpt lat="50.160868" lon="4.598235"><time>2026-05-03T06:30:59Z</time></trkpt>
</trkseg>
</trk>
<trk>
<name>nphmr9</name>
<cmt>v</cmt>
<desc>Merlemont Chemin n°9 </desc>
<link href="https://chemins.be/merlemont/chemin/9"/><trkseg>
<trkpt lat="50.160868" lon="4.598053"><time>2026-05-03T05:50:59Z</time></trkpt>
<trkpt lat="50.161355" lon="4.597664"><time>2026-05-03T06:00:59Z</time></trkpt>
<trkpt lat="50.161913" lon="4.597023"><time>2026-05-03T06:10:59Z</time></trkpt>
</trkseg></trk>
<trk>
<name>nphmr9</name>
<cmt>d</cmt>
<desc>Merlemont Chemin n°9 </desc>
<link href="https://chemins.be/merlemont/chemin/9"/><trkseg>
<trkpt lat="50.161913" lon="4.597023"><time>2026-05-03T06:10:59Z</time></trkpt>
<trkpt lat="50.162573" lon="4.595360"><time>2026-05-03T06:20:59Z</time></trkpt>
<trkpt lat="50.163880" lon="4.593407"><time>2026-05-03T06:30:59Z</time></trkpt>
<trkpt lat="50.163945" lon="4.592624"><time>2026-05-03T06:40:59Z</time></trkpt>
</trkseg>
</trk>
<trk>
<name>nphmri1</name>
<cmt>v</cmt>
<desc>Merlemont Sentier n°i1 </desc>
<link href="https://chemins.be/merlemont/sentier/i1"/><trkseg>
<trkpt lat="50.175492" lon="4.609086"><time>2026-05-03T05:50:59Z</time></trkpt>
<trkpt lat="50.175590" lon="4.609310"><time>2026-05-03T06:00:59Z</time></trkpt>
</trkseg>
</trk>
<trk>
<name>nphmri2</name>
<cmt>r</cmt>
<desc>Merlemont Chemin n°i2 Rue du Moulignat</desc>
<link href="https://chemins.be/merlemont/chemin/i2"/><trkseg>
<trkpt lat="50.176776" lon="4.602037"><time>2026-05-03T05:50:59Z</time></trkpt>
<trkpt lat="50.176476" lon="4.602076"><time>2026-05-03T06:00:59Z</time></trkpt>
<trkpt lat="50.176295" lon="4.602570"><time>2026-05-03T06:10:59Z</time></trkpt>
<trkpt lat="50.176029" lon="4.602942"><time>2026-05-03T06:20:59Z</time></trkpt>
<trkpt lat="50.175759" lon="4.602859"><time>2026-05-03T06:30:59Z</time></trkpt>
<trkpt lat="50.175426" lon="4.601497"><time>2026-05-03T06:40:59Z</time></trkpt>
<trkpt lat="50.174872" lon="4.600053"><time>2026-05-03T06:50:59Z</time></trkpt>
<trkpt lat="50.174674" lon="4.600038"><time>2026-05-03T07:00:59Z</time></trkpt>
</trkseg>
</trk>
<trk>
<name>nphmri3</name>
<cmt>v</cmt>
<desc>Merlemont Chemin n°i3 </desc>
<link href="https://chemins.be/merlemont/chemin/i3"/><trkseg>
<trkpt lat="50.176213" lon="4.602831"><time>2026-05-03T05:50:59Z</time></trkpt>
<trkpt lat="50.176844" lon="4.603086"><time>2026-05-03T06:00:59Z</time></trkpt>
<trkpt lat="50.176941" lon="4.603815"><time>2026-05-03T06:10:59Z</time></trkpt>
</trkseg>
</trk>
<trk>
<name>nphmri4</name>
<cmt>q</cmt>
<desc>Merlemont Chemin n°i4 </desc>
<link href="https://chemins.be/merlemont/chemin/i4"/><trkseg>
<trkpt lat="50.169298" lon="4.595560"><time>2026-05-03T05:50:59Z</time></trkpt>
<trkpt lat="50.170007" lon="4.596124"><time>2026-05-03T06:00:59Z</time></trkpt>
<trkpt lat="50.170573" lon="4.596098"><time>2026-05-03T06:10:59Z</time></trkpt>
<trkpt lat="50.171734" lon="4.595474"><time>2026-05-03T06:20:59Z</time></trkpt>
<trkpt lat="50.172338" lon="4.594875"><time>2026-05-03T06:30:59Z</time></trkpt>
<trkpt lat="50.173256" lon="4.594179"><time>2026-05-03T06:40:59Z</time></trkpt>
<trkpt lat="50.173661" lon="4.594307"><time>2026-05-03T06:50:59Z</time></trkpt>
<trkpt lat="50.173812" lon="4.594798"><time>2026-05-03T07:00:59Z</time></trkpt>
<trkpt lat="50.174323" lon="4.595878"><time>2026-05-03T07:10:59Z</time></trkpt>
</trkseg>
</trk>
<trk>
<name>nphmri5</name>
<cmt>v</cmt>
<desc>Merlemont Chemin n°i5 </desc>
<link href="https://chemins.be/merlemont/chemin/i5"/><trkseg>
<trkpt lat="50.175792" lon="4.602815"><time>2026-05-03T05:50:59Z</time></trkpt>
<trkpt lat="50.175875" lon="4.603959"><time>2026-05-03T06:00:59Z</time></trkpt>
<trkpt lat="50.176020" lon="4.605966"><time>2026-05-03T06:10:59Z</time></trkpt>
<trkpt lat="50.175937" lon="4.607016"><time>2026-05-03T06:20:59Z</time></trkpt>
</trkseg>
</trk>
<trk>
<name>nphmrL138A</name>
<cmt>v</cmt>
<desc>Merlemont Chemin n°L138A Tronçon de la ligne L138A à Merlemont / Ligne 138A</desc>
<link href="https://chemins.be/merlemont/chemin/L138A"/><trkseg>
<trkpt lat="50.179974" lon="4.611152"><time>2026-05-03T05:50:59Z</time></trkpt>
<trkpt lat="50.178377" lon="4.609394"><time>2026-05-03T06:00:59Z</time></trkpt>
<trkpt lat="50.177335" lon="4.609123"><time>2026-05-03T06:10:59Z</time></trkpt>
<trkpt lat="50.176417" lon="4.609244"><time>2026-05-03T06:20:59Z</time></trkpt>
<trkpt lat="50.175599" lon="4.609366"><time>2026-05-03T06:30:59Z</time></trkpt>
<trkpt lat="50.174852" lon="4.609768"><time>2026-05-03T06:40:59Z</time></trkpt>
<trkpt lat="50.173997" lon="4.610521"><time>2026-05-03T06:50:59Z</time></trkpt>
<trkpt lat="50.173349" lon="4.611433"><time>2026-05-03T07:00:59Z</time></trkpt>
<trkpt lat="50.173039" lon="4.612419"><time>2026-05-03T07:10:59Z</time></trkpt>
<trkpt lat="50.172378" lon="4.614711"><time>2026-05-03T07:20:59Z</time></trkpt>
<trkpt lat="50.172281" lon="4.618056"><time>2026-05-03T07:30:59Z</time></trkpt>
<trkpt lat="50.172304" lon="4.620044"><time>2026-05-03T07:40:59Z</time></trkpt>
</trkseg></trk>
<trk>
<name>nphmrL138A</name>
<cmt>b</cmt>
<desc>Merlemont Chemin n°L138A Tronçon de la ligne L138A à Merlemont / Ligne 138A</desc>
<link href="https://chemins.be/merlemont/chemin/L138A"/><trkseg>
<trkpt lat="50.172304" lon="4.620044"><time>2026-05-03T07:40:59Z</time></trkpt>
<trkpt lat="50.172309" lon="4.621934"><time>2026-05-03T07:50:59Z</time></trkpt>
<trkpt lat="50.172348" lon="4.624538"><time>2026-05-03T08:00:59Z</time></trkpt>
<trkpt lat="50.172415" lon="4.626736"><time>2026-05-03T08:10:59Z</time></trkpt>
</trkseg></trk>
<trk>
<name>nphmrL138A</name>
<cmt>d</cmt>
<desc>Merlemont Chemin n°L138A Tronçon de la ligne L138A à Merlemont / Ligne 138A</desc>
<link href="https://chemins.be/merlemont/chemin/L138A"/><trkseg>
<trkpt lat="50.172415" lon="4.626736"><time>2026-05-03T08:10:59Z</time></trkpt>
<trkpt lat="50.172358" lon="4.627786"><time>2026-05-03T08:20:59Z</time></trkpt>
<trkpt lat="50.172316" lon="4.630767"><time>2026-05-03T08:30:59Z</time></trkpt>
<trkpt lat="50.172003" lon="4.633859"><time>2026-05-03T08:40:59Z</time></trkpt>
<trkpt lat="50.171772" lon="4.636504"><time>2026-05-03T08:50:59Z</time></trkpt>
<trkpt lat="50.171447" lon="4.641051"><time>2026-05-03T09:00:59Z</time></trkpt>
<trkpt lat="50.171702" lon="4.643573"><time>2026-05-03T09:10:59Z</time></trkpt>
</trkseg></trk>
<trk>
<name>nphmrL138A</name>
<cmt>v</cmt>
<desc>Merlemont Chemin n°L138A Tronçon de la ligne L138A à Merlemont / Ligne 138A</desc>
<link href="https://chemins.be/merlemont/chemin/L138A"/><trkseg>
<trkpt lat="50.171702" lon="4.643573"><time>2026-05-03T09:10:59Z</time></trkpt>
<trkpt lat="50.172466" lon="4.647203"><time>2026-05-03T09:20:59Z</time></trkpt>
<trkpt lat="50.172998" lon="4.650411"><time>2026-05-03T09:30:59Z</time></trkpt>
<trkpt lat="50.173109" lon="4.652554"><time>2026-05-03T09:40:59Z</time></trkpt>
<trkpt lat="50.173078" lon="4.654374"><time>2026-05-03T09:50:59Z</time></trkpt>
<trkpt lat="50.172266" lon="4.658974"><time>2026-05-03T10:00:59Z</time></trkpt>
<trkpt lat="50.172021" lon="4.660107"><time>2026-05-03T10:10:59Z</time></trkpt>
</trkseg>
</trk>
<trk>
<name>nphnv1</name>
<cmt>r</cmt>
<desc>Neuville Chemin n°1 </desc>
<link href="https://chemins.be/neuville/chemin/1"/><trkseg>
<trkpt lat="50.173670" lon="4.509012"><time>2026-05-03T05:50:59Z</time></trkpt>
<trkpt lat="50.174113" lon="4.514529"><time>2026-05-03T06:00:59Z</time></trkpt>
<trkpt lat="50.174263" lon="4.516181"><time>2026-05-03T06:10:59Z</time></trkpt>
<trkpt lat="50.174942" lon="4.520061"><time>2026-05-03T06:20:59Z</time></trkpt>
<trkpt lat="50.175670" lon="4.519951"><time>2026-05-03T06:30:59Z</time></trkpt>
<trkpt lat="50.176295" lon="4.523061"><time>2026-05-03T06:40:59Z</time></trkpt>
<trkpt lat="50.176097" lon="4.523747"><time>2026-05-03T06:50:59Z</time></trkpt>
<trkpt lat="50.175961" lon="4.524614"><time>2026-05-03T07:00:59Z</time></trkpt>
<trkpt lat="50.176173" lon="4.526855"><time>2026-05-03T07:10:59Z</time></trkpt>
<trkpt lat="50.176532" lon="4.527640"><time>2026-05-03T07:20:59Z</time></trkpt>
<trkpt lat="50.178734" lon="4.527913"><time>2026-05-03T07:30:59Z</time></trkpt>
<trkpt lat="50.178696" lon="4.529621"><time>2026-05-03T07:40:59Z</time></trkpt>
</trkseg>
</trk>
<trk>
<name>nphnv10</name>
<cmt>v</cmt>
<desc>Neuville Chemin n°10 </desc>
<link href="https://chemins.be/neuville/chemin/10"/><trkseg>
<trkpt lat="50.138423" lon="4.504543"><time>2026-05-03T05:50:59Z</time></trkpt>
<trkpt lat="50.138269" lon="4.505550"><time>2026-05-03T06:00:59Z</time></trkpt>
</trkseg></trk>
<trk>
<name>nphnv10</name>
<cmt>d</cmt>
<desc>Neuville Chemin n°10 </desc>
<link href="https://chemins.be/neuville/chemin/10"/><trkseg>
<trkpt lat="50.138269" lon="4.505550"><time>2026-05-03T06:00:59Z</time></trkpt>
<trkpt lat="50.137810" lon="4.505898"><time>2026-05-03T06:10:59Z</time></trkpt>
</trkseg>
</trk>
<trk>
<name>nphnv11</name>
<cmt>v</cmt>
<desc>Neuville Chemin n°11 </desc>
<link href="https://chemins.be/neuville/chemin/11"/><trkseg>
<trkpt lat="50.143962" lon="4.504265"><time>2026-05-03T05:50:59Z</time></trkpt>
<trkpt lat="50.144024" lon="4.505189"><time>2026-05-03T06:00:59Z</time></trkpt>
</trkseg>
</trk>
<trk>
<name>nphnv12</name>
<cmt>v</cmt>
<desc>Neuville Chemin n°12 </desc>
<link href="https://chemins.be/neuville/chemin/12"/><trkseg>
<trkpt lat="50.163557" lon="4.500318"><time>2026-05-03T05:50:59Z</time></trkpt>
<trkpt lat="50.162273" lon="4.498775"><time>2026-05-03T06:00:59Z</time></trkpt>
<trkpt lat="50.161392" lon="4.498605"><time>2026-05-03T06:10:59Z</time></trkpt>
</trkseg></trk>
<trk>
<name>nphnv12</name>
<cmt>d</cmt>
<desc>Neuville Chemin n°12 </desc>
<link href="https://chemins.be/neuville/chemin/12"/><trkseg>
<trkpt lat="50.161392" lon="4.498605"><time>2026-05-03T06:10:59Z</time></trkpt>
<trkpt lat="50.159874" lon="4.497887"><time>2026-05-03T06:20:59Z</time></trkpt>
<trkpt lat="50.158381" lon="4.497771"><time>2026-05-03T06:30:59Z</time></trkpt>
<trkpt lat="50.156852" lon="4.498131"><time>2026-05-03T06:40:59Z</time></trkpt>
<trkpt lat="50.156241" lon="4.497807"><time>2026-05-03T06:50:59Z</time></trkpt>
<trkpt lat="50.155199" lon="4.496951"><time>2026-05-03T07:00:59Z</time></trkpt>
<trkpt lat="50.155299" lon="4.496055"><time>2026-05-03T07:10:59Z</time></trkpt>
<trkpt lat="50.155103" lon="4.494530"><time>2026-05-03T07:20:59Z</time></trkpt>
<trkpt lat="50.154763" lon="4.493493"><time>2026-05-03T07:30:59Z</time></trkpt>
<trkpt lat="50.154189" lon="4.491672"><time>2026-05-03T07:40:59Z</time></trkpt>
<trkpt lat="50.152432" lon="4.486980"><time>2026-05-03T07:50:59Z</time></trkpt>
<trkpt lat="50.150036" lon="4.482259"><time>2026-05-03T08:00:59Z</time></trkpt>
</trkseg>
</trk>
<trk>
<name>nphnv13</name>
<cmt>r</cmt>
<desc>Neuville Chemin n°13 Allée des Roses</desc>
<link href="https://chemins.be/neuville/chemin/13"/><trkseg>
<trkpt lat="50.156709" lon="4.489006"><time>2026-05-03T05:50:59Z</time></trkpt>
<trkpt lat="50.157149" lon="4.489735"><time>2026-05-03T06:00:59Z</time></trkpt>
<trkpt lat="50.157795" lon="4.491444"><time>2026-05-03T06:10:59Z</time></trkpt>
</trkseg></trk>
<trk>
<name>nphnv13</name>
<cmt>b</cmt>
<desc>Neuville Chemin n°13 Allée des Roses</desc>
<link href="https://chemins.be/neuville/chemin/13"/><trkseg>
<trkpt lat="50.157795" lon="4.491444"><time>2026-05-03T06:10:59Z</time></trkpt>
<trkpt lat="50.158656" lon="4.493349"><time>2026-05-03T06:20:59Z</time></trkpt>
</trkseg></trk>
<trk>
<name>nphnv13</name>
<cmt>s</cmt>
<desc>Neuville Chemin n°13 Allée des Roses</desc>
<link href="https://chemins.be/neuville/chemin/13"/><trkseg>
<trkpt lat="50.158656" lon="4.493349"><time>2026-05-03T06:20:59Z</time></trkpt>
<trkpt lat="50.159930" lon="4.495270"><time>2026-05-03T06:30:59Z</time></trkpt>
</trkseg></trk>
<trk>
<name>nphnv13</name>
<cmt>v</cmt>
<desc>Neuville Chemin n°13 Allée des Roses</desc>
<link href="https://chemins.be/neuville/chemin/13"/><trkseg>
<trkpt lat="50.159930" lon="4.495270"><time>2026-05-03T06:30:59Z</time></trkpt>
<trkpt lat="50.160146" lon="4.495579"><time>2026-05-03T06:40:59Z</time></trkpt>
<trkpt lat="50.160423" lon="4.496993"><time>2026-05-03T06:50:59Z</time></trkpt>
<trkpt lat="50.161142" lon="4.497415"><time>2026-05-03T07:00:59Z</time></trkpt>
<trkpt lat="50.161950" lon="4.497879"><time>2026-05-03T07:10:59Z</time></trkpt>
<trkpt lat="50.162273" lon="4.498747"><time>2026-05-03T07:20:59Z</time></trkpt>
</trkseg>
</trk>
<trk>
<name>nphnv14</name>
<cmt>r</cmt>
<desc>Neuville Chemin n°14 Allée des Lilas</desc>
<link href="https://chemins.be/neuville/chemin/14"/><trkseg>
<trkpt lat="50.171658" lon="4.499767"><time>2026-05-03T05:50:59Z</time></trkpt>
<trkpt lat="50.170749" lon="4.500478"><time>2026-05-03T06:00:59Z</time></trkpt>
</trkseg></trk>
<trk>
<name>nphnv14</name>
<cmt>d</cmt>
<desc>Neuville Chemin n°14 Allée des Lilas</desc>
<link href="https://chemins.be/neuville/chemin/14"/><trkseg>
<trkpt lat="50.170749" lon="4.500478"><time>2026-05-03T06:00:59Z</time></trkpt>
<trkpt lat="50.169490" lon="4.501343"><time>2026-05-03T06:10:59Z</time></trkpt>
<trkpt lat="50.168402" lon="4.501466"><time>2026-05-03T06:20:59Z</time></trkpt>
<trkpt lat="50.167395" lon="4.501197"><time>2026-05-03T06:30:59Z</time></trkpt>
</trkseg>
</trk>
<trk>
<name>nphnv15</name>
<cmt>v</cmt>
<desc>Neuville Chemin n°15 </desc>
<link href="https://chemins.be/neuville/chemin/15"/><trkseg>
<trkpt lat="50.158097" lon="4.509945"><time>2026-05-03T05:50:59Z</time></trkpt>
<trkpt lat="50.157084" lon="4.507885"><time>2026-05-03T06:00:59Z</time></trkpt>
<trkpt lat="50.155647" lon="4.506677"><time>2026-05-03T06:10:59Z</time></trkpt>
<trkpt lat="50.155630" lon="4.505866"><time>2026-05-03T06:20:59Z</time></trkpt>
<trkpt lat="50.155810" lon="4.505880"><time>2026-05-03T06:30:59Z</time></trkpt>
<trkpt lat="50.155550" lon="4.505222"><time>2026-05-03T06:40:59Z</time></trkpt>
<trkpt lat="50.154787" lon="4.504030"><time>2026-05-03T06:50:59Z</time></trkpt>
<trkpt lat="50.154563" lon="4.503512"><time>2026-05-03T07:00:59Z</time></trkpt>
<trkpt lat="50.154079" lon="4.501999"><time>2026-05-03T07:10:59Z</time></trkpt>
<trkpt lat="50.153522" lon="4.501690"><time>2026-05-03T07:20:59Z</time></trkpt>
<trkpt lat="50.152974" lon="4.501198"><time>2026-05-03T07:30:59Z</time></trkpt>
<trkpt lat="50.152561" lon="4.500568"><time>2026-05-03T07:40:59Z</time></trkpt>
<trkpt lat="50.152390" lon="4.500567"><time>2026-05-03T07:50:59Z</time></trkpt>
</trkseg>
</trk>
<trk>
<name>nphnv16</name>
<cmt>r</cmt>
<desc>Neuville Chemin n°16 </desc>
<link href="https://chemins.be/neuville/chemin/16"/><trkseg>
<trkpt lat="50.168943" lon="4.507332"><time>2026-05-03T05:50:59Z</time></trkpt>
<trkpt lat="50.168538" lon="4.507681"><time>2026-05-03T06:00:59Z</time></trkpt>
<trkpt lat="50.166960" lon="4.511553"><time>2026-05-03T06:10:59Z</time></trkpt>
<trkpt lat="50.166437" lon="4.512601"><time>2026-05-03T06:20:59Z</time></trkpt>
<trkpt lat="50.165878" lon="4.514279"><time>2026-05-03T06:30:59Z</time></trkpt>
<trkpt lat="50.165247" lon="4.515439"><time>2026-05-03T06:40:59Z</time></trkpt>
<trkpt lat="50.164455" lon="4.515731"><time>2026-05-03T06:50:59Z</time></trkpt>
<trkpt lat="50.164365" lon="4.516206"><time>2026-05-03T07:00:59Z</time></trkpt>
</trkseg>
</trk>
<trk>
<name>nphnv17</name>
<cmt>r</cmt>
<desc>Neuville Chemin n°17 </desc>
<link href="https://chemins.be/neuville/chemin/17"/><trkseg>
<trkpt lat="50.167170" lon="4.501294"><time>2026-05-03T05:50:59Z</time></trkpt>
<trkpt lat="50.168374" lon="4.502221"><time>2026-05-03T06:00:59Z</time></trkpt>
<trkpt lat="50.169377" lon="4.505542"><time>2026-05-03T06:10:59Z</time></trkpt>
<trkpt lat="50.168746" lon="4.506492"><time>2026-05-03T06:20:59Z</time></trkpt>
<trkpt lat="50.168934" lon="4.507150"><time>2026-05-03T06:30:59Z</time></trkpt>
<trkpt lat="50.170997" lon="4.511551"><time>2026-05-03T06:40:59Z</time></trkpt>
<trkpt lat="50.171731" lon="4.514115"><time>2026-05-03T06:50:59Z</time></trkpt>
<trkpt lat="50.172494" lon="4.514692"><time>2026-05-03T07:00:59Z</time></trkpt>
<trkpt lat="50.173131" lon="4.516023"><time>2026-05-03T07:10:59Z</time></trkpt>
<trkpt lat="50.173639" lon="4.519427"><time>2026-05-03T07:20:59Z</time></trkpt>
<trkpt lat="50.173377" lon="4.520168"><time>2026-05-03T07:30:59Z</time></trkpt>
<trkpt lat="50.173429" lon="4.521484"><time>2026-05-03T07:40:59Z</time></trkpt>
</trkseg>
</trk>
<trk>
<name>nphnv18</name>
<cmt>v</cmt>
<desc>Neuville Chemin n°18 </desc>
<link href="https://chemins.be/neuville/chemin/18"/><trkseg>
<trkpt lat="50.169189" lon="4.504729"><time>2026-05-03T05:50:59Z</time></trkpt>
<trkpt lat="50.169451" lon="4.503470"><time>2026-05-03T06:00:59Z</time></trkpt>
<trkpt lat="50.169660" lon="4.501399"><time>2026-05-03T06:10:59Z</time></trkpt>
</trkseg>
</trk>
<trk>
<name>nphnv19</name>
<cmt>v</cmt>
<desc>Neuville Chemin n°19 Allée des Lilas</desc>
<link href="https://chemins.be/neuville/chemin/19"/><trkseg>
<trkpt lat="50.170816" lon="4.497147"><time>2026-05-03T05:50:59Z</time></trkpt>
<trkpt lat="50.170743" lon="4.497679"><time>2026-05-03T06:00:59Z</time></trkpt>
</trkseg></trk>
<trk>
<name>nphnv19</name>
<cmt>d</cmt>
<desc>Neuville Chemin n°19 Allée des Lilas</desc>
<link href="https://chemins.be/neuville/chemin/19"/><trkseg>
<trkpt lat="50.170743" lon="4.497679"><time>2026-05-03T06:00:59Z</time></trkpt>
<trkpt lat="50.170589" lon="4.498826"><time>2026-05-03T06:10:59Z</time></trkpt>
<trkpt lat="50.170687" lon="4.500240"><time>2026-05-03T06:20:59Z</time></trkpt>
<trkpt lat="50.170911" lon="4.500143"><time>2026-05-03T06:30:59Z</time></trkpt>
<trkpt lat="50.171353" lon="4.499654"><time>2026-05-03T06:40:59Z</time></trkpt>
</trkseg>
</trk>
<trk>
<name>nphnv20</name>
<cmt>d</cmt>
<desc>Neuville Chemin n°20 </desc>
<link href="https://chemins.be/neuville/chemin/20"/><trkseg>
<trkpt lat="50.178099" lon="4.503971"><time>2026-05-03T05:50:59Z</time></trkpt>
<trkpt lat="50.177870" lon="4.499896"><time>2026-05-03T06:00:59Z</time></trkpt>
<trkpt lat="50.177334" lon="4.496856"><time>2026-05-03T06:10:59Z</time></trkpt>
</trkseg>
</trk>
<trk>
<name>nphnv21</name>
<cmt>v</cmt>
<desc>Neuville Chemin n°21 Rue Olimbois</desc>
<link href="https://chemins.be/neuville/chemin/21"/><trkseg>
<trkpt lat="50.183936" lon="4.507788"><time>2026-05-03T05:50:59Z</time></trkpt>
<trkpt lat="50.184149" lon="4.507966"><time>2026-05-03T06:00:59Z</time></trkpt>
<trkpt lat="50.184982" lon="4.507715"><time>2026-05-03T06:10:59Z</time></trkpt>
<trkpt lat="50.186358" lon="4.507187"><time>2026-05-03T06:20:59Z</time></trkpt>
</trkseg>
</trk>
<trk>
<name>nphnv24</name>
<cmt>v</cmt>
<desc>Neuville Chemin n°24 </desc>
<link href="https://chemins.be/neuville/chemin/24"/><trkseg>
<trkpt lat="50.178716" lon="4.527731"><time>2026-05-03T05:50:59Z</time></trkpt>
<trkpt lat="50.180074" lon="4.527946"><time>2026-05-03T06:00:59Z</time></trkpt>
</trkseg>
</trk>
<trk>
<name>nphnv25</name>
<cmt>r</cmt>
<desc>Neuville Chemin n°25 Unnamed Road</desc>
<link href="https://chemins.be/neuville/chemin/25"/><trkseg>
<trkpt lat="50.185993" lon="4.511905"><time>2026-05-03T05:50:59Z</time></trkpt>
<trkpt lat="50.187107" lon="4.512118"><time>2026-05-03T06:00:59Z</time></trkpt>
</trkseg>
</trk>
<trk>
<name>nphnv26</name>
<cmt>r</cmt>
<desc>Neuville Chemin n°26 Rue Sepré</desc>
<link href="https://chemins.be/neuville/chemin/26"/><trkseg>
<trkpt lat="50.174275" lon="4.521151"><time>2026-05-03T05:50:59Z</time></trkpt>
<trkpt lat="50.173807" lon="4.521247"><time>2026-05-03T06:00:59Z</time></trkpt>
<trkpt lat="50.173393" lon="4.521610"><time>2026-05-03T06:10:59Z</time></trkpt>
<trkpt lat="50.171289" lon="4.522107"><time>2026-05-03T06:20:59Z</time></trkpt>
<trkpt lat="50.171278" lon="4.523773"><time>2026-05-03T06:30:59Z</time></trkpt>
<trkpt lat="50.171124" lon="4.524360"><time>2026-05-03T06:40:59Z</time></trkpt>
</trkseg>
</trk>
<trk>
<name>nphnv27</name>
<cmt>r</cmt>
<desc>Neuville Chemin n°27 Rue Saint-Jean</desc>
<link href="https://chemins.be/neuville/chemin/27"/><trkseg>
<trkpt lat="50.173420" lon="4.521638"><time>2026-05-03T05:50:59Z</time></trkpt>
<trkpt lat="50.173815" lon="4.522479"><time>2026-05-03T06:00:59Z</time></trkpt>
<trkpt lat="50.173939" lon="4.523893"><time>2026-05-03T06:10:59Z</time></trkpt>
<trkpt lat="50.174145" lon="4.524076"><time>2026-05-03T06:20:59Z</time></trkpt>
<trkpt lat="50.174172" lon="4.524580"><time>2026-05-03T06:30:59Z</time></trkpt>
<trkpt lat="50.174009" lon="4.525252"><time>2026-05-03T06:40:59Z</time></trkpt>
</trkseg></trk>
<trk>
<name>nphnv27</name>
<cmt>q</cmt>
<desc>Neuville Chemin n°27 Rue Saint-Jean</desc>
<link href="https://chemins.be/neuville/chemin/27"/><trkseg>
<trkpt lat="50.174009" lon="4.525252"><time>2026-05-03T06:40:59Z</time></trkpt>
<trkpt lat="50.173694" lon="4.525363"><time>2026-05-03T06:50:59Z</time></trkpt>
<trkpt lat="50.173208" lon="4.525739"><time>2026-05-03T07:00:59Z</time></trkpt>
<trkpt lat="50.172812" lon="4.525794"><time>2026-05-03T07:10:59Z</time></trkpt>
<trkpt lat="50.172112" lon="4.525175"><time>2026-05-03T07:20:59Z</time></trkpt>
<trkpt lat="50.171671" lon="4.525104"><time>2026-05-03T07:30:59Z</time></trkpt>
</trkseg>
</trk>
<trk>
<name>nphnv28</name>
<cmt>r</cmt>
<desc>Neuville Chemin n°28 Rue de la Place</desc>
<link href="https://chemins.be/neuville/chemin/28"/><trkseg>
<trkpt lat="50.173982" lon="4.525307"><time>2026-05-03T05:50:59Z</time></trkpt>
<trkpt lat="50.174125" lon="4.525812"><time>2026-05-03T06:00:59Z</time></trkpt>
<trkpt lat="50.174223" lon="4.526456"><time>2026-05-03T06:10:59Z</time></trkpt>
<trkpt lat="50.174366" lon="4.526723"><time>2026-05-03T06:20:59Z</time></trkpt>
</trkseg></trk>
<trk>
<name>nphnv28</name>
<cmt>v</cmt>
<desc>Neuville Chemin n°28 Rue de la Place</desc>
<link href="https://chemins.be/neuville/chemin/28"/><trkseg>
<trkpt lat="50.174366" lon="4.526723"><time>2026-05-03T06:20:59Z</time></trkpt>
<trkpt lat="50.174501" lon="4.527087"><time>2026-05-03T06:30:59Z</time></trkpt>
</trkseg></trk>
<trk>
<name>nphnv28</name>
<cmt>d</cmt>
<desc>Neuville Chemin n°28 Rue de la Place</desc>
<link href="https://chemins.be/neuville/chemin/28"/><trkseg>
<trkpt lat="50.174501" lon="4.527087"><time>2026-05-03T06:30:59Z</time></trkpt>
<trkpt lat="50.174141" lon="4.527212"><time>2026-05-03T06:40:59Z</time></trkpt>
</trkseg></trk>
<trk>
<name>nphnv28</name>
<cmt>v</cmt>
<desc>Neuville Chemin n°28 Rue de la Place</desc>
<link href="https://chemins.be/neuville/chemin/28"/><trkseg>
<trkpt lat="50.174141" lon="4.527212"><time>2026-05-03T06:40:59Z</time></trkpt>
<trkpt lat="50.174068" lon="4.528052"><time>2026-05-03T06:50:59Z</time></trkpt>
<trkpt lat="50.174022" lon="4.528653"><time>2026-05-03T07:00:59Z</time></trkpt>
<trkpt lat="50.173948" lon="4.529927"><time>2026-05-03T07:10:59Z</time></trkpt>
</trkseg>
</trk>
<trk>
<name>nphnv28bis</name>
<cmt>d</cmt>
<desc>Neuville Sentier n°28bis </desc>
<link href="https://chemins.be/neuville/sentier/28bis"/><trkseg>
<trkpt lat="50.174152" lon="4.525798"><time>2026-05-03T05:50:59Z</time></trkpt>
<trkpt lat="50.174323" lon="4.525841"><time>2026-05-03T06:00:59Z</time></trkpt>
<trkpt lat="50.174250" lon="4.526176"><time>2026-05-03T06:10:59Z</time></trkpt>
<trkpt lat="50.174268" lon="4.526498"><time>2026-05-03T06:20:59Z</time></trkpt>
</trkseg>
</trk>
<trk>
<name>nphnv3</name>
<cmt>v</cmt>
<desc>Neuville Chemin n°3 Chemin n°2 / Chemin n°3</desc>
<link href="https://chemins.be/neuville/chemin/3"/><trkseg>
<trkpt lat="50.148875" lon="4.522482"><time>2026-05-03T05:50:59Z</time></trkpt>
<trkpt lat="50.150071" lon="4.521997"><time>2026-05-03T06:00:59Z</time></trkpt>
<trkpt lat="50.151717" lon="4.521526"><time>2026-05-03T06:10:59Z</time></trkpt>
<trkpt lat="50.154505" lon="4.520723"><time>2026-05-03T06:20:59Z</time></trkpt>
<trkpt lat="50.155207" lon="4.520194"><time>2026-05-03T06:30:59Z</time></trkpt>
<trkpt lat="50.157455" lon="4.520355"><time>2026-05-03T06:40:59Z</time></trkpt>
<trkpt lat="50.158011" lon="4.520917"><time>2026-05-03T06:50:59Z</time></trkpt>
<trkpt lat="50.159828" lon="4.520699"><time>2026-05-03T07:00:59Z</time></trkpt>
<trkpt lat="50.161986" lon="4.520467"><time>2026-05-03T07:10:59Z</time></trkpt>
<trkpt lat="50.163352" lon="4.520864"><time>2026-05-03T07:20:59Z</time></trkpt>
<trkpt lat="50.165130" lon="4.522339"><time>2026-05-03T07:30:59Z</time></trkpt>
<trkpt lat="50.165590" lon="4.522723"><time>2026-05-03T07:40:59Z</time></trkpt>
<trkpt lat="50.166595" lon="4.522470"><time>2026-05-03T07:50:59Z</time></trkpt>
<trkpt lat="50.168158" lon="4.523903"><time>2026-05-03T08:00:59Z</time></trkpt>
<trkpt lat="50.168282" lon="4.524841"><time>2026-05-03T08:10:59Z</time></trkpt>
</trkseg></trk>
<trk>
<name>nphnv3</name>
<cmt>r</cmt>
<desc>Neuville Chemin n°3 Chemin n°2 / Chemin n°3</desc>
<link href="https://chemins.be/neuville/chemin/3"/><trkseg>
<trkpt lat="50.168282" lon="4.524841"><time>2026-05-03T08:10:59Z</time></trkpt>
<trkpt lat="50.169514" lon="4.524733"><time>2026-05-03T08:20:59Z</time></trkpt>
<trkpt lat="50.170099" lon="4.524581"><time>2026-05-03T08:30:59Z</time></trkpt>
<trkpt lat="50.170737" lon="4.524793"><time>2026-05-03T08:40:59Z</time></trkpt>
</trkseg>
</trk>
<trk>
<name>nphnv30</name>
<cmt>r</cmt>
<desc>Neuville Chemin n°30 Rue Saint-Hubert</desc>
<link href="https://chemins.be/neuville/chemin/30"/><trkseg>
<trkpt lat="50.174181" lon="4.524566"><time>2026-05-03T05:50:59Z</time></trkpt>
<trkpt lat="50.174315" lon="4.525057"><time>2026-05-03T06:00:59Z</time></trkpt>
</trkseg></trk>
<trk>
<name>nphnv30</name>
<cmt>v</cmt>
<desc>Neuville Chemin n°30 Rue Saint-Hubert</desc>
<link href="https://chemins.be/neuville/chemin/30"/><trkseg>
<trkpt lat="50.174315" lon="4.525057"><time>2026-05-03T06:00:59Z</time></trkpt>
<trkpt lat="50.174404" lon="4.525715"><time>2026-05-03T06:10:59Z</time></trkpt>
<trkpt lat="50.174574" lon="4.525785"><time>2026-05-03T06:20:59Z</time></trkpt>
</trkseg></trk>
<trk>
<name>nphnv30</name>
<cmt>r</cmt>
<desc>Neuville Chemin n°30 Rue Saint-Hubert</desc>
<link href="https://chemins.be/neuville/chemin/30"/><trkseg>
<trkpt lat="50.174574" lon="4.525785"><time>2026-05-03T06:20:59Z</time></trkpt>
<trkpt lat="50.174871" lon="4.526010"><time>2026-05-03T06:30:59Z</time></trkpt>
</trkseg>
</trk>
<trk>
<name>nphnv31</name>
<cmt>r</cmt>
<desc>Neuville Chemin n°31 Rue Saint-Hubert</desc>
<link href="https://chemins.be/neuville/chemin/31"/><trkseg>
<trkpt lat="50.174333" lon="4.524917"><time>2026-05-03T05:50:59Z</time></trkpt>
<trkpt lat="50.174594" lon="4.524498"><time>2026-05-03T06:00:59Z</time></trkpt>
<trkpt lat="50.174882" lon="4.524331"><time>2026-05-03T06:10:59Z</time></trkpt>
</trkseg>
</trk>
<trk>
<name>nphnv36bis</name>
<cmt>q</cmt>
<desc>Neuville Chemin n°36bis </desc>
<link href="https://chemins.be/neuville/chemin/36bis"/><trkseg>
<trkpt lat="50.165132" lon="4.520869"><time>2026-05-03T05:50:59Z</time></trkpt>
<trkpt lat="50.164128" lon="4.518207"><time>2026-05-03T06:00:59Z</time></trkpt>
<trkpt lat="50.163161" lon="4.515433"><time>2026-05-03T06:10:59Z</time></trkpt>
</trkseg>
</trk>
<trk>
<name>nphnv37bis</name>
<cmt>q</cmt>
<desc>Neuville Chemin n°37bis </desc>
<link href="https://chemins.be/neuville/chemin/37bis"/><trkseg>
<trkpt lat="50.162599" lon="4.514543"><time>2026-05-03T05:50:59Z</time></trkpt>
<trkpt lat="50.162067" lon="4.513206"><time>2026-05-03T06:00:59Z</time></trkpt>
</trkseg>
</trk>
<trk>
<name>nphnv38</name>
<cmt>r</cmt>
<desc>Neuville Chemin n°38 </desc>
<link href="https://chemins.be/neuville/chemin/38"/><trkseg>
<trkpt lat="50.172422" lon="4.521747"><time>2026-05-03T05:50:59Z</time></trkpt>
<trkpt lat="50.171947" lon="4.520611"><time>2026-05-03T06:00:59Z</time></trkpt>
<trkpt lat="50.171192" lon="4.520357"><time>2026-05-03T06:10:59Z</time></trkpt>
</trkseg></trk>
<trk>
<name>nphnv38</name>
<cmt>v</cmt>
<desc>Neuville Chemin n°38 </desc>
<link href="https://chemins.be/neuville/chemin/38"/><trkseg>
<trkpt lat="50.171192" lon="4.520357"><time>2026-05-03T06:10:59Z</time></trkpt>
<trkpt lat="50.170420" lon="4.519935"><time>2026-05-03T06:20:59Z</time></trkpt>
</trkseg></trk>
<trk>
<name>nphnv38</name>
<cmt>s</cmt>
<desc>Neuville Chemin n°38 </desc>
<link href="https://chemins.be/neuville/chemin/38"/><trkseg>
<trkpt lat="50.170420" lon="4.519935"><time>2026-05-03T06:20:59Z</time></trkpt>
<trkpt lat="50.169250" lon="4.520617"><time>2026-05-03T06:30:59Z</time></trkpt>
<trkpt lat="50.168170" lon="4.521229"><time>2026-05-03T06:40:59Z</time></trkpt>
<trkpt lat="50.166730" lon="4.522456"><time>2026-05-03T06:50:59Z</time></trkpt>
</trkseg>
</trk>
<trk>
<name>nphnv39</name>
<cmt>r</cmt>
<desc>Neuville Chemin n°39 Rue du Herdeau</desc>
<link href="https://chemins.be/neuville/chemin/39"/><trkseg>
<trkpt lat="50.171848" lon="4.520513"><time>2026-05-03T05:50:59Z</time></trkpt>
<trkpt lat="50.171743" lon="4.518357"><time>2026-05-03T06:00:59Z</time></trkpt>
</trkseg>
</trk>
<trk>
<name>nphnv4</name>
<cmt>r</cmt>
<desc>Neuville Chemin n°4 Rue Station Nord / Rue Olimbois</desc>
<link href="https://chemins.be/neuville/chemin/4"/><trkseg>
<trkpt lat="50.174272" lon="4.516573"><time>2026-05-03T05:50:59Z</time></trkpt>
<trkpt lat="50.175256" lon="4.513608"><time>2026-05-03T06:00:59Z</time></trkpt>
<trkpt lat="50.175750" lon="4.513708"><time>2026-05-03T06:10:59Z</time></trkpt>
<trkpt lat="50.175975" lon="4.513554"><time>2026-05-03T06:20:59Z</time></trkpt>
<trkpt lat="50.175967" lon="4.512966"><time>2026-05-03T06:30:59Z</time></trkpt>
<trkpt lat="50.176794" lon="4.512801"><time>2026-05-03T06:40:59Z</time></trkpt>
<trkpt lat="50.177882" lon="4.513042"><time>2026-05-03T06:50:59Z</time></trkpt>
<trkpt lat="50.179519" lon="4.512081"><time>2026-05-03T07:00:59Z</time></trkpt>
<trkpt lat="50.182408" lon="4.509584"><time>2026-05-03T07:10:59Z</time></trkpt>
<trkpt lat="50.182409" lon="4.509010"><time>2026-05-03T07:20:59Z</time></trkpt>
<trkpt lat="50.182688" lon="4.508422"><time>2026-05-03T07:30:59Z</time></trkpt>
<trkpt lat="50.183903" lon="4.507866"><time>2026-05-03T07:40:59Z</time></trkpt>
<trkpt lat="50.183321" lon="4.505596"><time>2026-05-03T07:50:59Z</time></trkpt>
<trkpt lat="50.183305" lon="4.503593"><time>2026-05-03T08:00:59Z</time></trkpt>
</trkseg>
</trk>
<trk>
<name>nphnv41</name>
<cmt>s</cmt>
<desc>Neuville Chemin n°41 </desc>
<link href="https://chemins.be/neuville/chemin/41"/><trkseg>
<trkpt lat="50.165460" lon="4.524496"><time>2026-05-03T05:50:59Z</time></trkpt>
<trkpt lat="50.166369" lon="4.523379"><time>2026-05-03T06:00:59Z</time></trkpt>
<trkpt lat="50.166739" lon="4.522652"><time>2026-05-03T06:10:59Z</time></trkpt>
</trkseg>
</trk>
<trk>
<name>nphnv41bis</name>
<cmt>s</cmt>
<desc>Neuville Chemin n°41bis </desc>
<link href="https://chemins.be/neuville/chemin/41bis"/><trkseg>
<trkpt lat="50.176367" lon="4.523089"><time>2026-05-03T05:50:59Z</time></trkpt>
<trkpt lat="50.176626" lon="4.524168"><time>2026-05-03T06:00:59Z</time></trkpt>
</trkseg>
</trk>
<trk>
<name>nphnv42</name>
<cmt>v</cmt>
<desc>Neuville Chemin n°42 </desc>
<link href="https://chemins.be/neuville/chemin/42"/><trkseg>
<trkpt lat="50.175562" lon="4.527091"><time>2026-05-03T05:50:59Z</time></trkpt>
<trkpt lat="50.175492" lon="4.527359"><time>2026-05-03T06:00:59Z</time></trkpt>
<trkpt lat="50.175500" lon="4.527449"><time>2026-05-03T06:10:59Z</time></trkpt>
<trkpt lat="50.175648" lon="4.527511"><time>2026-05-03T06:20:59Z</time></trkpt>
<trkpt lat="50.175858" lon="4.527580"><time>2026-05-03T06:30:59Z</time></trkpt>
<trkpt lat="50.175869" lon="4.527536"><time>2026-05-03T06:40:59Z</time></trkpt>
<trkpt lat="50.175905" lon="4.527551"><time>2026-05-03T06:50:59Z</time></trkpt>
<trkpt lat="50.175893" lon="4.527618"><time>2026-05-03T07:00:59Z</time></trkpt>
<trkpt lat="50.175835" lon="4.528055"><time>2026-05-03T07:10:59Z</time></trkpt>
<trkpt lat="50.175857" lon="4.528352"><time>2026-05-03T07:20:59Z</time></trkpt>
<trkpt lat="50.176116" lon="4.529472"><time>2026-05-03T07:30:59Z</time></trkpt>
</trkseg>
</trk>
<trk>
<name>nphnv43</name>
<cmt>s</cmt>
<desc>Neuville Sentier n°43 </desc>
<link href="https://chemins.be/neuville/sentier/43"/><trkseg>
<trkpt lat="50.172226" lon="4.527038"><time>2026-05-03T05:50:59Z</time></trkpt>
<trkpt lat="50.171675" lon="4.529051"><time>2026-05-03T06:00:59Z</time></trkpt>
<trkpt lat="50.171432" lon="4.529275"><time>2026-05-03T06:10:59Z</time></trkpt>
<trkpt lat="50.170549" lon="4.530699"><time>2026-05-03T06:20:59Z</time></trkpt>
<trkpt lat="50.169917" lon="4.532265"><time>2026-05-03T06:30:59Z</time></trkpt>
</trkseg>
</trk>
<trk>
<name>nphnv44</name>
<cmt>s</cmt>
<desc>Neuville Sentier n°44 </desc>
<link href="https://chemins.be/neuville/sentier/44"/><trkseg>
<trkpt lat="50.173094" lon="4.516807"><time>2026-05-03T05:50:59Z</time></trkpt>
<trkpt lat="50.170893" lon="4.515219"><time>2026-05-03T06:00:59Z</time></trkpt>
<trkpt lat="50.170092" lon="4.515776"><time>2026-05-03T06:10:59Z</time></trkpt>
</trkseg>
</trk>
<trk>
<name>nphnv44bis</name>
<cmt>s</cmt>
<desc>Neuville Sentier n°44bis </desc>
<link href="https://chemins.be/neuville/sentier/44bis"/><trkseg>
<trkpt lat="50.170366" lon="4.519780"><time>2026-05-03T05:50:59Z</time></trkpt>
<trkpt lat="50.168399" lon="4.518192"><time>2026-05-03T06:00:59Z</time></trkpt>
<trkpt lat="50.167834" lon="4.517449"><time>2026-05-03T06:10:59Z</time></trkpt>
<trkpt lat="50.167088" lon="4.516887"><time>2026-05-03T06:20:59Z</time></trkpt>
<trkpt lat="50.166333" lon="4.516562"><time>2026-05-03T06:30:59Z</time></trkpt>
<trkpt lat="50.165579" lon="4.516168"><time>2026-05-03T06:40:59Z</time></trkpt>
<trkpt lat="50.164697" lon="4.516333"><time>2026-05-03T06:50:59Z</time></trkpt>
</trkseg>
</trk>
<trk>
<name>nphnv45</name>
<cmt>v</cmt>
<desc>Neuville Sentier n°45 </desc>
<link href="https://chemins.be/neuville/sentier/45"/><trkseg>
<trkpt lat="50.175940" lon="4.512798"><time>2026-05-03T05:50:59Z</time></trkpt>
<trkpt lat="50.176076" lon="4.512169"><time>2026-05-03T06:00:59Z</time></trkpt>
<trkpt lat="50.176670" lon="4.511065"><time>2026-05-03T06:10:59Z</time></trkpt>
</trkseg></trk>
<trk>
<name>nphnv45</name>
<cmt>d</cmt>
<desc>Neuville Sentier n°45 </desc>
<link href="https://chemins.be/neuville/sentier/45"/><trkseg>
<trkpt lat="50.176670" lon="4.511065"><time>2026-05-03T06:10:59Z</time></trkpt>
<trkpt lat="50.178507" lon="4.508886"><time>2026-05-03T06:20:59Z</time></trkpt>
<trkpt lat="50.179536" lon="4.505599"><time>2026-05-03T06:30:59Z</time></trkpt>
<trkpt lat="50.180375" lon="4.502941"><time>2026-05-03T06:40:59Z</time></trkpt>
</trkseg>
</trk>
<trk>
<name>nphnv46</name>
<cmt>s</cmt>
<desc>Neuville Sentier n°46 Rue Station Nord</desc>
<link href="https://chemins.be/neuville/sentier/46"/><trkseg>
<trkpt lat="50.175679" lon="4.519881"><time>2026-05-03T05:50:59Z</time></trkpt>
<trkpt lat="50.176480" lon="4.519324"><time>2026-05-03T06:00:59Z</time></trkpt>
<trkpt lat="50.176688" lon="4.518694"><time>2026-05-03T06:10:59Z</time></trkpt>
</trkseg></trk>
<trk>
<name>nphnv46</name>
<cmt>r</cmt>
<desc>Neuville Sentier n°46 Rue Station Nord</desc>
<link href="https://chemins.be/neuville/sentier/46"/><trkseg>
<trkpt lat="50.176688" lon="4.518694"><time>2026-05-03T06:10:59Z</time></trkpt>
<trkpt lat="50.176679" lon="4.518260"><time>2026-05-03T06:20:59Z</time></trkpt>
<trkpt lat="50.176878" lon="4.517379"><time>2026-05-03T06:30:59Z</time></trkpt>
<trkpt lat="50.177176" lon="4.516568"><time>2026-05-03T06:40:59Z</time></trkpt>
</trkseg></trk>
<trk>
<name>nphnv46</name>
<cmt>d</cmt>
<desc>Neuville Sentier n°46 Rue Station Nord</desc>
<link href="https://chemins.be/neuville/sentier/46"/><trkseg>
<trkpt lat="50.177176" lon="4.516568"><time>2026-05-03T06:40:59Z</time></trkpt>
<trkpt lat="50.177366" lon="4.515799"><time>2026-05-03T06:50:59Z</time></trkpt>
<trkpt lat="50.177664" lon="4.514428"><time>2026-05-03T07:00:59Z</time></trkpt>
<trkpt lat="50.177900" lon="4.513014"><time>2026-05-03T07:10:59Z</time></trkpt>
<trkpt lat="50.178126" lon="4.511559"><time>2026-05-03T07:20:59Z</time></trkpt>
<trkpt lat="50.178344" lon="4.509642"><time>2026-05-03T07:30:59Z</time></trkpt>
<trkpt lat="50.178498" lon="4.508956"><time>2026-05-03T07:40:59Z</time></trkpt>
</trkseg>
</trk>
<trk>
<name>nphnv47</name>
<cmt>v</cmt>
<desc>Neuville Sentier n°47 </desc>
<link href="https://chemins.be/neuville/sentier/47"/><trkseg>
<trkpt lat="50.172727" lon="4.500456"><time>2026-05-03T05:50:59Z</time></trkpt>
<trkpt lat="50.173279" lon="4.497615"><time>2026-05-03T06:00:59Z</time></trkpt>
</trkseg>
</trk>
<trk>
<name>nphnv48</name>
<cmt>s</cmt>
<desc>Neuville Sentier n°48 </desc>
<link href="https://chemins.be/neuville/sentier/48"/><trkseg>
<trkpt lat="50.168520" lon="4.507513"><time>2026-05-03T05:50:59Z</time></trkpt>
<trkpt lat="50.167418" lon="4.504808"><time>2026-05-03T06:00:59Z</time></trkpt>
<trkpt lat="50.166584" lon="4.502762"><time>2026-05-03T06:10:59Z</time></trkpt>
<trkpt lat="50.165919" lon="4.502130"><time>2026-05-03T06:20:59Z</time></trkpt>
<trkpt lat="50.165363" lon="4.501261"><time>2026-05-03T06:30:59Z</time></trkpt>
</trkseg>
</trk>
<trk>
<name>nphnv49</name>
<cmt>v</cmt>
<desc>Neuville Sentier n°49 </desc>
<link href="https://chemins.be/neuville/sentier/49"/><trkseg>
<trkpt lat="50.182749" lon="4.517467"><time>2026-05-03T05:50:59Z</time></trkpt>
<trkpt lat="50.183300" lon="4.515691"><time>2026-05-03T06:00:59Z</time></trkpt>
<trkpt lat="50.183462" lon="4.515103"><time>2026-05-03T06:10:59Z</time></trkpt>
</trkseg></trk>
<trk>
<name>nphnv49</name>
<cmt>s</cmt>
<desc>Neuville Sentier n°49 </desc>
<link href="https://chemins.be/neuville/sentier/49"/><trkseg>
<trkpt lat="50.183462" lon="4.515103"><time>2026-05-03T06:10:59Z</time></trkpt>
<trkpt lat="50.183905" lon="4.513341"><time>2026-05-03T06:20:59Z</time></trkpt>
<trkpt lat="50.185651" lon="4.511708"><time>2026-05-03T06:30:59Z</time></trkpt>
</trkseg>
</trk>
<trk>
<name>nphnv5</name>
<cmt>v</cmt>
<desc>Neuville Chemin n°5 Rue Olimbois</desc>
<link href="https://chemins.be/neuville/chemin/5"/><trkseg>
<trkpt lat="50.172700" lon="4.500195"><time>2026-05-03T05:50:59Z</time></trkpt>
<trkpt lat="50.174685" lon="4.502421"><time>2026-05-03T06:00:59Z</time></trkpt>
<trkpt lat="50.178018" lon="4.504054"><time>2026-05-03T06:10:59Z</time></trkpt>
<trkpt lat="50.179437" lon="4.505389"><time>2026-05-03T06:20:59Z</time></trkpt>
<trkpt lat="50.181206" lon="4.507844"><time>2026-05-03T06:30:59Z</time></trkpt>
<trkpt lat="50.182499" lon="4.508842"><time>2026-05-03T06:40:59Z</time></trkpt>
<trkpt lat="50.185400" lon="4.511385"><time>2026-05-03T06:50:59Z</time></trkpt>
<trkpt lat="50.186020" lon="4.511919"><time>2026-05-03T07:00:59Z</time></trkpt>
</trkseg></trk>
<trk>
<name>nphnv5</name>
<cmt>d</cmt>
<desc>Neuville Chemin n°5 Rue Olimbois</desc>
<link href="https://chemins.be/neuville/chemin/5"/><trkseg>
<trkpt lat="50.186020" lon="4.511919"><time>2026-05-03T07:00:59Z</time></trkpt>
<trkpt lat="50.187563" lon="4.514598"><time>2026-05-03T07:10:59Z</time></trkpt>
</trkseg>
</trk>
<trk>
<name>nphnv51</name>
<cmt>v</cmt>
<desc>Neuville Sentier n°51 </desc>
<link href="https://chemins.be/neuville/sentier/51"/><trkseg>
<trkpt lat="50.174498" lon="4.522579"><time>2026-05-03T05:50:59Z</time></trkpt>
<trkpt lat="50.174552" lon="4.522748"><time>2026-05-03T06:00:59Z</time></trkpt>
<trkpt lat="50.174929" lon="4.523071"><time>2026-05-03T06:10:59Z</time></trkpt>
<trkpt lat="50.174757" lon="4.523812"><time>2026-05-03T06:20:59Z</time></trkpt>
</trkseg>
</trk>
<trk>
<name>nphnv52</name>
<cmt>v</cmt>
<desc>Neuville Sentier n°52 </desc>
<link href="https://chemins.be/neuville/sentier/52"/><trkseg>
<trkpt lat="50.173968" lon="4.521864"><time>2026-05-03T05:50:59Z</time></trkpt>
<trkpt lat="50.173681" lon="4.521905"><time>2026-05-03T06:00:59Z</time></trkpt>
</trkseg>
</trk>
<trk>
<name>nphnv53</name>
<cmt>v</cmt>
<desc>Neuville Sentier n°53 Route de Mariembourg</desc>
<link href="https://chemins.be/neuville/sentier/53"/><trkseg>
<trkpt lat="50.171226" lon="4.522079"><time>2026-05-03T05:50:59Z</time></trkpt>
<trkpt lat="50.170749" lon="4.522133"><time>2026-05-03T06:00:59Z</time></trkpt>
<trkpt lat="50.169356" lon="4.522311"><time>2026-05-03T06:10:59Z</time></trkpt>
</trkseg></trk>
<trk>
<name>nphnv53</name>
<cmt>s</cmt>
<desc>Neuville Sentier n°53 Route de Mariembourg</desc>
<link href="https://chemins.be/neuville/sentier/53"/><trkseg>
<trkpt lat="50.169356" lon="4.522311"><time>2026-05-03T06:10:59Z</time></trkpt>
<trkpt lat="50.169041" lon="4.522408"><time>2026-05-03T06:20:59Z</time></trkpt>
</trkseg></trk>
<trk>
<name>nphnv53</name>
<cmt>d</cmt>
<desc>Neuville Sentier n°53 Route de Mariembourg</desc>
<link href="https://chemins.be/neuville/sentier/53"/><trkseg>
<trkpt lat="50.169041" lon="4.522408"><time>2026-05-03T06:20:59Z</time></trkpt>
<trkpt lat="50.167737" lon="4.522487"><time>2026-05-03T06:30:59Z</time></trkpt>
<trkpt lat="50.167134" lon="4.522863"><time>2026-05-03T06:40:59Z</time></trkpt>
</trkseg>
</trk>
<trk>
<name>nphnv54</name>
<cmt>s</cmt>
<desc>Neuville Sentier n°54 </desc>
<link href="https://chemins.be/neuville/sentier/54"/><trkseg>
<trkpt lat="50.166942" lon="4.525340"><time>2026-05-03T05:50:59Z</time></trkpt>
<trkpt lat="50.166645" lon="4.525717"><time>2026-05-03T06:00:59Z</time></trkpt>
<trkpt lat="50.166222" lon="4.525954"><time>2026-05-03T06:10:59Z</time></trkpt>
</trkseg>
</trk>
<trk>
<name>nphnv55</name>
<cmt>s</cmt>
<desc>Neuville Sentier n°55 </desc>
<link href="https://chemins.be/neuville/sentier/55"/><trkseg>
<trkpt lat="50.177394" lon="4.528539"><time>2026-05-03T05:50:59Z</time></trkpt>
<trkpt lat="50.178031" lon="4.529605"><time>2026-05-03T06:00:59Z</time></trkpt>
</trkseg>
</trk>
<trk>
<name>nphnv56</name>
<cmt>s</cmt>
<desc>Neuville Sentier n°56 </desc>
<link href="https://chemins.be/neuville/sentier/56"/><trkseg>
<trkpt lat="50.174195" lon="4.527072"><time>2026-05-03T05:50:59Z</time></trkpt>
<trkpt lat="50.173663" lon="4.527966"><time>2026-05-03T06:00:59Z</time></trkpt>
<trkpt lat="50.172853" lon="4.528873"><time>2026-05-03T06:10:59Z</time></trkpt>
<trkpt lat="50.172501" lon="4.529600"><time>2026-05-03T06:20:59Z</time></trkpt>
<trkpt lat="50.172274" lon="4.531237"><time>2026-05-03T06:30:59Z</time></trkpt>
</trkseg>
</trk>
<trk>
<name>nphnv57</name>
<cmt>d</cmt>
<desc>Neuville Sentier n°57 </desc>
<link href="https://chemins.be/neuville/sentier/57"/><trkseg>
<trkpt lat="50.171497" lon="4.499528"><time>2026-05-03T05:50:59Z</time></trkpt>
<trkpt lat="50.172542" lon="4.497627"><time>2026-05-03T06:00:59Z</time></trkpt>
<trkpt lat="50.173272" lon="4.497410"><time>2026-05-03T06:10:59Z</time></trkpt>
<trkpt lat="50.175250" lon="4.497147"><time>2026-05-03T06:20:59Z</time></trkpt>
<trkpt lat="50.177275" lon="4.496511"><time>2026-05-03T06:30:59Z</time></trkpt>
</trkseg>
</trk>
<trk>
<name>nphnv58</name>
<cmt>d</cmt>
<desc>Neuville Sentier n°58 </desc>
<link href="https://chemins.be/neuville/sentier/58"/><trkseg>
<trkpt lat="50.167425" lon="4.513556"><time>2026-05-03T05:50:59Z</time></trkpt>
<trkpt lat="50.166339" lon="4.512433"><time>2026-05-03T06:00:59Z</time></trkpt>
<trkpt lat="50.165594" lon="4.511255"><time>2026-05-03T06:10:59Z</time></trkpt>
<trkpt lat="50.165101" lon="4.509476"><time>2026-05-03T06:20:59Z</time></trkpt>
<trkpt lat="50.164358" lon="4.507585"><time>2026-05-03T06:30:59Z</time></trkpt>
<trkpt lat="50.164071" lon="4.506912"><time>2026-05-03T06:40:59Z</time></trkpt>
<trkpt lat="50.163253" lon="4.506672"><time>2026-05-03T06:50:59Z</time></trkpt>
<trkpt lat="50.162731" lon="4.506684"><time>2026-05-03T07:00:59Z</time></trkpt>
<trkpt lat="50.162525" lon="4.506460"><time>2026-05-03T07:10:59Z</time></trkpt>
<trkpt lat="50.162453" lon="4.506053"><time>2026-05-03T07:20:59Z</time></trkpt>
<trkpt lat="50.161062" lon="4.504398"><time>2026-05-03T07:30:59Z</time></trkpt>
</trkseg>
</trk>
<trk>
<name>nphnv6</name>
<cmt>s</cmt>
<desc>Neuville Chemin n°6 </desc>
<link href="https://chemins.be/neuville/chemin/6"/><trkseg>
<trkpt lat="50.165338" lon="4.521290"><time>2026-05-03T05:50:59Z</time></trkpt>
<trkpt lat="50.165196" lon="4.519890"><time>2026-05-03T06:00:59Z</time></trkpt>
<trkpt lat="50.164086" lon="4.516331"><time>2026-05-03T06:10:59Z</time></trkpt>
</trkseg>
</trk>
<trk>
<name>nphnv60</name>
<cmt>d</cmt>
<desc>Neuville Sentier n°60 </desc>
<link href="https://chemins.be/neuville/sentier/60"/><trkseg>
<trkpt lat="50.138158" lon="4.505698"><time>2026-05-03T05:50:59Z</time></trkpt>
<trkpt lat="50.138003" lon="4.506300"><time>2026-05-03T06:00:59Z</time></trkpt>
</trkseg>
</trk>
<trk>
<name>nphnv7</name>
<cmt>v</cmt>
<desc>Neuville Chemin n°7 chemin n°7</desc>
<link href="https://chemins.be/neuville/chemin/7"/><trkseg>
<trkpt lat="50.165324" lon="4.525503"><time>2026-05-03T05:50:59Z</time></trkpt>
<trkpt lat="50.164272" lon="4.525220"><time>2026-05-03T06:00:59Z</time></trkpt>
<trkpt lat="50.162097" lon="4.524583"><time>2026-05-03T06:10:59Z</time></trkpt>
<trkpt lat="50.159336" lon="4.525623"><time>2026-05-03T06:20:59Z</time></trkpt>
<trkpt lat="50.155594" lon="4.528795"><time>2026-05-03T06:30:59Z</time></trkpt>
<trkpt lat="50.155015" lon="4.529093"><time>2026-05-03T06:40:59Z</time></trkpt>
<trkpt lat="50.154358" lon="4.529651"><time>2026-05-03T06:50:59Z</time></trkpt>
<trkpt lat="50.153511" lon="4.531201"><time>2026-05-03T07:00:59Z</time></trkpt>
<trkpt lat="50.152621" lon="4.531240"><time>2026-05-03T07:10:59Z</time></trkpt>
<trkpt lat="50.152082" lon="4.530762"><time>2026-05-03T07:20:59Z</time></trkpt>
<trkpt lat="50.151345" lon="4.530424"><time>2026-05-03T07:30:59Z</time></trkpt>
<trkpt lat="50.150195" lon="4.530294"><time>2026-05-03T07:40:59Z</time></trkpt>
</trkseg>
</trk>
<trk>
<name>nphnv8</name>
<cmt>r</cmt>
<desc>Neuville Chemin n°8 Rue des Navetières</desc>
<link href="https://chemins.be/neuville/chemin/8"/><trkseg>
<trkpt lat="50.173228" lon="4.517200"><time>2026-05-03T05:50:59Z</time></trkpt>
<trkpt lat="50.171752" lon="4.518315"><time>2026-05-03T06:00:59Z</time></trkpt>
<trkpt lat="50.169904" lon="4.515132"><time>2026-05-03T06:10:59Z</time></trkpt>
<trkpt lat="50.167434" lon="4.513570"><time>2026-05-03T06:20:59Z</time></trkpt>
<trkpt lat="50.165905" lon="4.514293"><time>2026-05-03T06:30:59Z</time></trkpt>
</trkseg></trk>
<trk>
<name>nphnv8</name>
<cmt>v</cmt>
<desc>Neuville Chemin n°8 Rue des Navetières</desc>
<link href="https://chemins.be/neuville/chemin/8"/><trkseg>
<trkpt lat="50.165905" lon="4.514293"><time>2026-05-03T06:30:59Z</time></trkpt>
<trkpt lat="50.164972" lon="4.512749"><time>2026-05-03T06:40:59Z</time></trkpt>
<trkpt lat="50.164689" lon="4.511633"><time>2026-05-03T06:50:59Z</time></trkpt>
</trkseg>
</trk>
<trk>
<name>nphnv9</name>
<cmt>d</cmt>
<desc>Neuville Chemin n°9 Allée des Chevreuils / Allée des Sangliers</desc>
<link href="https://chemins.be/neuville/chemin/9"/><trkseg>
<trkpt lat="50.149024" lon="4.503944"><time>2026-05-03T05:50:59Z</time></trkpt>
<trkpt lat="50.149015" lon="4.503832"><time>2026-05-03T06:00:59Z</time></trkpt>
<trkpt lat="50.148377" lon="4.503634"><time>2026-05-03T06:10:59Z</time></trkpt>
<trkpt lat="50.147757" lon="4.503255"><time>2026-05-03T06:20:59Z</time></trkpt>
<trkpt lat="50.146256" lon="4.500124"><time>2026-05-03T06:30:59Z</time></trkpt>
</trkseg></trk>
<trk>
<name>nphnv9</name>
<cmt>s</cmt>
<desc>Neuville Chemin n°9 Allée des Chevreuils / Allée des Sangliers</desc>
<link href="https://chemins.be/neuville/chemin/9"/><trkseg>
<trkpt lat="50.146256" lon="4.500124"><time>2026-05-03T06:30:59Z</time></trkpt>
<trkpt lat="50.146062" lon="4.499458"><time>2026-05-03T06:40:59Z</time></trkpt>
</trkseg></trk>
<trk>
<name>nphnv9</name>
<cmt>r</cmt>
<desc>Neuville Chemin n°9 Allée des Chevreuils / Allée des Sangliers</desc>
<link href="https://chemins.be/neuville/chemin/9"/><trkseg>
<trkpt lat="50.146062" lon="4.499458"><time>2026-05-03T06:40:59Z</time></trkpt>
<trkpt lat="50.145123" lon="4.495594"><time>2026-05-03T06:50:59Z</time></trkpt>
<trkpt lat="50.144513" lon="4.494054"><time>2026-05-03T07:00:59Z</time></trkpt>
<trkpt lat="50.144346" lon="4.490640"><time>2026-05-03T07:10:59Z</time></trkpt>
<trkpt lat="50.143471" lon="4.488083"><time>2026-05-03T07:20:59Z</time></trkpt>
</trkseg></trk>
<trk>
<name>nphnv9</name>
<cmt>v</cmt>
<desc>Neuville Chemin n°9 Allée des Chevreuils / Allée des Sangliers</desc>
<link href="https://chemins.be/neuville/chemin/9"/><trkseg>
<trkpt lat="50.143471" lon="4.488083"><time>2026-05-03T07:20:59Z</time></trkpt>
<trkpt lat="50.141837" lon="4.481932"><time>2026-05-03T07:30:59Z</time></trkpt>
<trkpt lat="50.141161" lon="4.480215"><time>2026-05-03T07:40:59Z</time></trkpt>
<trkpt lat="50.139836" lon="4.477674"><time>2026-05-03T07:50:59Z</time></trkpt>
<trkpt lat="50.139514" lon="4.476848"><time>2026-05-03T08:00:59Z</time></trkpt>
</trkseg>
</trk>
<trk>
<name>nphnvi1</name>
<cmt>r</cmt>
<desc>Neuville Chemin n°i1 Tapoumont</desc>
<link href="https://chemins.be/neuville/chemin/i1"/><trkseg>
<trkpt lat="50.156187" lon="4.505965"><time>2026-05-03T05:50:59Z</time></trkpt>
<trkpt lat="50.155043" lon="4.507445"><time>2026-05-03T06:00:59Z</time></trkpt>
</trkseg></trk>
<trk>
<name>nphnvi1</name>
<cmt>v</cmt>
<desc>Neuville Chemin n°i1 Tapoumont</desc>
<link href="https://chemins.be/neuville/chemin/i1"/><trkseg>
<trkpt lat="50.155043" lon="4.507445"><time>2026-05-03T06:00:59Z</time></trkpt>
<trkpt lat="50.154638" lon="4.508116"><time>2026-05-03T06:10:59Z</time></trkpt>
</trkseg>
</trk>
<trk>
<name>nphnvi10</name>
<cmt>r</cmt>
<desc>Neuville Chemin n°i10 </desc>
<link href="https://chemins.be/neuville/chemin/i10"/><trkseg>
<trkpt lat="50.174337" lon="4.522159"><time>2026-05-03T05:50:59Z</time></trkpt>
<trkpt lat="50.174372" lon="4.522621"><time>2026-05-03T06:00:59Z</time></trkpt>
</trkseg>
</trk>
<trk>
<name>nphnvi11</name>
<cmt>v</cmt>
<desc>Neuville Chemin n°i11 </desc>
<link href="https://chemins.be/neuville/chemin/i11"/><trkseg>
<trkpt lat="50.164675" lon="4.511625"><time>2026-05-03T05:50:59Z</time></trkpt>
<trkpt lat="50.164694" lon="4.511337"><time>2026-05-03T06:00:59Z</time></trkpt>
<trkpt lat="50.163963" lon="4.509668"><time>2026-05-03T06:10:59Z</time></trkpt>
<trkpt lat="50.163867" lon="4.509651"><time>2026-05-03T06:20:59Z</time></trkpt>
</trkseg>
</trk>
<trk>
<name>nphnvi12</name>
<cmt>q</cmt>
<desc>Neuville Chemin n°i12 </desc>
<link href="https://chemins.be/neuville/chemin/i12"/><trkseg>
<trkpt lat="50.149165" lon="4.495404"><time>2026-05-03T05:50:59Z</time></trkpt>
<trkpt lat="50.149888" lon="4.494466"><time>2026-05-03T06:00:59Z</time></trkpt>
<trkpt lat="50.149287" lon="4.488029"><time>2026-05-03T06:10:59Z</time></trkpt>
<trkpt lat="50.148584" lon="4.484707"><time>2026-05-03T06:20:59Z</time></trkpt>
<trkpt lat="50.147631" lon="4.483671"><time>2026-05-03T06:30:59Z</time></trkpt>
<trkpt lat="50.147473" lon="4.481923"><time>2026-05-03T06:40:59Z</time></trkpt>
</trkseg>
</trk>
<trk>
<name>nphnvi13</name>
<cmt>v</cmt>
<desc>Neuville Chemin n°i13 </desc>
<link href="https://chemins.be/neuville/chemin/i13"/><trkseg>
<trkpt lat="50.184615" lon="4.510558"><time>2026-05-03T05:50:59Z</time></trkpt>
<trkpt lat="50.183662" lon="4.513627"><time>2026-05-03T06:00:59Z</time></trkpt>
<trkpt lat="50.183433" lon="4.515143"><time>2026-05-03T06:10:59Z</time></trkpt>
</trkseg>
</trk>
<trk>
<name>nphnvi14</name>
<cmt>v</cmt>
<desc>Neuville Chemin n°i14 </desc>
<link href="https://chemins.be/neuville/chemin/i14"/><trkseg>
<trkpt lat="50.155586" lon="4.488877"><time>2026-05-03T05:50:59Z</time></trkpt>
<trkpt lat="50.155182" lon="4.488429"><time>2026-05-03T06:00:59Z</time></trkpt>
<trkpt lat="50.153941" lon="4.487870"><time>2026-05-03T06:10:59Z</time></trkpt>
<trkpt lat="50.153401" lon="4.484644"><time>2026-05-03T06:20:59Z</time></trkpt>
<trkpt lat="50.152719" lon="4.483976"><time>2026-05-03T06:30:59Z</time></trkpt>
</trkseg>
</trk>
<trk>
<name>nphnvi15</name>
<cmt>v</cmt>
<desc>Neuville Chemin n°i15 Rue du Bois Bouillet</desc>
<link href="https://chemins.be/neuville/chemin/i15"/><trkseg>
<trkpt lat="50.147315" lon="4.504876"><time>2026-05-03T05:50:59Z</time></trkpt>
<trkpt lat="50.147627" lon="4.507018"><time>2026-05-03T06:00:59Z</time></trkpt>
<trkpt lat="50.147491" lon="4.507899"><time>2026-05-03T06:10:59Z</time></trkpt>
<trkpt lat="50.147535" lon="4.508179"><time>2026-05-03T06:20:59Z</time></trkpt>
<trkpt lat="50.148993" lon="4.514563"><time>2026-05-03T06:30:59Z</time></trkpt>
<trkpt lat="50.149038" lon="4.514634"><time>2026-05-03T06:40:59Z</time></trkpt>
</trkseg>
</trk>
<trk>
<name>nphnvi2</name>
<cmt>d</cmt>
<desc>Neuville Chemin n°i2 </desc>
<link href="https://chemins.be/neuville/chemin/i2"/><trkseg>
<trkpt lat="50.168419" lon="4.502123"><time>2026-05-03T05:50:59Z</time></trkpt>
<trkpt lat="50.169400" lon="4.501426"><time>2026-05-03T06:00:59Z</time></trkpt>
</trkseg>
</trk>
<trk>
<name>nphnvi3</name>
<cmt>v</cmt>
<desc>Neuville Chemin n°i3 </desc>
<link href="https://chemins.be/neuville/chemin/i3"/><trkseg>
<trkpt lat="50.168805" lon="4.494426"><time>2026-05-03T05:50:59Z</time></trkpt>
<trkpt lat="50.168985" lon="4.494342"><time>2026-05-03T06:00:59Z</time></trkpt>
<trkpt lat="50.169291" lon="4.494357"><time>2026-05-03T06:10:59Z</time></trkpt>
<trkpt lat="50.169793" lon="4.495016"><time>2026-05-03T06:20:59Z</time></trkpt>
<trkpt lat="50.170558" lon="4.494934"><time>2026-05-03T06:30:59Z</time></trkpt>
</trkseg>
</trk>
<trk>
<name>nphnvi4</name>
<cmt>v</cmt>
<desc>Neuville Chemin n°i4 Rue de Fagnolle</desc>
<link href="https://chemins.be/neuville/chemin/i4"/><trkseg>
<trkpt lat="50.151442" lon="4.503979"><time>2026-05-03T05:50:59Z</time></trkpt>
<trkpt lat="50.151155" lon="4.503740"><time>2026-05-03T06:00:59Z</time></trkpt>
<trkpt lat="50.150967" lon="4.503026"><time>2026-05-03T06:10:59Z</time></trkpt>
</trkseg></trk>
<trk>
<name>nphnvi4</name>
<cmt>d</cmt>
<desc>Neuville Chemin n°i4 Rue de Fagnolle</desc>
<link href="https://chemins.be/neuville/chemin/i4"/><trkseg>
<trkpt lat="50.150967" lon="4.503026"><time>2026-05-03T06:10:59Z</time></trkpt>
<trkpt lat="50.150926" lon="4.502855"><time>2026-05-03T06:20:59Z</time></trkpt>
</trkseg></trk>
<trk>
<name>nphnvi4</name>
<cmt>r</cmt>
<desc>Neuville Chemin n°i4 Rue de Fagnolle</desc>
<link href="https://chemins.be/neuville/chemin/i4"/><trkseg>
<trkpt lat="50.150926" lon="4.502855"><time>2026-05-03T06:20:59Z</time></trkpt>
<trkpt lat="50.149731" lon="4.498475"><time>2026-05-03T06:30:59Z</time></trkpt>
</trkseg>
</trk>
<trk>
<name>nphnvi5</name>
<cmt>v</cmt>
<desc>Neuville Sentier n°i5 </desc>
<link href="https://chemins.be/neuville/sentier/i5"/><trkseg>
<trkpt lat="50.168671" lon="4.493852"><time>2026-05-03T05:50:59Z</time></trkpt>
<trkpt lat="50.168851" lon="4.493740"><time>2026-05-03T06:00:59Z</time></trkpt>
</trkseg>
</trk>
<trk>
<name>nphnvi6</name>
<cmt>v</cmt>
<desc>Neuville Chemin n°i6 </desc>
<link href="https://chemins.be/neuville/chemin/i6"/><trkseg>
<trkpt lat="50.168993" lon="4.495518"><time>2026-05-03T05:50:59Z</time></trkpt>
<trkpt lat="50.168767" lon="4.496105"><time>2026-05-03T06:00:59Z</time></trkpt>
</trkseg>
</trk>
<trk>
<name>nphnvi7</name>
<cmt>v</cmt>
<desc>Neuville Chemin n°i7 </desc>
<link href="https://chemins.be/neuville/chemin/i7"/><trkseg>
<trkpt lat="50.169853" lon="4.498362"><time>2026-05-03T05:50:59Z</time></trkpt>
<trkpt lat="50.169861" lon="4.498614"><time>2026-05-03T06:00:59Z</time></trkpt>
<trkpt lat="50.170077" lon="4.498909"><time>2026-05-03T06:10:59Z</time></trkpt>
<trkpt lat="50.170489" lon="4.500449"><time>2026-05-03T06:20:59Z</time></trkpt>
</trkseg>
</trk>
<trk>
<name>nphnvi8</name>
<cmt>r</cmt>
<desc>Neuville Chemin n°i8 Rue Station Nord</desc>
<link href="https://chemins.be/neuville/chemin/i8"/><trkseg>
<trkpt lat="50.176884" lon="4.519871"><time>2026-05-03T05:50:59Z</time></trkpt>
<trkpt lat="50.176911" lon="4.519493"><time>2026-05-03T06:00:59Z</time></trkpt>
<trkpt lat="50.176724" lon="4.518667"><time>2026-05-03T06:10:59Z</time></trkpt>
</trkseg>
</trk>
<trk>
<name>nphnvi9</name>
<cmt>r</cmt>
<desc>Neuville Chemin n°i9 </desc>
<link href="https://chemins.be/neuville/chemin/i9"/><trkseg>
<trkpt lat="50.174202" lon="4.522228"><time>2026-05-03T05:50:59Z</time></trkpt>
<trkpt lat="50.174228" lon="4.522620"><time>2026-05-03T06:00:59Z</time></trkpt>
</trkseg>
</trk>
<trk>
<name>nphnvL132</name>
<cmt>v</cmt>
<desc>Neuville Chemin n°L132 </desc>
<link href="https://chemins.be/neuville/chemin/L132"/><trkseg>
<trkpt lat="50.155461" lon="4.487548"><time>2026-05-03T05:50:59Z</time></trkpt>
<trkpt lat="50.155182" lon="4.488499"><time>2026-05-03T06:00:59Z</time></trkpt>
</trkseg></trk>
<trk>
<name>nphnvL132</name>
<cmt>d</cmt>
<desc>Neuville Chemin n°L132 </desc>
<link href="https://chemins.be/neuville/chemin/L132"/><trkseg>
<trkpt lat="50.155182" lon="4.488499"><time>2026-05-03T06:00:59Z</time></trkpt>
<trkpt lat="50.153162" lon="4.494203"><time>2026-05-03T06:10:59Z</time></trkpt>
</trkseg></trk>
<trk>
<name>nphnvL132</name>
<cmt>t</cmt>
<desc>Neuville Chemin n°L132 </desc>
<link href="https://chemins.be/neuville/chemin/L132"/><trkseg>
<trkpt lat="50.153162" lon="4.494203"><time>2026-05-03T06:10:59Z</time></trkpt>
<trkpt lat="50.149642" lon="4.498139"><time>2026-05-03T06:20:59Z</time></trkpt>
<trkpt lat="50.141987" lon="4.501797"><time>2026-05-03T06:30:59Z</time></trkpt>
<trkpt lat="50.138109" lon="4.504249"><time>2026-05-03T06:40:59Z</time></trkpt>
</trkseg>
</trk>
<trk>
<name>nphnvL136B</name>
<cmt>t</cmt>
<desc>Neuville Chemin n°L136B Allée des Lilas</desc>
<link href="https://chemins.be/neuville/chemin/L136B"/><trkseg>
<trkpt lat="50.179247" lon="4.520915"><time>2026-05-03T05:50:59Z</time></trkpt>
<trkpt lat="50.176002" lon="4.513554"><time>2026-05-03T06:00:59Z</time></trkpt>
<trkpt lat="50.173697" lon="4.508760"><time>2026-05-03T06:10:59Z</time></trkpt>
<trkpt lat="50.171977" lon="4.504205"><time>2026-05-03T06:20:59Z</time></trkpt>
</trkseg></trk>
<trk>
<name>nphnvL136B</name>
<cmt>v</cmt>
<desc>Neuville Chemin n°L136B Allée des Lilas</desc>
<link href="https://chemins.be/neuville/chemin/L136B"/><trkseg>
<trkpt lat="50.171977" lon="4.504205"><time>2026-05-03T06:20:59Z</time></trkpt>
<trkpt lat="50.171313" lon="4.502496"><time>2026-05-03T06:30:59Z</time></trkpt>
<trkpt lat="50.170623" lon="4.500464"><time>2026-05-03T06:40:59Z</time></trkpt>
<trkpt lat="50.169988" lon="4.498222"><time>2026-05-03T06:50:59Z</time></trkpt>
<trkpt lat="50.169226" lon="4.495771"><time>2026-05-03T07:00:59Z</time></trkpt>
<trkpt lat="50.168860" lon="4.493908"><time>2026-05-03T07:10:59Z</time></trkpt>
</trkseg>
</trk>
<trk>
<name>nphnvL136C</name>
<cmt>t</cmt>
<desc>Neuville Chemin n°L136C </desc>
<link href="https://chemins.be/neuville/chemin/L136C"/><trkseg>
<trkpt lat="50.171698" lon="4.504176"><time>2026-05-03T05:50:59Z</time></trkpt>
<trkpt lat="50.168125" lon="4.499589"><time>2026-05-03T06:00:59Z</time></trkpt>
<trkpt lat="50.162533" lon="4.493743"><time>2026-05-03T06:10:59Z</time></trkpt>
<trkpt lat="50.160183" lon="4.492906"><time>2026-05-03T06:20:59Z</time></trkpt>
<trkpt lat="50.156480" lon="4.493078"><time>2026-05-03T06:30:59Z</time></trkpt>
<trkpt lat="50.154775" lon="4.493532"><time>2026-05-03T06:40:59Z</time></trkpt>
<trkpt lat="50.153233" lon="4.494427"><time>2026-05-03T06:50:59Z</time></trkpt>
</trkseg>
</trk>
<trk>
<name>nphom10</name>
<cmt>v</cmt>
<desc>Omezée Chemin n°10 </desc>
<link href="https://chemins.be/omezee/chemin/10"/><trkseg>
<trkpt lat="50.196130" lon="4.691851"><time>2026-05-03T05:50:59Z</time></trkpt>
<trkpt lat="50.196903" lon="4.691968"><time>2026-05-03T06:00:59Z</time></trkpt>
<trkpt lat="50.198397" lon="4.694430"><time>2026-05-03T06:10:59Z</time></trkpt>
<trkpt lat="50.200373" lon="4.695228"><time>2026-05-03T06:20:59Z</time></trkpt>
<trkpt lat="50.201385" lon="4.696733"><time>2026-05-03T06:30:59Z</time></trkpt>
<trkpt lat="50.201768" lon="4.697744"><time>2026-05-03T06:40:59Z</time></trkpt>
<trkpt lat="50.201947" lon="4.698096"><time>2026-05-03T06:50:59Z</time></trkpt>
<trkpt lat="50.203592" lon="4.698429"><time>2026-05-03T07:00:59Z</time></trkpt>
<trkpt lat="50.205472" lon="4.704284"><time>2026-05-03T07:10:59Z</time></trkpt>
<trkpt lat="50.205089" lon="4.705920"><time>2026-05-03T07:20:59Z</time></trkpt>
<trkpt lat="50.205232" lon="4.706398"><time>2026-05-03T07:30:59Z</time></trkpt>
<trkpt lat="50.205914" lon="4.706739"><time>2026-05-03T07:40:59Z</time></trkpt>
</trkseg>
</trk>
<trk>
<name>nphom11</name>
<cmt>v</cmt>
<desc>Omezée Chemin n°11 </desc>
<link href="https://chemins.be/omezee/chemin/11"/><trkseg>
<trkpt lat="50.216946" lon="4.697331"><time>2026-05-03T05:50:59Z</time></trkpt>
<trkpt lat="50.214851" lon="4.697373"><time>2026-05-03T06:00:59Z</time></trkpt>
<trkpt lat="50.213811" lon="4.696245"><time>2026-05-03T06:10:59Z</time></trkpt>
<trkpt lat="50.212069" lon="4.695588"><time>2026-05-03T06:20:59Z</time></trkpt>
<trkpt lat="50.210208" lon="4.695645"><time>2026-05-03T06:30:59Z</time></trkpt>
<trkpt lat="50.208516" lon="4.696264"><time>2026-05-03T06:40:59Z</time></trkpt>
<trkpt lat="50.207465" lon="4.695809"><time>2026-05-03T06:50:59Z</time></trkpt>
<trkpt lat="50.206627" lon="4.696433"><time>2026-05-03T07:00:59Z</time></trkpt>
<trkpt lat="50.206278" lon="4.695772"><time>2026-05-03T07:10:59Z</time></trkpt>
<trkpt lat="50.206381" lon="4.694428"><time>2026-05-03T07:20:59Z</time></trkpt>
<trkpt lat="50.206202" lon="4.694077"><time>2026-05-03T07:30:59Z</time></trkpt>
<trkpt lat="50.204771" lon="4.694585"><time>2026-05-03T07:40:59Z</time></trkpt>
<trkpt lat="50.204139" lon="4.695506"><time>2026-05-03T07:50:59Z</time></trkpt>
</trkseg></trk>
<trk>
<name>nphom11</name>
<cmt>d</cmt>
<desc>Omezée Chemin n°11 </desc>
<link href="https://chemins.be/omezee/chemin/11"/><trkseg>
<trkpt lat="50.204139" lon="4.695506"><time>2026-05-03T07:50:59Z</time></trkpt>
<trkpt lat="50.202096" lon="4.696192"><time>2026-05-03T08:00:59Z</time></trkpt>
<trkpt lat="50.201772" lon="4.696330"><time>2026-05-03T08:10:59Z</time></trkpt>
<trkpt lat="50.201421" lon="4.696663"><time>2026-05-03T08:20:59Z</time></trkpt>
</trkseg>
</trk>
<trk>
<name>nphom12</name>
<cmt>d</cmt>
<desc>Omezée Chemin n°12 </desc>
<link href="https://chemins.be/omezee/chemin/12"/><trkseg>
<trkpt lat="50.201174" lon="4.688552"><time>2026-05-03T05:50:59Z</time></trkpt>
<trkpt lat="50.201807" lon="4.693472"><time>2026-05-03T06:00:59Z</time></trkpt>
<trkpt lat="50.201745" lon="4.696372"><time>2026-05-03T06:10:59Z</time></trkpt>
<trkpt lat="50.201706" lon="4.697646"><time>2026-05-03T06:20:59Z</time></trkpt>
</trkseg></trk>
<trk>
<name>nphom12</name>
<cmt>v</cmt>
<desc>Omezée Chemin n°12 </desc>
<link href="https://chemins.be/omezee/chemin/12"/><trkseg>
<trkpt lat="50.201706" lon="4.697646"><time>2026-05-03T06:20:59Z</time></trkpt>
<trkpt lat="50.201584" lon="4.699466"><time>2026-05-03T06:30:59Z</time></trkpt>
<trkpt lat="50.200267" lon="4.704037"><time>2026-05-03T06:40:59Z</time></trkpt>
<trkpt lat="50.200265" lon="4.704653"><time>2026-05-03T06:50:59Z</time></trkpt>
<trkpt lat="50.200611" lon="4.706113"><time>2026-05-03T07:00:59Z</time></trkpt>
<trkpt lat="50.201533" lon="4.710770"><time>2026-05-03T07:10:59Z</time></trkpt>
<trkpt lat="50.201510" lon="4.713191"><time>2026-05-03T07:20:59Z</time></trkpt>
</trkseg></trk>
<trk>
<name>nphom12</name>
<cmt>d</cmt>
<desc>Omezée Chemin n°12 </desc>
<link href="https://chemins.be/omezee/chemin/12"/><trkseg>
<trkpt lat="50.201510" lon="4.713191"><time>2026-05-03T07:20:59Z</time></trkpt>
<trkpt lat="50.201792" lon="4.714189"><time>2026-05-03T07:30:59Z</time></trkpt>
<trkpt lat="50.201898" lon="4.714974"><time>2026-05-03T07:40:59Z</time></trkpt>
<trkpt lat="50.201608" lon="4.715841"><time>2026-05-03T07:50:59Z</time></trkpt>
<trkpt lat="50.201050" lon="4.715837"><time>2026-05-03T08:00:59Z</time></trkpt>
</trkseg>
</trk>
<trk>
<name>nphom13</name>
<cmt>d</cmt>
<desc>Omezée Sentier n°13 </desc>
<link href="https://chemins.be/omezee/sentier/13"/><trkseg>
<trkpt lat="50.192883" lon="4.695582"><time>2026-05-03T05:50:59Z</time></trkpt>
<trkpt lat="50.192964" lon="4.695625"><time>2026-05-03T06:00:59Z</time></trkpt>
<trkpt lat="50.192927" lon="4.695821"><time>2026-05-03T06:10:59Z</time></trkpt>
<trkpt lat="50.193411" lon="4.696426"><time>2026-05-03T06:20:59Z</time></trkpt>
<trkpt lat="50.194120" lon="4.696893"><time>2026-05-03T06:30:59Z</time></trkpt>
<trkpt lat="50.194855" lon="4.697445"><time>2026-05-03T06:40:59Z</time></trkpt>
<trkpt lat="50.195387" lon="4.697140"><time>2026-05-03T06:50:59Z</time></trkpt>
<trkpt lat="50.196259" lon="4.697006"><time>2026-05-03T07:00:59Z</time></trkpt>
<trkpt lat="50.199378" lon="4.697196"><time>2026-05-03T07:10:59Z</time></trkpt>
<trkpt lat="50.201295" lon="4.696733"><time>2026-05-03T07:20:59Z</time></trkpt>
</trkseg>
</trk>
<trk>
<name>nphom14</name>
<cmt>d</cmt>
<desc>Omezée Sentier n°14 </desc>
<link href="https://chemins.be/omezee/sentier/14"/><trkseg>
<trkpt lat="50.193985" lon="4.696948"><time>2026-05-03T05:50:59Z</time></trkpt>
<trkpt lat="50.193613" lon="4.695041"><time>2026-05-03T06:00:59Z</time></trkpt>
<trkpt lat="50.193408" lon="4.694129"><time>2026-05-03T06:10:59Z</time></trkpt>
<trkpt lat="50.193410" lon="4.693583"><time>2026-05-03T06:20:59Z</time></trkpt>
<trkpt lat="50.193250" lon="4.692952"><time>2026-05-03T06:30:59Z</time></trkpt>
<trkpt lat="50.193485" lon="4.692379"><time>2026-05-03T06:40:59Z</time></trkpt>
<trkpt lat="50.193533" lon="4.691399"><time>2026-05-03T06:50:59Z</time></trkpt>
<trkpt lat="50.193419" lon="4.690278"><time>2026-05-03T07:00:59Z</time></trkpt>
<trkpt lat="50.193171" lon="4.688876"><time>2026-05-03T07:10:59Z</time></trkpt>
<trkpt lat="50.193220" lon="4.687392"><time>2026-05-03T07:20:59Z</time></trkpt>
</trkseg>
</trk>
<trk>
<name>nphom15</name>
<cmt>d</cmt>
<desc>Omezée Sentier n°15 </desc>
<link href="https://chemins.be/omezee/sentier/15"/><trkseg>
<trkpt lat="50.191600" lon="4.697590"><time>2026-05-03T05:50:59Z</time></trkpt>
<trkpt lat="50.191063" lon="4.697012"><time>2026-05-03T06:00:59Z</time></trkpt>
<trkpt lat="50.190173" lon="4.696894"><time>2026-05-03T06:10:59Z</time></trkpt>
<trkpt lat="50.188663" lon="4.696590"><time>2026-05-03T06:20:59Z</time></trkpt>
</trkseg>
</trk>
<trk>
<name>nphom16</name>
<cmt>d</cmt>
<desc>Omezée Sentier n°16 </desc>
<link href="https://chemins.be/omezee/sentier/16"/><trkseg>
<trkpt lat="50.190326" lon="4.703127"><time>2026-05-03T05:50:59Z</time></trkpt>
<trkpt lat="50.187871" lon="4.707127"><time>2026-05-03T06:00:59Z</time></trkpt>
</trkseg>
</trk>
<trk>
<name>nphom17</name>
<cmt>v</cmt>
<desc>Omezée Sentier n°17 </desc>
<link href="https://chemins.be/omezee/sentier/17"/><trkseg>
<trkpt lat="50.192666" lon="4.702261"><time>2026-05-03T05:50:59Z</time></trkpt>
<trkpt lat="50.190931" lon="4.705078"><time>2026-05-03T06:00:59Z</time></trkpt>
<trkpt lat="50.190199" lon="4.706669"><time>2026-05-03T06:10:59Z</time></trkpt>
</trkseg>
</trk>
<trk>
<name>nphom18</name>
<cmt>v</cmt>
<desc>Omezée Sentier n°18 </desc>
<link href="https://chemins.be/omezee/sentier/18"/><trkseg>
<trkpt lat="50.193320" lon="4.702980"><time>2026-05-03T05:50:59Z</time></trkpt>
<trkpt lat="50.193812" lon="4.703852"><time>2026-05-03T06:00:59Z</time></trkpt>
<trkpt lat="50.194039" lon="4.706108"><time>2026-05-03T06:10:59Z</time></trkpt>
<trkpt lat="50.194356" lon="4.708603"><time>2026-05-03T06:20:59Z</time></trkpt>
<trkpt lat="50.194854" lon="4.710469"><time>2026-05-03T06:30:59Z</time></trkpt>
<trkpt lat="50.195399" lon="4.711510"><time>2026-05-03T06:40:59Z</time></trkpt>
<trkpt lat="50.195962" lon="4.712578"><time>2026-05-03T06:50:59Z</time></trkpt>
<trkpt lat="50.196236" lon="4.714065"><time>2026-05-03T07:00:59Z</time></trkpt>
<trkpt lat="50.196559" lon="4.714333"><time>2026-05-03T07:10:59Z</time></trkpt>
<trkpt lat="50.197350" lon="4.714395"><time>2026-05-03T07:20:59Z</time></trkpt>
</trkseg>
</trk>
<trk>
<name>nphom19</name>
<cmt>d</cmt>
<desc>Omezée Sentier n°19 </desc>
<link href="https://chemins.be/omezee/sentier/19"/><trkseg>
<trkpt lat="50.192639" lon="4.702289"><time>2026-05-03T05:50:59Z</time></trkpt>
<trkpt lat="50.192535" lon="4.704025"><time>2026-05-03T06:00:59Z</time></trkpt>
<trkpt lat="50.192010" lon="4.705295"><time>2026-05-03T06:10:59Z</time></trkpt>
<trkpt lat="50.192053" lon="4.706010"><time>2026-05-03T06:20:59Z</time></trkpt>
</trkseg>
</trk>
<trk>
<name>nphom2</name>
<cmt>r</cmt>
<desc>Omezée Chemin n°2 Rue d'Omezée</desc>
<link href="https://chemins.be/omezee/chemin/2"/><trkseg>
<trkpt lat="50.193134" lon="4.699029"><time>2026-05-03T05:50:59Z</time></trkpt>
<trkpt lat="50.192851" lon="4.700316"><time>2026-05-03T06:00:59Z</time></trkpt>
<trkpt lat="50.192587" lon="4.701714"><time>2026-05-03T06:10:59Z</time></trkpt>
</trkseg></trk>
<trk>
<name>nphom2</name>
<cmt>v</cmt>
<desc>Omezée Chemin n°2 Rue d'Omezée</desc>
<link href="https://chemins.be/omezee/chemin/2"/><trkseg>
<trkpt lat="50.192587" lon="4.701714"><time>2026-05-03T06:10:59Z</time></trkpt>
<trkpt lat="50.191065" lon="4.702516"><time>2026-05-03T06:20:59Z</time></trkpt>
<trkpt lat="50.190543" lon="4.702512"><time>2026-05-03T06:30:59Z</time></trkpt>
<trkpt lat="50.190026" lon="4.704273"><time>2026-05-03T06:40:59Z</time></trkpt>
<trkpt lat="50.190090" lon="4.706878"><time>2026-05-03T06:50:59Z</time></trkpt>
<trkpt lat="50.189735" lon="4.707925"><time>2026-05-03T07:00:59Z</time></trkpt>
<trkpt lat="50.189140" lon="4.708944"><time>2026-05-03T07:10:59Z</time></trkpt>
<trkpt lat="50.189011" lon="4.710119"><time>2026-05-03T07:20:59Z</time></trkpt>
</trkseg>
</trk>
<trk>
<name>nphom3</name>
<cmt>v</cmt>
<desc>Omezée Chemin n°3 </desc>
<link href="https://chemins.be/omezee/chemin/3"/><trkseg>
<trkpt lat="50.190544" lon="4.702456"><time>2026-05-03T05:50:59Z</time></trkpt>
<trkpt lat="50.188462" lon="4.700901"><time>2026-05-03T06:00:59Z</time></trkpt>
</trkseg>
</trk>
<trk>
<name>nphom4</name>
<cmt>v</cmt>
<desc>Omezée Chemin n°4 </desc>
<link href="https://chemins.be/omezee/chemin/4"/><trkseg>
<trkpt lat="50.192604" lon="4.701798"><time>2026-05-03T05:50:59Z</time></trkpt>
<trkpt lat="50.192783" lon="4.702276"><time>2026-05-03T06:00:59Z</time></trkpt>
<trkpt lat="50.193023" lon="4.702770"><time>2026-05-03T06:10:59Z</time></trkpt>
<trkpt lat="50.193330" lon="4.702798"><time>2026-05-03T06:20:59Z</time></trkpt>
<trkpt lat="50.193835" lon="4.702663"><time>2026-05-03T06:30:59Z</time></trkpt>
<trkpt lat="50.194247" lon="4.702552"><time>2026-05-03T06:40:59Z</time></trkpt>
<trkpt lat="50.195191" lon="4.702657"><time>2026-05-03T06:50:59Z</time></trkpt>
</trkseg></trk>
<trk>
<name>nphom4</name>
<cmt>s</cmt>
<desc>Omezée Chemin n°4 </desc>
<link href="https://chemins.be/omezee/chemin/4"/><trkseg>
<trkpt lat="50.195191" lon="4.702657"><time>2026-05-03T06:50:59Z</time></trkpt>
<trkpt lat="50.196234" lon="4.702664"><time>2026-05-03T07:00:59Z</time></trkpt>
<trkpt lat="50.199765" lon="4.703613"><time>2026-05-03T07:10:59Z</time></trkpt>
<trkpt lat="50.200140" lon="4.704218"><time>2026-05-03T07:20:59Z</time></trkpt>
</trkseg></trk>
<trk>
<name>nphom4</name>
<cmt>v</cmt>
<desc>Omezée Chemin n°4 </desc>
<link href="https://chemins.be/omezee/chemin/4"/><trkseg>
<trkpt lat="50.200140" lon="4.704218"><time>2026-05-03T07:20:59Z</time></trkpt>
<trkpt lat="50.200292" lon="4.704710"><time>2026-05-03T07:30:59Z</time></trkpt>
<trkpt lat="50.201818" lon="4.705617"><time>2026-05-03T07:40:59Z</time></trkpt>
<trkpt lat="50.202489" lon="4.706714"><time>2026-05-03T07:50:59Z</time></trkpt>
<trkpt lat="50.203039" lon="4.709198"><time>2026-05-03T08:00:59Z</time></trkpt>
<trkpt lat="50.203679" lon="4.708558"><time>2026-05-03T08:10:59Z</time></trkpt>
<trkpt lat="50.203786" lon="4.708881"><time>2026-05-03T08:20:59Z</time></trkpt>
</trkseg>
</trk>
<trk>
<name>nphom8</name>
<cmt>v</cmt>
<desc>Omezée Chemin n°8 </desc>
<link href="https://chemins.be/omezee/chemin/8"/><trkseg>
<trkpt lat="50.193500" lon="4.686946"><time>2026-05-03T05:50:59Z</time></trkpt>
<trkpt lat="50.192751" lon="4.688033"><time>2026-05-03T06:00:59Z</time></trkpt>
<trkpt lat="50.191750" lon="4.689104"><time>2026-05-03T06:10:59Z</time></trkpt>
<trkpt lat="50.190858" lon="4.689841"><time>2026-05-03T06:20:59Z</time></trkpt>
</trkseg>
</trk>
<trk>
<name>nphomi1</name>
<cmt>s</cmt>
<desc>Omezée Chemin n°i1 </desc>
<link href="https://chemins.be/omezee/chemin/i1"/><trkseg>
<trkpt lat="50.204067" lon="4.695659"><time>2026-05-03T05:50:59Z</time></trkpt>
<trkpt lat="50.203648" lon="4.697687"><time>2026-05-03T06:00:59Z</time></trkpt>
<trkpt lat="50.203520" lon="4.698261"><time>2026-05-03T06:10:59Z</time></trkpt>
</trkseg>
</trk>
<trk>
<name>nphomi2</name>
<cmt>s</cmt>
<desc>Omezée Chemin n°i2 </desc>
<link href="https://chemins.be/omezee/chemin/i2"/><trkseg>
<trkpt lat="50.206319" lon="4.694148"><time>2026-05-03T05:50:59Z</time></trkpt>
<trkpt lat="50.206617" lon="4.693771"><time>2026-05-03T06:00:59Z</time></trkpt>
<trkpt lat="50.206951" lon="4.693031"><time>2026-05-03T06:10:59Z</time></trkpt>
<trkpt lat="50.207553" lon="4.693105"><time>2026-05-03T06:20:59Z</time></trkpt>
<trkpt lat="50.207678" lon="4.693443"><time>2026-05-03T06:30:59Z</time></trkpt>
<trkpt lat="50.208630" lon="4.694093"><time>2026-05-03T06:40:59Z</time></trkpt>
<trkpt lat="50.209215" lon="4.693621"><time>2026-05-03T06:50:59Z</time></trkpt>
<trkpt lat="50.210005" lon="4.693977"><time>2026-05-03T07:00:59Z</time></trkpt>
<trkpt lat="50.210516" lon="4.694569"><time>2026-05-03T07:10:59Z</time></trkpt>
<trkpt lat="50.211556" lon="4.695529"><time>2026-05-03T07:20:59Z</time></trkpt>
</trkseg>
</trk>
<trk>
<name>nphomi3</name>
<cmt>s</cmt>
<desc>Omezée Chemin n°i3 </desc>
<link href="https://chemins.be/omezee/chemin/i3"/><trkseg>
<trkpt lat="50.206608" lon="4.693757"><time>2026-05-03T05:50:59Z</time></trkpt>
<trkpt lat="50.206624" lon="4.694164"><time>2026-05-03T06:00:59Z</time></trkpt>
<trkpt lat="50.206480" lon="4.694541"><time>2026-05-03T06:10:59Z</time></trkpt>
</trkseg>
</trk>
<trk>
<name>nphomi4</name>
<cmt>v</cmt>
<desc>Omezée Chemin n°i4 </desc>
<link href="https://chemins.be/omezee/chemin/i4"/><trkseg>
<trkpt lat="50.205331" lon="4.706342"><time>2026-05-03T05:50:59Z</time></trkpt>
<trkpt lat="50.204366" lon="4.707218"><time>2026-05-03T06:00:59Z</time></trkpt>
<trkpt lat="50.203697" lon="4.708586"><time>2026-05-03T06:10:59Z</time></trkpt>
</trkseg>
</trk>
<trk>
<name>nphph1</name>
<cmt>s</cmt>
<desc>Philippeville Chemin n°1 </desc>
<link href="https://chemins.be/philippeville/chemin/1"/><trkseg>
<trkpt lat="50.200521" lon="4.555944"><time>2026-05-03T05:50:59Z</time></trkpt>
<trkpt lat="50.201571" lon="4.557111"><time>2026-05-03T06:00:59Z</time></trkpt>
</trkseg></trk>
<trk>
<name>nphph1</name>
<cmt>v</cmt>
<desc>Philippeville Chemin n°1 </desc>
<link href="https://chemins.be/philippeville/chemin/1"/><trkseg>
<trkpt lat="50.201571" lon="4.557111"><time>2026-05-03T06:00:59Z</time></trkpt>
<trkpt lat="50.202784" lon="4.557438"><time>2026-05-03T06:10:59Z</time></trkpt>
<trkpt lat="50.203870" lon="4.558549"><time>2026-05-03T06:20:59Z</time></trkpt>
<trkpt lat="50.204364" lon="4.558873"><time>2026-05-03T06:30:59Z</time></trkpt>
<trkpt lat="50.205802" lon="4.559131"><time>2026-05-03T06:40:59Z</time></trkpt>
<trkpt lat="50.206359" lon="4.559833"><time>2026-05-03T06:50:59Z</time></trkpt>
<trkpt lat="50.207939" lon="4.560904"><time>2026-05-03T07:00:59Z</time></trkpt>
<trkpt lat="50.208405" lon="4.561789"><time>2026-05-03T07:10:59Z</time></trkpt>
<trkpt lat="50.209642" lon="4.564358"><time>2026-05-03T07:20:59Z</time></trkpt>
<trkpt lat="50.210377" lon="4.565580"><time>2026-05-03T07:30:59Z</time></trkpt>
</trkseg>
</trk>
<trk>
<name>nphph10</name>
<cmt>v</cmt>
<desc>Philippeville Chemin n°10 </desc>
<link href="https://chemins.be/philippeville/chemin/10"/><trkseg>
<trkpt lat="50.193334" lon="4.521870"><time>2026-05-03T05:50:59Z</time></trkpt>
<trkpt lat="50.191960" lon="4.518650"><time>2026-05-03T06:00:59Z</time></trkpt>
<trkpt lat="50.191084" lon="4.516793"><time>2026-05-03T06:10:59Z</time></trkpt>
<trkpt lat="50.190881" lon="4.514118"><time>2026-05-03T06:20:59Z</time></trkpt>
</trkseg>
</trk>
<trk>
<name>nphph11</name>
<cmt>d</cmt>
<desc>Philippeville Chemin n°11 </desc>
<link href="https://chemins.be/philippeville/chemin/11"/><trkseg>
<trkpt lat="50.187635" lon="4.514662"><time>2026-05-03T05:50:59Z</time></trkpt>
<trkpt lat="50.187858" lon="4.515383"><time>2026-05-03T06:00:59Z</time></trkpt>
<trkpt lat="50.188552" lon="4.516062"><time>2026-05-03T06:10:59Z</time></trkpt>
<trkpt lat="50.189847" lon="4.518585"><time>2026-05-03T06:20:59Z</time></trkpt>
</trkseg></trk>
<trk>
<name>nphph11</name>
<cmt>v</cmt>
<desc>Philippeville Chemin n°11 </desc>
<link href="https://chemins.be/philippeville/chemin/11"/><trkseg>
<trkpt lat="50.189847" lon="4.518585"><time>2026-05-03T06:20:59Z</time></trkpt>
<trkpt lat="50.191016" lon="4.520831"><time>2026-05-03T06:30:59Z</time></trkpt>
<trkpt lat="50.191920" lon="4.523490"><time>2026-05-03T06:40:59Z</time></trkpt>
<trkpt lat="50.192757" lon="4.522919"><time>2026-05-03T06:50:59Z</time></trkpt>
</trkseg></trk>
<trk>
<name>nphph11</name>
<cmt>s</cmt>
<desc>Philippeville Chemin n°11 </desc>
<link href="https://chemins.be/philippeville/chemin/11"/><trkseg>
<trkpt lat="50.192757" lon="4.522919"><time>2026-05-03T06:50:59Z</time></trkpt>
<trkpt lat="50.193094" lon="4.526673"><time>2026-05-03T07:00:59Z</time></trkpt>
<trkpt lat="50.193790" lon="4.530429"><time>2026-05-03T07:10:59Z</time></trkpt>
</trkseg></trk>
<trk>
<name>nphph11</name>
<cmt>v</cmt>
<desc>Philippeville Chemin n°11 </desc>
<link href="https://chemins.be/philippeville/chemin/11"/><trkseg>
<trkpt lat="50.193790" lon="4.530429"><time>2026-05-03T07:10:59Z</time></trkpt>
<trkpt lat="50.194741" lon="4.531734"><time>2026-05-03T07:20:59Z</time></trkpt>
</trkseg>
</trk>
<trk>
<name>nphph12</name>
<cmt>v</cmt>
<desc>Philippeville Chemin n°12 Le Tourniquet / Avenue Vauban</desc>
<link href="https://chemins.be/philippeville/chemin/12"/><trkseg>
<trkpt lat="50.191164" lon="4.524062"><time>2026-05-03T05:50:59Z</time></trkpt>
<trkpt lat="50.191753" lon="4.527663"><time>2026-05-03T06:00:59Z</time></trkpt>
<trkpt lat="50.191875" lon="4.530100"><time>2026-05-03T06:10:59Z</time></trkpt>
</trkseg></trk>
<trk>
<name>nphph12</name>
<cmt>s</cmt>
<desc>Philippeville Chemin n°12 Le Tourniquet / Avenue Vauban</desc>
<link href="https://chemins.be/philippeville/chemin/12"/><trkseg>
<trkpt lat="50.191875" lon="4.530100"><time>2026-05-03T06:10:59Z</time></trkpt>
<trkpt lat="50.191982" lon="4.531123"><time>2026-05-03T06:20:59Z</time></trkpt>
</trkseg></trk>
<trk>
<name>nphph12</name>
<cmt>v</cmt>
<desc>Philippeville Chemin n°12 Le Tourniquet / Avenue Vauban</desc>
<link href="https://chemins.be/philippeville/chemin/12"/><trkseg>
<trkpt lat="50.191982" lon="4.531123"><time>2026-05-03T06:20:59Z</time></trkpt>
<trkpt lat="50.192214" lon="4.532580"><time>2026-05-03T06:30:59Z</time></trkpt>
</trkseg></trk>
<trk>
<name>nphph12</name>
<cmt>r</cmt>
<desc>Philippeville Chemin n°12 Le Tourniquet / Avenue Vauban</desc>
<link href="https://chemins.be/philippeville/chemin/12"/><trkseg>
<trkpt lat="50.192214" lon="4.532580"><time>2026-05-03T06:30:59Z</time></trkpt>
<trkpt lat="50.192597" lon="4.534836"><time>2026-05-03T06:40:59Z</time></trkpt>
</trkseg></trk>
<trk>
<name>nphph12</name>
<cmt>s</cmt>
<desc>Philippeville Chemin n°12 Le Tourniquet / Avenue Vauban</desc>
<link href="https://chemins.be/philippeville/chemin/12"/><trkseg>
<trkpt lat="50.192597" lon="4.534836"><time>2026-05-03T06:40:59Z</time></trkpt>
<trkpt lat="50.192801" lon="4.536979"><time>2026-05-03T06:50:59Z</time></trkpt>
<trkpt lat="50.192961" lon="4.537638"><time>2026-05-03T07:00:59Z</time></trkpt>
</trkseg></trk>
<trk>
<name>nphph12</name>
<cmt>r</cmt>
<desc>Philippeville Chemin n°12 Le Tourniquet / Avenue Vauban</desc>
<link href="https://chemins.be/philippeville/chemin/12"/><trkseg>
<trkpt lat="50.192961" lon="4.537638"><time>2026-05-03T07:00:59Z</time></trkpt>
<trkpt lat="50.192789" lon="4.538898"><time>2026-05-03T07:10:59Z</time></trkpt>
<trkpt lat="50.192759" lon="4.540886"><time>2026-05-03T07:20:59Z</time></trkpt>
<trkpt lat="50.192234" lon="4.543083"><time>2026-05-03T07:30:59Z</time></trkpt>
<trkpt lat="50.191595" lon="4.543879"><time>2026-05-03T07:40:59Z</time></trkpt>
<trkpt lat="50.192258" lon="4.545030"><time>2026-05-03T07:50:59Z</time></trkpt>
<trkpt lat="50.192354" lon="4.546753"><time>2026-05-03T08:00:59Z</time></trkpt>
</trkseg></trk>
<trk>
<name>nphph12</name>
<cmt>s</cmt>
<desc>Philippeville Chemin n°12 Le Tourniquet / Avenue Vauban</desc>
<link href="https://chemins.be/philippeville/chemin/12"/><trkseg>
<trkpt lat="50.192354" lon="4.546753"><time>2026-05-03T08:00:59Z</time></trkpt>
<trkpt lat="50.192659" lon="4.547468"><time>2026-05-03T08:10:59Z</time></trkpt>
<trkpt lat="50.193007" lon="4.549262"><time>2026-05-03T08:20:59Z</time></trkpt>
</trkseg></trk>
<trk>
<name>nphph12</name>
<cmt>r</cmt>
<desc>Philippeville Chemin n°12 Le Tourniquet / Avenue Vauban</desc>
<link href="https://chemins.be/philippeville/chemin/12"/><trkseg>
<trkpt lat="50.193007" lon="4.549262"><time>2026-05-03T08:20:59Z</time></trkpt>
<trkpt lat="50.193608" lon="4.550119"><time>2026-05-03T08:30:59Z</time></trkpt>
<trkpt lat="50.194020" lon="4.551073"><time>2026-05-03T08:40:59Z</time></trkpt>
<trkpt lat="50.194559" lon="4.551523"><time>2026-05-03T08:50:59Z</time></trkpt>
</trkseg>
</trk>
<trk>
<name>nphph13</name>
<cmt>v</cmt>
<desc>Philippeville Chemin n°13 </desc>
<link href="https://chemins.be/philippeville/chemin/13"/><trkseg>
<trkpt lat="50.192816" lon="4.538870"><time>2026-05-03T05:50:59Z</time></trkpt>
<trkpt lat="50.192330" lon="4.539134"><time>2026-05-03T06:00:59Z</time></trkpt>
<trkpt lat="50.190226" lon="4.539197"><time>2026-05-03T06:10:59Z</time></trkpt>
<trkpt lat="50.189749" lon="4.539279"><time>2026-05-03T06:20:59Z</time></trkpt>
</trkseg>
</trk>
<trk>
<name>nphph14</name>
<cmt>r</cmt>
<desc>Philippeville Chemin n°14 Avenue Vauban</desc>
<link href="https://chemins.be/philippeville/chemin/14"/><trkseg>
<trkpt lat="50.192926" lon="4.549290"><time>2026-05-03T05:50:59Z</time></trkpt>
<trkpt lat="50.192621" lon="4.548897"><time>2026-05-03T06:00:59Z</time></trkpt>
<trkpt lat="50.190897" lon="4.547252"><time>2026-05-03T06:10:59Z</time></trkpt>
</trkseg></trk>
<trk>
<name>nphph14</name>
<cmt>v</cmt>
<desc>Philippeville Chemin n°14 Avenue Vauban</desc>
<link href="https://chemins.be/philippeville/chemin/14"/><trkseg>
<trkpt lat="50.190897" lon="4.547252"><time>2026-05-03T06:10:59Z</time></trkpt>
<trkpt lat="50.190190" lon="4.545386"><time>2026-05-03T06:20:59Z</time></trkpt>
<trkpt lat="50.190030" lon="4.541912"><time>2026-05-03T06:30:59Z</time></trkpt>
<trkpt lat="50.190070" lon="4.541185"><time>2026-05-03T06:40:59Z</time></trkpt>
<trkpt lat="50.189765" lon="4.539446"><time>2026-05-03T06:50:59Z</time></trkpt>
<trkpt lat="50.189644" lon="4.539231"><time>2026-05-03T07:00:59Z</time></trkpt>
<trkpt lat="50.186187" lon="4.534309"><time>2026-05-03T07:10:59Z</time></trkpt>
</trkseg>
</trk>
<trk>
<name>nphph15</name>
<cmt>s</cmt>
<desc>Philippeville Chemin n°15 Rue du Moulin</desc>
<link href="https://chemins.be/philippeville/chemin/15"/><trkseg>
<trkpt lat="50.189398" lon="4.533648"><time>2026-05-03T05:50:59Z</time></trkpt>
<trkpt lat="50.189316" lon="4.534138"><time>2026-05-03T06:00:59Z</time></trkpt>
<trkpt lat="50.188642" lon="4.534066"><time>2026-05-03T06:10:59Z</time></trkpt>
<trkpt lat="50.187617" lon="4.534034"><time>2026-05-03T06:20:59Z</time></trkpt>
</trkseg></trk>
<trk>
<name>nphph15</name>
<cmt>r</cmt>
<desc>Philippeville Chemin n°15 Rue du Moulin</desc>
<link href="https://chemins.be/philippeville/chemin/15"/><trkseg>
<trkpt lat="50.187617" lon="4.534034"><time>2026-05-03T06:20:59Z</time></trkpt>
<trkpt lat="50.186098" lon="4.534099"><time>2026-05-03T06:30:59Z</time></trkpt>
</trkseg></trk>
<trk>
<name>nphph15</name>
<cmt>v</cmt>
<desc>Philippeville Chemin n°15 Rue du Moulin</desc>
<link href="https://chemins.be/philippeville/chemin/15"/><trkseg>
<trkpt lat="50.186098" lon="4.534099"><time>2026-05-03T06:30:59Z</time></trkpt>
<trkpt lat="50.184884" lon="4.534305"><time>2026-05-03T06:40:59Z</time></trkpt>
<trkpt lat="50.183767" lon="4.535799"><time>2026-05-03T06:50:59Z</time></trkpt>
<trkpt lat="50.183308" lon="4.535952"><time>2026-05-03T07:00:59Z</time></trkpt>
<trkpt lat="50.182768" lon="4.536356"><time>2026-05-03T07:10:59Z</time></trkpt>
<trkpt lat="50.182192" lon="4.536438"><time>2026-05-03T07:20:59Z</time></trkpt>
<trkpt lat="50.181815" lon="4.536576"><time>2026-05-03T07:30:59Z</time></trkpt>
<trkpt lat="50.181311" lon="4.536897"><time>2026-05-03T07:40:59Z</time></trkpt>
<trkpt lat="50.180727" lon="4.536573"><time>2026-05-03T07:50:59Z</time></trkpt>
</trkseg>
</trk>
<trk>
<name>nphph16</name>
<cmt>v</cmt>
<desc>Philippeville Chemin n°16 </desc>
<link href="https://chemins.be/philippeville/chemin/16"/><trkseg>
<trkpt lat="50.184883" lon="4.534487"><time>2026-05-03T05:50:59Z</time></trkpt>
<trkpt lat="50.184917" lon="4.536125"><time>2026-05-03T06:00:59Z</time></trkpt>
<trkpt lat="50.185796" lon="4.537431"><time>2026-05-03T06:10:59Z</time></trkpt>
<trkpt lat="50.186065" lon="4.537922"><time>2026-05-03T06:20:59Z</time></trkpt>
<trkpt lat="50.186146" lon="4.538328"><time>2026-05-03T06:30:59Z</time></trkpt>
<trkpt lat="50.186504" lon="4.539197"><time>2026-05-03T06:40:59Z</time></trkpt>
<trkpt lat="50.186620" lon="4.539870"><time>2026-05-03T06:50:59Z</time></trkpt>
<trkpt lat="50.186528" lon="4.541102"><time>2026-05-03T07:00:59Z</time></trkpt>
<trkpt lat="50.186652" lon="4.542209"><time>2026-05-03T07:10:59Z</time></trkpt>
<trkpt lat="50.186929" lon="4.543428"><time>2026-05-03T07:20:59Z</time></trkpt>
</trkseg></trk>
<trk>
<name>nphph16</name>
<cmt>r</cmt>
<desc>Philippeville Chemin n°16 </desc>
<link href="https://chemins.be/philippeville/chemin/16"/><trkseg>
<trkpt lat="50.186929" lon="4.543428"><time>2026-05-03T07:20:59Z</time></trkpt>
<trkpt lat="50.187014" lon="4.544447"><time>2026-05-03T07:30:59Z</time></trkpt>
<trkpt lat="50.188190" lon="4.550782"><time>2026-05-03T07:40:59Z</time></trkpt>
<trkpt lat="50.189322" lon="4.554627"><time>2026-05-03T07:50:59Z</time></trkpt>
</trkseg>
</trk>
<trk>
<name>nphph17</name>
<cmt>v</cmt>
<desc>Philippeville Chemin n°17 Tienne al Gatte</desc>
<link href="https://chemins.be/philippeville/chemin/17"/><trkseg>
<trkpt lat="50.182316" lon="4.555774"><time>2026-05-03T05:50:59Z</time></trkpt>
<trkpt lat="50.181856" lon="4.556416"><time>2026-05-03T06:00:59Z</time></trkpt>
<trkpt lat="50.179328" lon="4.558413"><time>2026-05-03T06:10:59Z</time></trkpt>
</trkseg>
</trk>
<trk>
<name>nphph19</name>
<cmt>v</cmt>
<desc>Philippeville Chemin n°19 </desc>
<link href="https://chemins.be/philippeville/chemin/19"/><trkseg>
<trkpt lat="50.183776" lon="4.535841"><time>2026-05-03T05:50:59Z</time></trkpt>
<trkpt lat="50.184162" lon="4.536123"><time>2026-05-03T06:00:59Z</time></trkpt>
<trkpt lat="50.184710" lon="4.536307"><time>2026-05-03T06:10:59Z</time></trkpt>
<trkpt lat="50.184899" lon="4.536167"><time>2026-05-03T06:20:59Z</time></trkpt>
</trkseg>
</trk>
<trk>
<name>nphph2</name>
<cmt>r</cmt>
<desc>Philippeville Chemin n°2 Chemin du Pont Busnel</desc>
<link href="https://chemins.be/philippeville/chemin/2"/><trkseg>
<trkpt lat="50.200273" lon="4.559123"><time>2026-05-03T05:50:59Z</time></trkpt>
<trkpt lat="50.201163" lon="4.559126"><time>2026-05-03T06:00:59Z</time></trkpt>
<trkpt lat="50.203079" lon="4.558601"><time>2026-05-03T06:10:59Z</time></trkpt>
<trkpt lat="50.203879" lon="4.558605"><time>2026-05-03T06:20:59Z</time></trkpt>
</trkseg>
</trk>
<trk>
<name>nphph20</name>
<cmt>v</cmt>
<desc>Philippeville Chemin n°20 </desc>
<link href="https://chemins.be/philippeville/chemin/20"/><trkseg>
<trkpt lat="50.179893" lon="4.521715"><time>2026-05-03T05:50:59Z</time></trkpt>
<trkpt lat="50.180784" lon="4.521186"><time>2026-05-03T06:00:59Z</time></trkpt>
<trkpt lat="50.181415" lon="4.519886"><time>2026-05-03T06:10:59Z</time></trkpt>
<trkpt lat="50.181731" lon="4.518780"><time>2026-05-03T06:20:59Z</time></trkpt>
<trkpt lat="50.182722" lon="4.517495"><time>2026-05-03T06:30:59Z</time></trkpt>
</trkseg>
</trk>
<trk>
<name>nphph21</name>
<cmt>d</cmt>
<desc>Philippeville Chemin n°21 </desc>
<link href="https://chemins.be/philippeville/chemin/21"/><trkseg>
<trkpt lat="50.180199" lon="4.521632"><time>2026-05-03T05:50:59Z</time></trkpt>
<trkpt lat="50.179622" lon="4.523212"><time>2026-05-03T06:00:59Z</time></trkpt>
</trkseg>
</trk>
<trk>
<name>nphph22</name>
<cmt>v</cmt>
<desc>Philippeville Chemin n°22 Rue Ernest Lahaye</desc>
<link href="https://chemins.be/philippeville/chemin/22"/><trkseg>
<trkpt lat="50.179722" lon="4.558057"><time>2026-05-03T05:50:59Z</time></trkpt>
<trkpt lat="50.178761" lon="4.554323"><time>2026-05-03T06:00:59Z</time></trkpt>
<trkpt lat="50.178623" lon="4.552535"><time>2026-05-03T06:10:59Z</time></trkpt>
<trkpt lat="50.177670" lon="4.550074"><time>2026-05-03T06:20:59Z</time></trkpt>
<trkpt lat="50.177542" lon="4.548787"><time>2026-05-03T06:30:59Z</time></trkpt>
</trkseg>
</trk>
<trk>
<name>nphph23</name>
<cmt>v</cmt>
<desc>Philippeville Chemin n°23 </desc>
<link href="https://chemins.be/philippeville/chemin/23"/><trkseg>
<trkpt lat="50.180811" lon="4.557420"><time>2026-05-03T05:50:59Z</time></trkpt>
<trkpt lat="50.180604" lon="4.558078"><time>2026-05-03T06:00:59Z</time></trkpt>
<trkpt lat="50.180612" lon="4.558484"><time>2026-05-03T06:10:59Z</time></trkpt>
</trkseg></trk>
<trk>
<name>nphph23</name>
<cmt>s</cmt>
<desc>Philippeville Chemin n°23 </desc>
<link href="https://chemins.be/philippeville/chemin/23"/><trkseg>
<trkpt lat="50.180612" lon="4.558484"><time>2026-05-03T06:10:59Z</time></trkpt>
<trkpt lat="50.180807" lon="4.560333"><time>2026-05-03T06:20:59Z</time></trkpt>
<trkpt lat="50.180922" lon="4.560963"><time>2026-05-03T06:30:59Z</time></trkpt>
<trkpt lat="50.180939" lon="4.561971"><time>2026-05-03T06:40:59Z</time></trkpt>
<trkpt lat="50.180839" lon="4.562419"><time>2026-05-03T06:50:59Z</time></trkpt>
<trkpt lat="50.180551" lon="4.562712"><time>2026-05-03T07:00:59Z</time></trkpt>
</trkseg>
</trk>
<trk>
<name>nphph24</name>
<cmt>v</cmt>
<desc>Philippeville Chemin n°24 Chemin d'Yves-Gomezée</desc>
<link href="https://chemins.be/philippeville/chemin/24"/><trkseg>
<trkpt lat="50.206341" lon="4.559497"><time>2026-05-03T05:50:59Z</time></trkpt>
<trkpt lat="50.207061" lon="4.559304"><time>2026-05-03T06:00:59Z</time></trkpt>
<trkpt lat="50.210241" lon="4.559565"><time>2026-05-03T06:10:59Z</time></trkpt>
<trkpt lat="50.211717" lon="4.559687"><time>2026-05-03T06:20:59Z</time></trkpt>
</trkseg>
</trk>
<trk>
<name>nphph25</name>
<cmt>v</cmt>
<desc>Philippeville Chemin n°25 </desc>
<link href="https://chemins.be/philippeville/chemin/25"/><trkseg>
<trkpt lat="50.206385" lon="4.559451"><time>2026-05-03T05:50:59Z</time></trkpt>
<trkpt lat="50.207421" lon="4.558871"><time>2026-05-03T06:00:59Z</time></trkpt>
<trkpt lat="50.207692" lon="4.558298"><time>2026-05-03T06:10:59Z</time></trkpt>
<trkpt lat="50.209465" lon="4.556876"><time>2026-05-03T06:20:59Z</time></trkpt>
<trkpt lat="50.210970" lon="4.555075"><time>2026-05-03T06:30:59Z</time></trkpt>
</trkseg>
</trk>
<trk>
<name>nphph26</name>
<cmt>r</cmt>
<desc>Philippeville Chemin n°26 Rue des Baraques</desc>
<link href="https://chemins.be/philippeville/chemin/26"/><trkseg>
<trkpt lat="50.198755" lon="4.558682"><time>2026-05-03T05:50:59Z</time></trkpt>
<trkpt lat="50.199282" lon="4.560729"><time>2026-05-03T06:00:59Z</time></trkpt>
<trkpt lat="50.199390" lon="4.560702"><time>2026-05-03T06:10:59Z</time></trkpt>
<trkpt lat="50.200427" lon="4.563899"><time>2026-05-03T06:20:59Z</time></trkpt>
</trkseg></trk>
<trk>
<name>nphph26</name>
<cmt>v</cmt>
<desc>Philippeville Chemin n°26 Rue des Baraques</desc>
<link href="https://chemins.be/philippeville/chemin/26"/><trkseg>
<trkpt lat="50.200427" lon="4.563899"><time>2026-05-03T06:20:59Z</time></trkpt>
<trkpt lat="50.200890" lon="4.566535"><time>2026-05-03T06:30:59Z</time></trkpt>
<trkpt lat="50.202344" lon="4.572998"><time>2026-05-03T06:40:59Z</time></trkpt>
</trkseg>
</trk>
<trk>
<name>nphph27</name>
<cmt>r</cmt>
<desc>Philippeville Chemin n°27 </desc>
<link href="https://chemins.be/philippeville/chemin/27"/><trkseg>
<trkpt lat="50.199065" lon="4.555290"><time>2026-05-03T05:50:59Z</time></trkpt>
<trkpt lat="50.198313" lon="4.556136"><time>2026-05-03T06:00:59Z</time></trkpt>
<trkpt lat="50.197750" lon="4.557222"><time>2026-05-03T06:10:59Z</time></trkpt>
<trkpt lat="50.197570" lon="4.557543"><time>2026-05-03T06:20:59Z</time></trkpt>
</trkseg></trk>
<trk>
<name>nphph27</name>
<cmt>v</cmt>
<desc>Philippeville Chemin n°27 </desc>
<link href="https://chemins.be/philippeville/chemin/27"/><trkseg>
<trkpt lat="50.197570" lon="4.557543"><time>2026-05-03T06:20:59Z</time></trkpt>
<trkpt lat="50.197057" lon="4.557863"><time>2026-05-03T06:30:59Z</time></trkpt>
<trkpt lat="50.196768" lon="4.558492"><time>2026-05-03T06:40:59Z</time></trkpt>
<trkpt lat="50.196588" lon="4.558786"><time>2026-05-03T06:50:59Z</time></trkpt>
<trkpt lat="50.196587" lon="4.559220"><time>2026-05-03T07:00:59Z</time></trkpt>
<trkpt lat="50.196208" lon="4.559765"><time>2026-05-03T07:10:59Z</time></trkpt>
<trkpt lat="50.195705" lon="4.560001"><time>2026-05-03T07:20:59Z</time></trkpt>
</trkseg>
</trk>
<trk>
<name>nphph28</name>
<cmt>s</cmt>
<desc>Philippeville Chemin n°28 </desc>
<link href="https://chemins.be/philippeville/chemin/28"/><trkseg>
<trkpt lat="50.197796" lon="4.556564"><time>2026-05-03T05:50:59Z</time></trkpt>
<trkpt lat="50.197445" lon="4.556996"><time>2026-05-03T06:00:59Z</time></trkpt>
</trkseg></trk>
<trk>
<name>nphph28</name>
<cmt>d</cmt>
<desc>Philippeville Chemin n°28 </desc>
<link href="https://chemins.be/philippeville/chemin/28"/><trkseg>
<trkpt lat="50.197445" lon="4.556996"><time>2026-05-03T06:00:59Z</time></trkpt>
<trkpt lat="50.197480" lon="4.557165"><time>2026-05-03T06:10:59Z</time></trkpt>
<trkpt lat="50.197525" lon="4.557543"><time>2026-05-03T06:20:59Z</time></trkpt>
<trkpt lat="50.197792" lon="4.558790"><time>2026-05-03T06:30:59Z</time></trkpt>
</trkseg></trk>
<trk>
<name>nphph28</name>
<cmt>s</cmt>
<desc>Philippeville Chemin n°28 </desc>
<link href="https://chemins.be/philippeville/chemin/28"/><trkseg>
<trkpt lat="50.197792" lon="4.558790"><time>2026-05-03T06:30:59Z</time></trkpt>
<trkpt lat="50.198007" lon="4.559338"><time>2026-05-03T06:40:59Z</time></trkpt>
<trkpt lat="50.198493" lon="4.559382"><time>2026-05-03T06:50:59Z</time></trkpt>
</trkseg>
</trk>
<trk>
<name>nphph29</name>
<cmt>r</cmt>
<desc>Philippeville Chemin/sentier n°29 Rue de Merlemont</desc>
<link href="https://chemins.be/philippeville/chemin/29"/><trkseg>
<trkpt lat="50.195324" lon="4.556624"><time>2026-05-03T05:50:59Z</time></trkpt>
<trkpt lat="50.194277" lon="4.558608"><time>2026-05-03T06:00:59Z</time></trkpt>
<trkpt lat="50.193726" lon="4.560301"><time>2026-05-03T06:10:59Z</time></trkpt>
<trkpt lat="50.192471" lon="4.563265"><time>2026-05-03T06:20:59Z</time></trkpt>
<trkpt lat="50.192291" lon="4.563726"><time>2026-05-03T06:30:59Z</time></trkpt>
</trkseg></trk>
<trk>
<name>nphph29</name>
<cmt>v</cmt>
<desc>Philippeville Chemin/sentier n°29 Rue de Merlemont</desc>
<link href="https://chemins.be/philippeville/chemin/29"/><trkseg>
<trkpt lat="50.192291" lon="4.563726"><time>2026-05-03T06:30:59Z</time></trkpt>
<trkpt lat="50.191251" lon="4.567251"><time>2026-05-03T06:40:59Z</time></trkpt>
<trkpt lat="50.190555" lon="4.569138"><time>2026-05-03T06:50:59Z</time></trkpt>
</trkseg></trk>
<trk>
<name>nphph29</name>
<cmt>b</cmt>
<desc>Philippeville Chemin/sentier n°29 Rue de Merlemont</desc>
<link href="https://chemins.be/philippeville/chemin/29"/><trkseg>
<trkpt lat="50.190555" lon="4.569138"><time>2026-05-03T06:50:59Z</time></trkpt>
<trkpt lat="50.190048" lon="4.571125"><time>2026-05-03T07:00:59Z</time></trkpt>
</trkseg>
</trk>
<trk>
<name>nphph3</name>
<cmt>v</cmt>
<desc>Philippeville Chemin n°3 Chemin de Cocriamont</desc>
<link href="https://chemins.be/philippeville/chemin/3"/><trkseg>
<trkpt lat="50.199669" lon="4.548979"><time>2026-05-03T05:50:59Z</time></trkpt>
<trkpt lat="50.199921" lon="4.549064"><time>2026-05-03T06:00:59Z</time></trkpt>
</trkseg></trk>
<trk>
<name>nphph3</name>
<cmt>s</cmt>
<desc>Philippeville Chemin n°3 Chemin de Cocriamont</desc>
<link href="https://chemins.be/philippeville/chemin/3"/><trkseg>
<trkpt lat="50.199921" lon="4.549064"><time>2026-05-03T06:00:59Z</time></trkpt>
<trkpt lat="50.201036" lon="4.548704"><time>2026-05-03T06:10:59Z</time></trkpt>
</trkseg></trk>
<trk>
<name>nphph3</name>
<cmt>v</cmt>
<desc>Philippeville Chemin n°3 Chemin de Cocriamont</desc>
<link href="https://chemins.be/philippeville/chemin/3"/><trkseg>
<trkpt lat="50.201036" lon="4.548704"><time>2026-05-03T06:10:59Z</time></trkpt>
<trkpt lat="50.201729" lon="4.548525"><time>2026-05-03T06:20:59Z</time></trkpt>
<trkpt lat="50.205063" lon="4.549112"><time>2026-05-03T06:30:59Z</time></trkpt>
<trkpt lat="50.205628" lon="4.550389"><time>2026-05-03T06:40:59Z</time></trkpt>
<trkpt lat="50.206777" lon="4.551430"><time>2026-05-03T06:50:59Z</time></trkpt>
<trkpt lat="50.207576" lon="4.551895"><time>2026-05-03T07:00:59Z</time></trkpt>
<trkpt lat="50.209068" lon="4.552279"><time>2026-05-03T07:10:59Z</time></trkpt>
</trkseg></trk>
<trk>
<name>nphph3</name>
<cmt>s</cmt>
<desc>Philippeville Chemin n°3 Chemin de Cocriamont</desc>
<link href="https://chemins.be/philippeville/chemin/3"/><trkseg>
<trkpt lat="50.209068" lon="4.552279"><time>2026-05-03T07:10:59Z</time></trkpt>
<trkpt lat="50.210119" lon="4.552928"><time>2026-05-03T07:20:59Z</time></trkpt>
</trkseg>
</trk>
<trk>
<name>nphph30</name>
<cmt>d</cmt>
<desc>Philippeville Chemin n°30 </desc>
<link href="https://chemins.be/philippeville/chemin/30"/><trkseg>
<trkpt lat="50.190349" lon="4.558383"><time>2026-05-03T05:50:59Z</time></trkpt>
<trkpt lat="50.189917" lon="4.558605"><time>2026-05-03T06:00:59Z</time></trkpt>
<trkpt lat="50.189790" lon="4.558955"><time>2026-05-03T06:10:59Z</time></trkpt>
<trkpt lat="50.189853" lon="4.559445"><time>2026-05-03T06:20:59Z</time></trkpt>
<trkpt lat="50.190929" lon="4.560654"><time>2026-05-03T06:30:59Z</time></trkpt>
<trkpt lat="50.191136" lon="4.560598"><time>2026-05-03T06:40:59Z</time></trkpt>
</trkseg>
</trk>
<trk>
<name>nphph31</name>
<cmt>v</cmt>
<desc>Philippeville Chemin n°31 </desc>
<link href="https://chemins.be/philippeville/chemin/31"/><trkseg>
<trkpt lat="50.178905" lon="4.540752"><time>2026-05-03T05:50:59Z</time></trkpt>
<trkpt lat="50.179101" lon="4.541915"><time>2026-05-03T06:00:59Z</time></trkpt>
<trkpt lat="50.179961" lon="4.543766"><time>2026-05-03T06:10:59Z</time></trkpt>
<trkpt lat="50.180407" lon="4.545826"><time>2026-05-03T06:20:59Z</time></trkpt>
<trkpt lat="50.180450" lon="4.546960"><time>2026-05-03T06:30:59Z</time></trkpt>
<trkpt lat="50.181413" lon="4.552088"><time>2026-05-03T06:40:59Z</time></trkpt>
</trkseg>
</trk>
<trk>
<name>nphph32</name>
<cmt>v</cmt>
<desc>Philippeville Chemin n°32 </desc>
<link href="https://chemins.be/philippeville/chemin/32"/><trkseg>
<trkpt lat="50.209660" lon="4.564386"><time>2026-05-03T05:50:59Z</time></trkpt>
<trkpt lat="50.209514" lon="4.565142"><time>2026-05-03T06:00:59Z</time></trkpt>
<trkpt lat="50.209854" lon="4.566208"><time>2026-05-03T06:10:59Z</time></trkpt>
</trkseg>
</trk>
<trk>
<name>nphph33</name>
<cmt>s</cmt>
<desc>Philippeville Chemin n°33 </desc>
<link href="https://chemins.be/philippeville/chemin/33"/><trkseg>
<trkpt lat="50.199974" lon="4.549695"><time>2026-05-03T05:50:59Z</time></trkpt>
<trkpt lat="50.201446" lon="4.551381"><time>2026-05-03T06:00:59Z</time></trkpt>
<trkpt lat="50.202037" lon="4.552378"><time>2026-05-03T06:10:59Z</time></trkpt>
<trkpt lat="50.203025" lon="4.553475"><time>2026-05-03T06:20:59Z</time></trkpt>
<trkpt lat="50.203481" lon="4.554625"><time>2026-05-03T06:30:59Z</time></trkpt>
<trkpt lat="50.204925" lon="4.556760"><time>2026-05-03T06:40:59Z</time></trkpt>
<trkpt lat="50.205830" lon="4.559005"><time>2026-05-03T06:50:59Z</time></trkpt>
</trkseg>
</trk>
<trk>
<name>nphph34</name>
<cmt>s</cmt>
<desc>Philippeville Chemin n°34 </desc>
<link href="https://chemins.be/philippeville/chemin/34"/><trkseg>
<trkpt lat="50.200247" lon="4.547399"><time>2026-05-03T05:50:59Z</time></trkpt>
<trkpt lat="50.201525" lon="4.546423"><time>2026-05-03T06:00:59Z</time></trkpt>
<trkpt lat="50.201652" lon="4.545709"><time>2026-05-03T06:10:59Z</time></trkpt>
<trkpt lat="50.202427" lon="4.544872"><time>2026-05-03T06:20:59Z</time></trkpt>
<trkpt lat="50.203876" lon="4.543728"><time>2026-05-03T06:30:59Z</time></trkpt>
</trkseg>
</trk>
<trk>
<name>nphph35</name>
<cmt>s</cmt>
<desc>Philippeville Sentier n°35 </desc>
<link href="https://chemins.be/philippeville/sentier/35"/><trkseg>
<trkpt lat="50.202269" lon="4.535990"><time>2026-05-03T05:50:59Z</time></trkpt>
<trkpt lat="50.201470" lon="4.535427"><time>2026-05-03T06:00:59Z</time></trkpt>
<trkpt lat="50.200031" lon="4.535604"><time>2026-05-03T06:10:59Z</time></trkpt>
<trkpt lat="50.197891" lon="4.535681"><time>2026-05-03T06:20:59Z</time></trkpt>
</trkseg>
</trk>
<trk>
<name>nphph36</name>
<cmt>s</cmt>
<desc>Philippeville Sentier n°36 </desc>
<link href="https://chemins.be/philippeville/sentier/36"/><trkseg>
<trkpt lat="50.193566" lon="4.516563"><time>2026-05-03T05:50:59Z</time></trkpt>
<trkpt lat="50.193387" lon="4.515442"><time>2026-05-03T06:00:59Z</time></trkpt>
<trkpt lat="50.193317" lon="4.513971"><time>2026-05-03T06:10:59Z</time></trkpt>
</trkseg>
</trk>
<trk>
<name>nphph37</name>
<cmt>d</cmt>
<desc>Philippeville Sentier n°37 </desc>
<link href="https://chemins.be/philippeville/sentier/37"/><trkseg>
<trkpt lat="50.191066" lon="4.516751"><time>2026-05-03T05:50:59Z</time></trkpt>
<trkpt lat="50.190330" lon="4.515601"><time>2026-05-03T06:00:59Z</time></trkpt>
<trkpt lat="50.190053" lon="4.514354"><time>2026-05-03T06:10:59Z</time></trkpt>
</trkseg>
</trk>
<trk>
<name>nphph38</name>
<cmt>d</cmt>
<desc>Philippeville Sentier n°38 </desc>
<link href="https://chemins.be/philippeville/sentier/38"/><trkseg>
<trkpt lat="50.180532" lon="4.521493"><time>2026-05-03T05:50:59Z</time></trkpt>
<trkpt lat="50.181611" lon="4.521538"><time>2026-05-03T06:00:59Z</time></trkpt>
<trkpt lat="50.184345" lon="4.520763"><time>2026-05-03T06:10:59Z</time></trkpt>
<trkpt lat="50.185317" lon="4.520038"><time>2026-05-03T06:20:59Z</time></trkpt>
<trkpt lat="50.186333" lon="4.519803"><time>2026-05-03T06:30:59Z</time></trkpt>
<trkpt lat="50.186423" lon="4.519971"><time>2026-05-03T06:40:59Z</time></trkpt>
<trkpt lat="50.187448" lon="4.519625"><time>2026-05-03T06:50:59Z</time></trkpt>
<trkpt lat="50.189823" lon="4.518610"><time>2026-05-03T07:00:59Z</time></trkpt>
</trkseg></trk>
<trk>
<name>nphph38</name>
<cmt>s</cmt>
<desc>Philippeville Sentier n°38 </desc>
<link href="https://chemins.be/philippeville/sentier/38"/><trkseg>
<trkpt lat="50.189823" lon="4.518610"><time>2026-05-03T07:00:59Z</time></trkpt>
<trkpt lat="50.191317" lon="4.517298"><time>2026-05-03T07:10:59Z</time></trkpt>
<trkpt lat="50.191794" lon="4.516950"><time>2026-05-03T07:20:59Z</time></trkpt>
<trkpt lat="50.194123" lon="4.516453"><time>2026-05-03T07:30:59Z</time></trkpt>
</trkseg>
</trk>
<trk>
<name>nphph39</name>
<cmt>q</cmt>
<desc>Philippeville Sentier n°39 </desc>
<link href="https://chemins.be/philippeville/sentier/39"/><trkseg>
<trkpt lat="50.196484" lon="4.537073"><time>2026-05-03T05:50:59Z</time></trkpt>
<trkpt lat="50.195069" lon="4.537180"><time>2026-05-03T06:00:59Z</time></trkpt>
<trkpt lat="50.193737" lon="4.537001"><time>2026-05-03T06:10:59Z</time></trkpt>
</trkseg></trk>
<trk>
<name>nphph39</name>
<cmt>s</cmt>
<desc>Philippeville Sentier n°39 </desc>
<link href="https://chemins.be/philippeville/sentier/39"/><trkseg>
<trkpt lat="50.193737" lon="4.537001"><time>2026-05-03T06:10:59Z</time></trkpt>
<trkpt lat="50.192615" lon="4.537166"><time>2026-05-03T06:20:59Z</time></trkpt>
</trkseg></trk>
<trk>
<name>nphph39</name>
<cmt>q</cmt>
<desc>Philippeville Sentier n°39 </desc>
<link href="https://chemins.be/philippeville/sentier/39"/><trkseg>
<trkpt lat="50.192615" lon="4.537166"><time>2026-05-03T06:20:59Z</time></trkpt>
<trkpt lat="50.189653" lon="4.537892"><time>2026-05-03T06:30:59Z</time></trkpt>
<trkpt lat="50.189023" lon="4.538338"><time>2026-05-03T06:40:59Z</time></trkpt>
<trkpt lat="50.188654" lon="4.538449"><time>2026-05-03T06:50:59Z</time></trkpt>
<trkpt lat="50.186784" lon="4.538442"><time>2026-05-03T07:00:59Z</time></trkpt>
<trkpt lat="50.186047" lon="4.537936"><time>2026-05-03T07:10:59Z</time></trkpt>
<trkpt lat="50.185301" lon="4.537989"><time>2026-05-03T07:20:59Z</time></trkpt>
<trkpt lat="50.183845" lon="4.537354"><time>2026-05-03T07:30:59Z</time></trkpt>
<trkpt lat="50.181697" lon="4.537332"><time>2026-05-03T07:40:59Z</time></trkpt>
<trkpt lat="50.180758" lon="4.537444"><time>2026-05-03T07:50:59Z</time></trkpt>
<trkpt lat="50.180275" lon="4.537082"><time>2026-05-03T08:00:59Z</time></trkpt>
</trkseg>
</trk>
<trk>
<name>nphph4</name>
<cmt>r</cmt>
<desc>Philippeville Chemin n°4 Rue de l'Arsenal</desc>
<link href="https://chemins.be/philippeville/chemin/4"/><trkseg>
<trkpt lat="50.200041" lon="4.543456"><time>2026-05-03T05:50:59Z</time></trkpt>
<trkpt lat="50.200686" lon="4.542624"><time>2026-05-03T06:00:59Z</time></trkpt>
<trkpt lat="50.201460" lon="4.542095"><time>2026-05-03T06:10:59Z</time></trkpt>
</trkseg></trk>
<trk>
<name>nphph4</name>
<cmt>v</cmt>
<desc>Philippeville Chemin n°4 Rue de l'Arsenal</desc>
<link href="https://chemins.be/philippeville/chemin/4"/><trkseg>
<trkpt lat="50.201460" lon="4.542095"><time>2026-05-03T06:10:59Z</time></trkpt>
<trkpt lat="50.203359" lon="4.541023"><time>2026-05-03T06:20:59Z</time></trkpt>
</trkseg>
</trk>
<trk>
<name>nphph40</name>
<cmt>s</cmt>
<desc>Philippeville Sentier n°40 </desc>
<link href="https://chemins.be/philippeville/sentier/40"/><trkseg>
<trkpt lat="50.191799" lon="4.539104"><time>2026-05-03T05:50:59Z</time></trkpt>
<trkpt lat="50.190149" lon="4.542585"><time>2026-05-03T06:00:59Z</time></trkpt>
</trkseg></trk>
<trk>
<name>nphph40</name>
<cmt>d</cmt>
<desc>Philippeville Sentier n°40 </desc>
<link href="https://chemins.be/philippeville/sentier/40"/><trkseg>
<trkpt lat="50.190149" lon="4.542585"><time>2026-05-03T06:00:59Z</time></trkpt>
<trkpt lat="50.190140" lon="4.542866"><time>2026-05-03T06:10:59Z</time></trkpt>
<trkpt lat="50.188490" lon="4.545772"><time>2026-05-03T06:20:59Z</time></trkpt>
<trkpt lat="50.187520" lon="4.547444"><time>2026-05-03T06:30:59Z</time></trkpt>
<trkpt lat="50.185822" lon="4.549963"><time>2026-05-03T06:40:59Z</time></trkpt>
<trkpt lat="50.184155" lon="4.552267"><time>2026-05-03T06:50:59Z</time></trkpt>
<trkpt lat="50.181192" lon="4.555574"><time>2026-05-03T07:00:59Z</time></trkpt>
<trkpt lat="50.180462" lon="4.556481"><time>2026-05-03T07:10:59Z</time></trkpt>
<trkpt lat="50.179112" lon="4.557526"><time>2026-05-03T07:20:59Z</time></trkpt>
</trkseg>
</trk>
<trk>
<name>nphph41</name>
<cmt>d</cmt>
<desc>Philippeville Sentier n°41 </desc>
<link href="https://chemins.be/philippeville/sentier/41"/><trkseg>
<trkpt lat="50.179543" lon="4.558101"><time>2026-05-03T05:50:59Z</time></trkpt>
<trkpt lat="50.179165" lon="4.558128"><time>2026-05-03T06:00:59Z</time></trkpt>
</trkseg>
</trk>
<trk>
<name>nphph42</name>
<cmt>d</cmt>
<desc>Philippeville Sentier n°42 </desc>
<link href="https://chemins.be/philippeville/sentier/42"/><trkseg>
<trkpt lat="50.196488" lon="4.553715"><time>2026-05-03T05:50:59Z</time></trkpt>
<trkpt lat="50.195615" lon="4.554132"><time>2026-05-03T06:00:59Z</time></trkpt>
<trkpt lat="50.194781" lon="4.555136"><time>2026-05-03T06:10:59Z</time></trkpt>
<trkpt lat="50.194408" lon="4.555584"><time>2026-05-03T06:20:59Z</time></trkpt>
<trkpt lat="50.193381" lon="4.556896"><time>2026-05-03T06:30:59Z</time></trkpt>
<trkpt lat="50.193078" lon="4.557158"><time>2026-05-03T06:40:59Z</time></trkpt>
<trkpt lat="50.192121" lon="4.557984"><time>2026-05-03T06:50:59Z</time></trkpt>
<trkpt lat="50.191527" lon="4.558205"><time>2026-05-03T07:00:59Z</time></trkpt>
<trkpt lat="50.190475" lon="4.558355"><time>2026-05-03T07:10:59Z</time></trkpt>
</trkseg>
</trk>
<trk>
<name>nphph43</name>
<cmt>s</cmt>
<desc>Philippeville Sentier n°43 </desc>
<link href="https://chemins.be/philippeville/sentier/43"/><trkseg>
<trkpt lat="50.198620" lon="4.552757"><time>2026-05-03T05:50:59Z</time></trkpt>
<trkpt lat="50.198312" lon="4.554184"><time>2026-05-03T06:00:59Z</time></trkpt>
<trkpt lat="50.198284" lon="4.554885"><time>2026-05-03T06:10:59Z</time></trkpt>
<trkpt lat="50.198013" lon="4.555654"><time>2026-05-03T06:20:59Z</time></trkpt>
<trkpt lat="50.197814" lon="4.556606"><time>2026-05-03T06:30:59Z</time></trkpt>
</trkseg>
</trk>
<trk>
<name>nphph44</name>
<cmt>r</cmt>
<desc>Philippeville Chemin n°44 Rue des Baraques</desc>
<link href="https://chemins.be/philippeville/chemin/44"/><trkseg>
<trkpt lat="50.200175" lon="4.558996"><time>2026-05-03T05:50:59Z</time></trkpt>
<trkpt lat="50.200149" lon="4.558366"><time>2026-05-03T06:00:59Z</time></trkpt>
</trkseg></trk>
<trk>
<name>nphph44</name>
<cmt>s</cmt>
<desc>Philippeville Chemin n°44 Rue des Baraques</desc>
<link href="https://chemins.be/philippeville/chemin/44"/><trkseg>
<trkpt lat="50.200149" lon="4.558366"><time>2026-05-03T06:00:59Z</time></trkpt>
<trkpt lat="50.200088" lon="4.556923"><time>2026-05-03T06:10:59Z</time></trkpt>
<trkpt lat="50.199245" lon="4.555519"><time>2026-05-03T06:20:59Z</time></trkpt>
</trkseg>
</trk>
<trk>
<name>nphph5</name>
<cmt>d</cmt>
<desc>Philippeville Chemin n°5 </desc>
<link href="https://chemins.be/philippeville/chemin/5"/><trkseg>
<trkpt lat="50.200533" lon="4.542722"><time>2026-05-03T05:50:59Z</time></trkpt>
<trkpt lat="50.200803" lon="4.542204"><time>2026-05-03T06:00:59Z</time></trkpt>
</trkseg></trk>
<trk>
<name>nphph5</name>
<cmt>v</cmt>
<desc>Philippeville Chemin n°5 </desc>
<link href="https://chemins.be/philippeville/chemin/5"/><trkseg>
<trkpt lat="50.200803" lon="4.542204"><time>2026-05-03T06:00:59Z</time></trkpt>
<trkpt lat="50.201119" lon="4.541491"><time>2026-05-03T06:10:59Z</time></trkpt>
<trkpt lat="50.201544" lon="4.540246"><time>2026-05-03T06:20:59Z</time></trkpt>
<trkpt lat="50.201483" lon="4.538593"><time>2026-05-03T06:30:59Z</time></trkpt>
<trkpt lat="50.202368" lon="4.535949"><time>2026-05-03T06:40:59Z</time></trkpt>
<trkpt lat="50.202333" lon="4.535150"><time>2026-05-03T06:50:59Z</time></trkpt>
</trkseg>
</trk>
<trk>
<name>nphph6</name>
<cmt>r</cmt>
<desc>Philippeville Chemin n°6 Rue de l'Arsenal / Rue du Beaumont</desc>
<link href="https://chemins.be/philippeville/chemin/6"/><trkseg>
<trkpt lat="50.199959" lon="4.547440"><time>2026-05-03T05:50:59Z</time></trkpt>
<trkpt lat="50.200187" lon="4.545718"><time>2026-05-03T06:00:59Z</time></trkpt>
<trkpt lat="50.200484" lon="4.545215"><time>2026-05-03T06:10:59Z</time></trkpt>
<trkpt lat="50.200414" lon="4.544206"><time>2026-05-03T06:20:59Z</time></trkpt>
<trkpt lat="50.200051" lon="4.543459"><time>2026-05-03T06:30:59Z</time></trkpt>
<trkpt lat="50.199616" lon="4.542619"><time>2026-05-03T06:40:59Z</time></trkpt>
<trkpt lat="50.199710" lon="4.541760"><time>2026-05-03T06:50:59Z</time></trkpt>
<trkpt lat="50.199684" lon="4.541089"><time>2026-05-03T07:00:59Z</time></trkpt>
</trkseg></trk>
<trk>
<name>nphph6</name>
<cmt>s</cmt>
<desc>Philippeville Chemin n°6 Rue de l'Arsenal / Rue du Beaumont</desc>
<link href="https://chemins.be/philippeville/chemin/6"/><trkseg>
<trkpt lat="50.199684" lon="4.541089"><time>2026-05-03T07:00:59Z</time></trkpt>
<trkpt lat="50.199570" lon="4.539294"><time>2026-05-03T07:10:59Z</time></trkpt>
</trkseg></trk>
<trk>
<name>nphph6</name>
<cmt>v</cmt>
<desc>Philippeville Chemin n°6 Rue de l'Arsenal / Rue du Beaumont</desc>
<link href="https://chemins.be/philippeville/chemin/6"/><trkseg>
<trkpt lat="50.199570" lon="4.539294"><time>2026-05-03T07:10:59Z</time></trkpt>
<trkpt lat="50.199716" lon="4.538307"><time>2026-05-03T07:20:59Z</time></trkpt>
<trkpt lat="50.199130" lon="4.537942"><time>2026-05-03T07:30:59Z</time></trkpt>
</trkseg></trk>
<trk>
<name>nphph6</name>
<cmt>s</cmt>
<desc>Philippeville Chemin n°6 Rue de l'Arsenal / Rue du Beaumont</desc>
<link href="https://chemins.be/philippeville/chemin/6"/><trkseg>
<trkpt lat="50.199130" lon="4.537942"><time>2026-05-03T07:30:59Z</time></trkpt>
<trkpt lat="50.198078" lon="4.537180"><time>2026-05-03T07:40:59Z</time></trkpt>
</trkseg></trk>
<trk>
<name>nphph6</name>
<cmt>r</cmt>
<desc>Philippeville Chemin n°6 Rue de l'Arsenal / Rue du Beaumont</desc>
<link href="https://chemins.be/philippeville/chemin/6"/><trkseg>
<trkpt lat="50.198078" lon="4.537180"><time>2026-05-03T07:40:59Z</time></trkpt>
<trkpt lat="50.197772" lon="4.536983"><time>2026-05-03T07:50:59Z</time></trkpt>
</trkseg>
</trk>
<trk>
<name>nphph7</name>
<cmt>v</cmt>
<desc>Philippeville Chemin n°7 </desc>
<link href="https://chemins.be/philippeville/chemin/7"/><trkseg>
<trkpt lat="50.199981" lon="4.532523"><time>2026-05-03T05:50:59Z</time></trkpt>
<trkpt lat="50.199721" lon="4.532186"><time>2026-05-03T06:00:59Z</time></trkpt>
<trkpt lat="50.199660" lon="4.531065"><time>2026-05-03T06:10:59Z</time></trkpt>
<trkpt lat="50.200057" lon="4.529722"><time>2026-05-03T06:20:59Z</time></trkpt>
<trkpt lat="50.200060" lon="4.527803"><time>2026-05-03T06:30:59Z</time></trkpt>
<trkpt lat="50.200061" lon="4.526878"><time>2026-05-03T06:40:59Z</time></trkpt>
<trkpt lat="50.200056" lon="4.523909"><time>2026-05-03T06:50:59Z</time></trkpt>
<trkpt lat="50.199843" lon="4.522269"><time>2026-05-03T07:00:59Z</time></trkpt>
</trkseg>
</trk>
<trk>
<name>nphph8</name>
<cmt>v</cmt>
<desc>Philippeville Chemin n°8 Rue de l'Arbalète</desc>
<link href="https://chemins.be/philippeville/chemin/8"/><trkseg>
<trkpt lat="50.180146" lon="4.527918"><time>2026-05-03T05:50:59Z</time></trkpt>
<trkpt lat="50.180892" lon="4.528102"><time>2026-05-03T06:00:59Z</time></trkpt>
<trkpt lat="50.182564" lon="4.528192"><time>2026-05-03T06:10:59Z</time></trkpt>
<trkpt lat="50.183048" lon="4.528852"><time>2026-05-03T06:20:59Z</time></trkpt>
<trkpt lat="50.183643" lon="4.527986"><time>2026-05-03T06:30:59Z</time></trkpt>
<trkpt lat="50.186386" lon="4.527211"><time>2026-05-03T06:40:59Z</time></trkpt>
<trkpt lat="50.187718" lon="4.526235"><time>2026-05-03T06:50:59Z</time></trkpt>
<trkpt lat="50.191075" lon="4.524047"><time>2026-05-03T07:00:59Z</time></trkpt>
<trkpt lat="50.191947" lon="4.523448"><time>2026-05-03T07:10:59Z</time></trkpt>
<trkpt lat="50.192785" lon="4.522737"><time>2026-05-03T07:20:59Z</time></trkpt>
<trkpt lat="50.193325" lon="4.521940"><time>2026-05-03T07:30:59Z</time></trkpt>
<trkpt lat="50.193703" lon="4.521885"><time>2026-05-03T07:40:59Z</time></trkpt>
<trkpt lat="50.194377" lon="4.521565"><time>2026-05-03T07:50:59Z</time></trkpt>
<trkpt lat="50.194979" lon="4.521875"><time>2026-05-03T08:00:59Z</time></trkpt>
<trkpt lat="50.195940" lon="4.522551"><time>2026-05-03T08:10:59Z</time></trkpt>
<trkpt lat="50.196543" lon="4.522707"><time>2026-05-03T08:20:59Z</time></trkpt>
<trkpt lat="50.198395" lon="4.522559"><time>2026-05-03T08:30:59Z</time></trkpt>
<trkpt lat="50.199744" lon="4.522269"><time>2026-05-03T08:40:59Z</time></trkpt>
<trkpt lat="50.200140" lon="4.522200"><time>2026-05-03T08:50:59Z</time></trkpt>
</trkseg>
</trk>
<trk>
<name>nphph9</name>
<cmt>v</cmt>
<desc>Philippeville Chemin n°9 </desc>
<link href="https://chemins.be/philippeville/chemin/9"/><trkseg>
<trkpt lat="50.196324" lon="4.534362"><time>2026-05-03T05:50:59Z</time></trkpt>
<trkpt lat="50.195682" lon="4.533768"><time>2026-05-03T06:00:59Z</time></trkpt>
<trkpt lat="50.195053" lon="4.533626"><time>2026-05-03T06:10:59Z</time></trkpt>
<trkpt lat="50.194753" lon="4.531730"><time>2026-05-03T06:20:59Z</time></trkpt>
</trkseg></trk>
<trk>
<name>nphph9</name>
<cmt>d</cmt>
<desc>Philippeville Chemin n°9 </desc>
<link href="https://chemins.be/philippeville/chemin/9"/><trkseg>
<trkpt lat="50.194753" lon="4.531730"><time>2026-05-03T06:20:59Z</time></trkpt>
<trkpt lat="50.194644" lon="4.530445"><time>2026-05-03T06:30:59Z</time></trkpt>
</trkseg></trk>
<trk>
<name>nphph9</name>
<cmt>s</cmt>
<desc>Philippeville Chemin n°9 </desc>
<link href="https://chemins.be/philippeville/chemin/9"/><trkseg>
<trkpt lat="50.194644" lon="4.530445"><time>2026-05-03T06:30:59Z</time></trkpt>
<trkpt lat="50.194493" lon="4.528904"><time>2026-05-03T06:40:59Z</time></trkpt>
</trkseg></trk>
<trk>
<name>nphph9</name>
<cmt>v</cmt>
<desc>Philippeville Chemin n°9 </desc>
<link href="https://chemins.be/philippeville/chemin/9"/><trkseg>
<trkpt lat="50.194493" lon="4.528904"><time>2026-05-03T06:40:59Z</time></trkpt>
<trkpt lat="50.194325" lon="4.527279"><time>2026-05-03T06:50:59Z</time></trkpt>
<trkpt lat="50.193997" lon="4.523805"><time>2026-05-03T07:00:59Z</time></trkpt>
<trkpt lat="50.193748" lon="4.521984"><time>2026-05-03T07:10:59Z</time></trkpt>
</trkseg></trk>
<trk>
<name>nphph9</name>
<cmt>s</cmt>
<desc>Philippeville Chemin n°9 </desc>
<link href="https://chemins.be/philippeville/chemin/9"/><trkseg>
<trkpt lat="50.193748" lon="4.521984"><time>2026-05-03T07:10:59Z</time></trkpt>
<trkpt lat="50.193470" lon="4.521156"><time>2026-05-03T07:20:59Z</time></trkpt>
<trkpt lat="50.194499" lon="4.517938"><time>2026-05-03T07:30:59Z</time></trkpt>
<trkpt lat="50.196276" lon="4.513658"><time>2026-05-03T07:40:59Z</time></trkpt>
</trkseg>
</trk>
<trk>
<name>nphphi1</name>
<cmt>v</cmt>
<desc>Philippeville Sentier n°i1 </desc>
<link href="https://chemins.be/philippeville/sentier/i1"/><trkseg>
<trkpt lat="50.195677" lon="4.549104"><time>2026-05-03T05:50:59Z</time></trkpt>
<trkpt lat="50.195561" lon="4.548572"><time>2026-05-03T06:00:59Z</time></trkpt>
<trkpt lat="50.195184" lon="4.548402"><time>2026-05-03T06:10:59Z</time></trkpt>
</trkseg></trk>
<trk>
<name>nphphi1</name>
<cmt>d</cmt>
<desc>Philippeville Sentier n°i1 </desc>
<link href="https://chemins.be/philippeville/sentier/i1"/><trkseg>
<trkpt lat="50.195184" lon="4.548402"><time>2026-05-03T06:10:59Z</time></trkpt>
<trkpt lat="50.194564" lon="4.547994"><time>2026-05-03T06:20:59Z</time></trkpt>
</trkseg>
</trk>
<trk>
<name>nphphi10</name>
<cmt>v</cmt>
<desc>Philippeville Chemin n°i10 </desc>
<link href="https://chemins.be/philippeville/chemin/i10"/><trkseg>
<trkpt lat="50.194515" lon="4.538708"><time>2026-05-03T05:50:59Z</time></trkpt>
<trkpt lat="50.194929" lon="4.538401"><time>2026-05-03T06:00:59Z</time></trkpt>
<trkpt lat="50.195154" lon="4.538458"><time>2026-05-03T06:10:59Z</time></trkpt>
</trkseg>
</trk>
<trk>
<name>nphphi2</name>
<cmt>v</cmt>
<desc>Philippeville Sentier n°i2 </desc>
<link href="https://chemins.be/philippeville/sentier/i2"/><trkseg>
<trkpt lat="50.194903" lon="4.549774"><time>2026-05-03T05:50:59Z</time></trkpt>
<trkpt lat="50.195523" lon="4.549762"><time>2026-05-03T06:00:59Z</time></trkpt>
</trkseg>
</trk>
<trk>
<name>nphphi3</name>
<cmt>v</cmt>
<desc>Philippeville Sentier n°i3 </desc>
<link href="https://chemins.be/philippeville/sentier/i3"/><trkseg>
<trkpt lat="50.195117" lon="4.550629"><time>2026-05-03T05:50:59Z</time></trkpt>
<trkpt lat="50.195118" lon="4.550405"><time>2026-05-03T06:00:59Z</time></trkpt>
<trkpt lat="50.194821" lon="4.550151"><time>2026-05-03T06:10:59Z</time></trkpt>
</trkseg>
</trk>
<trk>
<name>nphphi4</name>
<cmt>d</cmt>
<desc>Philippeville Chemin n°i4 </desc>
<link href="https://chemins.be/philippeville/chemin/i4"/><trkseg>
<trkpt lat="50.193844" lon="4.530527"><time>2026-05-03T05:50:59Z</time></trkpt>
<trkpt lat="50.193950" lon="4.531423"><time>2026-05-03T06:00:59Z</time></trkpt>
</trkseg></trk>
<trk>
<name>nphphi4</name>
<cmt>s</cmt>
<desc>Philippeville Chemin n°i4 </desc>
<link href="https://chemins.be/philippeville/chemin/i4"/><trkseg>
<trkpt lat="50.193950" lon="4.531423"><time>2026-05-03T06:00:59Z</time></trkpt>
<trkpt lat="50.193986" lon="4.531746"><time>2026-05-03T06:10:59Z</time></trkpt>
</trkseg>
</trk>
<trk>
<name>nphphi5</name>
<cmt>v</cmt>
<desc>Philippeville Chemin n°i5 </desc>
<link href="https://chemins.be/philippeville/chemin/i5"/><trkseg>
<trkpt lat="50.201370" lon="4.559001"><time>2026-05-03T05:50:59Z</time></trkpt>
<trkpt lat="50.201444" lon="4.557993"><time>2026-05-03T06:00:59Z</time></trkpt>
<trkpt lat="50.201572" lon="4.556915"><time>2026-05-03T06:10:59Z</time></trkpt>
<trkpt lat="50.201627" lon="4.556256"><time>2026-05-03T06:20:59Z</time></trkpt>
<trkpt lat="50.201287" lon="4.554728"><time>2026-05-03T06:30:59Z</time></trkpt>
<trkpt lat="50.201074" lon="4.553033"><time>2026-05-03T06:40:59Z</time></trkpt>
</trkseg>
</trk>
<trk>
<name>nphphi6</name>
<cmt>v</cmt>
<desc>Philippeville Chemin n°i6 </desc>
<link href="https://chemins.be/philippeville/chemin/i6"/><trkseg>
<trkpt lat="50.208166" lon="4.554139"><time>2026-05-03T05:50:59Z</time></trkpt>
<trkpt lat="50.207513" lon="4.551923"><time>2026-05-03T06:00:59Z</time></trkpt>
</trkseg>
</trk>
<trk>
<name>nphphi7</name>
<cmt>r</cmt>
<desc>Philippeville Chemin n°i7 </desc>
<link href="https://chemins.be/philippeville/chemin/i7"/><trkseg>
<trkpt lat="50.201215" lon="4.549517"><time>2026-05-03T05:50:59Z</time></trkpt>
<trkpt lat="50.201189" lon="4.548803"><time>2026-05-03T06:00:59Z</time></trkpt>
<trkpt lat="50.200910" lon="4.548662"><time>2026-05-03T06:10:59Z</time></trkpt>
<trkpt lat="50.201013" lon="4.546085"><time>2026-05-03T06:20:59Z</time></trkpt>
<trkpt lat="50.200720" lon="4.544123"><time>2026-05-03T06:30:59Z</time></trkpt>
<trkpt lat="50.200713" lon="4.542596"><time>2026-05-03T06:40:59Z</time></trkpt>
</trkseg>
</trk>
<trk>
<name>nphphi8</name>
<cmt>r</cmt>
<desc>Philippeville Chemin n°i8 </desc>
<link href="https://chemins.be/philippeville/chemin/i8"/><trkseg>
<trkpt lat="50.201460" lon="4.542067"><time>2026-05-03T05:50:59Z</time></trkpt>
<trkpt lat="50.201343" lon="4.541898"><time>2026-05-03T06:00:59Z</time></trkpt>
<trkpt lat="50.200875" lon="4.542039"><time>2026-05-03T06:10:59Z</time></trkpt>
<trkpt lat="50.200525" lon="4.542259"><time>2026-05-03T06:20:59Z</time></trkpt>
<trkpt lat="50.200327" lon="4.541824"><time>2026-05-03T06:30:59Z</time></trkpt>
<trkpt lat="50.199589" lon="4.539271"><time>2026-05-03T06:40:59Z</time></trkpt>
</trkseg></trk>
<trk>
<name>nphphi8</name>
<cmt>v</cmt>
<desc>Philippeville Chemin n°i8 </desc>
<link href="https://chemins.be/philippeville/chemin/i8"/><trkseg>
<trkpt lat="50.199589" lon="4.539271"><time>2026-05-03T06:40:59Z</time></trkpt>
<trkpt lat="50.199314" lon="4.538588"><time>2026-05-03T06:50:59Z</time></trkpt>
<trkpt lat="50.199129" lon="4.537940"><time>2026-05-03T07:00:59Z</time></trkpt>
<trkpt lat="50.198752" lon="4.537197"><time>2026-05-03T07:10:59Z</time></trkpt>
<trkpt lat="50.198465" lon="4.536539"><time>2026-05-03T07:20:59Z</time></trkpt>
<trkpt lat="50.198295" lon="4.536439"><time>2026-05-03T07:30:59Z</time></trkpt>
<trkpt lat="50.197927" lon="4.535667"><time>2026-05-03T07:40:59Z</time></trkpt>
</trkseg>
</trk>
<trk>
<name>nphphi9</name>
<cmt>v</cmt>
<desc>Philippeville Chemin n°i9 Cour des Cavaliers</desc>
<link href="https://chemins.be/philippeville/chemin/i9"/><trkseg>
<trkpt lat="50.194716" lon="4.542840"><time>2026-05-03T05:50:59Z</time></trkpt>
<trkpt lat="50.194797" lon="4.542673"><time>2026-05-03T06:00:59Z</time></trkpt>
<trkpt lat="50.195031" lon="4.542645"><time>2026-05-03T06:10:59Z</time></trkpt>
<trkpt lat="50.195211" lon="4.542212"><time>2026-05-03T06:20:59Z</time></trkpt>
<trkpt lat="50.195247" lon="4.542184"><time>2026-05-03T06:30:59Z</time></trkpt>
<trkpt lat="50.195400" lon="4.542171"><time>2026-05-03T06:40:59Z</time></trkpt>
</trkseg>
</trk>
<trk>
<name>nphphL136B</name>
<cmt>t</cmt>
<desc>Philippeville Chemin n°L136B </desc>
<link href="https://chemins.be/philippeville/chemin/L136B"/><trkseg>
<trkpt lat="50.200448" lon="4.533379"><time>2026-05-03T05:50:59Z</time></trkpt>
<trkpt lat="50.198097" lon="4.536256"><time>2026-05-03T06:00:59Z</time></trkpt>
<trkpt lat="50.196513" lon="4.537245"><time>2026-05-03T06:10:59Z</time></trkpt>
<trkpt lat="50.196333" lon="4.537370"><time>2026-05-03T06:20:59Z</time></trkpt>
<trkpt lat="50.193769" lon="4.537352"><time>2026-05-03T06:30:59Z</time></trkpt>
<trkpt lat="50.192771" lon="4.536830"><time>2026-05-03T06:40:59Z</time></trkpt>
<trkpt lat="50.191516" lon="4.535896"><time>2026-05-03T06:50:59Z</time></trkpt>
<trkpt lat="50.188795" lon="4.534052"><time>2026-05-03T07:00:59Z</time></trkpt>
<trkpt lat="50.186038" lon="4.531872"><time>2026-05-03T07:10:59Z</time></trkpt>
<trkpt lat="50.184494" lon="4.530299"><time>2026-05-03T07:20:59Z</time></trkpt>
<trkpt lat="50.182807" lon="4.528053"><time>2026-05-03T07:30:59Z</time></trkpt>
<trkpt lat="50.179856" lon="4.522457"><time>2026-05-03T07:40:59Z</time></trkpt>
<trkpt lat="50.179390" lon="4.521279"><time>2026-05-03T07:50:59Z</time></trkpt>
</trkseg>
</trk>
<trk>
<name>nphrl1</name>
<cmt>v</cmt>
<desc>Roly Chemin n°1 Rue de l'Azeille</desc>
<link href="https://chemins.be/roly/chemin/1"/><trkseg>
<trkpt lat="50.135365" lon="4.539574"><time>2026-05-03T05:50:59Z</time></trkpt>
<trkpt lat="50.135337" lon="4.539811"><time>2026-05-03T06:00:59Z</time></trkpt>
<trkpt lat="50.135490" lon="4.540273"><time>2026-05-03T06:10:59Z</time></trkpt>
</trkseg></trk>
<trk>
<name>nphrl1</name>
<cmt>r</cmt>
<desc>Roly Chemin n°1 Rue de l'Azeille</desc>
<link href="https://chemins.be/roly/chemin/1"/><trkseg>
<trkpt lat="50.135490" lon="4.540273"><time>2026-05-03T06:10:59Z</time></trkpt>
<trkpt lat="50.135697" lon="4.546065"><time>2026-05-03T06:20:59Z</time></trkpt>
<trkpt lat="50.135946" lon="4.547283"><time>2026-05-03T06:30:59Z</time></trkpt>
</trkseg></trk>
<trk>
<name>nphrl1</name>
<cmt>v</cmt>
<desc>Roly Chemin n°1 Rue de l'Azeille</desc>
<link href="https://chemins.be/roly/chemin/1"/><trkseg>
<trkpt lat="50.135946" lon="4.547283"><time>2026-05-03T06:30:59Z</time></trkpt>
<trkpt lat="50.136554" lon="4.549565"><time>2026-05-03T06:40:59Z</time></trkpt>
<trkpt lat="50.136668" lon="4.551552"><time>2026-05-03T06:50:59Z</time></trkpt>
<trkpt lat="50.136932" lon="4.555008"><time>2026-05-03T07:00:59Z</time></trkpt>
<trkpt lat="50.138551" lon="4.560260"><time>2026-05-03T07:10:59Z</time></trkpt>
<trkpt lat="50.138600" lon="4.563394"><time>2026-05-03T07:20:59Z</time></trkpt>
<trkpt lat="50.140865" lon="4.568551"><time>2026-05-03T07:30:59Z</time></trkpt>
<trkpt lat="50.141096" lon="4.570301"><time>2026-05-03T07:40:59Z</time></trkpt>
<trkpt lat="50.144018" lon="4.575560"><time>2026-05-03T07:50:59Z</time></trkpt>
</trkseg>
</trk>
<trk>
<name>nphrl10</name>
<cmt>r</cmt>
<desc>Roly Chemin n°10 Rue Bois-Saint-Jean</desc>
<link href="https://chemins.be/roly/chemin/10"/><trkseg>
<trkpt lat="50.138677" lon="4.543013"><time>2026-05-03T05:50:59Z</time></trkpt>
<trkpt lat="50.140556" lon="4.548671"><time>2026-05-03T06:00:59Z</time></trkpt>
</trkseg>
</trk>
<trk>
<name>nphrl11</name>
<cmt>v</cmt>
<desc>Roly Chemin n°11 Rue du Moulin de Roly</desc>
<link href="https://chemins.be/roly/chemin/11"/><trkseg>
<trkpt lat="50.135262" lon="4.536342"><time>2026-05-03T05:50:59Z</time></trkpt>
<trkpt lat="50.135533" lon="4.535378"><time>2026-05-03T06:00:59Z</time></trkpt>
<trkpt lat="50.135846" lon="4.533548"><time>2026-05-03T06:10:59Z</time></trkpt>
<trkpt lat="50.136041" lon="4.532330"><time>2026-05-03T06:20:59Z</time></trkpt>
<trkpt lat="50.135180" lon="4.530271"><time>2026-05-03T06:30:59Z</time></trkpt>
</trkseg>
</trk>
<trk>
<name>nphrl12</name>
<cmt>r</cmt>
<desc>Roly Chemin n°12 Rue Ingremez</desc>
<link href="https://chemins.be/roly/chemin/12"/><trkseg>
<trkpt lat="50.141736" lon="4.579383"><time>2026-05-03T05:50:59Z</time></trkpt>
<trkpt lat="50.140229" lon="4.577754"><time>2026-05-03T06:00:59Z</time></trkpt>
<trkpt lat="50.139687" lon="4.577424"><time>2026-05-03T06:10:59Z</time></trkpt>
<trkpt lat="50.137965" lon="4.577183"><time>2026-05-03T06:20:59Z</time></trkpt>
<trkpt lat="50.135595" lon="4.574656"><time>2026-05-03T06:30:59Z</time></trkpt>
<trkpt lat="50.134769" lon="4.574510"><time>2026-05-03T06:40:59Z</time></trkpt>
<trkpt lat="50.134238" lon="4.573265"><time>2026-05-03T06:50:59Z</time></trkpt>
<trkpt lat="50.133581" lon="4.572254"><time>2026-05-03T07:00:59Z</time></trkpt>
</trkseg>
</trk>
<trk>
<name>nphrl13</name>
<cmt>s</cmt>
<desc>Roly Chemin n°13 </desc>
<link href="https://chemins.be/roly/chemin/13"/><trkseg>
<trkpt lat="50.133471" lon="4.572046"><time>2026-05-03T05:50:59Z</time></trkpt>
<trkpt lat="50.133423" lon="4.571810"><time>2026-05-03T06:00:59Z</time></trkpt>
<trkpt lat="50.133731" lon="4.571291"><time>2026-05-03T06:10:59Z</time></trkpt>
<trkpt lat="50.134055" lon="4.571082"><time>2026-05-03T06:20:59Z</time></trkpt>
<trkpt lat="50.134604" lon="4.570875"><time>2026-05-03T06:30:59Z</time></trkpt>
<trkpt lat="50.135538" lon="4.571313"><time>2026-05-03T06:40:59Z</time></trkpt>
<trkpt lat="50.136240" lon="4.570938"><time>2026-05-03T06:50:59Z</time></trkpt>
<trkpt lat="50.136994" lon="4.571417"><time>2026-05-03T07:00:59Z</time></trkpt>
<trkpt lat="50.137236" lon="4.571879"><time>2026-05-03T07:10:59Z</time></trkpt>
<trkpt lat="50.137613" lon="4.572412"><time>2026-05-03T07:20:59Z</time></trkpt>
</trkseg></trk>
<trk>
<name>nphrl13</name>
<cmt>v</cmt>
<desc>Roly Chemin n°13 </desc>
<link href="https://chemins.be/roly/chemin/13"/><trkseg>
<trkpt lat="50.137613" lon="4.572412"><time>2026-05-03T07:20:59Z</time></trkpt>
<trkpt lat="50.139708" lon="4.577290"><time>2026-05-03T07:30:59Z</time></trkpt>
</trkseg>
</trk>
<trk>
<name>nphrl14</name>
<cmt>v</cmt>
<desc>Roly Chemin n°14 </desc>
<link href="https://chemins.be/roly/chemin/14"/><trkseg>
<trkpt lat="50.135820" lon="4.574755"><time>2026-05-03T05:50:59Z</time></trkpt>
<trkpt lat="50.135188" lon="4.575871"><time>2026-05-03T06:00:59Z</time></trkpt>
<trkpt lat="50.134962" lon="4.576779"><time>2026-05-03T06:10:59Z</time></trkpt>
<trkpt lat="50.134260" lon="4.577252"><time>2026-05-03T06:20:59Z</time></trkpt>
<trkpt lat="50.132534" lon="4.577062"><time>2026-05-03T06:30:59Z</time></trkpt>
<trkpt lat="50.131240" lon="4.576735"><time>2026-05-03T06:40:59Z</time></trkpt>
<trkpt lat="50.129820" lon="4.576421"><time>2026-05-03T06:50:59Z</time></trkpt>
</trkseg>
</trk>
<trk>
<name>nphrl15</name>
<cmt>v</cmt>
<desc>Roly Chemin n°15 </desc>
<link href="https://chemins.be/roly/chemin/15"/><trkseg>
<trkpt lat="50.133597" lon="4.572283"><time>2026-05-03T05:50:59Z</time></trkpt>
<trkpt lat="50.132898" lon="4.572013"><time>2026-05-03T06:00:59Z</time></trkpt>
<trkpt lat="50.132490" lon="4.571481"><time>2026-05-03T06:10:59Z</time></trkpt>
<trkpt lat="50.131756" lon="4.569618"><time>2026-05-03T06:20:59Z</time></trkpt>
<trkpt lat="50.131523" lon="4.569365"><time>2026-05-03T06:30:59Z</time></trkpt>
<trkpt lat="50.130762" lon="4.567180"><time>2026-05-03T06:40:59Z</time></trkpt>
<trkpt lat="50.130451" lon="4.565277"><time>2026-05-03T06:50:59Z</time></trkpt>
<trkpt lat="50.129986" lon="4.563764"><time>2026-05-03T07:00:59Z</time></trkpt>
<trkpt lat="50.129592" lon="4.562798"><time>2026-05-03T07:10:59Z</time></trkpt>
</trkseg></trk>
<trk>
<name>nphrl15</name>
<cmt>d</cmt>
<desc>Roly Chemin n°15 </desc>
<link href="https://chemins.be/roly/chemin/15"/><trkseg>
<trkpt lat="50.129592" lon="4.562798"><time>2026-05-03T07:10:59Z</time></trkpt>
<trkpt lat="50.128437" lon="4.559716"><time>2026-05-03T07:20:59Z</time></trkpt>
<trkpt lat="50.127442" lon="4.558356"><time>2026-05-03T07:30:59Z</time></trkpt>
<trkpt lat="50.126095" lon="4.557050"><time>2026-05-03T07:40:59Z</time></trkpt>
<trkpt lat="50.125574" lon="4.556544"><time>2026-05-03T07:50:59Z</time></trkpt>
<trkpt lat="50.124563" lon="4.553589"><time>2026-05-03T08:00:59Z</time></trkpt>
<trkpt lat="50.122194" lon="4.550853"><time>2026-05-03T08:10:59Z</time></trkpt>
</trkseg></trk>
<trk>
<name>nphrl15</name>
<cmt>v</cmt>
<desc>Roly Chemin n°15 </desc>
<link href="https://chemins.be/roly/chemin/15"/><trkseg>
<trkpt lat="50.122194" lon="4.550853"><time>2026-05-03T08:10:59Z</time></trkpt>
<trkpt lat="50.120760" lon="4.548037"><time>2026-05-03T08:20:59Z</time></trkpt>
<trkpt lat="50.118751" lon="4.544702"><time>2026-05-03T08:30:59Z</time></trkpt>
<trkpt lat="50.118383" lon="4.544435"><time>2026-05-03T08:40:59Z</time></trkpt>
</trkseg>
</trk>
<trk>
<name>nphrl16</name>
<cmt>d</cmt>
<desc>Roly Chemin n°16 </desc>
<link href="https://chemins.be/roly/chemin/16"/><trkseg>
<trkpt lat="50.125451" lon="4.518225"><time>2026-05-03T05:50:59Z</time></trkpt>
<trkpt lat="50.125125" lon="4.519902"><time>2026-05-03T06:00:59Z</time></trkpt>
<trkpt lat="50.123513" lon="4.522261"><time>2026-05-03T06:10:59Z</time></trkpt>
<trkpt lat="50.122286" lon="4.525123"><time>2026-05-03T06:20:59Z</time></trkpt>
<trkpt lat="50.120610" lon="4.527691"><time>2026-05-03T06:30:59Z</time></trkpt>
<trkpt lat="50.119475" lon="4.529728"><time>2026-05-03T06:40:59Z</time></trkpt>
<trkpt lat="50.118716" lon="4.531879"><time>2026-05-03T06:50:59Z</time></trkpt>
</trkseg>
</trk>
<trk>
<name>nphrl17</name>
<cmt>v</cmt>
<desc>Roly Chemin n°17 Chemin n° 17</desc>
<link href="https://chemins.be/roly/chemin/17"/><trkseg>
<trkpt lat="50.127282" lon="4.511786"><time>2026-05-03T05:50:59Z</time></trkpt>
<trkpt lat="50.128075" lon="4.511818"><time>2026-05-03T06:00:59Z</time></trkpt>
<trkpt lat="50.128651" lon="4.511368"><time>2026-05-03T06:10:59Z</time></trkpt>
<trkpt lat="50.129006" lon="4.510336"><time>2026-05-03T06:20:59Z</time></trkpt>
<trkpt lat="50.129345" lon="4.509450"><time>2026-05-03T06:30:59Z</time></trkpt>
<trkpt lat="50.130722" lon="4.508773"><time>2026-05-03T06:40:59Z</time></trkpt>
<trkpt lat="50.133059" lon="4.509163"><time>2026-05-03T06:50:59Z</time></trkpt>
<trkpt lat="50.133572" lon="4.508864"><time>2026-05-03T07:00:59Z</time></trkpt>
</trkseg></trk>
<trk>
<name>nphrl17</name>
<cmt>d</cmt>
<desc>Roly Chemin n°17 Chemin n° 17</desc>
<link href="https://chemins.be/roly/chemin/17"/><trkseg>
<trkpt lat="50.133572" lon="4.508864"><time>2026-05-03T07:00:59Z</time></trkpt>
<trkpt lat="50.135066" lon="4.507317"><time>2026-05-03T07:10:59Z</time></trkpt>
<trkpt lat="50.135422" lon="4.506939"><time>2026-05-03T07:20:59Z</time></trkpt>
<trkpt lat="50.136408" lon="4.505894"><time>2026-05-03T07:30:59Z</time></trkpt>
<trkpt lat="50.136822" lon="4.505714"><time>2026-05-03T07:40:59Z</time></trkpt>
<trkpt lat="50.137091" lon="4.505756"><time>2026-05-03T07:50:59Z</time></trkpt>
<trkpt lat="50.137765" lon="4.505940"><time>2026-05-03T08:00:59Z</time></trkpt>
</trkseg>
</trk>
<trk>
<name>nphrl18</name>
<cmt>s</cmt>
<desc>Roly Chemin n°18 </desc>
<link href="https://chemins.be/roly/chemin/18"/><trkseg>
<trkpt lat="50.134082" lon="4.571083"><time>2026-05-03T05:50:59Z</time></trkpt>
<trkpt lat="50.134470" lon="4.570497"><time>2026-05-03T06:00:59Z</time></trkpt>
<trkpt lat="50.135497" lon="4.568920"><time>2026-05-03T06:10:59Z</time></trkpt>
<trkpt lat="50.135821" lon="4.568541"><time>2026-05-03T06:20:59Z</time></trkpt>
</trkseg></trk>
<trk>
<name>nphrl18</name>
<cmt>v</cmt>
<desc>Roly Chemin n°18 </desc>
<link href="https://chemins.be/roly/chemin/18"/><trkseg>
<trkpt lat="50.135821" lon="4.568541"><time>2026-05-03T06:20:59Z</time></trkpt>
<trkpt lat="50.136318" lon="4.567665"><time>2026-05-03T06:30:59Z</time></trkpt>
<trkpt lat="50.136194" lon="4.566462"><time>2026-05-03T06:40:59Z</time></trkpt>
<trkpt lat="50.137107" lon="4.563598"><time>2026-05-03T06:50:59Z</time></trkpt>
<trkpt lat="50.138514" lon="4.560722"><time>2026-05-03T07:00:59Z</time></trkpt>
</trkseg>
</trk>
<trk>
<name>nphrl18bis</name>
<cmt>v</cmt>
<desc>Roly Chemin n°18bis </desc>
<link href="https://chemins.be/roly/chemin/18bis"/><trkseg>
<trkpt lat="50.131825" lon="4.569794"><time>2026-05-03T05:50:59Z</time></trkpt>
<trkpt lat="50.133109" lon="4.569150"><time>2026-05-03T06:00:59Z</time></trkpt>
<trkpt lat="50.133164" lon="4.568893"><time>2026-05-03T06:10:59Z</time></trkpt>
<trkpt lat="50.133750" lon="4.567834"><time>2026-05-03T06:20:59Z</time></trkpt>
<trkpt lat="50.133970" lon="4.567891"><time>2026-05-03T06:30:59Z</time></trkpt>
<trkpt lat="50.134356" lon="4.567677"><time>2026-05-03T06:40:59Z</time></trkpt>
<trkpt lat="50.134658" lon="4.567105"><time>2026-05-03T06:50:59Z</time></trkpt>
<trkpt lat="50.135080" lon="4.567648"><time>2026-05-03T07:00:59Z</time></trkpt>
<trkpt lat="50.134988" lon="4.567891"><time>2026-05-03T07:10:59Z</time></trkpt>
<trkpt lat="50.135522" lon="4.568713"><time>2026-05-03T07:20:59Z</time></trkpt>
<trkpt lat="50.135809" lon="4.568544"><time>2026-05-03T07:30:59Z</time></trkpt>
</trkseg>
</trk>
<trk>
<name>nphrl19</name>
<cmt>v</cmt>
<desc>Roly Chemin n°19 </desc>
<link href="https://chemins.be/roly/chemin/19"/><trkseg>
<trkpt lat="50.135428" lon="4.539504"><time>2026-05-03T05:50:59Z</time></trkpt>
<trkpt lat="50.135580" lon="4.539952"><time>2026-05-03T06:00:59Z</time></trkpt>
</trkseg></trk>
<trk>
<name>nphrl19</name>
<cmt>q</cmt>
<desc>Roly Chemin n°19 </desc>
<link href="https://chemins.be/roly/chemin/19"/><trkseg>
<trkpt lat="50.135580" lon="4.539952"><time>2026-05-03T06:00:59Z</time></trkpt>
<trkpt lat="50.135607" lon="4.540134"><time>2026-05-03T06:10:59Z</time></trkpt>
</trkseg>
</trk>
<trk>
<name>nphrl2</name>
<cmt>r</cmt>
<desc>Roly Chemin n°2 Rue du Grand Chaume / chemin n°2 / Chemin n°2</desc>
<link href="https://chemins.be/roly/chemin/2"/><trkseg>
<trkpt lat="50.135487" lon="4.536245"><time>2026-05-03T05:50:59Z</time></trkpt>
<trkpt lat="50.135900" lon="4.536121"><time>2026-05-03T06:00:59Z</time></trkpt>
<trkpt lat="50.136448" lon="4.536374"><time>2026-05-03T06:10:59Z</time></trkpt>
</trkseg></trk>
<trk>
<name>nphrl2</name>
<cmt>v</cmt>
<desc>Roly Chemin n°2 Rue du Grand Chaume / chemin n°2 / Chemin n°2</desc>
<link href="https://chemins.be/roly/chemin/2"/><trkseg>
<trkpt lat="50.136448" lon="4.536374"><time>2026-05-03T06:10:59Z</time></trkpt>
<trkpt lat="50.137688" lon="4.536868"><time>2026-05-03T06:20:59Z</time></trkpt>
<trkpt lat="50.138184" lon="4.536296"><time>2026-05-03T06:30:59Z</time></trkpt>
<trkpt lat="50.138598" lon="4.535878"><time>2026-05-03T06:40:59Z</time></trkpt>
<trkpt lat="50.140439" lon="4.535321"><time>2026-05-03T06:50:59Z</time></trkpt>
<trkpt lat="50.142307" lon="4.533167"><time>2026-05-03T07:00:59Z</time></trkpt>
<trkpt lat="50.143983" lon="4.529979"><time>2026-05-03T07:10:59Z</time></trkpt>
</trkseg></trk>
<trk>
<name>nphrl2</name>
<cmt>d</cmt>
<desc>Roly Chemin n°2 Rue du Grand Chaume / chemin n°2 / Chemin n°2</desc>
<link href="https://chemins.be/roly/chemin/2"/><trkseg>
<trkpt lat="50.143983" lon="4.529979"><time>2026-05-03T07:10:59Z</time></trkpt>
<trkpt lat="50.145085" lon="4.526094"><time>2026-05-03T07:20:59Z</time></trkpt>
<trkpt lat="50.145410" lon="4.524738"><time>2026-05-03T07:30:59Z</time></trkpt>
<trkpt lat="50.146725" lon="4.523357"><time>2026-05-03T07:40:59Z</time></trkpt>
<trkpt lat="50.148416" lon="4.522887"><time>2026-05-03T07:50:59Z</time></trkpt>
<trkpt lat="50.148785" lon="4.522552"><time>2026-05-03T08:00:59Z</time></trkpt>
</trkseg>
</trk>
<trk>
<name>nphrl20</name>
<cmt>v</cmt>
<desc>Roly Chemin n°20 </desc>
<link href="https://chemins.be/roly/chemin/20"/><trkseg>
<trkpt lat="50.135714" lon="4.540288"><time>2026-05-03T05:50:59Z</time></trkpt>
<trkpt lat="50.135966" lon="4.540359"><time>2026-05-03T06:00:59Z</time></trkpt>
<trkpt lat="50.136658" lon="4.540725"><time>2026-05-03T06:10:59Z</time></trkpt>
<trkpt lat="50.136775" lon="4.540530"><time>2026-05-03T06:20:59Z</time></trkpt>
</trkseg>
</trk>
<trk>
<name>nphrl20bis</name>
<cmt>v</cmt>
<desc>Roly Chemin n°20bis </desc>
<link href="https://chemins.be/roly/chemin/20bis"/><trkseg>
<trkpt lat="50.126730" lon="4.569583"><time>2026-05-03T05:50:59Z</time></trkpt>
<trkpt lat="50.129201" lon="4.570600"><time>2026-05-03T06:00:59Z</time></trkpt>
<trkpt lat="50.130083" lon="4.569779"><time>2026-05-03T06:10:59Z</time></trkpt>
<trkpt lat="50.130543" lon="4.569389"><time>2026-05-03T06:20:59Z</time></trkpt>
<trkpt lat="50.131603" lon="4.569436"><time>2026-05-03T06:30:59Z</time></trkpt>
</trkseg>
</trk>
<trk>
<name>nphrl22</name>
<cmt>b</cmt>
<desc>Roly Sentier n°22 </desc>
<link href="https://chemins.be/roly/sentier/22"/><trkseg>
<trkpt lat="50.126170" lon="4.512647"><time>2026-05-03T05:50:59Z</time></trkpt>
<trkpt lat="50.122377" lon="4.509965"><time>2026-05-03T06:00:59Z</time></trkpt>
<trkpt lat="50.121139" lon="4.508479"><time>2026-05-03T06:10:59Z</time></trkpt>
<trkpt lat="50.118382" lon="4.505381"><time>2026-05-03T06:20:59Z</time></trkpt>
<trkpt lat="50.117232" lon="4.504888"><time>2026-05-03T06:30:59Z</time></trkpt>
<trkpt lat="50.114844" lon="4.501568"><time>2026-05-03T06:40:59Z</time></trkpt>
</trkseg>
</trk>
<trk>
<name>nphrl23</name>
<cmt>s</cmt>
<desc>Roly Sentier n°23 </desc>
<link href="https://chemins.be/roly/sentier/23"/><trkseg>
<trkpt lat="50.136014" lon="4.532204"><time>2026-05-03T05:50:59Z</time></trkpt>
<trkpt lat="50.136189" lon="4.528932"><time>2026-05-03T06:00:59Z</time></trkpt>
<trkpt lat="50.137072" lon="4.514079"><time>2026-05-03T06:10:59Z</time></trkpt>
<trkpt lat="50.136880" lon="4.509155"><time>2026-05-03T06:20:59Z</time></trkpt>
<trkpt lat="50.137963" lon="4.506234"><time>2026-05-03T06:30:59Z</time></trkpt>
</trkseg>
</trk>
<trk>
<name>nphrl24</name>
<cmt>v</cmt>
<desc>Roly Sentier n°24 </desc>
<link href="https://chemins.be/roly/sentier/24"/><trkseg>
<trkpt lat="50.136354" lon="4.567665"><time>2026-05-03T05:50:59Z</time></trkpt>
<trkpt lat="50.136710" lon="4.569317"><time>2026-05-03T06:00:59Z</time></trkpt>
<trkpt lat="50.137050" lon="4.570704"><time>2026-05-03T06:10:59Z</time></trkpt>
<trkpt lat="50.137595" lon="4.572384"><time>2026-05-03T06:20:59Z</time></trkpt>
</trkseg>
</trk>
<trk>
<name>nphrl25</name>
<cmt>v</cmt>
<desc>Roly Sentier n°25 </desc>
<link href="https://chemins.be/roly/sentier/25"/><trkseg>
<trkpt lat="50.131377" lon="4.554217"><time>2026-05-03T05:50:59Z</time></trkpt>
<trkpt lat="50.131483" lon="4.555672"><time>2026-05-03T06:00:59Z</time></trkpt>
<trkpt lat="50.131246" lon="4.557560"><time>2026-05-03T06:10:59Z</time></trkpt>
<trkpt lat="50.130926" lon="4.560635"><time>2026-05-03T06:20:59Z</time></trkpt>
<trkpt lat="50.130081" lon="4.560730"><time>2026-05-03T06:30:59Z</time></trkpt>
<trkpt lat="50.129682" lon="4.562616"><time>2026-05-03T06:40:59Z</time></trkpt>
</trkseg>
</trk>
<trk>
<name>nphrl26</name>
<cmt>v</cmt>
<desc>Roly Sentier n°26 </desc>
<link href="https://chemins.be/roly/sentier/26"/><trkseg>
<trkpt lat="50.135624" lon="4.540274"><time>2026-05-03T05:50:59Z</time></trkpt>
<trkpt lat="50.135696" lon="4.540414"><time>2026-05-03T06:00:59Z</time></trkpt>
<trkpt lat="50.135723" lon="4.540806"><time>2026-05-03T06:10:59Z</time></trkpt>
<trkpt lat="50.136061" lon="4.542653"><time>2026-05-03T06:20:59Z</time></trkpt>
<trkpt lat="50.136267" lon="4.543298"><time>2026-05-03T06:30:59Z</time></trkpt>
<trkpt lat="50.136321" lon="4.544234"><time>2026-05-03T06:40:59Z</time></trkpt>
<trkpt lat="50.136502" lon="4.544620"><time>2026-05-03T06:50:59Z</time></trkpt>
<trkpt lat="50.136688" lon="4.545547"><time>2026-05-03T07:00:59Z</time></trkpt>
<trkpt lat="50.136842" lon="4.546906"><time>2026-05-03T07:10:59Z</time></trkpt>
<trkpt lat="50.136732" lon="4.548247"><time>2026-05-03T07:20:59Z</time></trkpt>
<trkpt lat="50.136717" lon="4.548923"><time>2026-05-03T07:30:59Z</time></trkpt>
<trkpt lat="50.136922" lon="4.549944"><time>2026-05-03T07:40:59Z</time></trkpt>
<trkpt lat="50.136939" lon="4.550644"><time>2026-05-03T07:50:59Z</time></trkpt>
<trkpt lat="50.136884" lon="4.551399"><time>2026-05-03T08:00:59Z</time></trkpt>
<trkpt lat="50.136749" lon="4.551524"><time>2026-05-03T08:10:59Z</time></trkpt>
</trkseg>
</trk>
<trk>
<name>nphrl27</name>
<cmt>v</cmt>
<desc>Roly Sentier n°27 </desc>
<link href="https://chemins.be/roly/sentier/27"/><trkseg>
<trkpt lat="50.135355" lon="4.539895"><time>2026-05-03T05:50:59Z</time></trkpt>
<trkpt lat="50.135103" lon="4.540062"><time>2026-05-03T06:00:59Z</time></trkpt>
<trkpt lat="50.135126" lon="4.540342"><time>2026-05-03T06:10:59Z</time></trkpt>
<trkpt lat="50.134672" lon="4.540861"><time>2026-05-03T06:20:59Z</time></trkpt>
<trkpt lat="50.134019" lon="4.541308"><time>2026-05-03T06:30:59Z</time></trkpt>
<trkpt lat="50.132709" lon="4.541774"><time>2026-05-03T06:40:59Z</time></trkpt>
<trkpt lat="50.131899" lon="4.542414"><time>2026-05-03T06:50:59Z</time></trkpt>
<trkpt lat="50.131232" lon="4.543867"><time>2026-05-03T07:00:59Z</time></trkpt>
<trkpt lat="50.129602" lon="4.545413"><time>2026-05-03T07:10:59Z</time></trkpt>
</trkseg>
</trk>
<trk>
<name>nphrl28</name>
<cmt>v</cmt>
<desc>Roly Sentier n°28 </desc>
<link href="https://chemins.be/roly/sentier/28"/><trkseg>
<trkpt lat="50.133969" lon="4.541331"><time>2026-05-03T05:50:59Z</time></trkpt>
<trkpt lat="50.132881" lon="4.540880"><time>2026-05-03T06:00:59Z</time></trkpt>
<trkpt lat="50.132414" lon="4.540612"><time>2026-05-03T06:10:59Z</time></trkpt>
</trkseg>
</trk>
<trk>
<name>nphrl29</name>
<cmt>v</cmt>
<desc>Roly Sentier n°29 Rue de la Tuwaire / ?</desc>
<link href="https://chemins.be/roly/sentier/29"/><trkseg>
<trkpt lat="50.135385" lon="4.538077"><time>2026-05-03T05:50:59Z</time></trkpt>
<trkpt lat="50.135898" lon="4.537379"><time>2026-05-03T06:00:59Z</time></trkpt>
<trkpt lat="50.136070" lon="4.537128"><time>2026-05-03T06:10:59Z</time></trkpt>
<trkpt lat="50.136457" lon="4.536584"><time>2026-05-03T06:20:59Z</time></trkpt>
</trkseg>
</trk>
<trk>
<name>nphrl3</name>
<cmt>v</cmt>
<desc>Roly Chemin n°3 </desc>
<link href="https://chemins.be/roly/chemin/3"/><trkseg>
<trkpt lat="50.130116" lon="4.531806"><time>2026-05-03T05:50:59Z</time></trkpt>
<trkpt lat="50.128291" lon="4.532220"><time>2026-05-03T06:00:59Z</time></trkpt>
</trkseg></trk>
<trk>
<name>nphrl3</name>
<cmt>s</cmt>
<desc>Roly Chemin n°3 </desc>
<link href="https://chemins.be/roly/chemin/3"/><trkseg>
<trkpt lat="50.128291" lon="4.532220"><time>2026-05-03T06:00:59Z</time></trkpt>
<trkpt lat="50.127284" lon="4.531993"><time>2026-05-03T06:10:59Z</time></trkpt>
<trkpt lat="50.124917" lon="4.533858"><time>2026-05-03T06:20:59Z</time></trkpt>
<trkpt lat="50.122885" lon="4.533879"><time>2026-05-03T06:30:59Z</time></trkpt>
<trkpt lat="50.120406" lon="4.532207"><time>2026-05-03T06:40:59Z</time></trkpt>
<trkpt lat="50.119264" lon="4.532343"><time>2026-05-03T06:50:59Z</time></trkpt>
<trkpt lat="50.118644" lon="4.531977"><time>2026-05-03T07:00:59Z</time></trkpt>
<trkpt lat="50.118176" lon="4.532213"><time>2026-05-03T07:10:59Z</time></trkpt>
<trkpt lat="50.118024" lon="4.532184"><time>2026-05-03T07:20:59Z</time></trkpt>
<trkpt lat="50.117231" lon="4.532853"><time>2026-05-03T07:30:59Z</time></trkpt>
<trkpt lat="50.116115" lon="4.533744"><time>2026-05-03T07:40:59Z</time></trkpt>
</trkseg>
</trk>
<trk>
<name>nphrl30</name>
<cmt>d</cmt>
<desc>Roly Sentier n°30 </desc>
<link href="https://chemins.be/roly/sentier/30"/><trkseg>
<trkpt lat="50.136069" lon="4.537212"><time>2026-05-03T05:50:59Z</time></trkpt>
<trkpt lat="50.136482" lon="4.538039"><time>2026-05-03T06:00:59Z</time></trkpt>
<trkpt lat="50.136553" lon="4.538403"><time>2026-05-03T06:10:59Z</time></trkpt>
<trkpt lat="50.137019" lon="4.539552"><time>2026-05-03T06:20:59Z</time></trkpt>
<trkpt lat="50.137772" lon="4.540981"><time>2026-05-03T06:30:59Z</time></trkpt>
</trkseg>
</trk>
<trk>
<name>nphrl31</name>
<cmt>d</cmt>
<desc>Roly Sentier n°31 </desc>
<link href="https://chemins.be/roly/sentier/31"/><trkseg>
<trkpt lat="50.131400" lon="4.533251"><time>2026-05-03T05:50:59Z</time></trkpt>
<trkpt lat="50.128462" lon="4.532234"><time>2026-05-03T06:00:59Z</time></trkpt>
</trkseg>
</trk>
<trk>
<name>nphrl4</name>
<cmt>r</cmt>
<desc>Roly Chemin n°4 Rue du Fraity / Rue de Fraity</desc>
<link href="https://chemins.be/roly/chemin/4"/><trkseg>
<trkpt lat="50.134550" lon="4.537109"><time>2026-05-03T05:50:59Z</time></trkpt>
<trkpt lat="50.134295" lon="4.536358"><time>2026-05-03T06:00:59Z</time></trkpt>
<trkpt lat="50.132851" lon="4.534555"><time>2026-05-03T06:10:59Z</time></trkpt>
<trkpt lat="50.132199" lon="4.534051"><time>2026-05-03T06:20:59Z</time></trkpt>
<trkpt lat="50.131696" lon="4.534050"><time>2026-05-03T06:30:59Z</time></trkpt>
<trkpt lat="50.130028" lon="4.531135"><time>2026-05-03T06:40:59Z</time></trkpt>
<trkpt lat="50.128955" lon="4.526320"><time>2026-05-03T06:50:59Z</time></trkpt>
<trkpt lat="50.127083" lon="4.521517"><time>2026-05-03T07:00:59Z</time></trkpt>
<trkpt lat="50.125148" lon="4.516238"><time>2026-05-03T07:10:59Z</time></trkpt>
<trkpt lat="50.124979" lon="4.514686"><time>2026-05-03T07:20:59Z</time></trkpt>
<trkpt lat="50.125402" lon="4.513918"><time>2026-05-03T07:30:59Z</time></trkpt>
<trkpt lat="50.126657" lon="4.512153"><time>2026-05-03T07:40:59Z</time></trkpt>
<trkpt lat="50.127170" lon="4.511982"><time>2026-05-03T07:50:59Z</time></trkpt>
<trkpt lat="50.127592" lon="4.511037"><time>2026-05-03T08:00:59Z</time></trkpt>
<trkpt lat="50.127091" lon="4.507881"><time>2026-05-03T08:10:59Z</time></trkpt>
<trkpt lat="50.125561" lon="4.501528"><time>2026-05-03T08:20:59Z</time></trkpt>
<trkpt lat="50.124536" lon="4.501818"><time>2026-05-03T08:30:59Z</time></trkpt>
<trkpt lat="50.124393" lon="4.501301"><time>2026-05-03T08:40:59Z</time></trkpt>
<trkpt lat="50.124996" lon="4.500435"><time>2026-05-03T08:50:59Z</time></trkpt>
<trkpt lat="50.123403" lon="4.494376"><time>2026-05-03T09:00:59Z</time></trkpt>
<trkpt lat="50.123107" lon="4.492948"><time>2026-05-03T09:10:59Z</time></trkpt>
<trkpt lat="50.123172" lon="4.491438"><time>2026-05-03T09:20:59Z</time></trkpt>
</trkseg>
</trk>
<trk>
<name>nphrl5</name>
<cmt>r</cmt>
<desc>Roly Chemin n°5 Rue de la Bowe</desc>
<link href="https://chemins.be/roly/chemin/5"/><trkseg>
<trkpt lat="50.134937" lon="4.537166"><time>2026-05-03T05:50:59Z</time></trkpt>
<trkpt lat="50.134262" lon="4.537248"><time>2026-05-03T06:00:59Z</time></trkpt>
<trkpt lat="50.133793" lon="4.538295"><time>2026-05-03T06:10:59Z</time></trkpt>
<trkpt lat="50.133773" lon="4.539554"><time>2026-05-03T06:20:59Z</time></trkpt>
<trkpt lat="50.133350" lon="4.540182"><time>2026-05-03T06:30:59Z</time></trkpt>
<trkpt lat="50.132414" lon="4.540612"><time>2026-05-03T06:40:59Z</time></trkpt>
<trkpt lat="50.132018" lon="4.541114"><time>2026-05-03T06:50:59Z</time></trkpt>
<trkpt lat="50.129792" lon="4.544267"><time>2026-05-03T07:00:59Z</time></trkpt>
</trkseg></trk>
<trk>
<name>nphrl5</name>
<cmt>s</cmt>
<desc>Roly Chemin n°5 Rue de la Bowe</desc>
<link href="https://chemins.be/roly/chemin/5"/><trkseg>
<trkpt lat="50.129792" lon="4.544267"><time>2026-05-03T07:00:59Z</time></trkpt>
<trkpt lat="50.129539" lon="4.545357"><time>2026-05-03T07:10:59Z</time></trkpt>
<trkpt lat="50.129214" lon="4.546195"><time>2026-05-03T07:20:59Z</time></trkpt>
<trkpt lat="50.128072" lon="4.546610"><time>2026-05-03T07:30:59Z</time></trkpt>
</trkseg></trk>
<trk>
<name>nphrl5</name>
<cmt>v</cmt>
<desc>Roly Chemin n°5 Rue de la Bowe</desc>
<link href="https://chemins.be/roly/chemin/5"/><trkseg>
<trkpt lat="50.128072" lon="4.546610"><time>2026-05-03T07:30:59Z</time></trkpt>
<trkpt lat="50.127523" lon="4.546888"><time>2026-05-03T07:40:59Z</time></trkpt>
</trkseg></trk>
<trk>
<name>nphrl5</name>
<cmt>s</cmt>
<desc>Roly Chemin n°5 Rue de la Bowe</desc>
<link href="https://chemins.be/roly/chemin/5"/><trkseg>
<trkpt lat="50.127523" lon="4.546888"><time>2026-05-03T07:40:59Z</time></trkpt>
<trkpt lat="50.127279" lon="4.547824"><time>2026-05-03T07:50:59Z</time></trkpt>
</trkseg></trk>
<trk>
<name>nphrl5</name>
<cmt>r</cmt>
<desc>Roly Chemin n°5 Rue de la Bowe</desc>
<link href="https://chemins.be/roly/chemin/5"/><trkseg>
<trkpt lat="50.127279" lon="4.547824"><time>2026-05-03T07:50:59Z</time></trkpt>
<trkpt lat="50.125855" lon="4.549539"><time>2026-05-03T08:00:59Z</time></trkpt>
</trkseg>
</trk>
<trk>
<name>nphrl6</name>
<cmt>r</cmt>
<desc>Roly Chemin n°6 Rue Bois-Saint-Jean</desc>
<link href="https://chemins.be/roly/chemin/6"/><trkseg>
<trkpt lat="50.135063" lon="4.537153"><time>2026-05-03T05:50:59Z</time></trkpt>
<trkpt lat="50.135510" lon="4.538959"><time>2026-05-03T06:00:59Z</time></trkpt>
<trkpt lat="50.136012" lon="4.539296"><time>2026-05-03T06:10:59Z</time></trkpt>
<trkpt lat="50.136649" lon="4.540348"><time>2026-05-03T06:20:59Z</time></trkpt>
<trkpt lat="50.137296" lon="4.540923"><time>2026-05-03T06:30:59Z</time></trkpt>
</trkseg></trk>
<trk>
<name>nphrl6</name>
<cmt>s</cmt>
<desc>Roly Chemin n°6 Rue Bois-Saint-Jean</desc>
<link href="https://chemins.be/roly/chemin/6"/><trkseg>
<trkpt lat="50.137296" lon="4.540923"><time>2026-05-03T06:30:59Z</time></trkpt>
<trkpt lat="50.138024" lon="4.541122"><time>2026-05-03T06:40:59Z</time></trkpt>
<trkpt lat="50.138822" lon="4.542188"><time>2026-05-03T06:50:59Z</time></trkpt>
<trkpt lat="50.140842" lon="4.543944"><time>2026-05-03T07:00:59Z</time></trkpt>
</trkseg></trk>
<trk>
<name>nphrl6</name>
<cmt>v</cmt>
<desc>Roly Chemin n°6 Rue Bois-Saint-Jean</desc>
<link href="https://chemins.be/roly/chemin/6"/><trkseg>
<trkpt lat="50.140842" lon="4.543944"><time>2026-05-03T07:00:59Z</time></trkpt>
<trkpt lat="50.141283" lon="4.543610"><time>2026-05-03T07:10:59Z</time></trkpt>
</trkseg></trk>
<trk>
<name>nphrl6</name>
<cmt>s</cmt>
<desc>Roly Chemin n°6 Rue Bois-Saint-Jean</desc>
<link href="https://chemins.be/roly/chemin/6"/><trkseg>
<trkpt lat="50.141283" lon="4.543610"><time>2026-05-03T07:10:59Z</time></trkpt>
<trkpt lat="50.142950" lon="4.541713"><time>2026-05-03T07:20:59Z</time></trkpt>
<trkpt lat="50.146280" lon="4.539263"><time>2026-05-03T07:30:59Z</time></trkpt>
<trkpt lat="50.149066" lon="4.540029"><time>2026-05-03T07:40:59Z</time></trkpt>
<trkpt lat="50.152839" lon="4.542197"><time>2026-05-03T07:50:59Z</time></trkpt>
</trkseg>
</trk>
<trk>
<name>nphrl7</name>
<cmt>v</cmt>
<desc>Roly Chemin n°7 chemin n°7</desc>
<link href="https://chemins.be/roly/chemin/7"/><trkseg>
<trkpt lat="50.143874" lon="4.530161"><time>2026-05-03T05:50:59Z</time></trkpt>
<trkpt lat="50.146321" lon="4.529721"><time>2026-05-03T06:00:59Z</time></trkpt>
<trkpt lat="50.147184" lon="4.529431"><time>2026-05-03T06:10:59Z</time></trkpt>
<trkpt lat="50.148727" lon="4.529571"><time>2026-05-03T06:20:59Z</time></trkpt>
<trkpt lat="50.150060" lon="4.530364"><time>2026-05-03T06:30:59Z</time></trkpt>
</trkseg>
</trk>
<trk>
<name>nphrl8</name>
<cmt>d</cmt>
<desc>Roly Chemin n°8 </desc>
<link href="https://chemins.be/roly/chemin/8"/><trkseg>
<trkpt lat="50.127961" lon="4.523757"><time>2026-05-03T05:50:59Z</time></trkpt>
<trkpt lat="50.128273" lon="4.532388"><time>2026-05-03T06:00:59Z</time></trkpt>
<trkpt lat="50.128965" lon="4.538739"><time>2026-05-03T06:10:59Z</time></trkpt>
</trkseg></trk>
<trk>
<name>nphrl8</name>
<cmt>v</cmt>
<desc>Roly Chemin n°8 </desc>
<link href="https://chemins.be/roly/chemin/8"/><trkseg>
<trkpt lat="50.128965" lon="4.538739"><time>2026-05-03T06:10:59Z</time></trkpt>
<trkpt lat="50.129008" lon="4.539733"><time>2026-05-03T06:20:59Z</time></trkpt>
</trkseg></trk>
<trk>
<name>nphrl8</name>
<cmt>s</cmt>
<desc>Roly Chemin n°8 </desc>
<link href="https://chemins.be/roly/chemin/8"/><trkseg>
<trkpt lat="50.129008" lon="4.539733"><time>2026-05-03T06:20:59Z</time></trkpt>
<trkpt lat="50.129961" lon="4.539946"><time>2026-05-03T06:30:59Z</time></trkpt>
</trkseg></trk>
<trk>
<name>nphrl8</name>
<cmt>v</cmt>
<desc>Roly Chemin n°8 </desc>
<link href="https://chemins.be/roly/chemin/8"/><trkseg>
<trkpt lat="50.129961" lon="4.539946"><time>2026-05-03T06:30:59Z</time></trkpt>
<trkpt lat="50.131533" lon="4.540707"><time>2026-05-03T06:40:59Z</time></trkpt>
<trkpt lat="50.132162" lon="4.540821"><time>2026-05-03T06:50:59Z</time></trkpt>
</trkseg>
</trk>
<trk>
<name>nphrl9</name>
<cmt>v</cmt>
<desc>Roly Chemin n°9 </desc>
<link href="https://chemins.be/roly/chemin/9"/><trkseg>
<trkpt lat="50.133269" lon="4.540307"><time>2026-05-03T05:50:59Z</time></trkpt>
<trkpt lat="50.131638" lon="4.542791"><time>2026-05-03T06:00:59Z</time></trkpt>
<trkpt lat="50.131050" lon="4.544747"><time>2026-05-03T06:10:59Z</time></trkpt>
<trkpt lat="50.131210" lon="4.551853"><time>2026-05-03T06:20:59Z</time></trkpt>
<trkpt lat="50.131368" lon="4.554063"><time>2026-05-03T06:30:59Z</time></trkpt>
</trkseg>
</trk>
<trk>
<name>nphrli1</name>
<cmt>q</cmt>
<desc>Roly Chemin n°i1 </desc>
<link href="https://chemins.be/roly/chemin/i1"/><trkseg>
<trkpt lat="50.128945" lon="4.539788"><time>2026-05-03T05:50:59Z</time></trkpt>
<trkpt lat="50.128547" lon="4.541521"><time>2026-05-03T06:00:59Z</time></trkpt>
<trkpt lat="50.128051" lon="4.542554"><time>2026-05-03T06:10:59Z</time></trkpt>
<trkpt lat="50.127807" lon="4.543267"><time>2026-05-03T06:20:59Z</time></trkpt>
<trkpt lat="50.127222" lon="4.543836"><time>2026-05-03T06:30:59Z</time></trkpt>
<trkpt lat="50.126880" lon="4.544742"><time>2026-05-03T06:40:59Z</time></trkpt>
<trkpt lat="50.126813" lon="4.545877"><time>2026-05-03T06:50:59Z</time></trkpt>
</trkseg></trk>
<trk>
<name>nphrli1</name>
<cmt>v</cmt>
<desc>Roly Chemin n°i1 </desc>
<link href="https://chemins.be/roly/chemin/i1"/><trkseg>
<trkpt lat="50.126813" lon="4.545877"><time>2026-05-03T06:50:59Z</time></trkpt>
<trkpt lat="50.127088" lon="4.546783"><time>2026-05-03T07:00:59Z</time></trkpt>
<trkpt lat="50.127522" lon="4.546783"><time>2026-05-03T07:10:59Z</time></trkpt>
</trkseg>
</trk>
<trk>
<name>nphrli10</name>
<cmt>s</cmt>
<desc>Roly Sentier n°i10 </desc>
<link href="https://chemins.be/roly/sentier/i10"/><trkseg>
<trkpt lat="50.142314" lon="4.573202"><time>2026-05-03T05:50:59Z</time></trkpt>
<trkpt lat="50.140871" lon="4.575518"><time>2026-05-03T06:00:59Z</time></trkpt>
<trkpt lat="50.139708" lon="4.577052"><time>2026-05-03T06:10:59Z</time></trkpt>
</trkseg>
</trk>
<trk>
<name>nphrli11</name>
<cmt>s</cmt>
<desc>Roly Chemin n°i11 </desc>
<link href="https://chemins.be/roly/chemin/i11"/><trkseg>
<trkpt lat="50.138082" lon="4.506429"><time>2026-05-03T05:50:59Z</time></trkpt>
<trkpt lat="50.137020" lon="4.513040"><time>2026-05-03T06:00:59Z</time></trkpt>
</trkseg>
</trk>
<trk>
<name>nphrli2</name>
<cmt>v</cmt>
<desc>Roly Sentier n°i2 </desc>
<link href="https://chemins.be/roly/sentier/i2"/><trkseg>
<trkpt lat="50.132316" lon="4.539884"><time>2026-05-03T05:50:59Z</time></trkpt>
<trkpt lat="50.132297" lon="4.540668"><time>2026-05-03T06:00:59Z</time></trkpt>
</trkseg>
</trk>
<trk>
<name>nphrli4</name>
<cmt>v</cmt>
<desc>Roly Chemin n°i4 Rue Ingremez</desc>
<link href="https://chemins.be/roly/chemin/i4"/><trkseg>
<trkpt lat="50.134651" lon="4.574400"><time>2026-05-03T05:50:59Z</time></trkpt>
<trkpt lat="50.131042" lon="4.571629"><time>2026-05-03T06:00:59Z</time></trkpt>
<trkpt lat="50.129084" lon="4.570628"><time>2026-05-03T06:10:59Z</time></trkpt>
</trkseg>
</trk>
<trk>
<name>nphrli5</name>
<cmt>v</cmt>
<desc>Roly Chemin n°i5 </desc>
<link href="https://chemins.be/roly/chemin/i5"/><trkseg>
<trkpt lat="50.140498" lon="4.578132"><time>2026-05-03T05:50:59Z</time></trkpt>
<trkpt lat="50.140964" lon="4.578932"><time>2026-05-03T06:00:59Z</time></trkpt>
<trkpt lat="50.141188" lon="4.579367"><time>2026-05-03T06:10:59Z</time></trkpt>
</trkseg>
</trk>
<trk>
<name>nphrli6</name>
<cmt>v</cmt>
<desc>Roly Chemin n°i6 </desc>
<link href="https://chemins.be/roly/chemin/i6"/><trkseg>
<trkpt lat="50.125433" lon="4.549551"><time>2026-05-03T05:50:59Z</time></trkpt>
<trkpt lat="50.125326" lon="4.549173"><time>2026-05-03T06:00:59Z</time></trkpt>
<trkpt lat="50.123236" lon="4.545753"><time>2026-05-03T06:10:59Z</time></trkpt>
</trkseg>
</trk>
<trk>
<name>nphrli7</name>
<cmt>v</cmt>
<desc>Roly Chemin n°i7 </desc>
<link href="https://chemins.be/roly/chemin/i7"/><trkseg>
<trkpt lat="50.128224" lon="4.546653"><time>2026-05-03T05:50:59Z</time></trkpt>
<trkpt lat="50.128328" lon="4.549576"><time>2026-05-03T06:00:59Z</time></trkpt>
<trkpt lat="50.127751" lon="4.550623"><time>2026-05-03T06:10:59Z</time></trkpt>
<trkpt lat="50.127406" lon="4.558188"><time>2026-05-03T06:20:59Z</time></trkpt>
<trkpt lat="50.127204" lon="4.560382"><time>2026-05-03T06:30:59Z</time></trkpt>
</trkseg>
</trk>
<trk>
<name>nphrli8</name>
<cmt>q</cmt>
<desc>Roly Chemin n°i8 </desc>
<link href="https://chemins.be/roly/chemin/i8"/><trkseg>
<trkpt lat="50.131768" lon="4.533644"><time>2026-05-03T05:50:59Z</time></trkpt>
<trkpt lat="50.131769" lon="4.532945"><time>2026-05-03T06:00:59Z</time></trkpt>
<trkpt lat="50.132301" lon="4.532178"><time>2026-05-03T06:10:59Z</time></trkpt>
<trkpt lat="50.132751" lon="4.531606"><time>2026-05-03T06:20:59Z</time></trkpt>
<trkpt lat="50.133355" lon="4.530475"><time>2026-05-03T06:30:59Z</time></trkpt>
<trkpt lat="50.133805" lon="4.529945"><time>2026-05-03T06:40:59Z</time></trkpt>
<trkpt lat="50.134121" lon="4.529526"><time>2026-05-03T06:50:59Z</time></trkpt>
</trkseg>
</trk>
<trk>
<name>nphrli9</name>
<cmt>v</cmt>
<desc>Roly Chemin n°i9 </desc>
<link href="https://chemins.be/roly/chemin/i9"/><trkseg>
<trkpt lat="50.132070" lon="4.542191"><time>2026-05-03T05:50:59Z</time></trkpt>
<trkpt lat="50.131483" lon="4.544371"><time>2026-05-03T06:00:59Z</time></trkpt>
<trkpt lat="50.131658" lon="4.547477"><time>2026-05-03T06:10:59Z</time></trkpt>
<trkpt lat="50.131733" lon="4.549313"><time>2026-05-03T06:20:59Z</time></trkpt>
<trkpt lat="50.131839" lon="4.551925"><time>2026-05-03T06:30:59Z</time></trkpt>
<trkpt lat="50.132026" lon="4.553017"><time>2026-05-03T06:40:59Z</time></trkpt>
<trkpt lat="50.132430" lon="4.553620"><time>2026-05-03T06:50:59Z</time></trkpt>
<trkpt lat="50.133760" lon="4.553863"><time>2026-05-03T07:00:59Z</time></trkpt>
<trkpt lat="50.134828" lon="4.554930"><time>2026-05-03T07:10:59Z</time></trkpt>
<trkpt lat="50.132528" lon="4.554236"><time>2026-05-03T07:20:59Z</time></trkpt>
<trkpt lat="50.132122" lon="4.555381"><time>2026-05-03T07:30:59Z</time></trkpt>
<trkpt lat="50.131519" lon="4.555547"><time>2026-05-03T07:40:59Z</time></trkpt>
</trkseg>
</trk>
<trk>
<name>nphrlL132</name>
<cmt>t</cmt>
<desc>Roly Chemin n°L132 </desc>
<link href="https://chemins.be/roly/chemin/L132"/><trkseg>
<trkpt lat="50.137434" lon="4.504792"><time>2026-05-03T05:50:59Z</time></trkpt>
<trkpt lat="50.133596" lon="4.503634"><time>2026-05-03T06:00:59Z</time></trkpt>
<trkpt lat="50.128142" lon="4.500850"><time>2026-05-03T06:10:59Z</time></trkpt>
<trkpt lat="50.124492" lon="4.501357"><time>2026-05-03T06:20:59Z</time></trkpt>
<trkpt lat="50.122650" lon="4.501753"><time>2026-05-03T06:30:59Z</time></trkpt>
<trkpt lat="50.120293" lon="4.501457"><time>2026-05-03T06:40:59Z</time></trkpt>
<trkpt lat="50.117027" lon="4.499364"><time>2026-05-03T06:50:59Z</time></trkpt>
</trkseg>
</trk>
<trk>
<name>nphrlp1</name>
<cmt>v</cmt>
<desc>Roly Chemin particulier n°p1 </desc>
<link href="https://chemins.be/roly/chemin/p1"/><trkseg>
<trkpt lat="50.135091" lon="4.530117"><time>2026-05-03T05:50:59Z</time></trkpt>
<trkpt lat="50.134345" lon="4.529891"><time>2026-05-03T06:00:59Z</time></trkpt>
<trkpt lat="50.134130" lon="4.529358"><time>2026-05-03T06:10:59Z</time></trkpt>
<trkpt lat="50.133682" lon="4.527748"><time>2026-05-03T06:20:59Z</time></trkpt>
<trkpt lat="50.132912" lon="4.525886"><time>2026-05-03T06:30:59Z</time></trkpt>
<trkpt lat="50.131441" lon="4.523391"><time>2026-05-03T06:40:59Z</time></trkpt>
<trkpt lat="50.130573" lon="4.519976"><time>2026-05-03T06:50:59Z</time></trkpt>
<trkpt lat="50.130575" lon="4.518493"><time>2026-05-03T07:00:59Z</time></trkpt>
</trkseg>
</trk>
<trk>
<name>nphsf1</name>
<cmt>r</cmt>
<desc>Sart-en-Fagne Chemin n°1 Rue du Bief / Rue des Tilleuls</desc>
<link href="https://chemins.be/sartenfagne/chemin/1"/><trkseg>
<trkpt lat="50.156859" lon="4.619347"><time>2026-05-03T05:50:59Z</time></trkpt>
<trkpt lat="50.156201" lon="4.620127"><time>2026-05-03T06:00:59Z</time></trkpt>
<trkpt lat="50.155730" lon="4.621678"><time>2026-05-03T06:10:59Z</time></trkpt>
<trkpt lat="50.155600" lon="4.623650"><time>2026-05-03T06:20:59Z</time></trkpt>
<trkpt lat="50.156008" lon="4.626018"><time>2026-05-03T06:30:59Z</time></trkpt>
<trkpt lat="50.156368" lon="4.630120"><time>2026-05-03T06:40:59Z</time></trkpt>
</trkseg></trk>
<trk>
<name>nphsf1</name>
<cmt>v</cmt>
<desc>Sart-en-Fagne Chemin n°1 Rue du Bief / Rue des Tilleuls</desc>
<link href="https://chemins.be/sartenfagne/chemin/1"/><trkseg>
<trkpt lat="50.156368" lon="4.630120"><time>2026-05-03T06:40:59Z</time></trkpt>
<trkpt lat="50.156190" lon="4.631488"><time>2026-05-03T06:50:59Z</time></trkpt>
<trkpt lat="50.154822" lon="4.633806"><time>2026-05-03T07:00:59Z</time></trkpt>
<trkpt lat="50.153448" lon="4.636862"><time>2026-05-03T07:10:59Z</time></trkpt>
</trkseg>
</trk>
<trk>
<name>nphsf10</name>
<cmt>v</cmt>
<desc>Sart-en-Fagne Chemin n°10 </desc>
<link href="https://chemins.be/sartenfagne/chemin/10"/><trkseg>
<trkpt lat="50.156538" lon="4.630247"><time>2026-05-03T05:50:59Z</time></trkpt>
<trkpt lat="50.157178" lon="4.633427"><time>2026-05-03T06:00:59Z</time></trkpt>
<trkpt lat="50.157491" lon="4.634212"><time>2026-05-03T06:10:59Z</time></trkpt>
<trkpt lat="50.157718" lon="4.637334"><time>2026-05-03T06:20:59Z</time></trkpt>
<trkpt lat="50.157633" lon="4.639027"><time>2026-05-03T06:30:59Z</time></trkpt>
<trkpt lat="50.158067" lon="4.641828"><time>2026-05-03T06:40:59Z</time></trkpt>
</trkseg>
</trk>
<trk>
<name>nphsf11</name>
<cmt>v</cmt>
<desc>Sart-en-Fagne Chemin n°11 </desc>
<link href="https://chemins.be/sartenfagne/chemin/11"/><trkseg>
<trkpt lat="50.155955" lon="4.625905"><time>2026-05-03T05:50:59Z</time></trkpt>
<trkpt lat="50.154819" lon="4.627285"><time>2026-05-03T06:00:59Z</time></trkpt>
<trkpt lat="50.151486" lon="4.630289"><time>2026-05-03T06:10:59Z</time></trkpt>
</trkseg>
</trk>
<trk>
<name>nphsf12</name>
<cmt>v</cmt>
<desc>Sart-en-Fagne Chemin n°12 </desc>
<link href="https://chemins.be/sartenfagne/chemin/12"/><trkseg>
<trkpt lat="50.159073" lon="4.622675"><time>2026-05-03T05:50:59Z</time></trkpt>
<trkpt lat="50.160082" lon="4.621785"><time>2026-05-03T06:00:59Z</time></trkpt>
<trkpt lat="50.160601" lon="4.622656"><time>2026-05-03T06:10:59Z</time></trkpt>
<trkpt lat="50.160986" lon="4.623581"><time>2026-05-03T06:20:59Z</time></trkpt>
<trkpt lat="50.161945" lon="4.624734"><time>2026-05-03T06:30:59Z</time></trkpt>
<trkpt lat="50.162547" lon="4.625045"><time>2026-05-03T06:40:59Z</time></trkpt>
<trkpt lat="50.163592" lon="4.627934"><time>2026-05-03T06:50:59Z</time></trkpt>
</trkseg>
</trk>
<trk>
<name>nphsf14</name>
<cmt>v</cmt>
<desc>Sart-en-Fagne Chemin n°14 </desc>
<link href="https://chemins.be/sartenfagne/chemin/14"/><trkseg>
<trkpt lat="50.159584" lon="4.615051"><time>2026-05-03T05:50:59Z</time></trkpt>
<trkpt lat="50.159467" lon="4.615036"><time>2026-05-03T06:00:59Z</time></trkpt>
<trkpt lat="50.159377" lon="4.615190"><time>2026-05-03T06:10:59Z</time></trkpt>
<trkpt lat="50.159205" lon="4.615525"><time>2026-05-03T06:20:59Z</time></trkpt>
<trkpt lat="50.159061" lon="4.615748"><time>2026-05-03T06:30:59Z</time></trkpt>
</trkseg>
</trk>
<trk>
<name>nphsf15</name>
<cmt>d</cmt>
<desc>Sart-en-Fagne Chemin n°15 </desc>
<link href="https://chemins.be/sartenfagne/chemin/15"/><trkseg>
<trkpt lat="50.161732" lon="4.631731"><time>2026-05-03T05:50:59Z</time></trkpt>
<trkpt lat="50.163172" lon="4.634650"><time>2026-05-03T06:00:59Z</time></trkpt>
</trkseg>
</trk>
<trk>
<name>nphsf16</name>
<cmt>v</cmt>
<desc>Sart-en-Fagne Chemin n°16 </desc>
<link href="https://chemins.be/sartenfagne/chemin/16"/><trkseg>
<trkpt lat="50.163070" lon="4.615825"><time>2026-05-03T05:50:59Z</time></trkpt>
<trkpt lat="50.163347" lon="4.616582"><time>2026-05-03T06:00:59Z</time></trkpt>
<trkpt lat="50.163766" lon="4.618390"><time>2026-05-03T06:10:59Z</time></trkpt>
<trkpt lat="50.164364" lon="4.620240"><time>2026-05-03T06:20:59Z</time></trkpt>
<trkpt lat="50.165198" lon="4.621322"><time>2026-05-03T06:30:59Z</time></trkpt>
<trkpt lat="50.166515" lon="4.623429"><time>2026-05-03T06:40:59Z</time></trkpt>
<trkpt lat="50.166791" lon="4.624872"><time>2026-05-03T06:50:59Z</time></trkpt>
</trkseg>
</trk>
<trk>
<name>nphsf17</name>
<cmt>v</cmt>
<desc>Sart-en-Fagne Chemin n°17 </desc>
<link href="https://chemins.be/sartenfagne/chemin/17"/><trkseg>
<trkpt lat="50.157512" lon="4.620904"><time>2026-05-03T05:50:59Z</time></trkpt>
<trkpt lat="50.157249" lon="4.622036"><time>2026-05-03T06:00:59Z</time></trkpt>
</trkseg>
</trk>
<trk>
<name>nphsf18</name>
<cmt>v</cmt>
<desc>Sart-en-Fagne Chemin n°18 </desc>
<link href="https://chemins.be/sartenfagne/chemin/18"/><trkseg>
<trkpt lat="50.157708" lon="4.619248"><time>2026-05-03T05:50:59Z</time></trkpt>
<trkpt lat="50.158066" lon="4.619651"><time>2026-05-03T06:00:59Z</time></trkpt>
<trkpt lat="50.158088" lon="4.620089"><time>2026-05-03T06:10:59Z</time></trkpt>
</trkseg>
</trk>
<trk>
<name>nphsf19</name>
<cmt>v</cmt>
<desc>Sart-en-Fagne Chemin n°19 </desc>
<link href="https://chemins.be/sartenfagne/chemin/19"/><trkseg>
<trkpt lat="50.158264" lon="4.618543"><time>2026-05-03T05:50:59Z</time></trkpt>
<trkpt lat="50.158264" lon="4.618319"><time>2026-05-03T06:00:59Z</time></trkpt>
<trkpt lat="50.158255" lon="4.618193"><time>2026-05-03T06:10:59Z</time></trkpt>
</trkseg></trk>
<trk>
<name>nphsf19</name>
<cmt>b</cmt>
<desc>Sart-en-Fagne Chemin n°19 </desc>
<link href="https://chemins.be/sartenfagne/chemin/19"/><trkseg>
<trkpt lat="50.158255" lon="4.618193"><time>2026-05-03T06:10:59Z</time></trkpt>
<trkpt lat="50.158210" lon="4.618165"><time>2026-05-03T06:20:59Z</time></trkpt>
</trkseg></trk>
<trk>
<name>nphsf19</name>
<cmt>v</cmt>
<desc>Sart-en-Fagne Chemin n°19 </desc>
<link href="https://chemins.be/sartenfagne/chemin/19"/><trkseg>
<trkpt lat="50.158210" lon="4.618165"><time>2026-05-03T06:20:59Z</time></trkpt>
<trkpt lat="50.158193" lon="4.617731"><time>2026-05-03T06:30:59Z</time></trkpt>
</trkseg></trk>
<trk>
<name>nphsf19</name>
<cmt>d</cmt>
<desc>Sart-en-Fagne Chemin n°19 </desc>
<link href="https://chemins.be/sartenfagne/chemin/19"/><trkseg>
<trkpt lat="50.158193" lon="4.617731"><time>2026-05-03T06:30:59Z</time></trkpt>
<trkpt lat="50.158185" lon="4.617395"><time>2026-05-03T06:40:59Z</time></trkpt>
</trkseg>
</trk>
<trk>
<name>nphsf20</name>
<cmt>v</cmt>
<desc>Sart-en-Fagne Sentier n°20 </desc>
<link href="https://chemins.be/sartenfagne/sentier/20"/><trkseg>
<trkpt lat="50.159034" lon="4.615804"><time>2026-05-03T05:50:59Z</time></trkpt>
<trkpt lat="50.158880" lon="4.616125"><time>2026-05-03T06:00:59Z</time></trkpt>
<trkpt lat="50.158754" lon="4.616404"><time>2026-05-03T06:10:59Z</time></trkpt>
<trkpt lat="50.158636" lon="4.616683"><time>2026-05-03T06:20:59Z</time></trkpt>
</trkseg></trk>
<trk>
<name>nphsf20</name>
<cmt>d</cmt>
<desc>Sart-en-Fagne Sentier n°20 </desc>
<link href="https://chemins.be/sartenfagne/sentier/20"/><trkseg>
<trkpt lat="50.158636" lon="4.616683"><time>2026-05-03T06:20:59Z</time></trkpt>
<trkpt lat="50.158528" lon="4.616949"><time>2026-05-03T06:30:59Z</time></trkpt>
</trkseg></trk>
<trk>
<name>nphsf20</name>
<cmt>v</cmt>
<desc>Sart-en-Fagne Sentier n°20 </desc>
<link href="https://chemins.be/sartenfagne/sentier/20"/><trkseg>
<trkpt lat="50.158528" lon="4.616949"><time>2026-05-03T06:30:59Z</time></trkpt>
<trkpt lat="50.158447" lon="4.617060"><time>2026-05-03T06:40:59Z</time></trkpt>
<trkpt lat="50.158177" lon="4.617073"><time>2026-05-03T06:50:59Z</time></trkpt>
<trkpt lat="50.158194" lon="4.617367"><time>2026-05-03T07:00:59Z</time></trkpt>
</trkseg>
</trk>
<trk>
<name>nphsf21</name>
<cmt>d</cmt>
<desc>Sart-en-Fagne Sentier n°21 </desc>
<link href="https://chemins.be/sartenfagne/sentier/21"/><trkseg>
<trkpt lat="50.157267" lon="4.622064"><time>2026-05-03T05:50:59Z</time></trkpt>
<trkpt lat="50.157407" lon="4.623800"><time>2026-05-03T06:00:59Z</time></trkpt>
<trkpt lat="50.157227" lon="4.623813"><time>2026-05-03T06:10:59Z</time></trkpt>
<trkpt lat="50.156829" lon="4.625014"><time>2026-05-03T06:20:59Z</time></trkpt>
<trkpt lat="50.156855" lon="4.625560"><time>2026-05-03T06:30:59Z</time></trkpt>
<trkpt lat="50.156888" lon="4.626708"><time>2026-05-03T06:40:59Z</time></trkpt>
<trkpt lat="50.156249" lon="4.627082"><time>2026-05-03T06:50:59Z</time></trkpt>
</trkseg>
</trk>
<trk>
<name>nphsf22</name>
<cmt>d</cmt>
<desc>Sart-en-Fagne Sentier n°22 </desc>
<link href="https://chemins.be/sartenfagne/sentier/22"/><trkseg>
<trkpt lat="50.157461" lon="4.623842"><time>2026-05-03T05:50:59Z</time></trkpt>
<trkpt lat="50.157531" lon="4.624472"><time>2026-05-03T06:00:59Z</time></trkpt>
<trkpt lat="50.158229" lon="4.626058"><time>2026-05-03T06:10:59Z</time></trkpt>
<trkpt lat="50.158531" lon="4.627781"><time>2026-05-03T06:20:59Z</time></trkpt>
<trkpt lat="50.158758" lon="4.629191"><time>2026-05-03T06:30:59Z</time></trkpt>
<trkpt lat="50.159129" lon="4.631272"><time>2026-05-03T06:40:59Z</time></trkpt>
<trkpt lat="50.159294" lon="4.635163"><time>2026-05-03T06:50:59Z</time></trkpt>
<trkpt lat="50.158973" lon="4.639226"><time>2026-05-03T07:00:59Z</time></trkpt>
<trkpt lat="50.159115" lon="4.640742"><time>2026-05-03T07:10:59Z</time></trkpt>
</trkseg>
</trk>
<trk>
<name>nphsf23</name>
<cmt>s</cmt>
<desc>Sart-en-Fagne Sentier n°23 </desc>
<link href="https://chemins.be/sartenfagne/sentier/23"/><trkseg>
<trkpt lat="50.160637" lon="4.614315"><time>2026-05-03T05:50:59Z</time></trkpt>
<trkpt lat="50.161562" lon="4.614809"><time>2026-05-03T06:00:59Z</time></trkpt>
<trkpt lat="50.162353" lon="4.615009"><time>2026-05-03T06:10:59Z</time></trkpt>
<trkpt lat="50.162766" lon="4.615333"><time>2026-05-03T06:20:59Z</time></trkpt>
</trkseg>
</trk>
<trk>
<name>nphsf24</name>
<cmt>s</cmt>
<desc>Sart-en-Fagne Sentier n°24 </desc>
<link href="https://chemins.be/sartenfagne/sentier/24"/><trkseg>
<trkpt lat="50.159100" lon="4.622676"><time>2026-05-03T05:50:59Z</time></trkpt>
<trkpt lat="50.159602" lon="4.623028"><time>2026-05-03T06:00:59Z</time></trkpt>
<trkpt lat="50.160195" lon="4.623129"><time>2026-05-03T06:10:59Z</time></trkpt>
<trkpt lat="50.160968" lon="4.623539"><time>2026-05-03T06:20:59Z</time></trkpt>
</trkseg>
</trk>
<trk>
<name>nphsf25</name>
<cmt>r</cmt>
<desc>Sart-en-Fagne Sentier n°25 Rue de Villers-en-Fagne</desc>
<link href="https://chemins.be/sartenfagne/sentier/25"/><trkseg>
<trkpt lat="50.156635" lon="4.619122"><time>2026-05-03T05:50:59Z</time></trkpt>
<trkpt lat="50.155826" lon="4.619244"><time>2026-05-03T06:00:59Z</time></trkpt>
<trkpt lat="50.154613" lon="4.618733"><time>2026-05-03T06:10:59Z</time></trkpt>
</trkseg></trk>
<trk>
<name>nphsf25</name>
<cmt>s</cmt>
<desc>Sart-en-Fagne Sentier n°25 Rue de Villers-en-Fagne</desc>
<link href="https://chemins.be/sartenfagne/sentier/25"/><trkseg>
<trkpt lat="50.154613" lon="4.618733"><time>2026-05-03T06:10:59Z</time></trkpt>
<trkpt lat="50.153769" lon="4.618141"><time>2026-05-03T06:20:59Z</time></trkpt>
<trkpt lat="50.153526" lon="4.618252"><time>2026-05-03T06:30:59Z</time></trkpt>
<trkpt lat="50.153268" lon="4.617187"><time>2026-05-03T06:40:59Z</time></trkpt>
</trkseg>
</trk>
<trk>
<name>nphsf26</name>
<cmt>s</cmt>
<desc>Sart-en-Fagne Sentier n°26 </desc>
<link href="https://chemins.be/sartenfagne/sentier/26"/><trkseg>
<trkpt lat="50.160269" lon="4.614327"><time>2026-05-03T05:50:59Z</time></trkpt>
<trkpt lat="50.160115" lon="4.610323"><time>2026-05-03T06:00:59Z</time></trkpt>
<trkpt lat="50.160352" lon="4.604475"><time>2026-05-03T06:10:59Z</time></trkpt>
</trkseg>
</trk>
<trk>
<name>nphsf4</name>
<cmt>r</cmt>
<desc>Sart-en-Fagne Chemin n°4 Rue de Villers-en-Fagne / ?</desc>
<link href="https://chemins.be/sartenfagne/chemin/4"/><trkseg>
<trkpt lat="50.154327" lon="4.617738"><time>2026-05-03T05:50:59Z</time></trkpt>
<trkpt lat="50.154756" lon="4.618888"><time>2026-05-03T06:00:59Z</time></trkpt>
</trkseg></trk>
<trk>
<name>nphsf4</name>
<cmt>v</cmt>
<desc>Sart-en-Fagne Chemin n°4 Rue de Villers-en-Fagne / ?</desc>
<link href="https://chemins.be/sartenfagne/chemin/4"/><trkseg>
<trkpt lat="50.154756" lon="4.618888"><time>2026-05-03T06:00:59Z</time></trkpt>
<trkpt lat="50.155067" lon="4.620891"><time>2026-05-03T06:10:59Z</time></trkpt>
<trkpt lat="50.155217" lon="4.622039"><time>2026-05-03T06:20:59Z</time></trkpt>
<trkpt lat="50.155451" lon="4.622152"><time>2026-05-03T06:30:59Z</time></trkpt>
<trkpt lat="50.155667" lon="4.621930"><time>2026-05-03T06:40:59Z</time></trkpt>
</trkseg>
</trk>
<trk>
<name>nphsf6</name>
<cmt>d</cmt>
<desc>Sart-en-Fagne Chemin n°6 </desc>
<link href="https://chemins.be/sartenfagne/chemin/6"/><trkseg>
<trkpt lat="50.155253" lon="4.622151"><time>2026-05-03T05:50:59Z</time></trkpt>
<trkpt lat="50.155671" lon="4.624001"><time>2026-05-03T06:00:59Z</time></trkpt>
</trkseg>
</trk>
<trk>
<name>nphsf7</name>
<cmt>r</cmt>
<desc>Sart-en-Fagne Chemin n°7 Rue du Grand-Bon-Dieu</desc>
<link href="https://chemins.be/sartenfagne/chemin/7"/><trkseg>
<trkpt lat="50.156779" lon="4.619165"><time>2026-05-03T05:50:59Z</time></trkpt>
<trkpt lat="50.156066" lon="4.616110"><time>2026-05-03T06:00:59Z</time></trkpt>
</trkseg></trk>
<trk>
<name>nphsf7</name>
<cmt>v</cmt>
<desc>Sart-en-Fagne Chemin n°7 Rue du Grand-Bon-Dieu</desc>
<link href="https://chemins.be/sartenfagne/chemin/7"/><trkseg>
<trkpt lat="50.156066" lon="4.616110"><time>2026-05-03T06:00:59Z</time></trkpt>
<trkpt lat="50.155566" lon="4.614358"><time>2026-05-03T06:10:59Z</time></trkpt>
</trkseg>
</trk>
<trk>
<name>nphsf8</name>
<cmt>s</cmt>
<desc>Sart-en-Fagne Chemin n°8 </desc>
<link href="https://chemins.be/sartenfagne/chemin/8"/><trkseg>
<trkpt lat="50.156111" lon="4.620253"><time>2026-05-03T05:50:59Z</time></trkpt>
<trkpt lat="50.155067" lon="4.620793"><time>2026-05-03T06:00:59Z</time></trkpt>
</trkseg></trk>
<trk>
<name>nphsf8</name>
<cmt>d</cmt>
<desc>Sart-en-Fagne Chemin n°8 </desc>
<link href="https://chemins.be/sartenfagne/chemin/8"/><trkseg>
<trkpt lat="50.155067" lon="4.620793"><time>2026-05-03T06:00:59Z</time></trkpt>
<trkpt lat="50.152483" lon="4.622416"><time>2026-05-03T06:10:59Z</time></trkpt>
<trkpt lat="50.151222" lon="4.623333"><time>2026-05-03T06:20:59Z</time></trkpt>
</trkseg>
</trk>
<trk>
<name>nphsf9</name>
<cmt>r</cmt>
<desc>Sart-en-Fagne Chemin n°9 </desc>
<link href="https://chemins.be/sartenfagne/chemin/9"/><trkseg>
<trkpt lat="50.156390" lon="4.630211"><time>2026-05-03T05:50:59Z</time></trkpt>
<trkpt lat="50.157581" lon="4.629739"><time>2026-05-03T06:00:59Z</time></trkpt>
</trkseg>
</trk>
<trk>
<name>nphsm12</name>
<cmt>v</cmt>
<desc>Samart Chemin n°12 </desc>
<link href="https://chemins.be/samart/chemin/12"/><trkseg>
<trkpt lat="50.174994" lon="4.534648"><time>2026-05-03T05:50:59Z</time></trkpt>
<trkpt lat="50.174887" lon="4.533906"><time>2026-05-03T06:00:59Z</time></trkpt>
<trkpt lat="50.175009" lon="4.533688"><time>2026-05-03T06:10:59Z</time></trkpt>
<trkpt lat="50.174908" lon="4.531652"><time>2026-05-03T06:20:59Z</time></trkpt>
</trkseg>
</trk>
<trk>
<name>nphsm13</name>
<cmt>v</cmt>
<desc>Samart Chemin n°13 </desc>
<link href="https://chemins.be/samart/chemin/13"/><trkseg>
<trkpt lat="50.174948" lon="4.535334"><time>2026-05-03T05:50:59Z</time></trkpt>
<trkpt lat="50.175226" lon="4.535881"><time>2026-05-03T06:00:59Z</time></trkpt>
<trkpt lat="50.175493" lon="4.537156"><time>2026-05-03T06:10:59Z</time></trkpt>
<trkpt lat="50.175492" lon="4.538038"><time>2026-05-03T06:20:59Z</time></trkpt>
<trkpt lat="50.176601" lon="4.542046"><time>2026-05-03T06:30:59Z</time></trkpt>
<trkpt lat="50.176470" lon="4.545685"><time>2026-05-03T06:40:59Z</time></trkpt>
<trkpt lat="50.176853" lon="4.547759"><time>2026-05-03T06:50:59Z</time></trkpt>
<trkpt lat="50.177164" lon="4.550112"><time>2026-05-03T07:00:59Z</time></trkpt>
<trkpt lat="50.178325" lon="4.554695"><time>2026-05-03T07:10:59Z</time></trkpt>
</trkseg>
</trk>
<trk>
<name>nphsm14</name>
<cmt>v</cmt>
<desc>Samart Chemin n°14 </desc>
<link href="https://chemins.be/samart/chemin/14"/><trkseg>
<trkpt lat="50.178641" lon="4.536355"><time>2026-05-03T05:50:59Z</time></trkpt>
<trkpt lat="50.178847" lon="4.536860"><time>2026-05-03T06:00:59Z</time></trkpt>
<trkpt lat="50.178998" lon="4.538065"><time>2026-05-03T06:10:59Z</time></trkpt>
<trkpt lat="50.178908" lon="4.538260"><time>2026-05-03T06:20:59Z</time></trkpt>
<trkpt lat="50.178818" lon="4.538288"><time>2026-05-03T06:30:59Z</time></trkpt>
<trkpt lat="50.178790" lon="4.539170"><time>2026-05-03T06:40:59Z</time></trkpt>
<trkpt lat="50.178887" lon="4.540570"><time>2026-05-03T06:50:59Z</time></trkpt>
</trkseg>
</trk>
<trk>
<name>nphsm14bis</name>
<cmt>v</cmt>
<desc>Samart Chemin n°14bis </desc>
<link href="https://chemins.be/samart/chemin/14bis"/><trkseg>
<trkpt lat="50.178084" lon="4.535989"><time>2026-05-03T05:50:59Z</time></trkpt>
<trkpt lat="50.178596" lon="4.536355"><time>2026-05-03T06:00:59Z</time></trkpt>
</trkseg>
</trk>
<trk>
<name>nphsm15</name>
<cmt>r</cmt>
<desc>Samart Chemin n°15 Pétit-Moulin</desc>
<link href="https://chemins.be/samart/chemin/15"/><trkseg>
<trkpt lat="50.177653" lon="4.533058"><time>2026-05-03T05:50:59Z</time></trkpt>
<trkpt lat="50.177144" lon="4.532303"><time>2026-05-03T06:00:59Z</time></trkpt>
<trkpt lat="50.176703" lon="4.531967"><time>2026-05-03T06:10:59Z</time></trkpt>
<trkpt lat="50.176322" lon="4.531680"><time>2026-05-03T06:20:59Z</time></trkpt>
<trkpt lat="50.176185" lon="4.531246"><time>2026-05-03T06:30:59Z</time></trkpt>
</trkseg>
</trk>
<trk>
<name>nphsm16</name>
<cmt>b</cmt>
<desc>Samart Chemin n°16 </desc>
<link href="https://chemins.be/samart/chemin/16"/><trkseg>
<trkpt lat="50.178138" lon="4.534102"><time>2026-05-03T05:50:59Z</time></trkpt>
<trkpt lat="50.178338" lon="4.533893"><time>2026-05-03T06:00:59Z</time></trkpt>
<trkpt lat="50.178408" lon="4.533680"><time>2026-05-03T06:10:59Z</time></trkpt>
<trkpt lat="50.178360" lon="4.533169"><time>2026-05-03T06:20:59Z</time></trkpt>
</trkseg></trk>
<trk>
<name>nphsm16</name>
<cmt>v</cmt>
<desc>Samart Chemin n°16 </desc>
<link href="https://chemins.be/samart/chemin/16"/><trkseg>
<trkpt lat="50.178360" lon="4.533169"><time>2026-05-03T06:20:59Z</time></trkpt>
<trkpt lat="50.178530" lon="4.533085"><time>2026-05-03T06:30:59Z</time></trkpt>
<trkpt lat="50.179185" lon="4.533459"><time>2026-05-03T06:40:59Z</time></trkpt>
<trkpt lat="50.179707" lon="4.533111"><time>2026-05-03T06:50:59Z</time></trkpt>
</trkseg>
</trk>
<trk>
<name>nphsm17</name>
<cmt>v</cmt>
<desc>Samart Chemin n°17 </desc>
<link href="https://chemins.be/samart/chemin/17"/><trkseg>
<trkpt lat="50.176551" lon="4.533352"><time>2026-05-03T05:50:59Z</time></trkpt>
<trkpt lat="50.176290" lon="4.533729"><time>2026-05-03T06:00:59Z</time></trkpt>
<trkpt lat="50.175714" lon="4.533993"><time>2026-05-03T06:10:59Z</time></trkpt>
</trkseg>
</trk>
<trk>
<name>nphsm18</name>
<cmt>v</cmt>
<desc>Samart Chemin n°18 </desc>
<link href="https://chemins.be/samart/chemin/18"/><trkseg>
<trkpt lat="50.175435" lon="4.534048"><time>2026-05-03T05:50:59Z</time></trkpt>
<trkpt lat="50.175157" lon="4.533879"><time>2026-05-03T06:00:59Z</time></trkpt>
<trkpt lat="50.174878" lon="4.533822"><time>2026-05-03T06:10:59Z</time></trkpt>
<trkpt lat="50.174509" lon="4.533723"><time>2026-05-03T06:20:59Z</time></trkpt>
<trkpt lat="50.174114" lon="4.533329"><time>2026-05-03T06:30:59Z</time></trkpt>
</trkseg>
</trk>
<trk>
<name>nphsm2</name>
<cmt>v</cmt>
<desc>Samart Chemin n°2 Le Faubourg / Rue Ernest Lahaye</desc>
<link href="https://chemins.be/samart/chemin/2"/><trkseg>
<trkpt lat="50.177893" lon="4.541532"><time>2026-05-03T05:50:59Z</time></trkpt>
<trkpt lat="50.177994" lon="4.542040"><time>2026-05-03T06:00:59Z</time></trkpt>
<trkpt lat="50.177600" lon="4.543592"><time>2026-05-03T06:10:59Z</time></trkpt>
<trkpt lat="50.177660" lon="4.546697"><time>2026-05-03T06:20:59Z</time></trkpt>
<trkpt lat="50.177545" lon="4.548857"><time>2026-05-03T06:30:59Z</time></trkpt>
</trkseg>
</trk>
<trk>
<name>nphsm21</name>
<cmt>v</cmt>
<desc>Samart Sentier n°21 </desc>
<link href="https://chemins.be/samart/sentier/21"/><trkseg>
<trkpt lat="50.176183" lon="4.531253"><time>2026-05-03T05:50:59Z</time></trkpt>
<trkpt lat="50.176226" lon="4.531035"><time>2026-05-03T06:00:59Z</time></trkpt>
<trkpt lat="50.176393" lon="4.530867"><time>2026-05-03T06:10:59Z</time></trkpt>
<trkpt lat="50.176410" lon="4.530731"><time>2026-05-03T06:20:59Z</time></trkpt>
<trkpt lat="50.176178" lon="4.529599"><time>2026-05-03T06:30:59Z</time></trkpt>
</trkseg>
</trk>
<trk>
<name>nphsm22</name>
<cmt>v</cmt>
<desc>Samart Sentier n°22 </desc>
<link href="https://chemins.be/samart/sentier/22"/><trkseg>
<trkpt lat="50.174099" lon="4.531439"><time>2026-05-03T05:50:59Z</time></trkpt>
<trkpt lat="50.174196" lon="4.532742"><time>2026-05-03T06:00:59Z</time></trkpt>
<trkpt lat="50.174474" lon="4.533597"><time>2026-05-03T06:10:59Z</time></trkpt>
</trkseg>
</trk>
<trk>
<name>nphsm23</name>
<cmt>v</cmt>
<desc>Samart Sentier n°23 </desc>
<link href="https://chemins.be/samart/sentier/23"/><trkseg>
<trkpt lat="50.177046" lon="4.533172"><time>2026-05-03T05:50:59Z</time></trkpt>
<trkpt lat="50.176965" lon="4.532569"><time>2026-05-03T06:00:59Z</time></trkpt>
<trkpt lat="50.176786" lon="4.532135"><time>2026-05-03T06:10:59Z</time></trkpt>
</trkseg>
</trk>
<trk>
<name>nphsm24</name>
<cmt>v</cmt>
<desc>Samart Sentier n°24 </desc>
<link href="https://chemins.be/samart/sentier/24"/><trkseg>
<trkpt lat="50.168640" lon="4.556331"><time>2026-05-03T05:50:59Z</time></trkpt>
<trkpt lat="50.168510" lon="4.556313"><time>2026-05-03T06:00:59Z</time></trkpt>
<trkpt lat="50.168326" lon="4.556097"><time>2026-05-03T06:10:59Z</time></trkpt>
<trkpt lat="50.167916" lon="4.553926"><time>2026-05-03T06:20:59Z</time></trkpt>
<trkpt lat="50.167592" lon="4.554121"><time>2026-05-03T06:30:59Z</time></trkpt>
</trkseg></trk>
<trk>
<name>nphsm24</name>
<cmt>d</cmt>
<desc>Samart Sentier n°24 </desc>
<link href="https://chemins.be/samart/sentier/24"/><trkseg>
<trkpt lat="50.167592" lon="4.554121"><time>2026-05-03T06:30:59Z</time></trkpt>
<trkpt lat="50.167250" lon="4.553135"><time>2026-05-03T06:40:59Z</time></trkpt>
<trkpt lat="50.167105" lon="4.552284"><time>2026-05-03T06:50:59Z</time></trkpt>
<trkpt lat="50.166942" lon="4.551135"><time>2026-05-03T07:00:59Z</time></trkpt>
</trkseg>
</trk>
<trk>
<name>nphsm25</name>
<cmt>s</cmt>
<desc>Samart Sentier n°25 </desc>
<link href="https://chemins.be/samart/sentier/25"/><trkseg>
<trkpt lat="50.166458" lon="4.537012"><time>2026-05-03T05:50:59Z</time></trkpt>
<trkpt lat="50.167658" lon="4.534147"><time>2026-05-03T06:00:59Z</time></trkpt>
<trkpt lat="50.168009" lon="4.533756"><time>2026-05-03T06:10:59Z</time></trkpt>
<trkpt lat="50.169558" lon="4.532054"><time>2026-05-03T06:20:59Z</time></trkpt>
</trkseg>
</trk>
<trk>
<name>nphsm27</name>
<cmt>d</cmt>
<desc>Samart Sentier n°27 </desc>
<link href="https://chemins.be/samart/sentier/27"/><trkseg>
<trkpt lat="50.177497" lon="4.549861"><time>2026-05-03T05:50:59Z</time></trkpt>
<trkpt lat="50.177217" lon="4.550448"><time>2026-05-03T06:00:59Z</time></trkpt>
<trkpt lat="50.177046" lon="4.550896"><time>2026-05-03T06:10:59Z</time></trkpt>
<trkpt lat="50.176493" lon="4.553413"><time>2026-05-03T06:20:59Z</time></trkpt>
<trkpt lat="50.175675" lon="4.553718"><time>2026-05-03T06:30:59Z</time></trkpt>
<trkpt lat="50.174556" lon="4.555912"><time>2026-05-03T06:40:59Z</time></trkpt>
<trkpt lat="50.174330" lon="4.556639"><time>2026-05-03T06:50:59Z</time></trkpt>
</trkseg>
</trk>
<trk>
<name>nphsm28</name>
<cmt>s</cmt>
<desc>Samart Sentier n°28 </desc>
<link href="https://chemins.be/samart/sentier/28"/><trkseg>
<trkpt lat="50.178738" lon="4.531581"><time>2026-05-03T05:50:59Z</time></trkpt>
<trkpt lat="50.178022" lon="4.529619"><time>2026-05-03T06:00:59Z</time></trkpt>
</trkseg>
</trk>
<trk>
<name>nphsm29</name>
<cmt>v</cmt>
<desc>Samart Sentier n°29 </desc>
<link href="https://chemins.be/samart/sentier/29"/><trkseg>
<trkpt lat="50.177905" lon="4.541491"><time>2026-05-03T05:50:59Z</time></trkpt>
<trkpt lat="50.177329" lon="4.541951"><time>2026-05-03T06:00:59Z</time></trkpt>
<trkpt lat="50.176691" lon="4.542088"><time>2026-05-03T06:10:59Z</time></trkpt>
</trkseg>
</trk>
<trk>
<name>nphsm4</name>
<cmt>v</cmt>
<desc>Samart Chemin n°4 Chantraine</desc>
<link href="https://chemins.be/samart/chemin/4"/><trkseg>
<trkpt lat="50.169842" lon="4.535944"><time>2026-05-03T05:50:59Z</time></trkpt>
<trkpt lat="50.169881" lon="4.538718"><time>2026-05-03T06:00:59Z</time></trkpt>
<trkpt lat="50.170082" lon="4.539609"><time>2026-05-03T06:10:59Z</time></trkpt>
<trkpt lat="50.170908" lon="4.543229"><time>2026-05-03T06:20:59Z</time></trkpt>
<trkpt lat="50.171258" lon="4.543692"><time>2026-05-03T06:30:59Z</time></trkpt>
<trkpt lat="50.171293" lon="4.544588"><time>2026-05-03T06:40:59Z</time></trkpt>
<trkpt lat="50.170454" lon="4.546391"><time>2026-05-03T06:50:59Z</time></trkpt>
<trkpt lat="50.170363" lon="4.547272"><time>2026-05-03T07:00:59Z</time></trkpt>
<trkpt lat="50.169365" lon="4.547255"><time>2026-05-03T07:10:59Z</time></trkpt>
<trkpt lat="50.168389" lon="4.548561"><time>2026-05-03T07:20:59Z</time></trkpt>
<trkpt lat="50.167864" lon="4.550269"><time>2026-05-03T07:30:59Z</time></trkpt>
<trkpt lat="50.167718" lon="4.550528"><time>2026-05-03T07:40:59Z</time></trkpt>
<trkpt lat="50.167097" lon="4.550666"><time>2026-05-03T07:50:59Z</time></trkpt>
<trkpt lat="50.166471" lon="4.552199"><time>2026-05-03T08:00:59Z</time></trkpt>
<trkpt lat="50.166326" lon="4.552543"><time>2026-05-03T08:10:59Z</time></trkpt>
</trkseg></trk>
<trk>
<name>nphsm4</name>
<cmt>r</cmt>
<desc>Samart Chemin n°4 Chantraine</desc>
<link href="https://chemins.be/samart/chemin/4"/><trkseg>
<trkpt lat="50.166326" lon="4.552543"><time>2026-05-03T08:10:59Z</time></trkpt>
<trkpt lat="50.164792" lon="4.556139"><time>2026-05-03T08:20:59Z</time></trkpt>
</trkseg>
</trk>
<trk>
<name>nphsm5</name>
<cmt>r</cmt>
<desc>Samart Chemin n°5 Rue Pétrelle</desc>
<link href="https://chemins.be/samart/chemin/5"/><trkseg>
<trkpt lat="50.177621" lon="4.533454"><time>2026-05-03T05:50:59Z</time></trkpt>
<trkpt lat="50.176991" lon="4.533283"><time>2026-05-03T06:00:59Z</time></trkpt>
<trkpt lat="50.176524" lon="4.533254"><time>2026-05-03T06:10:59Z</time></trkpt>
</trkseg></trk>
<trk>
<name>nphsm5</name>
<cmt>v</cmt>
<desc>Samart Chemin n°5 Rue Pétrelle</desc>
<link href="https://chemins.be/samart/chemin/5"/><trkseg>
<trkpt lat="50.176524" lon="4.533254"><time>2026-05-03T06:10:59Z</time></trkpt>
<trkpt lat="50.175950" lon="4.532538"><time>2026-05-03T06:20:59Z</time></trkpt>
<trkpt lat="50.175653" lon="4.532257"><time>2026-05-03T06:30:59Z</time></trkpt>
<trkpt lat="50.175618" lon="4.531823"><time>2026-05-03T06:40:59Z</time></trkpt>
<trkpt lat="50.175465" lon="4.531696"><time>2026-05-03T06:50:59Z</time></trkpt>
<trkpt lat="50.174900" lon="4.531652"><time>2026-05-03T07:00:59Z</time></trkpt>
<trkpt lat="50.174521" lon="4.531623"><time>2026-05-03T07:10:59Z</time></trkpt>
<trkpt lat="50.174108" lon="4.531356"><time>2026-05-03T07:20:59Z</time></trkpt>
<trkpt lat="50.173948" lon="4.530025"><time>2026-05-03T07:30:59Z</time></trkpt>
</trkseg>
</trk>
<trk>
<name>nphsm6</name>
<cmt>v</cmt>
<desc>Samart Chemin n°6 </desc>
<link href="https://chemins.be/samart/chemin/6"/><trkseg>
<trkpt lat="50.179424" lon="4.535826"><time>2026-05-03T05:50:59Z</time></trkpt>
<trkpt lat="50.180036" lon="4.535870"><time>2026-05-03T06:00:59Z</time></trkpt>
<trkpt lat="50.180538" lon="4.536404"><time>2026-05-03T06:10:59Z</time></trkpt>
</trkseg>
</trk>
<trk>
<name>nphsm8</name>
<cmt>v</cmt>
<desc>Samart Chemin n°8 </desc>
<link href="https://chemins.be/samart/chemin/8"/><trkseg>
<trkpt lat="50.165000" lon="4.538029"><time>2026-05-03T05:50:59Z</time></trkpt>
<trkpt lat="50.164979" lon="4.539904"><time>2026-05-03T06:00:59Z</time></trkpt>
<trkpt lat="50.164959" lon="4.541234"><time>2026-05-03T06:10:59Z</time></trkpt>
<trkpt lat="50.165523" lon="4.543335"><time>2026-05-03T06:20:59Z</time></trkpt>
<trkpt lat="50.166193" lon="4.545787"><time>2026-05-03T06:30:59Z</time></trkpt>
<trkpt lat="50.166451" lon="4.547762"><time>2026-05-03T06:40:59Z</time></trkpt>
<trkpt lat="50.166602" lon="4.548798"><time>2026-05-03T06:50:59Z</time></trkpt>
<trkpt lat="50.167069" lon="4.550623"><time>2026-05-03T07:00:59Z</time></trkpt>
</trkseg>
</trk>
<trk>
<name>nphsm9</name>
<cmt>r</cmt>
<desc>Samart Chemin n°9 Grand'Moulin</desc>
<link href="https://chemins.be/samart/chemin/9"/><trkseg>
<trkpt lat="50.171500" lon="4.544477"><time>2026-05-03T05:50:59Z</time></trkpt>
<trkpt lat="50.171454" lon="4.544799"><time>2026-05-03T06:00:59Z</time></trkpt>
<trkpt lat="50.171614" lon="4.545877"><time>2026-05-03T06:10:59Z</time></trkpt>
<trkpt lat="50.171639" lon="4.547375"><time>2026-05-03T06:20:59Z</time></trkpt>
<trkpt lat="50.171450" lon="4.547612"><time>2026-05-03T06:30:59Z</time></trkpt>
</trkseg></trk>
<trk>
<name>nphsm9</name>
<cmt>s</cmt>
<desc>Samart Chemin n°9 Grand'Moulin</desc>
<link href="https://chemins.be/samart/chemin/9"/><trkseg>
<trkpt lat="50.171450" lon="4.547612"><time>2026-05-03T06:30:59Z</time></trkpt>
<trkpt lat="50.171198" lon="4.547654"><time>2026-05-03T06:40:59Z</time></trkpt>
<trkpt lat="50.170911" lon="4.547316"><time>2026-05-03T06:50:59Z</time></trkpt>
<trkpt lat="50.170643" lon="4.546126"><time>2026-05-03T07:00:59Z</time></trkpt>
</trkseg>
</trk>
<trk>
<name>nphsmi1</name>
<cmt>v</cmt>
<desc>Samart Chemin n°i1 Rue Bois</desc>
<link href="https://chemins.be/samart/chemin/i1"/><trkseg>
<trkpt lat="50.164118" lon="4.532483"><time>2026-05-03T05:50:59Z</time></trkpt>
<trkpt lat="50.162706" lon="4.532744"><time>2026-05-03T06:00:59Z</time></trkpt>
<trkpt lat="50.161754" lon="4.532027"><time>2026-05-03T06:10:59Z</time></trkpt>
<trkpt lat="50.161242" lon="4.531843"><time>2026-05-03T06:20:59Z</time></trkpt>
<trkpt lat="50.159955" lon="4.532511"><time>2026-05-03T06:30:59Z</time></trkpt>
<trkpt lat="50.158316" lon="4.534310"><time>2026-05-03T06:40:59Z</time></trkpt>
<trkpt lat="50.157551" lon="4.535231"><time>2026-05-03T06:50:59Z</time></trkpt>
<trkpt lat="50.155878" lon="4.535799"><time>2026-05-03T07:00:59Z</time></trkpt>
<trkpt lat="50.156456" lon="4.539999"><time>2026-05-03T07:10:59Z</time></trkpt>
</trkseg></trk>
<trk>
<name>nphsmi1</name>
<cmt>d</cmt>
<desc>Samart Chemin n°i1 Rue Bois</desc>
<link href="https://chemins.be/samart/chemin/i1"/><trkseg>
<trkpt lat="50.156456" lon="4.539999"><time>2026-05-03T07:10:59Z</time></trkpt>
<trkpt lat="50.156454" lon="4.541259"><time>2026-05-03T07:20:59Z</time></trkpt>
</trkseg>
</trk>
<trk>
<name>nphsmi2</name>
<cmt>s</cmt>
<desc>Samart Sentier n°i2 </desc>
<link href="https://chemins.be/samart/sentier/i2"/><trkseg>
<trkpt lat="50.177984" lon="4.537109"><time>2026-05-03T05:50:59Z</time></trkpt>
<trkpt lat="50.177521" lon="4.539963"><time>2026-05-03T06:00:59Z</time></trkpt>
<trkpt lat="50.177024" lon="4.542047"><time>2026-05-03T06:10:59Z</time></trkpt>
</trkseg></trk>
<trk>
<name>nphsmi2</name>
<cmt>d</cmt>
<desc>Samart Sentier n°i2 </desc>
<link href="https://chemins.be/samart/sentier/i2"/><trkseg>
<trkpt lat="50.177024" lon="4.542047"><time>2026-05-03T06:10:59Z</time></trkpt>
<trkpt lat="50.176627" lon="4.542648"><time>2026-05-03T06:20:59Z</time></trkpt>
<trkpt lat="50.175328" lon="4.545471"><time>2026-05-03T06:30:59Z</time></trkpt>
<trkpt lat="50.174707" lon="4.546197"><time>2026-05-03T06:40:59Z</time></trkpt>
<trkpt lat="50.173986" lon="4.547048"><time>2026-05-03T06:50:59Z</time></trkpt>
<trkpt lat="50.173437" lon="4.547354"><time>2026-05-03T07:00:59Z</time></trkpt>
<trkpt lat="50.173032" lon="4.547506"><time>2026-05-03T07:10:59Z</time></trkpt>
<trkpt lat="50.172071" lon="4.547391"><time>2026-05-03T07:20:59Z</time></trkpt>
<trkpt lat="50.171648" lon="4.547431"><time>2026-05-03T07:30:59Z</time></trkpt>
<trkpt lat="50.171405" lon="4.547654"><time>2026-05-03T07:40:59Z</time></trkpt>
<trkpt lat="50.171117" lon="4.547597"><time>2026-05-03T07:50:59Z</time></trkpt>
<trkpt lat="50.170883" lon="4.547680"><time>2026-05-03T08:00:59Z</time></trkpt>
<trkpt lat="50.169949" lon="4.547467"><time>2026-05-03T08:10:59Z</time></trkpt>
</trkseg>
</trk>
<trk>
<name>nphsmi3</name>
<cmt>d</cmt>
<desc>Samart Sentier n°i3 </desc>
<link href="https://chemins.be/samart/sentier/i3"/><trkseg>
<trkpt lat="50.178811" lon="4.536846"><time>2026-05-03T05:50:59Z</time></trkpt>
<trkpt lat="50.179073" lon="4.536553"><time>2026-05-03T06:00:59Z</time></trkpt>
<trkpt lat="50.179666" lon="4.536835"><time>2026-05-03T06:10:59Z</time></trkpt>
<trkpt lat="50.179953" lon="4.536850"><time>2026-05-03T06:20:59Z</time></trkpt>
<trkpt lat="50.180043" lon="4.536752"><time>2026-05-03T06:30:59Z</time></trkpt>
</trkseg>
</trk>
<trk>
<name>nphsmi4</name>
<cmt>s</cmt>
<desc>Samart Sentier n°i4 </desc>
<link href="https://chemins.be/samart/sentier/i4"/><trkseg>
<trkpt lat="50.175012" lon="4.534536"><time>2026-05-03T05:50:59Z</time></trkpt>
<trkpt lat="50.174498" lon="4.535137"><time>2026-05-03T06:00:59Z</time></trkpt>
<trkpt lat="50.174012" lon="4.535625"><time>2026-05-03T06:10:59Z</time></trkpt>
</trkseg>
</trk>
<trk>
<name>nphsmi5</name>
<cmt>s</cmt>
<desc>Samart Sentier n°i5 </desc>
<link href="https://chemins.be/samart/sentier/i5"/><trkseg>
<trkpt lat="50.172887" lon="4.536237"><time>2026-05-03T05:50:59Z</time></trkpt>
<trkpt lat="50.172769" lon="4.537314"><time>2026-05-03T06:00:59Z</time></trkpt>
<trkpt lat="50.172767" lon="4.538770"><time>2026-05-03T06:10:59Z</time></trkpt>
</trkseg>
</trk>
<trk>
<name>nphsmi6</name>
<cmt>v</cmt>
<desc>Samart Sentier n°i6 </desc>
<link href="https://chemins.be/samart/sentier/i6"/><trkseg>
<trkpt lat="50.167923" lon="4.553911"><time>2026-05-03T05:50:59Z</time></trkpt>
<trkpt lat="50.167829" lon="4.553471"><time>2026-05-03T06:00:59Z</time></trkpt>
<trkpt lat="50.167909" lon="4.552602"><time>2026-05-03T06:10:59Z</time></trkpt>
<trkpt lat="50.167806" lon="4.552105"><time>2026-05-03T06:20:59Z</time></trkpt>
<trkpt lat="50.167802" lon="4.551236"><time>2026-05-03T06:30:59Z</time></trkpt>
<trkpt lat="50.167875" lon="4.550853"><time>2026-05-03T06:40:59Z</time></trkpt>
<trkpt lat="50.167726" lon="4.550531"><time>2026-05-03T06:50:59Z</time></trkpt>
</trkseg>
</trk>
<trk>
<name>nphsr1</name>
<cmt>v</cmt>
<desc>Surice Chemin n°1 Rue du Pige / Rue de la Poste / Rue des Chavées</desc>
<link href="https://chemins.be/surice/chemin/1"/><trkseg>
<trkpt lat="50.215611" lon="4.662307"><time>2026-05-03T05:50:59Z</time></trkpt>
<trkpt lat="50.209791" lon="4.666684"><time>2026-05-03T06:00:59Z</time></trkpt>
<trkpt lat="50.208412" lon="4.668203"><time>2026-05-03T06:10:59Z</time></trkpt>
<trkpt lat="50.207183" lon="4.667158"><time>2026-05-03T06:20:59Z</time></trkpt>
<trkpt lat="50.205273" lon="4.668659"><time>2026-05-03T06:30:59Z</time></trkpt>
<trkpt lat="50.203457" lon="4.668746"><time>2026-05-03T06:40:59Z</time></trkpt>
<trkpt lat="50.200931" lon="4.668366"><time>2026-05-03T06:50:59Z</time></trkpt>
</trkseg></trk>
<trk>
<name>nphsr1</name>
<cmt>r</cmt>
<desc>Surice Chemin n°1 Rue du Pige / Rue de la Poste / Rue des Chavées</desc>
<link href="https://chemins.be/surice/chemin/1"/><trkseg>
<trkpt lat="50.200931" lon="4.668366"><time>2026-05-03T06:50:59Z</time></trkpt>
<trkpt lat="50.199555" lon="4.668833"><time>2026-05-03T07:00:59Z</time></trkpt>
<trkpt lat="50.196184" lon="4.671851"><time>2026-05-03T07:10:59Z</time></trkpt>
<trkpt lat="50.192510" lon="4.674097"><time>2026-05-03T07:20:59Z</time></trkpt>
<trkpt lat="50.190871" lon="4.675192"><time>2026-05-03T07:30:59Z</time></trkpt>
<trkpt lat="50.189943" lon="4.675873"><time>2026-05-03T07:40:59Z</time></trkpt>
<trkpt lat="50.186888" lon="4.675670"><time>2026-05-03T07:50:59Z</time></trkpt>
<trkpt lat="50.185830" lon="4.676410"><time>2026-05-03T08:00:59Z</time></trkpt>
<trkpt lat="50.183277" lon="4.677300"><time>2026-05-03T08:10:59Z</time></trkpt>
<trkpt lat="50.182065" lon="4.680078"><time>2026-05-03T08:20:59Z</time></trkpt>
<trkpt lat="50.178188" lon="4.684155"><time>2026-05-03T08:30:59Z</time></trkpt>
<trkpt lat="50.175733" lon="4.690201"><time>2026-05-03T08:40:59Z</time></trkpt>
<trkpt lat="50.174123" lon="4.691682"><time>2026-05-03T08:50:59Z</time></trkpt>
<trkpt lat="50.173281" lon="4.692862"><time>2026-05-03T09:00:59Z</time></trkpt>
<trkpt lat="50.171984" lon="4.696441"><time>2026-05-03T09:10:59Z</time></trkpt>
<trkpt lat="50.171720" lon="4.696065"><time>2026-05-03T09:20:59Z</time></trkpt>
<trkpt lat="50.171341" lon="4.696278"><time>2026-05-03T09:30:59Z</time></trkpt>
<trkpt lat="50.170862" lon="4.697446"><time>2026-05-03T09:40:59Z</time></trkpt>
<trkpt lat="50.170780" lon="4.697497"><time>2026-05-03T09:50:59Z</time></trkpt>
</trkseg></trk>
<trk>
<name>nphsr1</name>
<cmt>v</cmt>
<desc>Surice Chemin n°1 Rue du Pige / Rue de la Poste / Rue des Chavées</desc>
<link href="https://chemins.be/surice/chemin/1"/><trkseg>
<trkpt lat="50.170780" lon="4.697497"><time>2026-05-03T09:50:59Z</time></trkpt>
<trkpt lat="50.170543" lon="4.698252"><time>2026-05-03T10:00:59Z</time></trkpt>
</trkseg></trk>
<trk>
<name>nphsr1</name>
<cmt>r</cmt>
<desc>Surice Chemin n°1 Rue du Pige / Rue de la Poste / Rue des Chavées</desc>
<link href="https://chemins.be/surice/chemin/1"/><trkseg>
<trkpt lat="50.170543" lon="4.698252"><time>2026-05-03T10:00:59Z</time></trkpt>
<trkpt lat="50.169162" lon="4.697633"><time>2026-05-03T10:10:59Z</time></trkpt>
<trkpt lat="50.166129" lon="4.700784"><time>2026-05-03T10:20:59Z</time></trkpt>
<trkpt lat="50.164886" lon="4.706852"><time>2026-05-03T10:30:59Z</time></trkpt>
<trkpt lat="50.164991" lon="4.712019"><time>2026-05-03T10:40:59Z</time></trkpt>
</trkseg></trk>
<trk>
<name>nphsr1</name>
<cmt>v</cmt>
<desc>Surice Chemin n°1 Rue du Pige / Rue de la Poste / Rue des Chavées</desc>
<link href="https://chemins.be/surice/chemin/1"/><trkseg>
<trkpt lat="50.164991" lon="4.712019"><time>2026-05-03T10:40:59Z</time></trkpt>
<trkpt lat="50.162550" lon="4.711723"><time>2026-05-03T10:50:59Z</time></trkpt>
<trkpt lat="50.161219" lon="4.711341"><time>2026-05-03T11:00:59Z</time></trkpt>
<trkpt lat="50.160451" lon="4.712062"><time>2026-05-03T11:10:59Z</time></trkpt>
<trkpt lat="50.158713" lon="4.713744"><time>2026-05-03T11:20:59Z</time></trkpt>
<trkpt lat="50.155703" lon="4.717504"><time>2026-05-03T11:30:59Z</time></trkpt>
<trkpt lat="50.154059" lon="4.717967"><time>2026-05-03T11:40:59Z</time></trkpt>
<trkpt lat="50.151991" lon="4.720817"><time>2026-05-03T11:50:59Z</time></trkpt>
</trkseg>
</trk>
<trk>
<name>nphsr100</name>
<cmt>s</cmt>
<desc>Surice Sentier n°100 Sentier du Herdal de Lautenne au Pont de Planche</desc>
<link href="https://chemins.be/surice/sentier/100"/><trkseg>
<trkpt lat="50.204868" lon="4.668811"><time>2026-05-03T05:50:59Z</time></trkpt>
<trkpt lat="50.203775" lon="4.670695"><time>2026-05-03T06:00:59Z</time></trkpt>
<trkpt lat="50.203631" lon="4.670834"><time>2026-05-03T06:10:59Z</time></trkpt>
<trkpt lat="50.202989" lon="4.672203"><time>2026-05-03T06:20:59Z</time></trkpt>
<trkpt lat="50.202015" lon="4.673247"><time>2026-05-03T06:30:59Z</time></trkpt>
<trkpt lat="50.200943" lon="4.674305"><time>2026-05-03T06:40:59Z</time></trkpt>
</trkseg>
</trk>
<trk>
<name>nphsr101</name>
<cmt>s</cmt>
<desc>Surice Sentier n°101 </desc>
<link href="https://chemins.be/surice/sentier/101"/><trkseg>
<trkpt lat="50.188305" lon="4.672991"><time>2026-05-03T05:50:59Z</time></trkpt>
<trkpt lat="50.187318" lon="4.675660"><time>2026-05-03T06:00:59Z</time></trkpt>
<trkpt lat="50.186276" lon="4.678972"><time>2026-05-03T06:10:59Z</time></trkpt>
<trkpt lat="50.185992" lon="4.680608"><time>2026-05-03T06:20:59Z</time></trkpt>
<trkpt lat="50.185076" lon="4.683557"><time>2026-05-03T06:30:59Z</time></trkpt>
<trkpt lat="50.183514" lon="4.686151"><time>2026-05-03T06:40:59Z</time></trkpt>
<trkpt lat="50.183286" lon="4.687227"><time>2026-05-03T06:50:59Z</time></trkpt>
<trkpt lat="50.182436" lon="4.688958"><time>2026-05-03T07:00:59Z</time></trkpt>
<trkpt lat="50.182148" lon="4.688984"><time>2026-05-03T07:10:59Z</time></trkpt>
</trkseg>
</trk>
<trk>
<name>nphsr102</name>
<cmt>s</cmt>
<desc>Surice Sentier n°102 </desc>
<link href="https://chemins.be/surice/sentier/102"/><trkseg>
<trkpt lat="50.185357" lon="4.682774"><time>2026-05-03T05:50:59Z</time></trkpt>
<trkpt lat="50.186863" lon="4.681286"><time>2026-05-03T06:00:59Z</time></trkpt>
<trkpt lat="50.187332" lon="4.680561"><time>2026-05-03T06:10:59Z</time></trkpt>
<trkpt lat="50.187972" lon="4.679977"><time>2026-05-03T06:20:59Z</time></trkpt>
</trkseg>
</trk>
<trk>
<name>nphsr103</name>
<cmt>v</cmt>
<desc>Surice Sentier n°103 </desc>
<link href="https://chemins.be/surice/sentier/103"/><trkseg>
<trkpt lat="50.181121" lon="4.693135"><time>2026-05-03T05:50:59Z</time></trkpt>
<trkpt lat="50.181116" lon="4.691805"><time>2026-05-03T06:00:59Z</time></trkpt>
</trkseg></trk>
<trk>
<name>nphsr103</name>
<cmt>d</cmt>
<desc>Surice Sentier n°103 </desc>
<link href="https://chemins.be/surice/sentier/103"/><trkseg>
<trkpt lat="50.181116" lon="4.691805"><time>2026-05-03T06:00:59Z</time></trkpt>
<trkpt lat="50.181045" lon="4.691329"><time>2026-05-03T06:10:59Z</time></trkpt>
<trkpt lat="50.181293" lon="4.689342"><time>2026-05-03T06:20:59Z</time></trkpt>
<trkpt lat="50.181268" lon="4.688614"><time>2026-05-03T06:30:59Z</time></trkpt>
<trkpt lat="50.181472" lon="4.686403"><time>2026-05-03T06:40:59Z</time></trkpt>
</trkseg>
</trk>
<trk>
<name>nphsr104</name>
<cmt>d</cmt>
<desc>Surice Sentier n°104 </desc>
<link href="https://chemins.be/surice/sentier/104"/><trkseg>
<trkpt lat="50.182137" lon="4.689866"><time>2026-05-03T05:50:59Z</time></trkpt>
<trkpt lat="50.181777" lon="4.689849"><time>2026-05-03T06:00:59Z</time></trkpt>
<trkpt lat="50.181768" lon="4.690143"><time>2026-05-03T06:10:59Z</time></trkpt>
<trkpt lat="50.181696" lon="4.690213"><time>2026-05-03T06:20:59Z</time></trkpt>
<trkpt lat="50.181543" lon="4.690212"><time>2026-05-03T06:30:59Z</time></trkpt>
<trkpt lat="50.181479" lon="4.690603"><time>2026-05-03T06:40:59Z</time></trkpt>
<trkpt lat="50.181072" lon="4.691315"><time>2026-05-03T06:50:59Z</time></trkpt>
</trkseg></trk>
<trk>
<name>nphsr104</name>
<cmt>s</cmt>
<desc>Surice Sentier n°104 </desc>
<link href="https://chemins.be/surice/sentier/104"/><trkseg>
<trkpt lat="50.181072" lon="4.691315"><time>2026-05-03T06:50:59Z</time></trkpt>
<trkpt lat="50.180775" lon="4.691411"><time>2026-05-03T07:00:59Z</time></trkpt>
<trkpt lat="50.179664" lon="4.693279"><time>2026-05-03T07:10:59Z</time></trkpt>
<trkpt lat="50.178887" lon="4.694576"><time>2026-05-03T07:20:59Z</time></trkpt>
</trkseg>
</trk>
<trk>
<name>nphsr105</name>
<cmt>d</cmt>
<desc>Surice Sentier n°105 </desc>
<link href="https://chemins.be/surice/sentier/105"/><trkseg>
<trkpt lat="50.173693" lon="4.700028"><time>2026-05-03T05:50:59Z</time></trkpt>
<trkpt lat="50.174162" lon="4.699527"><time>2026-05-03T06:00:59Z</time></trkpt>
<trkpt lat="50.174921" lon="4.698447"><time>2026-05-03T06:10:59Z</time></trkpt>
<trkpt lat="50.175021" lon="4.698431"><time>2026-05-03T06:20:59Z</time></trkpt>
</trkseg>
</trk>
<trk>
<name>nphsr106</name>
<cmt>d</cmt>
<desc>Surice Sentier n°106 </desc>
<link href="https://chemins.be/surice/sentier/106"/><trkseg>
<trkpt lat="50.175074" lon="4.698162"><time>2026-05-03T05:50:59Z</time></trkpt>
<trkpt lat="50.174863" lon="4.699490"><time>2026-05-03T06:00:59Z</time></trkpt>
<trkpt lat="50.173695" lon="4.702464"><time>2026-05-03T06:10:59Z</time></trkpt>
<trkpt lat="50.173081" lon="4.703300"><time>2026-05-03T06:20:59Z</time></trkpt>
<trkpt lat="50.172901" lon="4.703340"><time>2026-05-03T06:30:59Z</time></trkpt>
</trkseg>
</trk>
<trk>
<name>nphsr107</name>
<cmt>s</cmt>
<desc>Surice Sentier n°107 </desc>
<link href="https://chemins.be/surice/sentier/107"/><trkseg>
<trkpt lat="50.171686" lon="4.691377"><time>2026-05-03T05:50:59Z</time></trkpt>
<trkpt lat="50.172144" lon="4.691604"><time>2026-05-03T06:00:59Z</time></trkpt>
<trkpt lat="50.173354" lon="4.692760"><time>2026-05-03T06:10:59Z</time></trkpt>
<trkpt lat="50.174628" lon="4.693665"><time>2026-05-03T06:20:59Z</time></trkpt>
<trkpt lat="50.176673" lon="4.695471"><time>2026-05-03T06:30:59Z</time></trkpt>
</trkseg>
</trk>
<trk>
<name>nphsr108</name>
<cmt>d</cmt>
<desc>Surice Sentier n°108 </desc>
<link href="https://chemins.be/surice/sentier/108"/><trkseg>
<trkpt lat="50.185596" lon="4.693866"><time>2026-05-03T05:50:59Z</time></trkpt>
<trkpt lat="50.184724" lon="4.693762"><time>2026-05-03T06:00:59Z</time></trkpt>
<trkpt lat="50.184528" lon="4.693411"><time>2026-05-03T06:10:59Z</time></trkpt>
<trkpt lat="50.184064" lon="4.692189"><time>2026-05-03T06:20:59Z</time></trkpt>
<trkpt lat="50.183993" lon="4.691755"><time>2026-05-03T06:30:59Z</time></trkpt>
</trkseg>
</trk>
<trk>
<name>nphsr109</name>
<cmt>d</cmt>
<desc>Surice Sentier n°109 </desc>
<link href="https://chemins.be/surice/sentier/109"/><trkseg>
<trkpt lat="50.183984" lon="4.691657"><time>2026-05-03T05:50:59Z</time></trkpt>
<trkpt lat="50.184400" lon="4.690847"><time>2026-05-03T06:00:59Z</time></trkpt>
</trkseg>
</trk>
<trk>
<name>nphsr11</name>
<cmt>d</cmt>
<desc>Surice Chemin n°11 </desc>
<link href="https://chemins.be/surice/chemin/11"/><trkseg>
<trkpt lat="50.201034" lon="4.671333"><time>2026-05-03T05:50:59Z</time></trkpt>
<trkpt lat="50.202174" lon="4.668594"><time>2026-05-03T06:00:59Z</time></trkpt>
</trkseg></trk>
<trk>
<name>nphsr11</name>
<cmt>v</cmt>
<desc>Surice Chemin n°11 </desc>
<link href="https://chemins.be/surice/chemin/11"/><trkseg>
<trkpt lat="50.202174" lon="4.668594"><time>2026-05-03T06:00:59Z</time></trkpt>
<trkpt lat="50.203452" lon="4.663465"><time>2026-05-03T06:10:59Z</time></trkpt>
<trkpt lat="50.204327" lon="4.662280"><time>2026-05-03T06:20:59Z</time></trkpt>
<trkpt lat="50.204491" lon="4.661692"><time>2026-05-03T06:30:59Z</time></trkpt>
<trkpt lat="50.205113" lon="4.657242"><time>2026-05-03T06:40:59Z</time></trkpt>
<trkpt lat="50.205872" lon="4.656056"><time>2026-05-03T06:50:59Z</time></trkpt>
<trkpt lat="50.206876" lon="4.653330"><time>2026-05-03T07:00:59Z</time></trkpt>
<trkpt lat="50.207563" lon="4.651709"><time>2026-05-03T07:10:59Z</time></trkpt>
<trkpt lat="50.207719" lon="4.650645"><time>2026-05-03T07:20:59Z</time></trkpt>
<trkpt lat="50.208452" lon="4.648842"><time>2026-05-03T07:30:59Z</time></trkpt>
</trkseg>
</trk>
<trk>
<name>nphsr110</name>
<cmt>r</cmt>
<desc>Surice Sentier n°110 Rue de Jolimont / Rue de Marmont</desc>
<link href="https://chemins.be/surice/sentier/110"/><trkseg>
<trkpt lat="50.171741" lon="4.691000"><time>2026-05-03T05:50:59Z</time></trkpt>
<trkpt lat="50.171949" lon="4.690480"><time>2026-05-03T06:00:59Z</time></trkpt>
<trkpt lat="50.171923" lon="4.690128"><time>2026-05-03T06:10:59Z</time></trkpt>
<trkpt lat="50.172259" lon="4.685656"><time>2026-05-03T06:20:59Z</time></trkpt>
</trkseg></trk>
<trk>
<name>nphsr110</name>
<cmt>v</cmt>
<desc>Surice Sentier n°110 Rue de Jolimont / Rue de Marmont</desc>
<link href="https://chemins.be/surice/sentier/110"/><trkseg>
<trkpt lat="50.172259" lon="4.685656"><time>2026-05-03T06:20:59Z</time></trkpt>
<trkpt lat="50.172646" lon="4.682312"><time>2026-05-03T06:30:59Z</time></trkpt>
<trkpt lat="50.172796" lon="4.680046"><time>2026-05-03T06:40:59Z</time></trkpt>
<trkpt lat="50.172491" lon="4.676236"><time>2026-05-03T06:50:59Z</time></trkpt>
<trkpt lat="50.172948" lon="4.673481"><time>2026-05-03T07:00:59Z</time></trkpt>
<trkpt lat="50.173455" lon="4.668907"><time>2026-05-03T07:10:59Z</time></trkpt>
</trkseg></trk>
<trk>
<name>nphsr110</name>
<cmt>s</cmt>
<desc>Surice Sentier n°110 Rue de Jolimont / Rue de Marmont</desc>
<link href="https://chemins.be/surice/sentier/110"/><trkseg>
<trkpt lat="50.173455" lon="4.668907"><time>2026-05-03T07:10:59Z</time></trkpt>
<trkpt lat="50.173737" lon="4.667481"><time>2026-05-03T07:20:59Z</time></trkpt>
<trkpt lat="50.174108" lon="4.666713"><time>2026-05-03T07:30:59Z</time></trkpt>
<trkpt lat="50.175293" lon="4.663753"><time>2026-05-03T07:40:59Z</time></trkpt>
<trkpt lat="50.175699" lon="4.663307"><time>2026-05-03T07:50:59Z</time></trkpt>
</trkseg></trk>
<trk>
<name>nphsr110</name>
<cmt>v</cmt>
<desc>Surice Sentier n°110 Rue de Jolimont / Rue de Marmont</desc>
<link href="https://chemins.be/surice/sentier/110"/><trkseg>
<trkpt lat="50.175699" lon="4.663307"><time>2026-05-03T07:50:59Z</time></trkpt>
<trkpt lat="50.176466" lon="4.661982"><time>2026-05-03T08:00:59Z</time></trkpt>
</trkseg>
</trk>
<trk>
<name>nphsr111</name>
<cmt>v</cmt>
<desc>Surice Sentier n°111 Sentier de Romedenne au Wez de Chine</desc>
<link href="https://chemins.be/surice/sentier/111"/><trkseg>
<trkpt lat="50.171607" lon="4.693938"><time>2026-05-03T05:50:59Z</time></trkpt>
<trkpt lat="50.171717" lon="4.693085"><time>2026-05-03T06:00:59Z</time></trkpt>
<trkpt lat="50.172062" lon="4.691730"><time>2026-05-03T06:10:59Z</time></trkpt>
<trkpt lat="50.172613" lon="4.690768"><time>2026-05-03T06:20:59Z</time></trkpt>
<trkpt lat="50.173095" lon="4.688853"><time>2026-05-03T06:30:59Z</time></trkpt>
<trkpt lat="50.173714" lon="4.686337"><time>2026-05-03T06:40:59Z</time></trkpt>
<trkpt lat="50.173899" lon="4.684295"><time>2026-05-03T06:50:59Z</time></trkpt>
<trkpt lat="50.174545" lon="4.678125"><time>2026-05-03T07:00:59Z</time></trkpt>
<trkpt lat="50.174959" lon="4.674726"><time>2026-05-03T07:10:59Z</time></trkpt>
<trkpt lat="50.175248" lon="4.673986"><time>2026-05-03T07:20:59Z</time></trkpt>
</trkseg>
</trk>
<trk>
<name>nphsr112</name>
<cmt>d</cmt>
<desc>Surice Sentier n°112 </desc>
<link href="https://chemins.be/surice/sentier/112"/><trkseg>
<trkpt lat="50.170666" lon="4.695738"><time>2026-05-03T05:50:59Z</time></trkpt>
<trkpt lat="50.170444" lon="4.694910"><time>2026-05-03T06:00:59Z</time></trkpt>
<trkpt lat="50.170212" lon="4.694111"><time>2026-05-03T06:10:59Z</time></trkpt>
<trkpt lat="50.170213" lon="4.693901"><time>2026-05-03T06:20:59Z</time></trkpt>
</trkseg>
</trk>
<trk>
<name>nphsr113</name>
<cmt>v</cmt>
<desc>Surice Sentier n°113 </desc>
<link href="https://chemins.be/surice/sentier/113"/><trkseg>
<trkpt lat="50.171420" lon="4.696205"><time>2026-05-03T05:50:59Z</time></trkpt>
<trkpt lat="50.169274" lon="4.695308"><time>2026-05-03T06:00:59Z</time></trkpt>
<trkpt lat="50.168403" lon="4.694952"><time>2026-05-03T06:10:59Z</time></trkpt>
<trkpt lat="50.167864" lon="4.694781"><time>2026-05-03T06:20:59Z</time></trkpt>
<trkpt lat="50.167406" lon="4.694638"><time>2026-05-03T06:30:59Z</time></trkpt>
<trkpt lat="50.166892" lon="4.694998"><time>2026-05-03T06:40:59Z</time></trkpt>
</trkseg>
</trk>
<trk>
<name>nphsr114</name>
<cmt>d</cmt>
<desc>Surice Sentier n°114 </desc>
<link href="https://chemins.be/surice/sentier/114"/><trkseg>
<trkpt lat="50.171255" lon="4.694118"><time>2026-05-03T05:50:59Z</time></trkpt>
<trkpt lat="50.170805" lon="4.694409"><time>2026-05-03T06:00:59Z</time></trkpt>
<trkpt lat="50.170462" lon="4.694966"><time>2026-05-03T06:10:59Z</time></trkpt>
<trkpt lat="50.170038" lon="4.695481"><time>2026-05-03T06:20:59Z</time></trkpt>
</trkseg>
</trk>
<trk>
<name>nphsr115</name>
<cmt>s</cmt>
<desc>Surice Sentier n°115 </desc>
<link href="https://chemins.be/surice/sentier/115"/><trkseg>
<trkpt lat="50.170037" lon="4.699079"><time>2026-05-03T05:50:59Z</time></trkpt>
<trkpt lat="50.168017" lon="4.700913"><time>2026-05-03T06:00:59Z</time></trkpt>
<trkpt lat="50.165893" lon="4.701738"><time>2026-05-03T06:10:59Z</time></trkpt>
</trkseg></trk>
<trk>
<name>nphsr115</name>
<cmt>d</cmt>
<desc>Surice Sentier n°115 </desc>
<link href="https://chemins.be/surice/sentier/115"/><trkseg>
<trkpt lat="50.165893" lon="4.701738"><time>2026-05-03T06:10:59Z</time></trkpt>
<trkpt lat="50.164093" lon="4.702439"><time>2026-05-03T06:20:59Z</time></trkpt>
</trkseg>
</trk>
<trk>
<name>nphsr116</name>
<cmt>s</cmt>
<desc>Surice Sentier n°116 </desc>
<link href="https://chemins.be/surice/sentier/116"/><trkseg>
<trkpt lat="50.170127" lon="4.698912"><time>2026-05-03T05:50:59Z</time></trkpt>
<trkpt lat="50.169991" lon="4.699373"><time>2026-05-03T06:00:59Z</time></trkpt>
<trkpt lat="50.169277" lon="4.700725"><time>2026-05-03T06:10:59Z</time></trkpt>
<trkpt lat="50.168816" lon="4.701604"><time>2026-05-03T06:20:59Z</time></trkpt>
<trkpt lat="50.168742" lon="4.702331"><time>2026-05-03T06:30:59Z</time></trkpt>
</trkseg></trk>
<trk>
<name>nphsr116</name>
<cmt>d</cmt>
<desc>Surice Sentier n°116 </desc>
<link href="https://chemins.be/surice/sentier/116"/><trkseg>
<trkpt lat="50.168742" lon="4.702331"><time>2026-05-03T06:30:59Z</time></trkpt>
<trkpt lat="50.167270" lon="4.704519"><time>2026-05-03T06:40:59Z</time></trkpt>
</trkseg></trk>
<trk>
<name>nphsr116</name>
<cmt>s</cmt>
<desc>Surice Sentier n°116 </desc>
<link href="https://chemins.be/surice/sentier/116"/><trkseg>
<trkpt lat="50.167270" lon="4.704519"><time>2026-05-03T06:40:59Z</time></trkpt>
<trkpt lat="50.166528" lon="4.705941"><time>2026-05-03T06:50:59Z</time></trkpt>
<trkpt lat="50.166121" lon="4.707016"><time>2026-05-03T07:00:59Z</time></trkpt>
<trkpt lat="50.165747" lon="4.708819"><time>2026-05-03T07:10:59Z</time></trkpt>
<trkpt lat="50.165011" lon="4.711347"><time>2026-05-03T07:20:59Z</time></trkpt>
</trkseg>
</trk>
<trk>
<name>nphsr117</name>
<cmt>d</cmt>
<desc>Surice Sentier n°117 </desc>
<link href="https://chemins.be/surice/sentier/117"/><trkseg>
<trkpt lat="50.170950" lon="4.700303"><time>2026-05-03T05:50:59Z</time></trkpt>
<trkpt lat="50.169933" lon="4.700786"><time>2026-05-03T06:00:59Z</time></trkpt>
<trkpt lat="50.168751" lon="4.702331"><time>2026-05-03T06:10:59Z</time></trkpt>
</trkseg>
</trk>
<trk>
<name>nphsr118</name>
<cmt>v</cmt>
<desc>Surice Sentier n°118 Rue de Haut Mont</desc>
<link href="https://chemins.be/surice/sentier/118"/><trkseg>
<trkpt lat="50.171802" lon="4.704313"><time>2026-05-03T05:50:59Z</time></trkpt>
<trkpt lat="50.170863" lon="4.705412"><time>2026-05-03T06:00:59Z</time></trkpt>
<trkpt lat="50.169593" lon="4.706285"><time>2026-05-03T06:10:59Z</time></trkpt>
<trkpt lat="50.167971" lon="4.707449"><time>2026-05-03T06:20:59Z</time></trkpt>
<trkpt lat="50.167754" lon="4.708063"><time>2026-05-03T06:30:59Z</time></trkpt>
<trkpt lat="50.166635" lon="4.709511"><time>2026-05-03T06:40:59Z</time></trkpt>
<trkpt lat="50.165636" lon="4.710708"><time>2026-05-03T06:50:59Z</time></trkpt>
</trkseg></trk>
<trk>
<name>nphsr118</name>
<cmt>d</cmt>
<desc>Surice Sentier n°118 Rue de Haut Mont</desc>
<link href="https://chemins.be/surice/sentier/118"/><trkseg>
<trkpt lat="50.165636" lon="4.710708"><time>2026-05-03T06:50:59Z</time></trkpt>
<trkpt lat="50.165026" lon="4.711432"><time>2026-05-03T07:00:59Z</time></trkpt>
</trkseg>
</trk>
<trk>
<name>nphsr119</name>
<cmt>s</cmt>
<desc>Surice Sentier n°119 </desc>
<link href="https://chemins.be/surice/sentier/119"/><trkseg>
<trkpt lat="50.173576" lon="4.696808"><time>2026-05-03T05:50:59Z</time></trkpt>
<trkpt lat="50.174025" lon="4.697189"><time>2026-05-03T06:00:59Z</time></trkpt>
<trkpt lat="50.175272" lon="4.697897"><time>2026-05-03T06:10:59Z</time></trkpt>
<trkpt lat="50.175983" lon="4.697664"><time>2026-05-03T06:20:59Z</time></trkpt>
<trkpt lat="50.176434" lon="4.697317"><time>2026-05-03T06:30:59Z</time></trkpt>
<trkpt lat="50.176820" lon="4.697348"><time>2026-05-03T06:40:59Z</time></trkpt>
<trkpt lat="50.177333" lon="4.697338"><time>2026-05-03T06:50:59Z</time></trkpt>
<trkpt lat="50.178836" lon="4.696858"><time>2026-05-03T07:00:59Z</time></trkpt>
</trkseg>
</trk>
<trk>
<name>nphsr120</name>
<cmt>d</cmt>
<desc>Surice Sentier n°120 Rue de Marmont</desc>
<link href="https://chemins.be/surice/sentier/120"/><trkseg>
<trkpt lat="50.180264" lon="4.674312"><time>2026-05-03T05:50:59Z</time></trkpt>
<trkpt lat="50.180187" lon="4.672814"><time>2026-05-03T06:00:59Z</time></trkpt>
<trkpt lat="50.179661" lon="4.671214"><time>2026-05-03T06:10:59Z</time></trkpt>
<trkpt lat="50.178884" lon="4.669375"><time>2026-05-03T06:20:59Z</time></trkpt>
</trkseg></trk>
<trk>
<name>nphsr120</name>
<cmt>r</cmt>
<desc>Surice Sentier n°120 Rue de Marmont</desc>
<link href="https://chemins.be/surice/sentier/120"/><trkseg>
<trkpt lat="50.178884" lon="4.669375"><time>2026-05-03T06:20:59Z</time></trkpt>
<trkpt lat="50.178327" lon="4.669050"><time>2026-05-03T06:30:59Z</time></trkpt>
<trkpt lat="50.177997" lon="4.668109"><time>2026-05-03T06:40:59Z</time></trkpt>
<trkpt lat="50.177929" lon="4.666583"><time>2026-05-03T06:50:59Z</time></trkpt>
<trkpt lat="50.177592" lon="4.664831"><time>2026-05-03T07:00:59Z</time></trkpt>
</trkseg></trk>
<trk>
<name>nphsr120</name>
<cmt>v</cmt>
<desc>Surice Sentier n°120 Rue de Marmont</desc>
<link href="https://chemins.be/surice/sentier/120"/><trkseg>
<trkpt lat="50.177592" lon="4.664831"><time>2026-05-03T07:00:59Z</time></trkpt>
<trkpt lat="50.177647" lon="4.664271"><time>2026-05-03T07:10:59Z</time></trkpt>
<trkpt lat="50.177990" lon="4.663769"><time>2026-05-03T07:20:59Z</time></trkpt>
</trkseg></trk>
<trk>
<name>nphsr120</name>
<cmt>d</cmt>
<desc>Surice Sentier n°120 Rue de Marmont</desc>
<link href="https://chemins.be/surice/sentier/120"/><trkseg>
<trkpt lat="50.177990" lon="4.663769"><time>2026-05-03T07:20:59Z</time></trkpt>
<trkpt lat="50.178111" lon="4.662132"><time>2026-05-03T07:30:59Z</time></trkpt>
</trkseg>
</trk>
<trk>
<name>nphsr121</name>
<cmt>d</cmt>
<desc>Surice Sentier n°121 </desc>
<link href="https://chemins.be/surice/sentier/121"/><trkseg>
<trkpt lat="50.157058" lon="4.688171"><time>2026-05-03T05:50:59Z</time></trkpt>
<trkpt lat="50.158793" lon="4.688099"><time>2026-05-03T06:00:59Z</time></trkpt>
</trkseg></trk>
<trk>
<name>nphsr121</name>
<cmt>s</cmt>
<desc>Surice Sentier n°121 </desc>
<link href="https://chemins.be/surice/sentier/121"/><trkseg>
<trkpt lat="50.158793" lon="4.688099"><time>2026-05-03T06:00:59Z</time></trkpt>
<trkpt lat="50.158964" lon="4.688198"><time>2026-05-03T06:10:59Z</time></trkpt>
<trkpt lat="50.159742" lon="4.689715"><time>2026-05-03T06:20:59Z</time></trkpt>
<trkpt lat="50.160783" lon="4.690581"><time>2026-05-03T06:30:59Z</time></trkpt>
<trkpt lat="50.162185" lon="4.692133"><time>2026-05-03T06:40:59Z</time></trkpt>
</trkseg>
</trk>
<trk>
<name>nphsr122</name>
<cmt>v</cmt>
<desc>Surice Sentier n°122 </desc>
<link href="https://chemins.be/surice/sentier/122"/><trkseg>
<trkpt lat="50.161329" lon="4.664394"><time>2026-05-03T05:50:59Z</time></trkpt>
<trkpt lat="50.161589" lon="4.668048"><time>2026-05-03T06:00:59Z</time></trkpt>
<trkpt lat="50.161284" lon="4.671167"><time>2026-05-03T06:10:59Z</time></trkpt>
<trkpt lat="50.161277" lon="4.673826"><time>2026-05-03T06:20:59Z</time></trkpt>
</trkseg>
</trk>
<trk>
<name>nphsr123</name>
<cmt>d</cmt>
<desc>Surice Sentier n°123 </desc>
<link href="https://chemins.be/surice/sentier/123"/><trkseg>
<trkpt lat="50.163198" lon="4.668072"><time>2026-05-03T05:50:59Z</time></trkpt>
<trkpt lat="50.163407" lon="4.663749"><time>2026-05-03T06:00:59Z</time></trkpt>
<trkpt lat="50.163249" lon="4.662376"><time>2026-05-03T06:10:59Z</time></trkpt>
</trkseg></trk>
<trk>
<name>nphsr123</name>
<cmt>v</cmt>
<desc>Surice Sentier n°123 </desc>
<link href="https://chemins.be/surice/sentier/123"/><trkseg>
<trkpt lat="50.163249" lon="4.662376"><time>2026-05-03T06:10:59Z</time></trkpt>
<trkpt lat="50.163026" lon="4.661787"><time>2026-05-03T06:20:59Z</time></trkpt>
<trkpt lat="50.162825" lon="4.659225"><time>2026-05-03T06:30:59Z</time></trkpt>
<trkpt lat="50.161877" lon="4.653761"><time>2026-05-03T06:40:59Z</time></trkpt>
<trkpt lat="50.160654" lon="4.646672"><time>2026-05-03T06:50:59Z</time></trkpt>
<trkpt lat="50.159246" lon="4.641331"><time>2026-05-03T07:00:59Z</time></trkpt>
</trkseg>
</trk>
<trk>
<name>nphsr124</name>
<cmt>v</cmt>
<desc>Surice Sentier n°124 </desc>
<link href="https://chemins.be/surice/sentier/124"/><trkseg>
<trkpt lat="50.163533" lon="4.706550"><time>2026-05-03T05:50:59Z</time></trkpt>
<trkpt lat="50.162929" lon="4.707147"><time>2026-05-03T06:00:59Z</time></trkpt>
<trkpt lat="50.162668" lon="4.707033"><time>2026-05-03T06:10:59Z</time></trkpt>
<trkpt lat="50.162075" lon="4.707071"><time>2026-05-03T06:20:59Z</time></trkpt>
<trkpt lat="50.160959" lon="4.707497"><time>2026-05-03T06:30:59Z</time></trkpt>
</trkseg>
</trk>
<trk>
<name>nphsr125</name>
<cmt>d</cmt>
<desc>Surice Sentier n°125 </desc>
<link href="https://chemins.be/surice/sentier/125"/><trkseg>
<trkpt lat="50.179621" lon="4.705236"><time>2026-05-03T05:50:59Z</time></trkpt>
<trkpt lat="50.179096" lon="4.709376"><time>2026-05-03T06:00:59Z</time></trkpt>
<trkpt lat="50.178920" lon="4.711349"><time>2026-05-03T06:10:59Z</time></trkpt>
<trkpt lat="50.178930" lon="4.713771"><time>2026-05-03T06:20:59Z</time></trkpt>
<trkpt lat="50.178783" lon="4.715030"><time>2026-05-03T06:30:59Z</time></trkpt>
<trkpt lat="50.178833" lon="4.716333"><time>2026-05-03T06:40:59Z</time></trkpt>
</trkseg>
</trk>
<trk>
<name>nphsr126</name>
<cmt>d</cmt>
<desc>Surice Sentier n°126 </desc>
<link href="https://chemins.be/surice/sentier/126"/><trkseg>
<trkpt lat="50.175563" lon="4.715427"><time>2026-05-03T05:50:59Z</time></trkpt>
<trkpt lat="50.174832" lon="4.713126"><time>2026-05-03T06:00:59Z</time></trkpt>
<trkpt lat="50.174279" lon="4.711764"><time>2026-05-03T06:10:59Z</time></trkpt>
<trkpt lat="50.173923" lon="4.710613"><time>2026-05-03T06:20:59Z</time></trkpt>
<trkpt lat="50.173854" lon="4.709521"><time>2026-05-03T06:30:59Z</time></trkpt>
<trkpt lat="50.173562" lon="4.708105"><time>2026-05-03T06:40:59Z</time></trkpt>
</trkseg>
</trk>
<trk>
<name>nphsr127</name>
<cmt>d</cmt>
<desc>Surice Sentier n°127 </desc>
<link href="https://chemins.be/surice/sentier/127"/><trkseg>
<trkpt lat="50.187850" lon="4.707212"><time>2026-05-03T05:50:59Z</time></trkpt>
<trkpt lat="50.186750" lon="4.708549"><time>2026-05-03T06:00:59Z</time></trkpt>
<trkpt lat="50.184424" lon="4.710703"><time>2026-05-03T06:10:59Z</time></trkpt>
<trkpt lat="50.182920" lon="4.711364"><time>2026-05-03T06:20:59Z</time></trkpt>
<trkpt lat="50.182252" lon="4.712213"><time>2026-05-03T06:30:59Z</time></trkpt>
<trkpt lat="50.180717" lon="4.714568"><time>2026-05-03T06:40:59Z</time></trkpt>
<trkpt lat="50.180625" lon="4.715198"><time>2026-05-03T06:50:59Z</time></trkpt>
<trkpt lat="50.179615" lon="4.716394"><time>2026-05-03T07:00:59Z</time></trkpt>
</trkseg>
</trk>
<trk>
<name>nphsr128</name>
<cmt>d</cmt>
<desc>Surice Sentier n°128 </desc>
<link href="https://chemins.be/surice/sentier/128"/><trkseg>
<trkpt lat="50.183002" lon="4.717161"><time>2026-05-03T05:50:59Z</time></trkpt>
<trkpt lat="50.183286" lon="4.715259"><time>2026-05-03T06:00:59Z</time></trkpt>
<trkpt lat="50.183120" lon="4.713690"><time>2026-05-03T06:10:59Z</time></trkpt>
<trkpt lat="50.182876" lon="4.711280"><time>2026-05-03T06:20:59Z</time></trkpt>
<trkpt lat="50.182345" lon="4.708125"><time>2026-05-03T06:30:59Z</time></trkpt>
<trkpt lat="50.182000" lon="4.706219"><time>2026-05-03T06:40:59Z</time></trkpt>
</trkseg>
</trk>
<trk>
<name>nphsr129</name>
<cmt>b</cmt>
<desc>Surice Sentier n°129 </desc>
<link href="https://chemins.be/surice/sentier/129"/><trkseg>
<trkpt lat="50.184083" lon="4.694836"><time>2026-05-03T05:50:59Z</time></trkpt>
<trkpt lat="50.185081" lon="4.694955"><time>2026-05-03T06:00:59Z</time></trkpt>
<trkpt lat="50.185629" lon="4.694874"><time>2026-05-03T06:10:59Z</time></trkpt>
<trkpt lat="50.186662" lon="4.695147"><time>2026-05-03T06:20:59Z</time></trkpt>
<trkpt lat="50.187740" lon="4.695477"><time>2026-05-03T06:30:59Z</time></trkpt>
<trkpt lat="50.188600" lon="4.696687"><time>2026-05-03T06:40:59Z</time></trkpt>
</trkseg>
</trk>
<trk>
<name>nphsr13</name>
<cmt>v</cmt>
<desc>Surice Chemin n°13 </desc>
<link href="https://chemins.be/surice/chemin/13"/><trkseg>
<trkpt lat="50.213324" lon="4.641487"><time>2026-05-03T05:50:59Z</time></trkpt>
<trkpt lat="50.213446" lon="4.643099"><time>2026-05-03T06:00:59Z</time></trkpt>
<trkpt lat="50.213882" lon="4.645119"><time>2026-05-03T06:10:59Z</time></trkpt>
<trkpt lat="50.214280" lon="4.647714"><time>2026-05-03T06:20:59Z</time></trkpt>
</trkseg>
</trk>
<trk>
<name>nphsr130</name>
<cmt>b</cmt>
<desc>Surice Sentier n°130 </desc>
<link href="https://chemins.be/surice/sentier/130"/><trkseg>
<trkpt lat="50.186570" lon="4.692850"><time>2026-05-03T05:50:59Z</time></trkpt>
<trkpt lat="50.187076" lon="4.691846"><time>2026-05-03T06:00:59Z</time></trkpt>
</trkseg>
</trk>
<trk>
<name>nphsr131</name>
<cmt>d</cmt>
<desc>Surice Sentier n°131 </desc>
<link href="https://chemins.be/surice/sentier/131"/><trkseg>
<trkpt lat="50.184101" lon="4.694794"><time>2026-05-03T05:50:59Z</time></trkpt>
<trkpt lat="50.184682" lon="4.696142"><time>2026-05-03T06:00:59Z</time></trkpt>
<trkpt lat="50.186750" lon="4.699153"><time>2026-05-03T06:10:59Z</time></trkpt>
</trkseg>
</trk>
<trk>
<name>nphsr132</name>
<cmt>v</cmt>
<desc>Surice Sentier n°132 </desc>
<link href="https://chemins.be/surice/sentier/132"/><trkseg>
<trkpt lat="50.208588" lon="4.655624"><time>2026-05-03T05:50:59Z</time></trkpt>
<trkpt lat="50.207849" lon="4.656348"><time>2026-05-03T06:00:59Z</time></trkpt>
<trkpt lat="50.207497" lon="4.656710"><time>2026-05-03T06:10:59Z</time></trkpt>
<trkpt lat="50.207155" lon="4.657058"><time>2026-05-03T06:20:59Z</time></trkpt>
<trkpt lat="50.206623" lon="4.657545"><time>2026-05-03T06:30:59Z</time></trkpt>
<trkpt lat="50.205928" lon="4.658661"><time>2026-05-03T06:40:59Z</time></trkpt>
<trkpt lat="50.204846" lon="4.659958"><time>2026-05-03T06:50:59Z</time></trkpt>
</trkseg>
</trk>
<trk>
<name>nphsr133</name>
<cmt>v</cmt>
<desc>Surice Sentier n°133 </desc>
<link href="https://chemins.be/surice/sentier/133"/><trkseg>
<trkpt lat="50.182041" lon="4.688899"><time>2026-05-03T05:50:59Z</time></trkpt>
<trkpt lat="50.181954" lon="4.687680"><time>2026-05-03T06:00:59Z</time></trkpt>
<trkpt lat="50.181508" lon="4.686361"><time>2026-05-03T06:10:59Z</time></trkpt>
<trkpt lat="50.180649" lon="4.681735"><time>2026-05-03T06:20:59Z</time></trkpt>
</trkseg></trk>
<trk>
<name>nphsr133</name>
<cmt>d</cmt>
<desc>Surice Sentier n°133 </desc>
<link href="https://chemins.be/surice/sentier/133"/><trkseg>
<trkpt lat="50.180649" lon="4.681735"><time>2026-05-03T06:20:59Z</time></trkpt>
<trkpt lat="50.179966" lon="4.678244"><time>2026-05-03T06:30:59Z</time></trkpt>
<trkpt lat="50.179972" lon="4.675850"><time>2026-05-03T06:40:59Z</time></trkpt>
<trkpt lat="50.180174" lon="4.674536"><time>2026-05-03T06:50:59Z</time></trkpt>
<trkpt lat="50.180490" lon="4.674020"><time>2026-05-03T07:00:59Z</time></trkpt>
</trkseg>
</trk>
<trk>
<name>nphsr134</name>
<cmt>v</cmt>
<desc>Surice Sentier n°134 </desc>
<link href="https://chemins.be/surice/sentier/134"/><trkseg>
<trkpt lat="50.149510" lon="4.683279"><time>2026-05-03T05:50:59Z</time></trkpt>
<trkpt lat="50.150386" lon="4.681928"><time>2026-05-03T06:00:59Z</time></trkpt>
<trkpt lat="50.151358" lon="4.681347"><time>2026-05-03T06:10:59Z</time></trkpt>
<trkpt lat="50.151918" lon="4.680441"><time>2026-05-03T06:20:59Z</time></trkpt>
<trkpt lat="50.152462" lon="4.678723"><time>2026-05-03T06:30:59Z</time></trkpt>
<trkpt lat="50.153275" lon="4.677455"><time>2026-05-03T06:40:59Z</time></trkpt>
</trkseg>
</trk>
<trk>
<name>nphsr14</name>
<cmt>r</cmt>
<desc>Surice Chemin n°14 </desc>
<link href="https://chemins.be/surice/chemin/14"/><trkseg>
<trkpt lat="50.209350" lon="4.648988"><time>2026-05-03T05:50:59Z</time></trkpt>
<trkpt lat="50.212367" lon="4.650491"><time>2026-05-03T06:00:59Z</time></trkpt>
<trkpt lat="50.215178" lon="4.651754"><time>2026-05-03T06:10:59Z</time></trkpt>
</trkseg>
</trk>
<trk>
<name>nphsr15</name>
<cmt>r</cmt>
<desc>Surice Chemin n°15 Chemin de Soulme / Rue de la Caracole</desc>
<link href="https://chemins.be/surice/chemin/15"/><trkseg>
<trkpt lat="50.182057" lon="4.695914"><time>2026-05-03T05:50:59Z</time></trkpt>
<trkpt lat="50.182018" lon="4.696908"><time>2026-05-03T06:00:59Z</time></trkpt>
<trkpt lat="50.181541" lon="4.697297"><time>2026-05-03T06:10:59Z</time></trkpt>
<trkpt lat="50.181761" lon="4.698684"><time>2026-05-03T06:20:59Z</time></trkpt>
<trkpt lat="50.181363" lon="4.699802"><time>2026-05-03T06:30:59Z</time></trkpt>
<trkpt lat="50.182585" lon="4.700090"><time>2026-05-03T06:40:59Z</time></trkpt>
<trkpt lat="50.183871" lon="4.699679"><time>2026-05-03T06:50:59Z</time></trkpt>
<trkpt lat="50.183834" lon="4.700323"><time>2026-05-03T07:00:59Z</time></trkpt>
</trkseg></trk>
<trk>
<name>nphsr15</name>
<cmt>v</cmt>
<desc>Surice Chemin n°15 Chemin de Soulme / Rue de la Caracole</desc>
<link href="https://chemins.be/surice/chemin/15"/><trkseg>
<trkpt lat="50.183834" lon="4.700323"><time>2026-05-03T07:00:59Z</time></trkpt>
<trkpt lat="50.184751" lon="4.700231"><time>2026-05-03T07:10:59Z</time></trkpt>
<trkpt lat="50.186219" lon="4.699303"><time>2026-05-03T07:20:59Z</time></trkpt>
<trkpt lat="50.186777" lon="4.699153"><time>2026-05-03T07:30:59Z</time></trkpt>
<trkpt lat="50.188570" lon="4.700958"><time>2026-05-03T07:40:59Z</time></trkpt>
</trkseg>
</trk>
<trk>
<name>nphsr16</name>
<cmt>r</cmt>
<desc>Surice Chemin n°16 Rue du Moulin de Romedenne</desc>
<link href="https://chemins.be/surice/chemin/16"/><trkseg>
<trkpt lat="50.168717" lon="4.688739"><time>2026-05-03T05:50:59Z</time></trkpt>
<trkpt lat="50.169402" lon="4.688170"><time>2026-05-03T06:00:59Z</time></trkpt>
<trkpt lat="50.169664" lon="4.687808"><time>2026-05-03T06:10:59Z</time></trkpt>
</trkseg>
</trk>
<trk>
<name>nphsr17</name>
<cmt>d</cmt>
<desc>Surice Chemin n°17 </desc>
<link href="https://chemins.be/surice/chemin/17"/><trkseg>
<trkpt lat="50.170007" lon="4.690554"><time>2026-05-03T05:50:59Z</time></trkpt>
<trkpt lat="50.169596" lon="4.689375"><time>2026-05-03T06:00:59Z</time></trkpt>
</trkseg></trk>
<trk>
<name>nphsr17</name>
<cmt>r</cmt>
<desc>Surice Chemin n°17 </desc>
<link href="https://chemins.be/surice/chemin/17"/><trkseg>
<trkpt lat="50.169596" lon="4.689375"><time>2026-05-03T06:00:59Z</time></trkpt>
<trkpt lat="50.169598" lon="4.688927"><time>2026-05-03T06:10:59Z</time></trkpt>
<trkpt lat="50.169464" lon="4.688591"><time>2026-05-03T06:20:59Z</time></trkpt>
<trkpt lat="50.169410" lon="4.688408"><time>2026-05-03T06:30:59Z</time></trkpt>
<trkpt lat="50.169681" lon="4.687878"><time>2026-05-03T06:40:59Z</time></trkpt>
</trkseg>
</trk>
<trk>
<name>nphsr18</name>
<cmt>r</cmt>
<desc>Surice Chemin n°18 Rue de Vodelée</desc>
<link href="https://chemins.be/surice/chemin/18"/><trkseg>
<trkpt lat="50.172237" lon="4.706037"><time>2026-05-03T05:50:59Z</time></trkpt>
<trkpt lat="50.171091" lon="4.713546"><time>2026-05-03T06:00:59Z</time></trkpt>
<trkpt lat="50.171016" lon="4.714610"><time>2026-05-03T06:10:59Z</time></trkpt>
</trkseg></trk>
<trk>
<name>nphsr18</name>
<cmt>d</cmt>
<desc>Surice Chemin n°18 Rue de Vodelée</desc>
<link href="https://chemins.be/surice/chemin/18"/><trkseg>
<trkpt lat="50.171016" lon="4.714610"><time>2026-05-03T06:10:59Z</time></trkpt>
<trkpt lat="50.170833" lon="4.715588"><time>2026-05-03T06:20:59Z</time></trkpt>
<trkpt lat="50.170046" lon="4.717164"><time>2026-05-03T06:30:59Z</time></trkpt>
<trkpt lat="50.169954" lon="4.717906"><time>2026-05-03T06:40:59Z</time></trkpt>
</trkseg>
</trk>
<trk>
<name>nphsr19</name>
<cmt>v</cmt>
<desc>Surice Chemin n°19 </desc>
<link href="https://chemins.be/surice/chemin/19"/><trkseg>
<trkpt lat="50.172988" lon="4.704447"><time>2026-05-03T05:50:59Z</time></trkpt>
<trkpt lat="50.173398" lon="4.705682"><time>2026-05-03T06:00:59Z</time></trkpt>
<trkpt lat="50.173324" lon="4.706395"><time>2026-05-03T06:10:59Z</time></trkpt>
<trkpt lat="50.173556" lon="4.707125"><time>2026-05-03T06:20:59Z</time></trkpt>
<trkpt lat="50.173693" lon="4.709338"><time>2026-05-03T06:30:59Z</time></trkpt>
<trkpt lat="50.173606" lon="4.711437"><time>2026-05-03T06:40:59Z</time></trkpt>
<trkpt lat="50.173347" lon="4.715053"><time>2026-05-03T06:50:59Z</time></trkpt>
<trkpt lat="50.173116" lon="4.715732"><time>2026-05-03T07:00:59Z</time></trkpt>
</trkseg>
</trk>
<trk>
<name>nphsr2</name>
<cmt>v</cmt>
<desc>Surice Chemin n°2 </desc>
<link href="https://chemins.be/surice/chemin/2"/><trkseg>
<trkpt lat="50.163087" lon="4.729080"><time>2026-05-03T05:50:59Z</time></trkpt>
<trkpt lat="50.162516" lon="4.727466"><time>2026-05-03T06:00:59Z</time></trkpt>
<trkpt lat="50.162462" lon="4.724877"><time>2026-05-03T06:10:59Z</time></trkpt>
<trkpt lat="50.163298" lon="4.718865"><time>2026-05-03T06:20:59Z</time></trkpt>
<trkpt lat="50.164757" lon="4.712129"><time>2026-05-03T06:30:59Z</time></trkpt>
</trkseg>
</trk>
<trk>
<name>nphsr20</name>
<cmt>r</cmt>
<desc>Surice Chemin n°20 Chemin de Blanchamps</desc>
<link href="https://chemins.be/surice/chemin/20"/><trkseg>
<trkpt lat="50.181217" lon="4.700793"><time>2026-05-03T05:50:59Z</time></trkpt>
<trkpt lat="50.179962" lon="4.704798"><time>2026-05-03T06:00:59Z</time></trkpt>
<trkpt lat="50.178533" lon="4.706873"><time>2026-05-03T06:10:59Z</time></trkpt>
<trkpt lat="50.177553" lon="4.710034"><time>2026-05-03T06:20:59Z</time></trkpt>
<trkpt lat="50.173337" lon="4.715061"><time>2026-05-03T06:30:59Z</time></trkpt>
</trkseg>
</trk>
<trk>
<name>nphsr21</name>
<cmt>v</cmt>
<desc>Surice Chemin n°21 </desc>
<link href="https://chemins.be/surice/chemin/21"/><trkseg>
<trkpt lat="50.183824" lon="4.700407"><time>2026-05-03T05:50:59Z</time></trkpt>
<trkpt lat="50.183696" lon="4.701162"><time>2026-05-03T06:00:59Z</time></trkpt>
<trkpt lat="50.183632" lon="4.701666"><time>2026-05-03T06:10:59Z</time></trkpt>
<trkpt lat="50.184429" lon="4.702917"><time>2026-05-03T06:20:59Z</time></trkpt>
<trkpt lat="50.184779" lon="4.703116"><time>2026-05-03T06:30:59Z</time></trkpt>
<trkpt lat="50.185091" lon="4.703846"><time>2026-05-03T06:40:59Z</time></trkpt>
<trkpt lat="50.185228" lon="4.704644"><time>2026-05-03T06:50:59Z</time></trkpt>
<trkpt lat="50.185383" lon="4.705543"><time>2026-05-03T07:00:59Z</time></trkpt>
<trkpt lat="50.185856" lon="4.706862"><time>2026-05-03T07:10:59Z</time></trkpt>
<trkpt lat="50.186660" lon="4.708590"><time>2026-05-03T07:20:59Z</time></trkpt>
</trkseg></trk>
<trk>
<name>nphsr21</name>
<cmt>d</cmt>
<desc>Surice Chemin n°21 </desc>
<link href="https://chemins.be/surice/chemin/21"/><trkseg>
<trkpt lat="50.186660" lon="4.708590"><time>2026-05-03T07:20:59Z</time></trkpt>
<trkpt lat="50.187598" lon="4.710557"><time>2026-05-03T07:30:59Z</time></trkpt>
<trkpt lat="50.188203" lon="4.712550"><time>2026-05-03T07:40:59Z</time></trkpt>
<trkpt lat="50.188459" lon="4.714148"><time>2026-05-03T07:50:59Z</time></trkpt>
</trkseg>
</trk>
<trk>
<name>nphsr23</name>
<cmt>v</cmt>
<desc>Surice Chemin n°23 </desc>
<link href="https://chemins.be/surice/chemin/23"/><trkseg>
<trkpt lat="50.162040" lon="4.684370"><time>2026-05-03T05:50:59Z</time></trkpt>
<trkpt lat="50.159403" lon="4.685556"><time>2026-05-03T06:00:59Z</time></trkpt>
<trkpt lat="50.158059" lon="4.686975"><time>2026-05-03T06:10:59Z</time></trkpt>
<trkpt lat="50.156734" lon="4.688379"><time>2026-05-03T06:20:59Z</time></trkpt>
</trkseg>
</trk>
<trk>
<name>nphsr24</name>
<cmt>r</cmt>
<desc>Surice Chemin n°24 Rue de Marmont</desc>
<link href="https://chemins.be/surice/chemin/24"/><trkseg>
<trkpt lat="50.176520" lon="4.661926"><time>2026-05-03T05:50:59Z</time></trkpt>
<trkpt lat="50.176482" lon="4.662752"><time>2026-05-03T06:00:59Z</time></trkpt>
<trkpt lat="50.177046" lon="4.663945"><time>2026-05-03T06:10:59Z</time></trkpt>
<trkpt lat="50.177583" lon="4.664887"><time>2026-05-03T06:20:59Z</time></trkpt>
<trkpt lat="50.178045" lon="4.666808"><time>2026-05-03T06:30:59Z</time></trkpt>
<trkpt lat="50.178238" lon="4.668797"><time>2026-05-03T06:40:59Z</time></trkpt>
<trkpt lat="50.178866" lon="4.669389"><time>2026-05-03T06:50:59Z</time></trkpt>
</trkseg></trk>
<trk>
<name>nphsr24</name>
<cmt>v</cmt>
<desc>Surice Chemin n°24 Rue de Marmont</desc>
<link href="https://chemins.be/surice/chemin/24"/><trkseg>
<trkpt lat="50.178866" lon="4.669389"><time>2026-05-03T06:50:59Z</time></trkpt>
<trkpt lat="50.179360" lon="4.669434"><time>2026-05-03T07:00:59Z</time></trkpt>
<trkpt lat="50.179700" lon="4.669898"><time>2026-05-03T07:10:59Z</time></trkpt>
<trkpt lat="50.180435" lon="4.670841"><time>2026-05-03T07:20:59Z</time></trkpt>
</trkseg></trk>
<trk>
<name>nphsr24</name>
<cmt>d</cmt>
<desc>Surice Chemin n°24 Rue de Marmont</desc>
<link href="https://chemins.be/surice/chemin/24"/><trkseg>
<trkpt lat="50.180435" lon="4.670841"><time>2026-05-03T07:20:59Z</time></trkpt>
<trkpt lat="50.180512" lon="4.672354"><time>2026-05-03T07:30:59Z</time></trkpt>
<trkpt lat="50.180490" lon="4.673978"><time>2026-05-03T07:40:59Z</time></trkpt>
</trkseg></trk>
<trk>
<name>nphsr24</name>
<cmt>r</cmt>
<desc>Surice Chemin n°24 Rue de Marmont</desc>
<link href="https://chemins.be/surice/chemin/24"/><trkseg>
<trkpt lat="50.180490" lon="4.673978"><time>2026-05-03T07:40:59Z</time></trkpt>
<trkpt lat="50.181808" lon="4.675316"><time>2026-05-03T07:50:59Z</time></trkpt>
<trkpt lat="50.183215" lon="4.677131"><time>2026-05-03T08:00:59Z</time></trkpt>
</trkseg>
</trk>
<trk>
<name>nphsr25</name>
<cmt>v</cmt>
<desc>Surice Chemin n°25 </desc>
<link href="https://chemins.be/surice/chemin/25"/><trkseg>
<trkpt lat="50.182350" lon="4.690314"><time>2026-05-03T05:50:59Z</time></trkpt>
<trkpt lat="50.182182" lon="4.689810"><time>2026-05-03T06:00:59Z</time></trkpt>
<trkpt lat="50.182073" lon="4.689105"><time>2026-05-03T06:10:59Z</time></trkpt>
</trkseg>
</trk>
<trk>
<name>nphsr26</name>
<cmt>v</cmt>
<desc>Surice Chemin n°26 </desc>
<link href="https://chemins.be/surice/chemin/26"/><trkseg>
<trkpt lat="50.190717" lon="4.672041"><time>2026-05-03T05:50:59Z</time></trkpt>
<trkpt lat="50.190709" lon="4.675289"><time>2026-05-03T06:00:59Z</time></trkpt>
<trkpt lat="50.191624" lon="4.679413"><time>2026-05-03T06:10:59Z</time></trkpt>
<trkpt lat="50.192065" lon="4.682511"><time>2026-05-03T06:20:59Z</time></trkpt>
<trkpt lat="50.193118" lon="4.685374"><time>2026-05-03T06:30:59Z</time></trkpt>
<trkpt lat="50.193662" lon="4.687031"><time>2026-05-03T06:40:59Z</time></trkpt>
</trkseg>
</trk>
<trk>
<name>nphsr27</name>
<cmt>r</cmt>
<desc>Surice Chemin n°27 </desc>
<link href="https://chemins.be/surice/chemin/27"/><trkseg>
<trkpt lat="50.182755" lon="4.690682"><time>2026-05-03T05:50:59Z</time></trkpt>
<trkpt lat="50.183357" lon="4.690700"><time>2026-05-03T06:00:59Z</time></trkpt>
<trkpt lat="50.183501" lon="4.690631"><time>2026-05-03T06:10:59Z</time></trkpt>
<trkpt lat="50.183843" lon="4.690605"><time>2026-05-03T06:20:59Z</time></trkpt>
<trkpt lat="50.184337" lon="4.690749"><time>2026-05-03T06:30:59Z</time></trkpt>
<trkpt lat="50.184463" lon="4.690890"><time>2026-05-03T06:40:59Z</time></trkpt>
</trkseg></trk>
<trk>
<name>nphsr27</name>
<cmt>v</cmt>
<desc>Surice Chemin n°27 </desc>
<link href="https://chemins.be/surice/chemin/27"/><trkseg>
<trkpt lat="50.184463" lon="4.690890"><time>2026-05-03T06:40:59Z</time></trkpt>
<trkpt lat="50.185170" lon="4.691791"><time>2026-05-03T06:50:59Z</time></trkpt>
<trkpt lat="50.186312" lon="4.692008"><time>2026-05-03T07:00:59Z</time></trkpt>
<trkpt lat="50.187067" lon="4.691888"><time>2026-05-03T07:10:59Z</time></trkpt>
<trkpt lat="50.187733" lon="4.691752"><time>2026-05-03T07:20:59Z</time></trkpt>
</trkseg>
</trk>
<trk>
<name>nphsr28</name>
<cmt>d</cmt>
<desc>Surice Chemin n°28 </desc>
<link href="https://chemins.be/surice/chemin/28"/><trkseg>
<trkpt lat="50.199138" lon="4.683300"><time>2026-05-03T05:50:59Z</time></trkpt>
<trkpt lat="50.197670" lon="4.684214"><time>2026-05-03T06:00:59Z</time></trkpt>
<trkpt lat="50.196572" lon="4.684739"><time>2026-05-03T06:10:59Z</time></trkpt>
<trkpt lat="50.196139" lon="4.685156"><time>2026-05-03T06:20:59Z</time></trkpt>
<trkpt lat="50.194880" lon="4.685428"><time>2026-05-03T06:30:59Z</time></trkpt>
<trkpt lat="50.194033" lon="4.685955"><time>2026-05-03T06:40:59Z</time></trkpt>
<trkpt lat="50.193591" lon="4.686764"><time>2026-05-03T06:50:59Z</time></trkpt>
</trkseg></trk>
<trk>
<name>nphsr28</name>
<cmt>v</cmt>
<desc>Surice Chemin n°28 </desc>
<link href="https://chemins.be/surice/chemin/28"/><trkseg>
<trkpt lat="50.193591" lon="4.686764"><time>2026-05-03T06:50:59Z</time></trkpt>
<trkpt lat="50.192643" lon="4.688060"><time>2026-05-03T07:00:59Z</time></trkpt>
<trkpt lat="50.190885" lon="4.689813"><time>2026-05-03T07:10:59Z</time></trkpt>
</trkseg></trk>
<trk>
<name>nphsr28</name>
<cmt>s</cmt>
<desc>Surice Chemin n°28 </desc>
<link href="https://chemins.be/surice/chemin/28"/><trkseg>
<trkpt lat="50.190885" lon="4.689813"><time>2026-05-03T07:10:59Z</time></trkpt>
<trkpt lat="50.189920" lon="4.690983"><time>2026-05-03T07:20:59Z</time></trkpt>
<trkpt lat="50.189496" lon="4.691498"><time>2026-05-03T07:30:59Z</time></trkpt>
</trkseg></trk>
<trk>
<name>nphsr28</name>
<cmt>v</cmt>
<desc>Surice Chemin n°28 </desc>
<link href="https://chemins.be/surice/chemin/28"/><trkseg>
<trkpt lat="50.189496" lon="4.691498"><time>2026-05-03T07:30:59Z</time></trkpt>
<trkpt lat="50.188324" lon="4.692624"><time>2026-05-03T07:40:59Z</time></trkpt>
<trkpt lat="50.186732" lon="4.692922"><time>2026-05-03T07:50:59Z</time></trkpt>
</trkseg>
</trk>
<trk>
<name>nphsr29</name>
<cmt>r</cmt>
<desc>Surice Chemin n°29 Rue aux Ruelles</desc>
<link href="https://chemins.be/surice/chemin/29"/><trkseg>
<trkpt lat="50.181486" lon="4.697436"><time>2026-05-03T05:50:59Z</time></trkpt>
<trkpt lat="50.180937" lon="4.697628"><time>2026-05-03T06:00:59Z</time></trkpt>
</trkseg></trk>
<trk>
<name>nphsr29</name>
<cmt>v</cmt>
<desc>Surice Chemin n°29 Rue aux Ruelles</desc>
<link href="https://chemins.be/surice/chemin/29"/><trkseg>
<trkpt lat="50.180937" lon="4.697628"><time>2026-05-03T06:00:59Z</time></trkpt>
<trkpt lat="50.180638" lon="4.698424"><time>2026-05-03T06:10:59Z</time></trkpt>
<trkpt lat="50.179588" lon="4.697885"><time>2026-05-03T06:20:59Z</time></trkpt>
<trkpt lat="50.176865" lon="4.697614"><time>2026-05-03T06:30:59Z</time></trkpt>
<trkpt lat="50.176433" lon="4.697471"><time>2026-05-03T06:40:59Z</time></trkpt>
<trkpt lat="50.175920" lon="4.697888"><time>2026-05-03T06:50:59Z</time></trkpt>
<trkpt lat="50.175146" lon="4.698050"><time>2026-05-03T07:00:59Z</time></trkpt>
<trkpt lat="50.173932" lon="4.698238"><time>2026-05-03T07:10:59Z</time></trkpt>
</trkseg>
</trk>
<trk>
<name>nphsr3</name>
<cmt>d</cmt>
<desc>Surice Chemin n°3 Rue du Pige</desc>
<link href="https://chemins.be/surice/chemin/3"/><trkseg>
<trkpt lat="50.164647" lon="4.712702"><time>2026-05-03T05:50:59Z</time></trkpt>
<trkpt lat="50.165114" lon="4.712999"><time>2026-05-03T06:00:59Z</time></trkpt>
<trkpt lat="50.165805" lon="4.713564"><time>2026-05-03T06:10:59Z</time></trkpt>
<trkpt lat="50.165865" lon="4.714250"><time>2026-05-03T06:20:59Z</time></trkpt>
<trkpt lat="50.165817" lon="4.715440"><time>2026-05-03T06:30:59Z</time></trkpt>
</trkseg></trk>
<trk>
<name>nphsr3</name>
<cmt>r</cmt>
<desc>Surice Chemin n°3 Rue du Pige</desc>
<link href="https://chemins.be/surice/chemin/3"/><trkseg>
<trkpt lat="50.165817" lon="4.715440"><time>2026-05-03T06:30:59Z</time></trkpt>
<trkpt lat="50.167169" lon="4.720321"><time>2026-05-03T06:40:59Z</time></trkpt>
</trkseg>
</trk>
<trk>
<name>nphsr30</name>
<cmt>r</cmt>
<desc>Surice Chemin n°30 Rue du Pige</desc>
<link href="https://chemins.be/surice/chemin/30"/><trkseg>
<trkpt lat="50.200833" lon="4.668295"><time>2026-05-03T05:50:59Z</time></trkpt>
<trkpt lat="50.200419" lon="4.664945"><time>2026-05-03T06:00:59Z</time></trkpt>
<trkpt lat="50.198424" lon="4.661123"><time>2026-05-03T06:10:59Z</time></trkpt>
<trkpt lat="50.197313" lon="4.659603"><time>2026-05-03T06:20:59Z</time></trkpt>
<trkpt lat="50.196294" lon="4.657020"><time>2026-05-03T06:30:59Z</time></trkpt>
<trkpt lat="50.195093" lon="4.655598"><time>2026-05-03T06:40:59Z</time></trkpt>
<trkpt lat="50.194620" lon="4.654083"><time>2026-05-03T06:50:59Z</time></trkpt>
</trkseg>
</trk>
<trk>
<name>nphsr31</name>
<cmt>v</cmt>
<desc>Surice Chemin n°31 </desc>
<link href="https://chemins.be/surice/chemin/31"/><trkseg>
<trkpt lat="50.198334" lon="4.660898"><time>2026-05-03T05:50:59Z</time></trkpt>
<trkpt lat="50.197829" lon="4.657996"><time>2026-05-03T06:00:59Z</time></trkpt>
<trkpt lat="50.197403" lon="4.655766"><time>2026-05-03T06:10:59Z</time></trkpt>
<trkpt lat="50.197216" lon="4.651283"><time>2026-05-03T06:20:59Z</time></trkpt>
</trkseg>
</trk>
<trk>
<name>nphsr32</name>
<cmt>r</cmt>
<desc>Surice Chemin n°32 Rue des Vielles Fosses</desc>
<link href="https://chemins.be/surice/chemin/32"/><trkseg>
<trkpt lat="50.201171" lon="4.682991"><time>2026-05-03T05:50:59Z</time></trkpt>
<trkpt lat="50.201622" lon="4.685753"><time>2026-05-03T06:00:59Z</time></trkpt>
<trkpt lat="50.201467" lon="4.686509"><time>2026-05-03T06:10:59Z</time></trkpt>
</trkseg></trk>
<trk>
<name>nphsr32</name>
<cmt>v</cmt>
<desc>Surice Chemin n°32 Rue des Vielles Fosses</desc>
<link href="https://chemins.be/surice/chemin/32"/><trkseg>
<trkpt lat="50.201467" lon="4.686509"><time>2026-05-03T06:10:59Z</time></trkpt>
<trkpt lat="50.201177" lon="4.687445"><time>2026-05-03T06:20:59Z</time></trkpt>
<trkpt lat="50.201129" lon="4.688495"><time>2026-05-03T06:30:59Z</time></trkpt>
</trkseg>
</trk>
<trk>
<name>nphsr33</name>
<cmt>r</cmt>
<desc>Surice Chemin n°33 Le Gros Frâne</desc>
<link href="https://chemins.be/surice/chemin/33"/><trkseg>
<trkpt lat="50.212377" lon="4.650351"><time>2026-05-03T05:50:59Z</time></trkpt>
<trkpt lat="50.213414" lon="4.649040"><time>2026-05-03T06:00:59Z</time></trkpt>
<trkpt lat="50.214145" lon="4.647909"><time>2026-05-03T06:10:59Z</time></trkpt>
</trkseg>
</trk>
<trk>
<name>nphsr34</name>
<cmt>r</cmt>
<desc>Surice Chemin n°34 Rue des Fermes</desc>
<link href="https://chemins.be/surice/chemin/34"/><trkseg>
<trkpt lat="50.168432" lon="4.687954"><time>2026-05-03T05:50:59Z</time></trkpt>
<trkpt lat="50.168587" lon="4.687143"><time>2026-05-03T06:00:59Z</time></trkpt>
<trkpt lat="50.169017" lon="4.684150"><time>2026-05-03T06:10:59Z</time></trkpt>
<trkpt lat="50.169809" lon="4.680880"><time>2026-05-03T06:20:59Z</time></trkpt>
<trkpt lat="50.170072" lon="4.676500"><time>2026-05-03T06:30:59Z</time></trkpt>
</trkseg></trk>
<trk>
<name>nphsr34</name>
<cmt>v</cmt>
<desc>Surice Chemin n°34 Rue des Fermes</desc>
<link href="https://chemins.be/surice/chemin/34"/><trkseg>
<trkpt lat="50.170072" lon="4.676500"><time>2026-05-03T06:30:59Z</time></trkpt>
<trkpt lat="50.170146" lon="4.675731"><time>2026-05-03T06:40:59Z</time></trkpt>
<trkpt lat="50.170821" lon="4.668470"><time>2026-05-03T06:50:59Z</time></trkpt>
<trkpt lat="50.171220" lon="4.667255"><time>2026-05-03T07:00:59Z</time></trkpt>
<trkpt lat="50.171718" lon="4.665830"><time>2026-05-03T07:10:59Z</time></trkpt>
<trkpt lat="50.172425" lon="4.663889"><time>2026-05-03T07:20:59Z</time></trkpt>
<trkpt lat="50.173625" lon="4.662230"><time>2026-05-03T07:30:59Z</time></trkpt>
<trkpt lat="50.174086" lon="4.661001"><time>2026-05-03T07:40:59Z</time></trkpt>
<trkpt lat="50.174096" lon="4.660721"><time>2026-05-03T07:50:59Z</time></trkpt>
</trkseg>
</trk>
<trk>
<name>nphsr35</name>
<cmt>v</cmt>
<desc>Surice Chemin n°35 </desc>
<link href="https://chemins.be/surice/chemin/35"/><trkseg>
<trkpt lat="50.160695" lon="4.636847"><time>2026-05-03T05:50:59Z</time></trkpt>
<trkpt lat="50.163588" lon="4.645289"><time>2026-05-03T06:00:59Z</time></trkpt>
<trkpt lat="50.164773" lon="4.649495"><time>2026-05-03T06:10:59Z</time></trkpt>
<trkpt lat="50.164662" lon="4.650964"><time>2026-05-03T06:20:59Z</time></trkpt>
<trkpt lat="50.164768" lon="4.651776"><time>2026-05-03T06:30:59Z</time></trkpt>
<trkpt lat="50.165923" lon="4.653757"><time>2026-05-03T06:40:59Z</time></trkpt>
<trkpt lat="50.166560" lon="4.654097"><time>2026-05-03T06:50:59Z</time></trkpt>
<trkpt lat="50.167728" lon="4.654509"><time>2026-05-03T07:00:59Z</time></trkpt>
<trkpt lat="50.167916" lon="4.654777"><time>2026-05-03T07:10:59Z</time></trkpt>
</trkseg></trk>
<trk>
<name>nphsr35</name>
<cmt>d</cmt>
<desc>Surice Chemin n°35 </desc>
<link href="https://chemins.be/surice/chemin/35"/><trkseg>
<trkpt lat="50.167916" lon="4.654777"><time>2026-05-03T07:10:59Z</time></trkpt>
<trkpt lat="50.168050" lon="4.655085"><time>2026-05-03T07:20:59Z</time></trkpt>
<trkpt lat="50.168048" lon="4.655897"><time>2026-05-03T07:30:59Z</time></trkpt>
<trkpt lat="50.170014" lon="4.657127"><time>2026-05-03T07:40:59Z</time></trkpt>
<trkpt lat="50.171026" lon="4.658617"><time>2026-05-03T07:50:59Z</time></trkpt>
<trkpt lat="50.171583" lon="4.658858"><time>2026-05-03T08:00:59Z</time></trkpt>
</trkseg></trk>
<trk>
<name>nphsr35</name>
<cmt>s</cmt>
<desc>Surice Chemin n°35 </desc>
<link href="https://chemins.be/surice/chemin/35"/><trkseg>
<trkpt lat="50.171583" lon="4.658858"><time>2026-05-03T08:00:59Z</time></trkpt>
<trkpt lat="50.172103" lon="4.659631"><time>2026-05-03T08:10:59Z</time></trkpt>
<trkpt lat="50.172380" lon="4.660305"><time>2026-05-03T08:20:59Z</time></trkpt>
<trkpt lat="50.172891" lon="4.660630"><time>2026-05-03T08:30:59Z</time></trkpt>
</trkseg>
</trk>
<trk>
<name>nphsr37</name>
<cmt>v</cmt>
<desc>Surice Chemin n°37 Rue de Vodelée</desc>
<link href="https://chemins.be/surice/chemin/37"/><trkseg>
<trkpt lat="50.172042" lon="4.702158"><time>2026-05-03T05:50:59Z</time></trkpt>
<trkpt lat="50.171739" lon="4.701176"><time>2026-05-03T06:00:59Z</time></trkpt>
<trkpt lat="50.172027" lon="4.700899"><time>2026-05-03T06:10:59Z</time></trkpt>
</trkseg></trk>
<trk>
<name>nphsr37</name>
<cmt>r</cmt>
<desc>Surice Chemin n°37 Rue de Vodelée</desc>
<link href="https://chemins.be/surice/chemin/37"/><trkseg>
<trkpt lat="50.172027" lon="4.700899"><time>2026-05-03T06:10:59Z</time></trkpt>
<trkpt lat="50.172039" lon="4.699877"><time>2026-05-03T06:20:59Z</time></trkpt>
<trkpt lat="50.171637" lon="4.699076"><time>2026-05-03T06:30:59Z</time></trkpt>
<trkpt lat="50.170920" lon="4.698385"><time>2026-05-03T06:40:59Z</time></trkpt>
</trkseg>
</trk>
<trk>
<name>nphsr39</name>
<cmt>s</cmt>
<desc>Surice Chemin n°39 </desc>
<link href="https://chemins.be/surice/chemin/39"/><trkseg>
<trkpt lat="50.170408" lon="4.698242"><time>2026-05-03T05:50:59Z</time></trkpt>
<trkpt lat="50.170154" lon="4.698730"><time>2026-05-03T06:00:59Z</time></trkpt>
</trkseg>
</trk>
<trk>
<name>nphsr4</name>
<cmt>r</cmt>
<desc>Surice Chemin n°4 Rue du Moulin de Romedenne / Rue d'Hamelot</desc>
<link href="https://chemins.be/surice/chemin/4"/><trkseg>
<trkpt lat="50.172298" lon="4.697373"><time>2026-05-03T05:50:59Z</time></trkpt>
<trkpt lat="50.171808" lon="4.695956"><time>2026-05-03T06:00:59Z</time></trkpt>
<trkpt lat="50.171558" lon="4.695366"><time>2026-05-03T06:10:59Z</time></trkpt>
<trkpt lat="50.171034" lon="4.692801"><time>2026-05-03T06:20:59Z</time></trkpt>
<trkpt lat="50.170320" lon="4.691172"><time>2026-05-03T06:30:59Z</time></trkpt>
<trkpt lat="50.168537" lon="4.688892"><time>2026-05-03T06:40:59Z</time></trkpt>
<trkpt lat="50.167769" lon="4.687039"><time>2026-05-03T06:50:59Z</time></trkpt>
<trkpt lat="50.166259" lon="4.686721"><time>2026-05-03T07:00:59Z</time></trkpt>
</trkseg></trk>
<trk>
<name>nphsr4</name>
<cmt>v</cmt>
<desc>Surice Chemin n°4 Rue du Moulin de Romedenne / Rue d'Hamelot</desc>
<link href="https://chemins.be/surice/chemin/4"/><trkseg>
<trkpt lat="50.166259" lon="4.686721"><time>2026-05-03T07:00:59Z</time></trkpt>
<trkpt lat="50.165882" lon="4.686677"><time>2026-05-03T07:10:59Z</time></trkpt>
<trkpt lat="50.163514" lon="4.684478"><time>2026-05-03T07:20:59Z</time></trkpt>
<trkpt lat="50.162462" lon="4.684541"><time>2026-05-03T07:30:59Z</time></trkpt>
<trkpt lat="50.162139" lon="4.684329"><time>2026-05-03T07:40:59Z</time></trkpt>
<trkpt lat="50.159900" lon="4.677890"><time>2026-05-03T07:50:59Z</time></trkpt>
<trkpt lat="50.157369" lon="4.676138"><time>2026-05-03T08:00:59Z</time></trkpt>
<trkpt lat="50.154681" lon="4.672637"><time>2026-05-03T08:10:59Z</time></trkpt>
</trkseg>
</trk>
<trk>
<name>nphsr40</name>
<cmt>v</cmt>
<desc>Surice Chemin n°40 </desc>
<link href="https://chemins.be/surice/chemin/40"/><trkseg>
<trkpt lat="50.217029" lon="4.699686"><time>2026-05-03T05:50:59Z</time></trkpt>
<trkpt lat="50.212200" lon="4.700156"><time>2026-05-03T06:00:59Z</time></trkpt>
<trkpt lat="50.211748" lon="4.700826"><time>2026-05-03T06:10:59Z</time></trkpt>
<trkpt lat="50.210976" lon="4.703440"><time>2026-05-03T06:20:59Z</time></trkpt>
<trkpt lat="50.208141" lon="4.707623"><time>2026-05-03T06:30:59Z</time></trkpt>
<trkpt lat="50.207816" lon="4.707971"><time>2026-05-03T06:40:59Z</time></trkpt>
<trkpt lat="50.207349" lon="4.708080"><time>2026-05-03T06:50:59Z</time></trkpt>
<trkpt lat="50.206587" lon="4.707332"><time>2026-05-03T07:00:59Z</time></trkpt>
<trkpt lat="50.206345" lon="4.706784"><time>2026-05-03T07:10:59Z</time></trkpt>
<trkpt lat="50.205959" lon="4.706795"><time>2026-05-03T07:20:59Z</time></trkpt>
</trkseg>
</trk>
<trk>
<name>nphsr41</name>
<cmt>d</cmt>
<desc>Surice Chemin n°41 </desc>
<link href="https://chemins.be/surice/chemin/41"/><trkseg>
<trkpt lat="50.201206" lon="4.683271"><time>2026-05-03T05:50:59Z</time></trkpt>
<trkpt lat="50.201891" lon="4.682799"><time>2026-05-03T06:00:59Z</time></trkpt>
<trkpt lat="50.202424" lon="4.681780"><time>2026-05-03T06:10:59Z</time></trkpt>
</trkseg></trk>
<trk>
<name>nphsr41</name>
<cmt>v</cmt>
<desc>Surice Chemin n°41 </desc>
<link href="https://chemins.be/surice/chemin/41"/><trkseg>
<trkpt lat="50.202424" lon="4.681780"><time>2026-05-03T06:10:59Z</time></trkpt>
<trkpt lat="50.203384" lon="4.682431"><time>2026-05-03T06:20:59Z</time></trkpt>
<trkpt lat="50.204273" lon="4.682983"><time>2026-05-03T06:30:59Z</time></trkpt>
</trkseg></trk>
<trk>
<name>nphsr41</name>
<cmt>d</cmt>
<desc>Surice Chemin n°41 </desc>
<link href="https://chemins.be/surice/chemin/41"/><trkseg>
<trkpt lat="50.204273" lon="4.682983"><time>2026-05-03T06:30:59Z</time></trkpt>
<trkpt lat="50.204883" lon="4.683366"><time>2026-05-03T06:40:59Z</time></trkpt>
</trkseg></trk>
<trk>
<name>nphsr41</name>
<cmt>v</cmt>
<desc>Surice Chemin n°41 </desc>
<link href="https://chemins.be/surice/chemin/41"/><trkseg>
<trkpt lat="50.204883" lon="4.683366"><time>2026-05-03T06:40:59Z</time></trkpt>
<trkpt lat="50.205802" lon="4.686061"><time>2026-05-03T06:50:59Z</time></trkpt>
<trkpt lat="50.206484" lon="4.686640"><time>2026-05-03T07:00:59Z</time></trkpt>
<trkpt lat="50.206968" lon="4.687022"><time>2026-05-03T07:10:59Z</time></trkpt>
<trkpt lat="50.207077" lon="4.689796"><time>2026-05-03T07:20:59Z</time></trkpt>
<trkpt lat="50.207530" lon="4.691985"><time>2026-05-03T07:30:59Z</time></trkpt>
<trkpt lat="50.207988" lon="4.691876"><time>2026-05-03T07:40:59Z</time></trkpt>
</trkseg>
</trk>
<trk>
<name>nphsr42</name>
<cmt>d</cmt>
<desc>Surice Chemin n°42 Rue de la Croix-des-Dames</desc>
<link href="https://chemins.be/surice/chemin/42"/><trkseg>
<trkpt lat="50.204318" lon="4.679552"><time>2026-05-03T05:50:59Z</time></trkpt>
<trkpt lat="50.204669" lon="4.679372"><time>2026-05-03T06:00:59Z</time></trkpt>
<trkpt lat="50.204895" lon="4.678967"><time>2026-05-03T06:10:59Z</time></trkpt>
<trkpt lat="50.205303" lon="4.677863"><time>2026-05-03T06:20:59Z</time></trkpt>
<trkpt lat="50.206280" lon="4.675502"><time>2026-05-03T06:30:59Z</time></trkpt>
<trkpt lat="50.206343" lon="4.675362"><time>2026-05-03T06:40:59Z</time></trkpt>
<trkpt lat="50.207398" lon="4.674164"><time>2026-05-03T06:50:59Z</time></trkpt>
<trkpt lat="50.208041" lon="4.672711"><time>2026-05-03T07:00:59Z</time></trkpt>
<trkpt lat="50.208969" lon="4.671947"><time>2026-05-03T07:10:59Z</time></trkpt>
<trkpt lat="50.209743" lon="4.671405"><time>2026-05-03T07:20:59Z</time></trkpt>
</trkseg></trk>
<trk>
<name>nphsr42</name>
<cmt>v</cmt>
<desc>Surice Chemin n°42 Rue de la Croix-des-Dames</desc>
<link href="https://chemins.be/surice/chemin/42"/><trkseg>
<trkpt lat="50.209743" lon="4.671405"><time>2026-05-03T07:20:59Z</time></trkpt>
<trkpt lat="50.210867" lon="4.671315"><time>2026-05-03T07:30:59Z</time></trkpt>
</trkseg></trk>
<trk>
<name>nphsr42</name>
<cmt>s</cmt>
<desc>Surice Chemin n°42 Rue de la Croix-des-Dames</desc>
<link href="https://chemins.be/surice/chemin/42"/><trkseg>
<trkpt lat="50.210867" lon="4.671315"><time>2026-05-03T07:30:59Z</time></trkpt>
<trkpt lat="50.211848" lon="4.670914"><time>2026-05-03T07:40:59Z</time></trkpt>
<trkpt lat="50.214038" lon="4.669191"><time>2026-05-03T07:50:59Z</time></trkpt>
<trkpt lat="50.214660" lon="4.668466"><time>2026-05-03T08:00:59Z</time></trkpt>
</trkseg>
</trk>
<trk>
<name>nphsr43</name>
<cmt>d</cmt>
<desc>Surice Chemin n°43 </desc>
<link href="https://chemins.be/surice/chemin/43"/><trkseg>
<trkpt lat="50.204805" lon="4.679135"><time>2026-05-03T05:50:59Z</time></trkpt>
<trkpt lat="50.205319" lon="4.678634"><time>2026-05-03T06:00:59Z</time></trkpt>
<trkpt lat="50.206355" lon="4.677534"><time>2026-05-03T06:10:59Z</time></trkpt>
<trkpt lat="50.207141" lon="4.676362"><time>2026-05-03T06:20:59Z</time></trkpt>
<trkpt lat="50.207980" lon="4.675135"><time>2026-05-03T06:30:59Z</time></trkpt>
<trkpt lat="50.208915" lon="4.675239"><time>2026-05-03T06:40:59Z</time></trkpt>
<trkpt lat="50.209489" lon="4.675649"><time>2026-05-03T06:50:59Z</time></trkpt>
<trkpt lat="50.209862" lon="4.677472"><time>2026-05-03T07:00:59Z</time></trkpt>
<trkpt lat="50.210283" lon="4.678106"><time>2026-05-03T07:10:59Z</time></trkpt>
<trkpt lat="50.210767" lon="4.678725"><time>2026-05-03T07:20:59Z</time></trkpt>
<trkpt lat="50.211115" lon="4.679540"><time>2026-05-03T07:30:59Z</time></trkpt>
<trkpt lat="50.211419" lon="4.680397"><time>2026-05-03T07:40:59Z</time></trkpt>
<trkpt lat="50.211652" lon="4.680496"><time>2026-05-03T07:50:59Z</time></trkpt>
<trkpt lat="50.211952" lon="4.679405"><time>2026-05-03T08:00:59Z</time></trkpt>
<trkpt lat="50.211998" lon="4.678789"><time>2026-05-03T08:10:59Z</time></trkpt>
</trkseg>
</trk>
<trk>
<name>nphsr44</name>
<cmt>v</cmt>
<desc>Surice Chemin n°44 </desc>
<link href="https://chemins.be/surice/chemin/44"/><trkseg>
<trkpt lat="50.210328" lon="4.671339"><time>2026-05-03T05:50:59Z</time></trkpt>
<trkpt lat="50.210352" lon="4.672390"><time>2026-05-03T06:00:59Z</time></trkpt>
<trkpt lat="50.210339" lon="4.673917"><time>2026-05-03T06:10:59Z</time></trkpt>
<trkpt lat="50.210496" lon="4.675739"><time>2026-05-03T06:20:59Z</time></trkpt>
<trkpt lat="50.210312" lon="4.677209"><time>2026-05-03T06:30:59Z</time></trkpt>
<trkpt lat="50.210206" lon="4.680122"><time>2026-05-03T06:40:59Z</time></trkpt>
<trkpt lat="50.209822" lon="4.682319"><time>2026-05-03T06:50:59Z</time></trkpt>
<trkpt lat="50.209655" lon="4.684098"><time>2026-05-03T07:00:59Z</time></trkpt>
<trkpt lat="50.209994" lon="4.685221"><time>2026-05-03T07:10:59Z</time></trkpt>
</trkseg>
</trk>
<trk>
<name>nphsr45</name>
<cmt>s</cmt>
<desc>Surice Chemin n°45 </desc>
<link href="https://chemins.be/surice/chemin/45"/><trkseg>
<trkpt lat="50.211650" lon="4.671179"><time>2026-05-03T05:50:59Z</time></trkpt>
<trkpt lat="50.211782" lon="4.672329"><time>2026-05-03T06:00:59Z</time></trkpt>
<trkpt lat="50.211658" lon="4.674976"><time>2026-05-03T06:10:59Z</time></trkpt>
<trkpt lat="50.211907" lon="4.676015"><time>2026-05-03T06:20:59Z</time></trkpt>
</trkseg>
</trk>
<trk>
<name>nphsr46</name>
<cmt>s</cmt>
<desc>Surice Chemin n°46 </desc>
<link href="https://chemins.be/surice/chemin/46"/><trkseg>
<trkpt lat="50.212469" lon="4.667332"><time>2026-05-03T05:50:59Z</time></trkpt>
<trkpt lat="50.211677" lon="4.670983"><time>2026-05-03T06:00:59Z</time></trkpt>
</trkseg>
</trk>
<trk>
<name>nphsr47</name>
<cmt>v</cmt>
<desc>Surice Chemin n°47 </desc>
<link href="https://chemins.be/surice/chemin/47"/><trkseg>
<trkpt lat="50.212340" lon="4.650560"><time>2026-05-03T05:50:59Z</time></trkpt>
<trkpt lat="50.210400" lon="4.653715"><time>2026-05-03T06:00:59Z</time></trkpt>
<trkpt lat="50.208624" lon="4.655526"><time>2026-05-03T06:10:59Z</time></trkpt>
</trkseg>
</trk>
<trk>
<name>nphsr48</name>
<cmt>v</cmt>
<desc>Surice Chemin n°48 </desc>
<link href="https://chemins.be/surice/chemin/48"/><trkseg>
<trkpt lat="50.161992" lon="4.691766"><time>2026-05-03T05:50:59Z</time></trkpt>
<trkpt lat="50.161896" lon="4.691984"><time>2026-05-03T06:00:59Z</time></trkpt>
<trkpt lat="50.161558" lon="4.691947"><time>2026-05-03T06:10:59Z</time></trkpt>
<trkpt lat="50.161231" lon="4.691891"><time>2026-05-03T06:20:59Z</time></trkpt>
</trkseg>
</trk>
<trk>
<name>nphsr49</name>
<cmt>r</cmt>
<desc>Surice Chemin n°49 Rue du Pige / Chemin d'Houzenne</desc>
<link href="https://chemins.be/surice/chemin/49"/><trkseg>
<trkpt lat="50.164980" lon="4.706756"><time>2026-05-03T05:50:59Z</time></trkpt>
<trkpt lat="50.164594" lon="4.706543"><time>2026-05-03T06:00:59Z</time></trkpt>
</trkseg></trk>
<trk>
<name>nphsr49</name>
<cmt>v</cmt>
<desc>Surice Chemin n°49 Rue du Pige / Chemin d'Houzenne</desc>
<link href="https://chemins.be/surice/chemin/49"/><trkseg>
<trkpt lat="50.164594" lon="4.706543"><time>2026-05-03T06:00:59Z</time></trkpt>
<trkpt lat="50.164441" lon="4.706402"><time>2026-05-03T06:10:59Z</time></trkpt>
<trkpt lat="50.164208" lon="4.706317"><time>2026-05-03T06:20:59Z</time></trkpt>
</trkseg></trk>
<trk>
<name>nphsr49</name>
<cmt>s</cmt>
<desc>Surice Chemin n°49 Rue du Pige / Chemin d'Houzenne</desc>
<link href="https://chemins.be/surice/chemin/49"/><trkseg>
<trkpt lat="50.164208" lon="4.706317"><time>2026-05-03T06:20:59Z</time></trkpt>
<trkpt lat="50.164211" lon="4.705113"><time>2026-05-03T06:30:59Z</time></trkpt>
</trkseg></trk>
<trk>
<name>nphsr49</name>
<cmt>r</cmt>
<desc>Surice Chemin n°49 Rue du Pige / Chemin d'Houzenne</desc>
<link href="https://chemins.be/surice/chemin/49"/><trkseg>
<trkpt lat="50.164211" lon="4.705113"><time>2026-05-03T06:30:59Z</time></trkpt>
<trkpt lat="50.164022" lon="4.702018"><time>2026-05-03T06:40:59Z</time></trkpt>
</trkseg></trk>
<trk>
<name>nphsr49</name>
<cmt>d</cmt>
<desc>Surice Chemin n°49 Rue du Pige / Chemin d'Houzenne</desc>
<link href="https://chemins.be/surice/chemin/49"/><trkseg>
<trkpt lat="50.164022" lon="4.702018"><time>2026-05-03T06:40:59Z</time></trkpt>
<trkpt lat="50.163990" lon="4.700786"><time>2026-05-03T06:50:59Z</time></trkpt>
<trkpt lat="50.164410" lon="4.698466"><time>2026-05-03T07:00:59Z</time></trkpt>
<trkpt lat="50.165583" lon="4.693841"><time>2026-05-03T07:10:59Z</time></trkpt>
<trkpt lat="50.165620" lon="4.693590"><time>2026-05-03T07:20:59Z</time></trkpt>
<trkpt lat="50.164958" lon="4.692297"><time>2026-05-03T07:30:59Z</time></trkpt>
</trkseg>
</trk>
<trk>
<name>nphsr50</name>
<cmt>v</cmt>
<desc>Surice Chemin n°50 </desc>
<link href="https://chemins.be/surice/chemin/50"/><trkseg>
<trkpt lat="50.163958" lon="4.702424"><time>2026-05-03T05:50:59Z</time></trkpt>
<trkpt lat="50.163517" lon="4.702519"><time>2026-05-03T06:00:59Z</time></trkpt>
<trkpt lat="50.161537" lon="4.703233"><time>2026-05-03T06:10:59Z</time></trkpt>
<trkpt lat="50.160755" lon="4.703311"><time>2026-05-03T06:20:59Z</time></trkpt>
</trkseg>
</trk>
<trk>
<name>nphsr51</name>
<cmt>v</cmt>
<desc>Surice Chemin n°51 </desc>
<link href="https://chemins.be/surice/chemin/51"/><trkseg>
<trkpt lat="50.161891" lon="4.691997"><time>2026-05-03T05:50:59Z</time></trkpt>
<trkpt lat="50.161455" lon="4.692459"><time>2026-05-03T06:00:59Z</time></trkpt>
</trkseg>
</trk>
<trk>
<name>nphsr52</name>
<cmt>v</cmt>
<desc>Surice Chemin n°52 </desc>
<link href="https://chemins.be/surice/chemin/52"/><trkseg>
<trkpt lat="50.164226" lon="4.706317"><time>2026-05-03T05:50:59Z</time></trkpt>
<trkpt lat="50.163596" lon="4.706508"><time>2026-05-03T06:00:59Z</time></trkpt>
</trkseg>
</trk>
<trk>
<name>nphsr53</name>
<cmt>v</cmt>
<desc>Surice Chemin n°53 Rue des Fermes</desc>
<link href="https://chemins.be/surice/chemin/53"/><trkseg>
<trkpt lat="50.170018" lon="4.676668"><time>2026-05-03T05:50:59Z</time></trkpt>
<trkpt lat="50.169290" lon="4.676551"><time>2026-05-03T06:00:59Z</time></trkpt>
<trkpt lat="50.168878" lon="4.675891"><time>2026-05-03T06:10:59Z</time></trkpt>
<trkpt lat="50.168834" lon="4.675597"><time>2026-05-03T06:20:59Z</time></trkpt>
<trkpt lat="50.168567" lon="4.674517"><time>2026-05-03T06:30:59Z</time></trkpt>
<trkpt lat="50.168098" lon="4.671477"><time>2026-05-03T06:40:59Z</time></trkpt>
<trkpt lat="50.167893" lon="4.664085"><time>2026-05-03T06:50:59Z</time></trkpt>
<trkpt lat="50.167834" lon="4.662447"><time>2026-05-03T07:00:59Z</time></trkpt>
<trkpt lat="50.167802" lon="4.660823"><time>2026-05-03T07:10:59Z</time></trkpt>
</trkseg></trk>
<trk>
<name>nphsr53</name>
<cmt>d</cmt>
<desc>Surice Chemin n°53 Rue des Fermes</desc>
<link href="https://chemins.be/surice/chemin/53"/><trkseg>
<trkpt lat="50.167802" lon="4.660823"><time>2026-05-03T07:10:59Z</time></trkpt>
<trkpt lat="50.167657" lon="4.657910"><time>2026-05-03T07:20:59Z</time></trkpt>
<trkpt lat="50.168039" lon="4.655925"><time>2026-05-03T07:30:59Z</time></trkpt>
</trkseg>
</trk>
<trk>
<name>nphsr54</name>
<cmt>d</cmt>
<desc>Surice Chemin n°54 </desc>
<link href="https://chemins.be/surice/chemin/54"/><trkseg>
<trkpt lat="50.164648" lon="4.663715"><time>2026-05-03T05:50:59Z</time></trkpt>
<trkpt lat="50.164379" lon="4.663657"><time>2026-05-03T06:00:59Z</time></trkpt>
<trkpt lat="50.164092" lon="4.663053"><time>2026-05-03T06:10:59Z</time></trkpt>
<trkpt lat="50.164041" lon="4.662101"><time>2026-05-03T06:20:59Z</time></trkpt>
</trkseg></trk>
<trk>
<name>nphsr54</name>
<cmt>s</cmt>
<desc>Surice Chemin n°54 </desc>
<link href="https://chemins.be/surice/chemin/54"/><trkseg>
<trkpt lat="50.164041" lon="4.662101"><time>2026-05-03T06:20:59Z</time></trkpt>
<trkpt lat="50.164694" lon="4.659810"><time>2026-05-03T06:30:59Z</time></trkpt>
<trkpt lat="50.166022" lon="4.657229"><time>2026-05-03T06:40:59Z</time></trkpt>
<trkpt lat="50.166653" lon="4.656603"><time>2026-05-03T06:50:59Z</time></trkpt>
<trkpt lat="50.166989" lon="4.655415"><time>2026-05-03T07:00:59Z</time></trkpt>
<trkpt lat="50.167018" lon="4.654267"><time>2026-05-03T07:10:59Z</time></trkpt>
<trkpt lat="50.167200" lon="4.653638"><time>2026-05-03T07:20:59Z</time></trkpt>
<trkpt lat="50.167732" lon="4.652998"><time>2026-05-03T07:30:59Z</time></trkpt>
<trkpt lat="50.168735" lon="4.650736"><time>2026-05-03T07:40:59Z</time></trkpt>
<trkpt lat="50.168685" lon="4.649210"><time>2026-05-03T07:50:59Z</time></trkpt>
<trkpt lat="50.169726" lon="4.646277"><time>2026-05-03T08:00:59Z</time></trkpt>
<trkpt lat="50.169987" lon="4.646096"><time>2026-05-03T08:10:59Z</time></trkpt>
</trkseg>
</trk>
<trk>
<name>nphsr55</name>
<cmt>v</cmt>
<desc>Surice Chemin n°55 </desc>
<link href="https://chemins.be/surice/chemin/55"/><trkseg>
<trkpt lat="50.178300" lon="4.668965"><time>2026-05-03T05:50:59Z</time></trkpt>
<trkpt lat="50.177518" lon="4.668904"><time>2026-05-03T06:00:59Z</time></trkpt>
<trkpt lat="50.176201" lon="4.667062"><time>2026-05-03T06:10:59Z</time></trkpt>
<trkpt lat="50.175106" lon="4.666467"><time>2026-05-03T06:20:59Z</time></trkpt>
</trkseg>
</trk>
<trk>
<name>nphsr56</name>
<cmt>r</cmt>
<desc>Surice Chemin n°56 Chemin de Soulme</desc>
<link href="https://chemins.be/surice/chemin/56"/><trkseg>
<trkpt lat="50.181343" lon="4.700544"><time>2026-05-03T05:50:59Z</time></trkpt>
<trkpt lat="50.181464" lon="4.702197"><time>2026-05-03T06:00:59Z</time></trkpt>
</trkseg></trk>
<trk>
<name>nphsr56</name>
<cmt>d</cmt>
<desc>Surice Chemin n°56 Chemin de Soulme</desc>
<link href="https://chemins.be/surice/chemin/56"/><trkseg>
<trkpt lat="50.181464" lon="4.702197"><time>2026-05-03T06:00:59Z</time></trkpt>
<trkpt lat="50.181634" lon="4.702450"><time>2026-05-03T06:10:59Z</time></trkpt>
<trkpt lat="50.181687" lon="4.702856"><time>2026-05-03T06:20:59Z</time></trkpt>
<trkpt lat="50.181918" lon="4.703810"><time>2026-05-03T06:30:59Z</time></trkpt>
<trkpt lat="50.181959" lon="4.705112"><time>2026-05-03T06:40:59Z</time></trkpt>
<trkpt lat="50.182037" lon="4.706121"><time>2026-05-03T06:50:59Z</time></trkpt>
<trkpt lat="50.181689" lon="4.708317"><time>2026-05-03T07:00:59Z</time></trkpt>
<trkpt lat="50.181587" lon="4.709254"><time>2026-05-03T07:10:59Z</time></trkpt>
</trkseg>
</trk>
<trk>
<name>nphsr57</name>
<cmt>r</cmt>
<desc>Surice Chemin n°57 Rue de Jolimont</desc>
<link href="https://chemins.be/surice/chemin/57"/><trkseg>
<trkpt lat="50.171551" lon="4.694624"><time>2026-05-03T05:50:59Z</time></trkpt>
<trkpt lat="50.171570" lon="4.694120"><time>2026-05-03T06:00:59Z</time></trkpt>
<trkpt lat="50.171512" lon="4.692412"><time>2026-05-03T06:10:59Z</time></trkpt>
<trkpt lat="50.171732" lon="4.691028"><time>2026-05-03T06:20:59Z</time></trkpt>
<trkpt lat="50.171507" lon="4.687722"><time>2026-05-03T06:30:59Z</time></trkpt>
</trkseg></trk>
<trk>
<name>nphsr57</name>
<cmt>v</cmt>
<desc>Surice Chemin n°57 Rue de Jolimont</desc>
<link href="https://chemins.be/surice/chemin/57"/><trkseg>
<trkpt lat="50.171507" lon="4.687722"><time>2026-05-03T06:30:59Z</time></trkpt>
<trkpt lat="50.171551" lon="4.684867"><time>2026-05-03T06:40:59Z</time></trkpt>
<trkpt lat="50.171245" lon="4.681687"><time>2026-05-03T06:50:59Z</time></trkpt>
<trkpt lat="50.171339" lon="4.679966"><time>2026-05-03T07:00:59Z</time></trkpt>
<trkpt lat="50.171272" lon="4.678454"><time>2026-05-03T07:10:59Z</time></trkpt>
<trkpt lat="50.171373" lon="4.677517"><time>2026-05-03T07:20:59Z</time></trkpt>
</trkseg>
</trk>
<trk>
<name>nphsr58</name>
<cmt>v</cmt>
<desc>Surice Chemin n°58 </desc>
<link href="https://chemins.be/surice/chemin/58"/><trkseg>
<trkpt lat="50.171869" lon="4.699610"><time>2026-05-03T05:50:59Z</time></trkpt>
<trkpt lat="50.170968" lon="4.700289"><time>2026-05-03T06:00:59Z</time></trkpt>
</trkseg>
</trk>
<trk>
<name>nphsr59</name>
<cmt>r</cmt>
<desc>Surice Chemin n°59 Rue de Vodelée</desc>
<link href="https://chemins.be/surice/chemin/59"/><trkseg>
<trkpt lat="50.172352" lon="4.703701"><time>2026-05-03T05:50:59Z</time></trkpt>
<trkpt lat="50.171847" lon="4.704271"><time>2026-05-03T06:00:59Z</time></trkpt>
</trkseg>
</trk>
<trk>
<name>nphsr6</name>
<cmt>v</cmt>
<desc>Surice Chemin n°6 </desc>
<link href="https://chemins.be/surice/chemin/6"/><trkseg>
<trkpt lat="50.166160" lon="4.686679"><time>2026-05-03T05:50:59Z</time></trkpt>
<trkpt lat="50.166730" lon="4.685605"><time>2026-05-03T06:00:59Z</time></trkpt>
</trkseg></trk>
<trk>
<name>nphsr6</name>
<cmt>d</cmt>
<desc>Surice Chemin n°6 </desc>
<link href="https://chemins.be/surice/chemin/6"/><trkseg>
<trkpt lat="50.166730" lon="4.685605"><time>2026-05-03T06:00:59Z</time></trkpt>
<trkpt lat="50.164862" lon="4.681393"><time>2026-05-03T06:10:59Z</time></trkpt>
<trkpt lat="50.163424" lon="4.677997"><time>2026-05-03T06:20:59Z</time></trkpt>
<trkpt lat="50.163056" lon="4.674538"><time>2026-05-03T06:30:59Z</time></trkpt>
<trkpt lat="50.163103" lon="4.670353"><time>2026-05-03T06:40:59Z</time></trkpt>
</trkseg></trk>
<trk>
<name>nphsr6</name>
<cmt>v</cmt>
<desc>Surice Chemin n°6 </desc>
<link href="https://chemins.be/surice/chemin/6"/><trkseg>
<trkpt lat="50.163103" lon="4.670353"><time>2026-05-03T06:40:59Z</time></trkpt>
<trkpt lat="50.163195" lon="4.669458"><time>2026-05-03T06:50:59Z</time></trkpt>
<trkpt lat="50.163242" lon="4.668758"><time>2026-05-03T07:00:59Z</time></trkpt>
<trkpt lat="50.163188" lon="4.668632"><time>2026-05-03T07:10:59Z</time></trkpt>
</trkseg>
</trk>
<trk>
<name>nphsr60</name>
<cmt>v</cmt>
<desc>Surice Chemin n°60 </desc>
<link href="https://chemins.be/surice/chemin/60"/><trkseg>
<trkpt lat="50.160749" lon="4.636708"><time>2026-05-03T05:50:59Z</time></trkpt>
<trkpt lat="50.163650" lon="4.634163"><time>2026-05-03T06:00:59Z</time></trkpt>
<trkpt lat="50.164792" lon="4.634197"><time>2026-05-03T06:10:59Z</time></trkpt>
</trkseg>
</trk>
<trk>
<name>nphsr61</name>
<cmt>v</cmt>
<desc>Surice Chemin n°61 </desc>
<link href="https://chemins.be/surice/chemin/61"/><trkseg>
<trkpt lat="50.160704" lon="4.636735"><time>2026-05-03T05:50:59Z</time></trkpt>
<trkpt lat="50.160046" lon="4.637627"><time>2026-05-03T06:00:59Z</time></trkpt>
<trkpt lat="50.159157" lon="4.640953"><time>2026-05-03T06:10:59Z</time></trkpt>
</trkseg>
</trk>
<trk>
<name>nphsr62</name>
<cmt>v</cmt>
<desc>Surice Chemin n°62 </desc>
<link href="https://chemins.be/surice/chemin/62"/><trkseg>
<trkpt lat="50.164749" lon="4.711919"><time>2026-05-03T05:50:59Z</time></trkpt>
<trkpt lat="50.164704" lon="4.711793"><time>2026-05-03T06:00:59Z</time></trkpt>
</trkseg>
</trk>
<trk>
<name>nphsr63</name>
<cmt>q</cmt>
<desc>Surice Chemin n°63 </desc>
<link href="https://chemins.be/surice/chemin/63"/><trkseg>
<trkpt lat="50.184291" lon="4.694543"><time>2026-05-03T05:50:59Z</time></trkpt>
<trkpt lat="50.184400" lon="4.694040"><time>2026-05-03T06:00:59Z</time></trkpt>
<trkpt lat="50.184546" lon="4.693397"><time>2026-05-03T06:10:59Z</time></trkpt>
</trkseg></trk>
<trk>
<name>nphsr63</name>
<cmt>s</cmt>
<desc>Surice Chemin n°63 </desc>
<link href="https://chemins.be/surice/chemin/63"/><trkseg>
<trkpt lat="50.184546" lon="4.693397"><time>2026-05-03T06:10:59Z</time></trkpt>
<trkpt lat="50.184917" lon="4.692335"><time>2026-05-03T06:20:59Z</time></trkpt>
<trkpt lat="50.185026" lon="4.692126"><time>2026-05-03T06:30:59Z</time></trkpt>
</trkseg></trk>
<trk>
<name>nphsr63</name>
<cmt>d</cmt>
<desc>Surice Chemin n°63 </desc>
<link href="https://chemins.be/surice/chemin/63"/><trkseg>
<trkpt lat="50.185026" lon="4.692126"><time>2026-05-03T06:30:59Z</time></trkpt>
<trkpt lat="50.185206" lon="4.691819"><time>2026-05-03T06:40:59Z</time></trkpt>
</trkseg>
</trk>
<trk>
<name>nphsr64</name>
<cmt>r</cmt>
<desc>Surice Chemin n°64 Rue de la Croix Maron / Rue du Pige</desc>
<link href="https://chemins.be/surice/chemin/64"/><trkseg>
<trkpt lat="50.184463" lon="4.690820"><time>2026-05-03T05:50:59Z</time></trkpt>
<trkpt lat="50.184625" lon="4.690779"><time>2026-05-03T06:00:59Z</time></trkpt>
<trkpt lat="50.184824" lon="4.690276"><time>2026-05-03T06:10:59Z</time></trkpt>
<trkpt lat="50.185900" lon="4.687987"><time>2026-05-03T06:20:59Z</time></trkpt>
<trkpt lat="50.187261" lon="4.683459"><time>2026-05-03T06:30:59Z</time></trkpt>
<trkpt lat="50.187953" lon="4.680313"><time>2026-05-03T06:40:59Z</time></trkpt>
<trkpt lat="50.189055" lon="4.678360"><time>2026-05-03T06:50:59Z</time></trkpt>
<trkpt lat="50.189979" lon="4.675845"><time>2026-05-03T07:00:59Z</time></trkpt>
</trkseg>
</trk>
<trk>
<name>nphsr65</name>
<cmt>v</cmt>
<desc>Surice Chemin n°65 </desc>
<link href="https://chemins.be/surice/chemin/65"/><trkseg>
<trkpt lat="50.179651" lon="4.697970"><time>2026-05-03T05:50:59Z</time></trkpt>
<trkpt lat="50.179519" lon="4.696863"><time>2026-05-03T06:00:59Z</time></trkpt>
<trkpt lat="50.178980" lon="4.696803"><time>2026-05-03T06:10:59Z</time></trkpt>
<trkpt lat="50.178126" lon="4.696545"><time>2026-05-03T06:20:59Z</time></trkpt>
<trkpt lat="50.176754" lon="4.695430"><time>2026-05-03T06:30:59Z</time></trkpt>
</trkseg>
</trk>
<trk>
<name>nphsr66</name>
<cmt>r</cmt>
<desc>Surice Chemin n°66 Rue Grande</desc>
<link href="https://chemins.be/surice/chemin/66"/><trkseg>
<trkpt lat="50.175635" lon="4.690326"><time>2026-05-03T05:50:59Z</time></trkpt>
<trkpt lat="50.174620" lon="4.693525"><time>2026-05-03T06:00:59Z</time></trkpt>
<trkpt lat="50.174049" lon="4.695145"><time>2026-05-03T06:10:59Z</time></trkpt>
<trkpt lat="50.173811" lon="4.696599"><time>2026-05-03T06:20:59Z</time></trkpt>
</trkseg>
</trk>
<trk>
<name>nphsr67</name>
<cmt>v</cmt>
<desc>Surice Chemin n°67 </desc>
<link href="https://chemins.be/surice/chemin/67"/><trkseg>
<trkpt lat="50.207059" lon="4.689740"><time>2026-05-03T05:50:59Z</time></trkpt>
<trkpt lat="50.206850" lon="4.690523"><time>2026-05-03T06:00:59Z</time></trkpt>
<trkpt lat="50.206767" lon="4.691293"><time>2026-05-03T06:10:59Z</time></trkpt>
<trkpt lat="50.206937" lon="4.691700"><time>2026-05-03T06:20:59Z</time></trkpt>
<trkpt lat="50.207008" lon="4.692149"><time>2026-05-03T06:30:59Z</time></trkpt>
</trkseg>
</trk>
<trk>
<name>nphsr68</name>
<cmt>v</cmt>
<desc>Surice Chemin n°68 </desc>
<link href="https://chemins.be/surice/chemin/68"/><trkseg>
<trkpt lat="50.165335" lon="4.662221"><time>2026-05-03T05:50:59Z</time></trkpt>
<trkpt lat="50.166134" lon="4.662604"><time>2026-05-03T06:00:59Z</time></trkpt>
<trkpt lat="50.167250" lon="4.662191"><time>2026-05-03T06:10:59Z</time></trkpt>
<trkpt lat="50.167825" lon="4.662419"><time>2026-05-03T06:20:59Z</time></trkpt>
<trkpt lat="50.169782" lon="4.663788"><time>2026-05-03T06:30:59Z</time></trkpt>
<trkpt lat="50.171261" lon="4.665365"><time>2026-05-03T06:40:59Z</time></trkpt>
<trkpt lat="50.171673" lon="4.665788"><time>2026-05-03T06:50:59Z</time></trkpt>
</trkseg>
</trk>
<trk>
<name>nphsr69</name>
<cmt>q</cmt>
<desc>Surice Chemin n°69 </desc>
<link href="https://chemins.be/surice/chemin/69"/><trkseg>
<trkpt lat="50.170889" lon="4.664926"><time>2026-05-03T05:50:59Z</time></trkpt>
<trkpt lat="50.171377" lon="4.664793"><time>2026-05-03T06:00:59Z</time></trkpt>
</trkseg>
</trk>
<trk>
<name>nphsr70</name>
<cmt>v</cmt>
<desc>Surice Chemin n°70 </desc>
<link href="https://chemins.be/surice/chemin/70"/><trkseg>
<trkpt lat="50.171764" lon="4.701611"><time>2026-05-03T05:50:59Z</time></trkpt>
<trkpt lat="50.171665" lon="4.701652"><time>2026-05-03T06:00:59Z</time></trkpt>
<trkpt lat="50.171531" lon="4.701567"><time>2026-05-03T06:10:59Z</time></trkpt>
<trkpt lat="50.171351" lon="4.701538"><time>2026-05-03T06:20:59Z</time></trkpt>
</trkseg>
</trk>
<trk>
<name>nphsr71</name>
<cmt>r</cmt>
<desc>Surice Chemin n°71 Rue des Ecoles</desc>
<link href="https://chemins.be/surice/chemin/71"/><trkseg>
<trkpt lat="50.172172" lon="4.697582"><time>2026-05-03T05:50:59Z</time></trkpt>
<trkpt lat="50.172018" lon="4.697693"><time>2026-05-03T06:00:59Z</time></trkpt>
<trkpt lat="50.171846" lon="4.698210"><time>2026-05-03T06:10:59Z</time></trkpt>
<trkpt lat="50.171962" lon="4.698672"><time>2026-05-03T06:20:59Z</time></trkpt>
<trkpt lat="50.171960" lon="4.699190"><time>2026-05-03T06:30:59Z</time></trkpt>
</trkseg>
</trk>
<trk>
<name>nphsr72</name>
<cmt>v</cmt>
<desc>Surice Chemin n°72 </desc>
<link href="https://chemins.be/surice/chemin/72"/><trkseg>
<trkpt lat="50.172428" lon="4.699263"><time>2026-05-03T05:50:59Z</time></trkpt>
<trkpt lat="50.171646" lon="4.699006"><time>2026-05-03T06:00:59Z</time></trkpt>
</trkseg>
</trk>
<trk>
<name>nphsr73</name>
<cmt>s</cmt>
<desc>Surice Chemin n°73 </desc>
<link href="https://chemins.be/surice/chemin/73"/><trkseg>
<trkpt lat="50.172031" lon="4.699751"><time>2026-05-03T05:50:59Z</time></trkpt>
<trkpt lat="50.172257" lon="4.699276"><time>2026-05-03T06:00:59Z</time></trkpt>
</trkseg>
</trk>
<trk>
<name>nphsr74</name>
<cmt>v</cmt>
<desc>Surice Chemin n°74 Sentier des écoles</desc>
<link href="https://chemins.be/surice/chemin/74"/><trkseg>
<trkpt lat="50.172001" lon="4.697665"><time>2026-05-03T05:50:59Z</time></trkpt>
<trkpt lat="50.171577" lon="4.697900"><time>2026-05-03T06:00:59Z</time></trkpt>
<trkpt lat="50.170911" lon="4.698105"><time>2026-05-03T06:10:59Z</time></trkpt>
</trkseg>
</trk>
<trk>
<name>nphsr75</name>
<cmt>r</cmt>
<desc>Surice Chemin n°75 Rue Grande</desc>
<link href="https://chemins.be/surice/chemin/75"/><trkseg>
<trkpt lat="50.172092" lon="4.700171"><time>2026-05-03T05:50:59Z</time></trkpt>
<trkpt lat="50.172423" lon="4.700789"><time>2026-05-03T06:00:59Z</time></trkpt>
</trkseg>
</trk>
<trk>
<name>nphsr76</name>
<cmt>b</cmt>
<desc>Surice Chemin n°76 Rue de Vodelée</desc>
<link href="https://chemins.be/surice/chemin/76"/><trkseg>
<trkpt lat="50.172333" lon="4.700957"><time>2026-05-03T05:50:59Z</time></trkpt>
<trkpt lat="50.172180" lon="4.700970"><time>2026-05-03T06:00:59Z</time></trkpt>
</trkseg></trk>
<trk>
<name>nphsr76</name>
<cmt>s</cmt>
<desc>Surice Chemin n°76 Rue de Vodelée</desc>
<link href="https://chemins.be/surice/chemin/76"/><trkseg>
<trkpt lat="50.172180" lon="4.700970"><time>2026-05-03T06:00:59Z</time></trkpt>
<trkpt lat="50.172045" lon="4.700955"><time>2026-05-03T06:10:59Z</time></trkpt>
</trkseg>
</trk>
<trk>
<name>nphsr8</name>
<cmt>v</cmt>
<desc>Surice Chemin n°8 </desc>
<link href="https://chemins.be/surice/chemin/8"/><trkseg>
<trkpt lat="50.186914" lon="4.675531"><time>2026-05-03T05:50:59Z</time></trkpt>
<trkpt lat="50.187365" lon="4.674862"><time>2026-05-03T06:00:59Z</time></trkpt>
<trkpt lat="50.187774" lon="4.673380"><time>2026-05-03T06:10:59Z</time></trkpt>
<trkpt lat="50.188287" lon="4.672949"><time>2026-05-03T06:20:59Z</time></trkpt>
<trkpt lat="50.189569" lon="4.671263"><time>2026-05-03T06:30:59Z</time></trkpt>
<trkpt lat="50.190222" lon="4.669055"><time>2026-05-03T06:40:59Z</time></trkpt>
<trkpt lat="50.190936" lon="4.667477"><time>2026-05-03T06:50:59Z</time></trkpt>
<trkpt lat="50.191084" lon="4.665867"><time>2026-05-03T07:00:59Z</time></trkpt>
<trkpt lat="50.192391" lon="4.660946"><time>2026-05-03T07:10:59Z</time></trkpt>
</trkseg></trk>
<trk>
<name>nphsr8</name>
<cmt>s</cmt>
<desc>Surice Chemin n°8 </desc>
<link href="https://chemins.be/surice/chemin/8"/><trkseg>
<trkpt lat="50.192391" lon="4.660946"><time>2026-05-03T07:10:59Z</time></trkpt>
<trkpt lat="50.193387" lon="4.658445"><time>2026-05-03T07:20:59Z</time></trkpt>
<trkpt lat="50.194522" lon="4.653942"><time>2026-05-03T07:30:59Z</time></trkpt>
<trkpt lat="50.195306" lon="4.652910"><time>2026-05-03T07:40:59Z</time></trkpt>
<trkpt lat="50.196521" lon="4.652358"><time>2026-05-03T07:50:59Z</time></trkpt>
<trkpt lat="50.197649" lon="4.650670"><time>2026-05-03T08:00:59Z</time></trkpt>
</trkseg>
</trk>
<trk>
<name>nphsr80</name>
<cmt>r</cmt>
<desc>Surice Chemin n°80 Rue de la Fontaine Saint-Pierre</desc>
<link href="https://chemins.be/surice/chemin/80"/><trkseg>
<trkpt lat="50.172304" lon="4.701600"><time>2026-05-03T05:50:59Z</time></trkpt>
<trkpt lat="50.172446" lon="4.702357"><time>2026-05-03T06:00:59Z</time></trkpt>
<trkpt lat="50.172300" lon="4.702944"><time>2026-05-03T06:10:59Z</time></trkpt>
</trkseg>
</trk>
<trk>
<name>nphsr82</name>
<cmt>v</cmt>
<desc>Surice Chemin n°82 </desc>
<link href="https://chemins.be/surice/chemin/82"/><trkseg>
<trkpt lat="50.172477" lon="4.700706"><time>2026-05-03T05:50:59Z</time></trkpt>
<trkpt lat="50.173187" lon="4.700823"><time>2026-05-03T06:00:59Z</time></trkpt>
<trkpt lat="50.173711" lon="4.700126"><time>2026-05-03T06:10:59Z</time></trkpt>
</trkseg>
</trk>
<trk>
<name>nphsr83</name>
<cmt>v</cmt>
<desc>Surice Chemin n°83 </desc>
<link href="https://chemins.be/surice/chemin/83"/><trkseg>
<trkpt lat="50.173758" lon="4.696193"><time>2026-05-03T05:50:59Z</time></trkpt>
<trkpt lat="50.172367" lon="4.695175"><time>2026-05-03T06:00:59Z</time></trkpt>
</trkseg>
</trk>
<trk>
<name>nphsr85</name>
<cmt>v</cmt>
<desc>Surice Chemin n°85 </desc>
<link href="https://chemins.be/surice/chemin/85"/><trkseg>
<trkpt lat="50.181184" lon="4.696258"><time>2026-05-03T05:50:59Z</time></trkpt>
<trkpt lat="50.180986" lon="4.696243"><time>2026-05-03T06:00:59Z</time></trkpt>
<trkpt lat="50.180708" lon="4.696241"><time>2026-05-03T06:10:59Z</time></trkpt>
</trkseg></trk>
<trk>
<name>nphsr85</name>
<cmt>d</cmt>
<desc>Surice Chemin n°85 </desc>
<link href="https://chemins.be/surice/chemin/85"/><trkseg>
<trkpt lat="50.180708" lon="4.696241"><time>2026-05-03T06:10:59Z</time></trkpt>
<trkpt lat="50.179997" lon="4.696180"><time>2026-05-03T06:20:59Z</time></trkpt>
<trkpt lat="50.179367" lon="4.696694"><time>2026-05-03T06:30:59Z</time></trkpt>
</trkseg>
</trk>
<trk>
<name>nphsr86</name>
<cmt>v</cmt>
<desc>Surice Chemin n°86 </desc>
<link href="https://chemins.be/surice/chemin/86"/><trkseg>
<trkpt lat="50.180857" lon="4.697586"><time>2026-05-03T05:50:59Z</time></trkpt>
<trkpt lat="50.180255" lon="4.697400"><time>2026-05-03T06:00:59Z</time></trkpt>
</trkseg></trk>
<trk>
<name>nphsr86</name>
<cmt>d</cmt>
<desc>Surice Chemin n°86 </desc>
<link href="https://chemins.be/surice/chemin/86"/><trkseg>
<trkpt lat="50.180255" lon="4.697400"><time>2026-05-03T06:00:59Z</time></trkpt>
<trkpt lat="50.179599" lon="4.697143"><time>2026-05-03T06:10:59Z</time></trkpt>
</trkseg>
</trk>
<trk>
<name>nphsr87</name>
<cmt>v</cmt>
<desc>Surice Chemin n°87 </desc>
<link href="https://chemins.be/surice/chemin/87"/><trkseg>
<trkpt lat="50.182635" lon="4.691787"><time>2026-05-03T05:50:59Z</time></trkpt>
<trkpt lat="50.182851" lon="4.691803"><time>2026-05-03T06:00:59Z</time></trkpt>
<trkpt lat="50.183372" lon="4.691764"><time>2026-05-03T06:10:59Z</time></trkpt>
<trkpt lat="50.183975" lon="4.691643"><time>2026-05-03T06:20:59Z</time></trkpt>
</trkseg>
</trk>
<trk>
<name>nphsr89</name>
<cmt>v</cmt>
<desc>Surice Chemin n°89 </desc>
<link href="https://chemins.be/surice/chemin/89"/><trkseg>
<trkpt lat="50.182607" lon="4.696837"><time>2026-05-03T05:50:59Z</time></trkpt>
<trkpt lat="50.182872" lon="4.697096"><time>2026-05-03T06:00:59Z</time></trkpt>
<trkpt lat="50.183096" lon="4.697321"><time>2026-05-03T06:10:59Z</time></trkpt>
<trkpt lat="50.183185" lon="4.697546"><time>2026-05-03T06:20:59Z</time></trkpt>
<trkpt lat="50.183310" lon="4.697953"><time>2026-05-03T06:30:59Z</time></trkpt>
<trkpt lat="50.183696" lon="4.698012"><time>2026-05-03T06:40:59Z</time></trkpt>
</trkseg>
</trk>
<trk>
<name>nphsr90</name>
<cmt>v</cmt>
<desc>Surice Chemin n°90 </desc>
<link href="https://chemins.be/surice/chemin/90"/><trkseg>
<trkpt lat="50.182549" lon="4.696897"><time>2026-05-03T05:50:59Z</time></trkpt>
<trkpt lat="50.182476" lon="4.697345"><time>2026-05-03T06:00:59Z</time></trkpt>
<trkpt lat="50.182581" lon="4.698200"><time>2026-05-03T06:10:59Z</time></trkpt>
</trkseg>
</trk>
<trk>
<name>nphsr91</name>
<cmt>q</cmt>
<desc>Surice Chemin n°91 </desc>
<link href="https://chemins.be/surice/chemin/91"/><trkseg>
<trkpt lat="50.181736" lon="4.698292"><time>2026-05-03T05:50:59Z</time></trkpt>
<trkpt lat="50.182527" lon="4.698241"><time>2026-05-03T06:00:59Z</time></trkpt>
<trkpt lat="50.182995" lon="4.698189"><time>2026-05-03T06:10:59Z</time></trkpt>
<trkpt lat="50.183256" lon="4.697938"><time>2026-05-03T06:20:59Z</time></trkpt>
</trkseg>
</trk>
<trk>
<name>nphsr92</name>
<cmt>v</cmt>
<desc>Surice Chemin n°92 </desc>
<link href="https://chemins.be/surice/chemin/92"/><trkseg>
<trkpt lat="50.181381" lon="4.699676"><time>2026-05-03T05:50:59Z</time></trkpt>
<trkpt lat="50.181122" lon="4.698988"><time>2026-05-03T06:00:59Z</time></trkpt>
<trkpt lat="50.180638" lon="4.698438"><time>2026-05-03T06:10:59Z</time></trkpt>
</trkseg>
</trk>
<trk>
<name>nphsr93</name>
<cmt>r</cmt>
<desc>Surice Chemin n°93 Chemin de Soulme</desc>
<link href="https://chemins.be/surice/chemin/93"/><trkseg>
<trkpt lat="50.181762" lon="4.698670"><time>2026-05-03T05:50:59Z</time></trkpt>
<trkpt lat="50.182516" lon="4.698984"><time>2026-05-03T06:00:59Z</time></trkpt>
</trkseg></trk>
<trk>
<name>nphsr93</name>
<cmt>v</cmt>
<desc>Surice Chemin n°93 Chemin de Soulme</desc>
<link href="https://chemins.be/surice/chemin/93"/><trkseg>
<trkpt lat="50.182516" lon="4.698984"><time>2026-05-03T06:00:59Z</time></trkpt>
<trkpt lat="50.182554" lon="4.698340"><time>2026-05-03T06:10:59Z</time></trkpt>
</trkseg>
</trk>
<trk>
<name>nphsr94</name>
<cmt>v</cmt>
<desc>Surice Chemin n°94 </desc>
<link href="https://chemins.be/surice/chemin/94"/><trkseg>
<trkpt lat="50.182516" lon="4.699054"><time>2026-05-03T05:50:59Z</time></trkpt>
<trkpt lat="50.182505" lon="4.699501"><time>2026-05-03T06:00:59Z</time></trkpt>
<trkpt lat="50.182576" lon="4.700006"><time>2026-05-03T06:10:59Z</time></trkpt>
</trkseg>
</trk>
<trk>
<name>nphsr96</name>
<cmt>r</cmt>
<desc>Surice Chemin n°96 Rue aux Ruelles</desc>
<link href="https://chemins.be/surice/chemin/96"/><trkseg>
<trkpt lat="50.181501" lon="4.697352"><time>2026-05-03T05:50:59Z</time></trkpt>
<trkpt lat="50.181254" lon="4.696762"><time>2026-05-03T06:00:59Z</time></trkpt>
<trkpt lat="50.181234" lon="4.695716"><time>2026-05-03T06:10:59Z</time></trkpt>
<trkpt lat="50.181219" lon="4.694956"><time>2026-05-03T06:20:59Z</time></trkpt>
<trkpt lat="50.181288" lon="4.694337"><time>2026-05-03T06:30:59Z</time></trkpt>
</trkseg>
</trk>
<trk>
<name>nphsr97</name>
<cmt>r</cmt>
<desc>Surice Chemin n°97 Rue Bois Lorrain</desc>
<link href="https://chemins.be/surice/chemin/97"/><trkseg>
<trkpt lat="50.201891" lon="4.679424"><time>2026-05-03T05:50:59Z</time></trkpt>
<trkpt lat="50.201817" lon="4.680236"><time>2026-05-03T06:00:59Z</time></trkpt>
</trkseg></trk>
<trk>
<name>nphsr97</name>
<cmt>v</cmt>
<desc>Surice Chemin n°97 Rue Bois Lorrain</desc>
<link href="https://chemins.be/surice/chemin/97"/><trkseg>
<trkpt lat="50.201817" lon="4.680236"><time>2026-05-03T06:00:59Z</time></trkpt>
<trkpt lat="50.201663" lon="4.680613"><time>2026-05-03T06:10:59Z</time></trkpt>
<trkpt lat="50.201393" lon="4.680849"><time>2026-05-03T06:20:59Z</time></trkpt>
<trkpt lat="50.201167" lon="4.681254"><time>2026-05-03T06:30:59Z</time></trkpt>
<trkpt lat="50.201068" lon="4.681421"><time>2026-05-03T06:40:59Z</time></trkpt>
</trkseg>
</trk>
<trk>
<name>nphsr98</name>
<cmt>r</cmt>
<desc>Surice Chemin n°98 Rue Bois Lorrain / Rue du Bois Lorain</desc>
<link href="https://chemins.be/surice/chemin/98"/><trkseg>
<trkpt lat="50.201853" lon="4.680264"><time>2026-05-03T05:50:59Z</time></trkpt>
<trkpt lat="50.202517" lon="4.680801"><time>2026-05-03T06:00:59Z</time></trkpt>
</trkseg></trk>
<trk>
<name>nphsr98</name>
<cmt>v</cmt>
<desc>Surice Chemin n°98 Rue Bois Lorrain / Rue du Bois Lorain</desc>
<link href="https://chemins.be/surice/chemin/98"/><trkseg>
<trkpt lat="50.202517" lon="4.680801"><time>2026-05-03T06:00:59Z</time></trkpt>
<trkpt lat="50.202524" lon="4.681389"><time>2026-05-03T06:10:59Z</time></trkpt>
<trkpt lat="50.202442" lon="4.681697"><time>2026-05-03T06:20:59Z</time></trkpt>
</trkseg>
</trk>
<trk>
<name>nphsr99</name>
<cmt>s</cmt>
<desc>Surice Sentier n°99 </desc>
<link href="https://chemins.be/surice/sentier/99"/><trkseg>
<trkpt lat="50.199004" lon="4.679867"><time>2026-05-03T05:50:59Z</time></trkpt>
<trkpt lat="50.200133" lon="4.677815"><time>2026-05-03T06:00:59Z</time></trkpt>
<trkpt lat="50.200799" lon="4.674416"><time>2026-05-03T06:10:59Z</time></trkpt>
</trkseg>
</trk>
<trk>
<name>nphsri1</name>
<cmt>v</cmt>
<desc>Surice Chemin n°i1 </desc>
<link href="https://chemins.be/surice/chemin/i1"/><trkseg>
<trkpt lat="50.173400" lon="4.692425"><time>2026-05-03T05:50:59Z</time></trkpt>
<trkpt lat="50.172999" lon="4.691050"><time>2026-05-03T06:00:59Z</time></trkpt>
<trkpt lat="50.172956" lon="4.690322"><time>2026-05-03T06:10:59Z</time></trkpt>
<trkpt lat="50.173104" lon="4.688923"><time>2026-05-03T06:20:59Z</time></trkpt>
</trkseg>
</trk>
<trk>
<name>nphsri10</name>
<cmt>v</cmt>
<desc>Surice Sentier n°i10 </desc>
<link href="https://chemins.be/surice/sentier/i10"/><trkseg>
<trkpt lat="50.179766" lon="4.672279"><time>2026-05-03T05:50:59Z</time></trkpt>
<trkpt lat="50.179226" lon="4.672611"><time>2026-05-03T06:00:59Z</time></trkpt>
<trkpt lat="50.177858" lon="4.672967"><time>2026-05-03T06:10:59Z</time></trkpt>
<trkpt lat="50.177181" lon="4.674082"><time>2026-05-03T06:20:59Z</time></trkpt>
<trkpt lat="50.176293" lon="4.673167"><time>2026-05-03T06:30:59Z</time></trkpt>
<trkpt lat="50.176062" lon="4.672157"><time>2026-05-03T06:40:59Z</time></trkpt>
<trkpt lat="50.175982" lon="4.671765"><time>2026-05-03T06:50:59Z</time></trkpt>
<trkpt lat="50.175857" lon="4.671540"><time>2026-05-03T07:00:59Z</time></trkpt>
<trkpt lat="50.175443" lon="4.671621"><time>2026-05-03T07:10:59Z</time></trkpt>
<trkpt lat="50.175335" lon="4.671957"><time>2026-05-03T07:20:59Z</time></trkpt>
</trkseg>
</trk>
<trk>
<name>nphsri11</name>
<cmt>v</cmt>
<desc>Surice Chemin n°i11 </desc>
<link href="https://chemins.be/surice/chemin/i11"/><trkseg>
<trkpt lat="50.162614" lon="4.692116"><time>2026-05-03T05:50:59Z</time></trkpt>
<trkpt lat="50.162397" lon="4.692500"><time>2026-05-03T06:00:59Z</time></trkpt>
<trkpt lat="50.161674" lon="4.693639"><time>2026-05-03T06:10:59Z</time></trkpt>
</trkseg>
</trk>
<trk>
<name>nphsri12</name>
<cmt>r</cmt>
<desc>Surice Chemin n°i12 Rue de Mauressée</desc>
<link href="https://chemins.be/surice/chemin/i12"/><trkseg>
<trkpt lat="50.161660" lon="4.691561"><time>2026-05-03T05:50:59Z</time></trkpt>
<trkpt lat="50.161248" lon="4.693063"><time>2026-05-03T06:00:59Z</time></trkpt>
<trkpt lat="50.160940" lon="4.694205"><time>2026-05-03T06:10:59Z</time></trkpt>
<trkpt lat="50.160830" lon="4.694617"><time>2026-05-03T06:20:59Z</time></trkpt>
<trkpt lat="50.160527" lon="4.694926"><time>2026-05-03T06:30:59Z</time></trkpt>
</trkseg></trk>
<trk>
<name>nphsri12</name>
<cmt>q</cmt>
<desc>Surice Chemin n°i12 Rue de Mauressée</desc>
<link href="https://chemins.be/surice/chemin/i12"/><trkseg>
<trkpt lat="50.160527" lon="4.694926"><time>2026-05-03T06:30:59Z</time></trkpt>
<trkpt lat="50.159878" lon="4.695475"><time>2026-05-03T06:40:59Z</time></trkpt>
<trkpt lat="50.159648" lon="4.695664"><time>2026-05-03T06:50:59Z</time></trkpt>
<trkpt lat="50.159587" lon="4.696127"><time>2026-05-03T07:00:59Z</time></trkpt>
</trkseg>
</trk>
<trk>
<name>nphsri13</name>
<cmt>v</cmt>
<desc>Surice Chemin n°i13 </desc>
<link href="https://chemins.be/surice/chemin/i13"/><trkseg>
<trkpt lat="50.184434" lon="4.672196"><time>2026-05-03T05:50:59Z</time></trkpt>
<trkpt lat="50.184308" lon="4.671213"><time>2026-05-03T06:00:59Z</time></trkpt>
<trkpt lat="50.182419" lon="4.671489"><time>2026-05-03T06:10:59Z</time></trkpt>
<trkpt lat="50.181970" lon="4.668986"><time>2026-05-03T06:20:59Z</time></trkpt>
<trkpt lat="50.181940" lon="4.667993"><time>2026-05-03T06:30:59Z</time></trkpt>
<trkpt lat="50.181871" lon="4.665804"><time>2026-05-03T06:40:59Z</time></trkpt>
<trkpt lat="50.181097" lon="4.664324"><time>2026-05-03T06:50:59Z</time></trkpt>
<trkpt lat="50.180776" lon="4.663244"><time>2026-05-03T07:00:59Z</time></trkpt>
</trkseg>
</trk>
<trk>
<name>nphsri2</name>
<cmt>s</cmt>
<desc>Surice Sentier n°i2 </desc>
<link href="https://chemins.be/surice/sentier/i2"/><trkseg>
<trkpt lat="50.175326" lon="4.697884"><time>2026-05-03T05:50:59Z</time></trkpt>
<trkpt lat="50.176654" lon="4.695639"><time>2026-05-03T06:00:59Z</time></trkpt>
</trkseg>
</trk>
<trk>
<name>nphsri3</name>
<cmt>s</cmt>
<desc>Surice Chemin n°i3 Sentier de la Ruelle Masson au Pont de Pierre</desc>
<link href="https://chemins.be/surice/chemin/i3"/><trkseg>
<trkpt lat="50.171297" lon="4.701551"><time>2026-05-03T05:50:59Z</time></trkpt>
<trkpt lat="50.168681" lon="4.704613"><time>2026-05-03T06:00:59Z</time></trkpt>
<trkpt lat="50.166785" lon="4.707217"><time>2026-05-03T06:10:59Z</time></trkpt>
<trkpt lat="50.165028" lon="4.711585"><time>2026-05-03T06:20:59Z</time></trkpt>
</trkseg>
</trk>
<trk>
<name>nphsri4</name>
<cmt>q</cmt>
<desc>Surice Chemin n°i4 </desc>
<link href="https://chemins.be/surice/chemin/i4"/><trkseg>
<trkpt lat="50.178462" lon="4.669092"><time>2026-05-03T05:50:59Z</time></trkpt>
<trkpt lat="50.178542" lon="4.669401"><time>2026-05-03T06:00:59Z</time></trkpt>
<trkpt lat="50.178360" lon="4.670352"><time>2026-05-03T06:10:59Z</time></trkpt>
<trkpt lat="50.177755" lon="4.671034"><time>2026-05-03T06:20:59Z</time></trkpt>
<trkpt lat="50.177180" lon="4.670974"><time>2026-05-03T06:30:59Z</time></trkpt>
<trkpt lat="50.176519" lon="4.669486"><time>2026-05-03T06:40:59Z</time></trkpt>
<trkpt lat="50.176259" lon="4.668966"><time>2026-05-03T06:50:59Z</time></trkpt>
<trkpt lat="50.175533" lon="4.668290"><time>2026-05-03T07:00:59Z</time></trkpt>
<trkpt lat="50.175201" lon="4.668022"><time>2026-05-03T07:10:59Z</time></trkpt>
<trkpt lat="50.174742" lon="4.668355"><time>2026-05-03T07:20:59Z</time></trkpt>
<trkpt lat="50.174183" lon="4.668743"><time>2026-05-03T07:30:59Z</time></trkpt>
<trkpt lat="50.173508" lon="4.669019"><time>2026-05-03T07:40:59Z</time></trkpt>
</trkseg>
</trk>
<trk>
<name>nphsri5</name>
<cmt>v</cmt>
<desc>Surice Chemin n°i5 </desc>
<link href="https://chemins.be/surice/chemin/i5"/><trkseg>
<trkpt lat="50.178135" lon="4.663490"><time>2026-05-03T05:50:59Z</time></trkpt>
<trkpt lat="50.178369" lon="4.663380"><time>2026-05-03T06:00:59Z</time></trkpt>
<trkpt lat="50.179016" lon="4.663496"><time>2026-05-03T06:10:59Z</time></trkpt>
<trkpt lat="50.181399" lon="4.663146"><time>2026-05-03T06:20:59Z</time></trkpt>
</trkseg>
</trk>
<trk>
<name>nphsri6</name>
<cmt>v</cmt>
<desc>Surice Chemin n°i6 </desc>
<link href="https://chemins.be/surice/chemin/i6"/><trkseg>
<trkpt lat="50.169336" lon="4.682739"><time>2026-05-03T05:50:59Z</time></trkpt>
<trkpt lat="50.168996" lon="4.682022"><time>2026-05-03T06:00:59Z</time></trkpt>
</trkseg>
</trk>
<trk>
<name>nphsri7</name>
<cmt>v</cmt>
<desc>Surice Sentier n°i7 Rue de Jolimont</desc>
<link href="https://chemins.be/surice/sentier/i7"/><trkseg>
<trkpt lat="50.171948" lon="4.690491"><time>2026-05-03T05:50:59Z</time></trkpt>
<trkpt lat="50.172051" lon="4.690138"><time>2026-05-03T06:00:59Z</time></trkpt>
<trkpt lat="50.172257" lon="4.689620"><time>2026-05-03T06:10:59Z</time></trkpt>
<trkpt lat="50.172329" lon="4.689548"><time>2026-05-03T06:20:59Z</time></trkpt>
<trkpt lat="50.172693" lon="4.687870"><time>2026-05-03T06:30:59Z</time></trkpt>
<trkpt lat="50.172804" lon="4.686961"><time>2026-05-03T06:40:59Z</time></trkpt>
<trkpt lat="50.173119" lon="4.686641"><time>2026-05-03T06:50:59Z</time></trkpt>
<trkpt lat="50.173432" lon="4.684138"><time>2026-05-03T07:00:59Z</time></trkpt>
<trkpt lat="50.173935" lon="4.684183"><time>2026-05-03T07:10:59Z</time></trkpt>
</trkseg>
</trk>
<trk>
<name>nphsri8</name>
<cmt>v</cmt>
<desc>Surice Sentier n°i8 </desc>
<link href="https://chemins.be/surice/sentier/i8"/><trkseg>
<trkpt lat="50.170554" lon="4.694309"><time>2026-05-03T05:50:59Z</time></trkpt>
<trkpt lat="50.170212" lon="4.694251"><time>2026-05-03T06:00:59Z</time></trkpt>
<trkpt lat="50.170136" lon="4.695636"><time>2026-05-03T06:10:59Z</time></trkpt>
</trkseg>
</trk>
<trk>
<name>nphsri9</name>
<cmt>v</cmt>
<desc>Surice Sentier n°i9 </desc>
<link href="https://chemins.be/surice/sentier/i9"/><trkseg>
<trkpt lat="50.175240" lon="4.673818"><time>2026-05-03T05:50:59Z</time></trkpt>
<trkpt lat="50.175421" lon="4.673133"><time>2026-05-03T06:00:59Z</time></trkpt>
<trkpt lat="50.175290" lon="4.671942"><time>2026-05-03T06:10:59Z</time></trkpt>
<trkpt lat="50.174682" lon="4.670524"><time>2026-05-03T06:20:59Z</time></trkpt>
<trkpt lat="50.174100" lon="4.669807"><time>2026-05-03T06:30:59Z</time></trkpt>
<trkpt lat="50.173946" lon="4.669876"><time>2026-05-03T06:40:59Z</time></trkpt>
<trkpt lat="50.173399" lon="4.669606"><time>2026-05-03T06:50:59Z</time></trkpt>
</trkseg>
</trk>
<trk>
<name>nphsrL138A</name>
<cmt>v</cmt>
<desc>Surice Chemin n°L138A Tronçon de la ligne L138A à Surice / Ligne 138A</desc>
<link href="https://chemins.be/surice/chemin/L138A"/><trkseg>
<trkpt lat="50.172020" lon="4.660247"><time>2026-05-03T05:50:59Z</time></trkpt>
<trkpt lat="50.171299" lon="4.665358"><time>2026-05-03T06:00:59Z</time></trkpt>
<trkpt lat="50.169282" lon="4.676229"><time>2026-05-03T06:10:59Z</time></trkpt>
<trkpt lat="50.168743" lon="4.679235"><time>2026-05-03T06:20:59Z</time></trkpt>
<trkpt lat="50.167978" lon="4.682772"><time>2026-05-03T06:30:59Z</time></trkpt>
<trkpt lat="50.166738" lon="4.685871"><time>2026-05-03T06:40:59Z</time></trkpt>
<trkpt lat="50.166196" lon="4.686819"><time>2026-05-03T06:50:59Z</time></trkpt>
<trkpt lat="50.164372" lon="4.689802"><time>2026-05-03T07:00:59Z</time></trkpt>
<trkpt lat="50.162847" lon="4.692227"><time>2026-05-03T07:10:59Z</time></trkpt>
</trkseg></trk>
<trk>
<name>nphsrL138A</name>
<cmt>b</cmt>
<desc>Surice Chemin n°L138A Tronçon de la ligne L138A à Surice / Ligne 138A</desc>
<link href="https://chemins.be/surice/chemin/L138A"/><trkseg>
<trkpt lat="50.162847" lon="4.692227"><time>2026-05-03T07:10:59Z</time></trkpt>
<trkpt lat="50.162105" lon="4.693468"><time>2026-05-03T07:20:59Z</time></trkpt>
<trkpt lat="50.161610" lon="4.693674"><time>2026-05-03T07:30:59Z</time></trkpt>
<trkpt lat="50.160896" lon="4.694831"><time>2026-05-03T07:40:59Z</time></trkpt>
</trkseg></trk>
<trk>
<name>nphsrL138A</name>
<cmt>v</cmt>
<desc>Surice Chemin n°L138A Tronçon de la ligne L138A à Surice / Ligne 138A</desc>
<link href="https://chemins.be/surice/chemin/L138A"/><trkseg>
<trkpt lat="50.160896" lon="4.694831"><time>2026-05-03T07:40:59Z</time></trkpt>
<trkpt lat="50.160696" lon="4.695809"><time>2026-05-03T07:50:59Z</time></trkpt>
<trkpt lat="50.159467" lon="4.697816"><time>2026-05-03T08:00:59Z</time></trkpt>
<trkpt lat="50.156288" lon="4.703000"><time>2026-05-03T08:10:59Z</time></trkpt>
<trkpt lat="50.154806" lon="4.705508"><time>2026-05-03T08:20:59Z</time></trkpt>
<trkpt lat="50.150731" lon="4.712126"><time>2026-05-03T08:30:59Z</time></trkpt>
</trkseg>
</trk>
<trk>
<name>nphsrLi6</name>
<cmt>q</cmt>
<desc>Surice Chemin n°Li6 </desc>
<link href="https://chemins.be/surice/chemin/Li6"/><trkseg>
<trkpt lat="50.160808" lon="4.695381"><time>2026-05-03T05:50:59Z</time></trkpt>
<trkpt lat="50.160208" lon="4.696059"><time>2026-05-03T06:00:59Z</time></trkpt>
<trkpt lat="50.159593" lon="4.696187"><time>2026-05-03T06:10:59Z</time></trkpt>
<trkpt lat="50.158245" lon="4.696634"><time>2026-05-03T06:20:59Z</time></trkpt>
<trkpt lat="50.157393" lon="4.696393"><time>2026-05-03T06:30:59Z</time></trkpt>
<trkpt lat="50.156304" lon="4.695853"><time>2026-05-03T06:40:59Z</time></trkpt>
<trkpt lat="50.155507" lon="4.694874"><time>2026-05-03T06:50:59Z</time></trkpt>
<trkpt lat="50.154209" lon="4.692394"><time>2026-05-03T07:00:59Z</time></trkpt>
<trkpt lat="50.153006" lon="4.690793"><time>2026-05-03T07:10:59Z</time></trkpt>
<trkpt lat="50.152049" lon="4.689986"><time>2026-05-03T07:20:59Z</time></trkpt>
<trkpt lat="50.146806" lon="4.688325"><time>2026-05-03T07:30:59Z</time></trkpt>
</trkseg>
</trk>
<trk>
<name>nphst10</name>
<cmt>r</cmt>
<desc>Sautour Chemin n°10 Rue de la Pisselotte</desc>
<link href="https://chemins.be/sautour/chemin/10"/><trkseg>
<trkpt lat="50.167524" lon="4.567656"><time>2026-05-03T05:50:59Z</time></trkpt>
<trkpt lat="50.167998" lon="4.569113"><time>2026-05-03T06:00:59Z</time></trkpt>
<trkpt lat="50.168275" lon="4.570304"><time>2026-05-03T06:10:59Z</time></trkpt>
</trkseg></trk>
<trk>
<name>nphst10</name>
<cmt>v</cmt>
<desc>Sautour Chemin n°10 Rue de la Pisselotte</desc>
<link href="https://chemins.be/sautour/chemin/10"/><trkseg>
<trkpt lat="50.168275" lon="4.570304"><time>2026-05-03T06:10:59Z</time></trkpt>
<trkpt lat="50.168766" lon="4.572308"><time>2026-05-03T06:20:59Z</time></trkpt>
<trkpt lat="50.169400" lon="4.574508"><time>2026-05-03T06:30:59Z</time></trkpt>
<trkpt lat="50.169849" lon="4.575070"><time>2026-05-03T06:40:59Z</time></trkpt>
<trkpt lat="50.170505" lon="4.575045"><time>2026-05-03T06:50:59Z</time></trkpt>
<trkpt lat="50.170909" lon="4.575481"><time>2026-05-03T07:00:59Z</time></trkpt>
<trkpt lat="50.171581" lon="4.576870"><time>2026-05-03T07:10:59Z</time></trkpt>
<trkpt lat="50.171840" lon="4.577431"><time>2026-05-03T07:20:59Z</time></trkpt>
<trkpt lat="50.173044" lon="4.577744"><time>2026-05-03T07:30:59Z</time></trkpt>
<trkpt lat="50.173720" lon="4.577243"><time>2026-05-03T07:40:59Z</time></trkpt>
<trkpt lat="50.174745" lon="4.577065"><time>2026-05-03T07:50:59Z</time></trkpt>
</trkseg>
</trk>
<trk>
<name>nphst11</name>
<cmt>v</cmt>
<desc>Sautour Chemin n°11 </desc>
<link href="https://chemins.be/sautour/chemin/11"/><trkseg>
<trkpt lat="50.173750" lon="4.570201"><time>2026-05-03T05:50:59Z</time></trkpt>
<trkpt lat="50.173309" lon="4.570536"><time>2026-05-03T06:00:59Z</time></trkpt>
<trkpt lat="50.172688" lon="4.571009"><time>2026-05-03T06:10:59Z</time></trkpt>
<trkpt lat="50.172291" lon="4.571567"><time>2026-05-03T06:20:59Z</time></trkpt>
<trkpt lat="50.172110" lon="4.572406"><time>2026-05-03T06:30:59Z</time></trkpt>
<trkpt lat="50.172001" lon="4.572980"><time>2026-05-03T06:40:59Z</time></trkpt>
<trkpt lat="50.171964" lon="4.573372"><time>2026-05-03T06:50:59Z</time></trkpt>
</trkseg></trk>
<trk>
<name>nphst11</name>
<cmt>d</cmt>
<desc>Sautour Chemin n°11 </desc>
<link href="https://chemins.be/sautour/chemin/11"/><trkseg>
<trkpt lat="50.171964" lon="4.573372"><time>2026-05-03T06:50:59Z</time></trkpt>
<trkpt lat="50.172089" lon="4.574324"><time>2026-05-03T07:00:59Z</time></trkpt>
<trkpt lat="50.172257" lon="4.575459"><time>2026-05-03T07:10:59Z</time></trkpt>
<trkpt lat="50.172086" lon="4.575836"><time>2026-05-03T07:20:59Z</time></trkpt>
</trkseg></trk>
<trk>
<name>nphst11</name>
<cmt>v</cmt>
<desc>Sautour Chemin n°11 </desc>
<link href="https://chemins.be/sautour/chemin/11"/><trkseg>
<trkpt lat="50.172086" lon="4.575836"><time>2026-05-03T07:20:59Z</time></trkpt>
<trkpt lat="50.171898" lon="4.575938"><time>2026-05-03T07:30:59Z</time></trkpt>
<trkpt lat="50.171646" lon="4.575887"><time>2026-05-03T07:40:59Z</time></trkpt>
<trkpt lat="50.171469" lon="4.576201"><time>2026-05-03T07:50:59Z</time></trkpt>
<trkpt lat="50.170934" lon="4.575590"><time>2026-05-03T08:00:59Z</time></trkpt>
</trkseg>
</trk>
<trk>
<name>nphst12</name>
<cmt>v</cmt>
<desc>Sautour Chemin n°12 </desc>
<link href="https://chemins.be/sautour/chemin/12"/><trkseg>
<trkpt lat="50.173366" lon="4.563620"><time>2026-05-03T05:50:59Z</time></trkpt>
<trkpt lat="50.173258" lon="4.563746"><time>2026-05-03T06:00:59Z</time></trkpt>
<trkpt lat="50.173292" lon="4.564810"><time>2026-05-03T06:10:59Z</time></trkpt>
<trkpt lat="50.173261" lon="4.566966"><time>2026-05-03T06:20:59Z</time></trkpt>
<trkpt lat="50.173777" lon="4.570216"><time>2026-05-03T06:30:59Z</time></trkpt>
<trkpt lat="50.173767" lon="4.571042"><time>2026-05-03T06:40:59Z</time></trkpt>
<trkpt lat="50.174157" lon="4.573927"><time>2026-05-03T06:50:59Z</time></trkpt>
<trkpt lat="50.173840" lon="4.575102"><time>2026-05-03T07:00:59Z</time></trkpt>
<trkpt lat="50.174576" lon="4.576127"><time>2026-05-03T07:10:59Z</time></trkpt>
<trkpt lat="50.174700" lon="4.576953"><time>2026-05-03T07:20:59Z</time></trkpt>
<trkpt lat="50.174771" lon="4.577541"><time>2026-05-03T07:30:59Z</time></trkpt>
<trkpt lat="50.175146" lon="4.579041"><time>2026-05-03T07:40:59Z</time></trkpt>
<trkpt lat="50.175620" lon="4.580149"><time>2026-05-03T07:50:59Z</time></trkpt>
<trkpt lat="50.176874" lon="4.582745"><time>2026-05-03T08:00:59Z</time></trkpt>
<trkpt lat="50.177759" lon="4.585409"><time>2026-05-03T08:10:59Z</time></trkpt>
<trkpt lat="50.177964" lon="4.586390"><time>2026-05-03T08:20:59Z</time></trkpt>
</trkseg>
</trk>
<trk>
<name>nphst13</name>
<cmt>v</cmt>
<desc>Sautour Chemin n°13 Rue Pisselotte / ?</desc>
<link href="https://chemins.be/sautour/chemin/13"/><trkseg>
<trkpt lat="50.167162" lon="4.574289"><time>2026-05-03T05:50:59Z</time></trkpt>
<trkpt lat="50.167817" lon="4.574823"><time>2026-05-03T06:00:59Z</time></trkpt>
<trkpt lat="50.169758" lon="4.575224"><time>2026-05-03T06:10:59Z</time></trkpt>
<trkpt lat="50.171093" lon="4.578029"><time>2026-05-03T06:20:59Z</time></trkpt>
<trkpt lat="50.171756" lon="4.579012"><time>2026-05-03T06:30:59Z</time></trkpt>
<trkpt lat="50.172644" lon="4.580570"><time>2026-05-03T06:40:59Z</time></trkpt>
<trkpt lat="50.172822" lon="4.581131"><time>2026-05-03T06:50:59Z</time></trkpt>
<trkpt lat="50.172956" lon="4.581649"><time>2026-05-03T07:00:59Z</time></trkpt>
<trkpt lat="50.173485" lon="4.582645"><time>2026-05-03T07:10:59Z</time></trkpt>
<trkpt lat="50.174542" lon="4.584876"><time>2026-05-03T07:20:59Z</time></trkpt>
<trkpt lat="50.174908" lon="4.586278"><time>2026-05-03T07:30:59Z</time></trkpt>
<trkpt lat="50.175023" lon="4.587006"><time>2026-05-03T07:40:59Z</time></trkpt>
</trkseg>
</trk>
<trk>
<name>nphst14</name>
<cmt>d</cmt>
<desc>Sautour Chemin n°14 </desc>
<link href="https://chemins.be/sautour/chemin/14"/><trkseg>
<trkpt lat="50.173831" lon="4.575101"><time>2026-05-03T05:50:59Z</time></trkpt>
<trkpt lat="50.173775" lon="4.576613"><time>2026-05-03T06:00:59Z</time></trkpt>
<trkpt lat="50.173612" lon="4.577186"><time>2026-05-03T06:10:59Z</time></trkpt>
<trkpt lat="50.173392" lon="4.579145"><time>2026-05-03T06:20:59Z</time></trkpt>
<trkpt lat="50.173579" lon="4.580448"><time>2026-05-03T06:30:59Z</time></trkpt>
</trkseg></trk>
<trk>
<name>nphst14</name>
<cmt>v</cmt>
<desc>Sautour Chemin n°14 </desc>
<link href="https://chemins.be/sautour/chemin/14"/><trkseg>
<trkpt lat="50.173579" lon="4.580448"><time>2026-05-03T06:30:59Z</time></trkpt>
<trkpt lat="50.173846" lon="4.581835"><time>2026-05-03T06:40:59Z</time></trkpt>
<trkpt lat="50.173494" lon="4.582617"><time>2026-05-03T06:50:59Z</time></trkpt>
<trkpt lat="50.173115" lon="4.583372"><time>2026-05-03T07:00:59Z</time></trkpt>
<trkpt lat="50.171969" lon="4.585508"><time>2026-05-03T07:10:59Z</time></trkpt>
<trkpt lat="50.170941" lon="4.587085"><time>2026-05-03T07:20:59Z</time></trkpt>
<trkpt lat="50.170544" lon="4.587769"><time>2026-05-03T07:30:59Z</time></trkpt>
</trkseg>
</trk>
<trk>
<name>nphst15</name>
<cmt>v</cmt>
<desc>Sautour Chemin n°15 </desc>
<link href="https://chemins.be/sautour/chemin/15"/><trkseg>
<trkpt lat="50.165513" lon="4.586109"><time>2026-05-03T05:50:59Z</time></trkpt>
<trkpt lat="50.165314" lon="4.586542"><time>2026-05-03T06:00:59Z</time></trkpt>
<trkpt lat="50.165330" lon="4.587564"><time>2026-05-03T06:10:59Z</time></trkpt>
<trkpt lat="50.165310" lon="4.588543"><time>2026-05-03T06:20:59Z</time></trkpt>
</trkseg>
</trk>
<trk>
<name>nphst16</name>
<cmt>d</cmt>
<desc>Sautour Chemin n°16 </desc>
<link href="https://chemins.be/sautour/chemin/16"/><trkseg>
<trkpt lat="50.163921" lon="4.576402"><time>2026-05-03T05:50:59Z</time></trkpt>
<trkpt lat="50.163345" lon="4.577169"><time>2026-05-03T06:00:59Z</time></trkpt>
<trkpt lat="50.163226" lon="4.578135"><time>2026-05-03T06:10:59Z</time></trkpt>
</trkseg></trk>
<trk>
<name>nphst16</name>
<cmt>v</cmt>
<desc>Sautour Chemin n°16 </desc>
<link href="https://chemins.be/sautour/chemin/16"/><trkseg>
<trkpt lat="50.163226" lon="4.578135"><time>2026-05-03T06:10:59Z</time></trkpt>
<trkpt lat="50.163080" lon="4.579282"><time>2026-05-03T06:20:59Z</time></trkpt>
<trkpt lat="50.162728" lon="4.580134"><time>2026-05-03T06:30:59Z</time></trkpt>
<trkpt lat="50.161593" lon="4.581066"><time>2026-05-03T06:40:59Z</time></trkpt>
<trkpt lat="50.161051" lon="4.582659"><time>2026-05-03T06:50:59Z</time></trkpt>
<trkpt lat="50.161059" lon="4.583037"><time>2026-05-03T07:00:59Z</time></trkpt>
<trkpt lat="50.160626" lon="4.584127"><time>2026-05-03T07:10:59Z</time></trkpt>
<trkpt lat="50.160463" lon="4.584714"><time>2026-05-03T07:20:59Z</time></trkpt>
</trkseg>
</trk>
<trk>
<name>nphst17</name>
<cmt>v</cmt>
<desc>Sautour Chemin n°17 </desc>
<link href="https://chemins.be/sautour/chemin/17"/><trkseg>
<trkpt lat="50.164922" lon="4.558953"><time>2026-05-03T05:50:59Z</time></trkpt>
<trkpt lat="50.164437" lon="4.559203"><time>2026-05-03T06:00:59Z</time></trkpt>
<trkpt lat="50.162708" lon="4.560918"><time>2026-05-03T06:10:59Z</time></trkpt>
<trkpt lat="50.162257" lon="4.561420"><time>2026-05-03T06:20:59Z</time></trkpt>
<trkpt lat="50.161618" lon="4.561669"><time>2026-05-03T06:30:59Z</time></trkpt>
<trkpt lat="50.161393" lon="4.562200"><time>2026-05-03T06:40:59Z</time></trkpt>
<trkpt lat="50.160466" lon="4.562518"><time>2026-05-03T06:50:59Z</time></trkpt>
<trkpt lat="50.160035" lon="4.562474"><time>2026-05-03T07:00:59Z</time></trkpt>
<trkpt lat="50.159324" lon="4.562569"><time>2026-05-03T07:10:59Z</time></trkpt>
<trkpt lat="50.158847" lon="4.562987"><time>2026-05-03T07:20:59Z</time></trkpt>
</trkseg>
</trk>
<trk>
<name>nphst18</name>
<cmt>v</cmt>
<desc>Sautour Chemin n°18 </desc>
<link href="https://chemins.be/sautour/chemin/18"/><trkseg>
<trkpt lat="50.165249" lon="4.562635"><time>2026-05-03T05:50:59Z</time></trkpt>
<trkpt lat="50.164855" lon="4.561710"><time>2026-05-03T06:00:59Z</time></trkpt>
<trkpt lat="50.164865" lon="4.561066"><time>2026-05-03T06:10:59Z</time></trkpt>
<trkpt lat="50.164616" lon="4.559134"><time>2026-05-03T06:20:59Z</time></trkpt>
</trkseg>
</trk>
<trk>
<name>nphst19</name>
<cmt>r</cmt>
<desc>Sautour Chemin n°19 Rue des Trys</desc>
<link href="https://chemins.be/sautour/chemin/19"/><trkseg>
<trkpt lat="50.166620" lon="4.560052"><time>2026-05-03T05:50:59Z</time></trkpt>
<trkpt lat="50.165267" lon="4.562691"><time>2026-05-03T06:00:59Z</time></trkpt>
</trkseg></trk>
<trk>
<name>nphst19</name>
<cmt>v</cmt>
<desc>Sautour Chemin n°19 Rue des Trys</desc>
<link href="https://chemins.be/sautour/chemin/19"/><trkseg>
<trkpt lat="50.165267" lon="4.562691"><time>2026-05-03T06:00:59Z</time></trkpt>
<trkpt lat="50.164094" lon="4.565234"><time>2026-05-03T06:10:59Z</time></trkpt>
<trkpt lat="50.163084" lon="4.567119"><time>2026-05-03T06:20:59Z</time></trkpt>
<trkpt lat="50.162662" lon="4.567965"><time>2026-05-03T06:30:59Z</time></trkpt>
<trkpt lat="50.160613" lon="4.570068"><time>2026-05-03T06:40:59Z</time></trkpt>
</trkseg>
</trk>
<trk>
<name>nphst2</name>
<cmt>r</cmt>
<desc>Sautour Chemin n°2 Le Faubourg</desc>
<link href="https://chemins.be/sautour/chemin/2"/><trkseg>
<trkpt lat="50.173770" lon="4.558260"><time>2026-05-03T05:50:59Z</time></trkpt>
<trkpt lat="50.173267" lon="4.557922"><time>2026-05-03T06:00:59Z</time></trkpt>
<trkpt lat="50.172549" lon="4.557682"><time>2026-05-03T06:10:59Z</time></trkpt>
<trkpt lat="50.172207" lon="4.557820"><time>2026-05-03T06:20:59Z</time></trkpt>
</trkseg>
</trk>
<trk>
<name>nphst20</name>
<cmt>r</cmt>
<desc>Sautour Chemin n°20 Rue du Postienne / Postienne</desc>
<link href="https://chemins.be/sautour/chemin/20"/><trkseg>
<trkpt lat="50.168653" lon="4.560612"><time>2026-05-03T05:50:59Z</time></trkpt>
<trkpt lat="50.168719" lon="4.560285"><time>2026-05-03T06:00:59Z</time></trkpt>
<trkpt lat="50.168903" lon="4.560074"><time>2026-05-03T06:10:59Z</time></trkpt>
</trkseg></trk>
<trk>
<name>nphst20</name>
<cmt>v</cmt>
<desc>Sautour Chemin n°20 Rue du Postienne / Postienne</desc>
<link href="https://chemins.be/sautour/chemin/20"/><trkseg>
<trkpt lat="50.168903" lon="4.560074"><time>2026-05-03T06:10:59Z</time></trkpt>
<trkpt lat="50.169209" lon="4.560132"><time>2026-05-03T06:20:59Z</time></trkpt>
<trkpt lat="50.169461" lon="4.559811"><time>2026-05-03T06:30:59Z</time></trkpt>
</trkseg>
</trk>
<trk>
<name>nphst21</name>
<cmt>d</cmt>
<desc>Sautour Chemin n°21 </desc>
<link href="https://chemins.be/sautour/chemin/21"/><trkseg>
<trkpt lat="50.173064" lon="4.561057"><time>2026-05-03T05:50:59Z</time></trkpt>
<trkpt lat="50.173695" lon="4.560584"><time>2026-05-03T06:00:59Z</time></trkpt>
</trkseg>
</trk>
<trk>
<name>nphst22</name>
<cmt>r</cmt>
<desc>Sautour Chemin n°22 Rue du Prouvet / ?</desc>
<link href="https://chemins.be/sautour/chemin/22"/><trkseg>
<trkpt lat="50.172983" lon="4.561603"><time>2026-05-03T05:50:59Z</time></trkpt>
<trkpt lat="50.173029" lon="4.560987"><time>2026-05-03T06:00:59Z</time></trkpt>
<trkpt lat="50.172931" lon="4.560483"><time>2026-05-03T06:10:59Z</time></trkpt>
<trkpt lat="50.172689" lon="4.559782"><time>2026-05-03T06:20:59Z</time></trkpt>
</trkseg></trk>
<trk>
<name>nphst22</name>
<cmt>v</cmt>
<desc>Sautour Chemin n°22 Rue du Prouvet / ?</desc>
<link href="https://chemins.be/sautour/chemin/22"/><trkseg>
<trkpt lat="50.172689" lon="4.559782"><time>2026-05-03T06:20:59Z</time></trkpt>
<trkpt lat="50.172114" lon="4.559570"><time>2026-05-03T06:30:59Z</time></trkpt>
<trkpt lat="50.172265" lon="4.559062"><time>2026-05-03T06:40:59Z</time></trkpt>
<trkpt lat="50.172235" lon="4.558797"><time>2026-05-03T06:50:59Z</time></trkpt>
<trkpt lat="50.172229" lon="4.558681"><time>2026-05-03T07:00:59Z</time></trkpt>
<trkpt lat="50.172267" lon="4.558661"><time>2026-05-03T07:10:59Z</time></trkpt>
<trkpt lat="50.172455" lon="4.558315"><time>2026-05-03T07:20:59Z</time></trkpt>
<trkpt lat="50.172487" lon="4.558027"><time>2026-05-03T07:30:59Z</time></trkpt>
<trkpt lat="50.172196" lon="4.558000"><time>2026-05-03T07:40:59Z</time></trkpt>
</trkseg>
</trk>
<trk>
<name>nphst27</name>
<cmt>v</cmt>
<desc>Sautour Chemin n°27 </desc>
<link href="https://chemins.be/sautour/chemin/27"/><trkseg>
<trkpt lat="50.168173" lon="4.559446"><time>2026-05-03T05:50:59Z</time></trkpt>
<trkpt lat="50.168551" lon="4.559443"><time>2026-05-03T06:00:59Z</time></trkpt>
<trkpt lat="50.168641" lon="4.559142"><time>2026-05-03T06:10:59Z</time></trkpt>
</trkseg>
</trk>
<trk>
<name>nphst29</name>
<cmt>v</cmt>
<desc>Sautour Chemin n°29 </desc>
<link href="https://chemins.be/sautour/chemin/29"/><trkseg>
<trkpt lat="50.166497" lon="4.573894"><time>2026-05-03T05:50:59Z</time></trkpt>
<trkpt lat="50.166893" lon="4.573812"><time>2026-05-03T06:00:59Z</time></trkpt>
<trkpt lat="50.167135" lon="4.574219"><time>2026-05-03T06:10:59Z</time></trkpt>
</trkseg></trk>
<trk>
<name>nphst29</name>
<cmt>d</cmt>
<desc>Sautour Chemin n°29 </desc>
<link href="https://chemins.be/sautour/chemin/29"/><trkseg>
<trkpt lat="50.167135" lon="4.574219"><time>2026-05-03T06:10:59Z</time></trkpt>
<trkpt lat="50.168856" lon="4.572238"><time>2026-05-03T06:20:59Z</time></trkpt>
</trkseg>
</trk>
<trk>
<name>nphst2bis</name>
<cmt>v</cmt>
<desc>Sautour Chemin n°2bis </desc>
<link href="https://chemins.be/sautour/chemin/2bis"/><trkseg>
<trkpt lat="50.173285" lon="4.563298"><time>2026-05-03T05:50:59Z</time></trkpt>
<trkpt lat="50.173555" lon="4.563285"><time>2026-05-03T06:00:59Z</time></trkpt>
</trkseg>
</trk>
<trk>
<name>nphst31</name>
<cmt>v</cmt>
<desc>Sautour Chemin n°31 </desc>
<link href="https://chemins.be/sautour/chemin/31"/><trkseg>
<trkpt lat="50.162992" lon="4.567400"><time>2026-05-03T05:50:59Z</time></trkpt>
<trkpt lat="50.163703" lon="4.567766"><time>2026-05-03T06:00:59Z</time></trkpt>
</trkseg>
</trk>
<trk>
<name>nphst32</name>
<cmt>d</cmt>
<desc>Sautour Sentier n°32 Sentier du Faubourg à la Haie des Loups</desc>
<link href="https://chemins.be/sautour/sentier/32"/><trkseg>
<trkpt lat="50.172839" lon="4.561756"><time>2026-05-03T05:50:59Z</time></trkpt>
<trkpt lat="50.172505" lon="4.562091"><time>2026-05-03T06:00:59Z</time></trkpt>
</trkseg></trk>
<trk>
<name>nphst32</name>
<cmt>v</cmt>
<desc>Sautour Sentier n°32 Sentier du Faubourg à la Haie des Loups</desc>
<link href="https://chemins.be/sautour/sentier/32"/><trkseg>
<trkpt lat="50.172505" lon="4.562091"><time>2026-05-03T06:00:59Z</time></trkpt>
<trkpt lat="50.172001" lon="4.562537"><time>2026-05-03T06:10:59Z</time></trkpt>
<trkpt lat="50.171523" lon="4.563291"><time>2026-05-03T06:20:59Z</time></trkpt>
<trkpt lat="50.170902" lon="4.564128"><time>2026-05-03T06:30:59Z</time></trkpt>
<trkpt lat="50.170497" lon="4.564295"><time>2026-05-03T06:40:59Z</time></trkpt>
<trkpt lat="50.169966" lon="4.564530"><time>2026-05-03T06:50:59Z</time></trkpt>
<trkpt lat="50.170037" lon="4.565007"><time>2026-05-03T07:00:59Z</time></trkpt>
<trkpt lat="50.169397" lon="4.565900"><time>2026-05-03T07:10:59Z</time></trkpt>
<trkpt lat="50.168792" lon="4.567451"><time>2026-05-03T07:20:59Z</time></trkpt>
</trkseg></trk>
<trk>
<name>nphst32</name>
<cmt>b</cmt>
<desc>Sautour Sentier n°32 Sentier du Faubourg à la Haie des Loups</desc>
<link href="https://chemins.be/sautour/sentier/32"/><trkseg>
<trkpt lat="50.168792" lon="4.567451"><time>2026-05-03T07:20:59Z</time></trkpt>
<trkpt lat="50.168304" lon="4.568681"><time>2026-05-03T07:30:59Z</time></trkpt>
<trkpt lat="50.167925" lon="4.569000"><time>2026-05-03T07:40:59Z</time></trkpt>
<trkpt lat="50.167944" lon="4.569099"><time>2026-05-03T07:50:59Z</time></trkpt>
<trkpt lat="50.167467" lon="4.569475"><time>2026-05-03T08:00:59Z</time></trkpt>
<trkpt lat="50.167152" lon="4.569712"><time>2026-05-03T08:10:59Z</time></trkpt>
</trkseg>
</trk>
<trk>
<name>nphst33</name>
<cmt>q</cmt>
<desc>Sautour Sentier n°33 </desc>
<link href="https://chemins.be/sautour/sentier/33"/><trkseg>
<trkpt lat="50.168352" lon="4.561878"><time>2026-05-03T05:50:59Z</time></trkpt>
<trkpt lat="50.168604" lon="4.561935"><time>2026-05-03T06:00:59Z</time></trkpt>
<trkpt lat="50.169105" lon="4.563029"><time>2026-05-03T06:10:59Z</time></trkpt>
<trkpt lat="50.169375" lon="4.563268"><time>2026-05-03T06:20:59Z</time></trkpt>
<trkpt lat="50.169797" lon="4.563578"><time>2026-05-03T06:30:59Z</time></trkpt>
<trkpt lat="50.170524" lon="4.564295"><time>2026-05-03T06:40:59Z</time></trkpt>
</trkseg></trk>
<trk>
<name>nphst33</name>
<cmt>s</cmt>
<desc>Sautour Sentier n°33 </desc>
<link href="https://chemins.be/sautour/sentier/33"/><trkseg>
<trkpt lat="50.170524" lon="4.564295"><time>2026-05-03T06:40:59Z</time></trkpt>
<trkpt lat="50.171053" lon="4.564689"><time>2026-05-03T06:50:59Z</time></trkpt>
<trkpt lat="50.171806" lon="4.566288"><time>2026-05-03T07:00:59Z</time></trkpt>
<trkpt lat="50.173252" lon="4.567022"><time>2026-05-03T07:10:59Z</time></trkpt>
</trkseg>
</trk>
<trk>
<name>nphst34</name>
<cmt>v</cmt>
<desc>Sautour Sentier n°34 </desc>
<link href="https://chemins.be/sautour/sentier/34"/><trkseg>
<trkpt lat="50.168435" lon="4.557686"><time>2026-05-03T05:50:59Z</time></trkpt>
<trkpt lat="50.168623" lon="4.559055"><time>2026-05-03T06:00:59Z</time></trkpt>
<trkpt lat="50.168871" lon="4.559808"><time>2026-05-03T06:10:59Z</time></trkpt>
<trkpt lat="50.168906" lon="4.560054"><time>2026-05-03T06:20:59Z</time></trkpt>
<trkpt lat="50.169002" lon="4.560159"><time>2026-05-03T06:30:59Z</time></trkpt>
</trkseg>
</trk>
<trk>
<name>nphst35</name>
<cmt>b</cmt>
<desc>Sautour Sentier n°35 </desc>
<link href="https://chemins.be/sautour/sentier/35"/><trkseg>
<trkpt lat="50.172743" lon="4.559684"><time>2026-05-03T05:50:59Z</time></trkpt>
<trkpt lat="50.173355" lon="4.559589"><time>2026-05-03T06:00:59Z</time></trkpt>
<trkpt lat="50.173705" lon="4.559548"><time>2026-05-03T06:10:59Z</time></trkpt>
</trkseg>
</trk>
<trk>
<name>nphst36</name>
<cmt>v</cmt>
<desc>Sautour Sentier n°36 </desc>
<link href="https://chemins.be/sautour/sentier/36"/><trkseg>
<trkpt lat="50.173065" lon="4.561001"><time>2026-05-03T05:50:59Z</time></trkpt>
<trkpt lat="50.173705" lon="4.559590"><time>2026-05-03T06:00:59Z</time></trkpt>
</trkseg>
</trk>
<trk>
<name>nphst37</name>
<cmt>s</cmt>
<desc>Sautour Sentier n°37 </desc>
<link href="https://chemins.be/sautour/sentier/37"/><trkseg>
<trkpt lat="50.162374" lon="4.561462"><time>2026-05-03T05:50:59Z</time></trkpt>
<trkpt lat="50.162931" lon="4.561478"><time>2026-05-03T06:00:59Z</time></trkpt>
<trkpt lat="50.164165" lon="4.560280"><time>2026-05-03T06:10:59Z</time></trkpt>
<trkpt lat="50.164759" lon="4.560212"><time>2026-05-03T06:20:59Z</time></trkpt>
<trkpt lat="50.166350" lon="4.560050"><time>2026-05-03T06:30:59Z</time></trkpt>
</trkseg>
</trk>
<trk>
<name>nphst38</name>
<cmt>d</cmt>
<desc>Sautour Sentier n°38 </desc>
<link href="https://chemins.be/sautour/sentier/38"/><trkseg>
<trkpt lat="50.180142" lon="4.585056"><time>2026-05-03T05:50:59Z</time></trkpt>
<trkpt lat="50.179276" lon="4.586704"><time>2026-05-03T06:00:59Z</time></trkpt>
<trkpt lat="50.178347" lon="4.588505"><time>2026-05-03T06:10:59Z</time></trkpt>
<trkpt lat="50.177334" lon="4.591609"><time>2026-05-03T06:20:59Z</time></trkpt>
<trkpt lat="50.176674" lon="4.593510"><time>2026-05-03T06:30:59Z</time></trkpt>
<trkpt lat="50.176537" lon="4.594699"><time>2026-05-03T06:40:59Z</time></trkpt>
<trkpt lat="50.176391" lon="4.595426"><time>2026-05-03T06:50:59Z</time></trkpt>
<trkpt lat="50.176155" lon="4.596559"><time>2026-05-03T07:00:59Z</time></trkpt>
<trkpt lat="50.175984" lon="4.596852"><time>2026-05-03T07:10:59Z</time></trkpt>
<trkpt lat="50.175857" lon="4.597524"><time>2026-05-03T07:20:59Z</time></trkpt>
<trkpt lat="50.175650" lon="4.597817"><time>2026-05-03T07:30:59Z</time></trkpt>
</trkseg>
</trk>
<trk>
<name>nphst39</name>
<cmt>d</cmt>
<desc>Sautour Sentier n°39 </desc>
<link href="https://chemins.be/sautour/sentier/39"/><trkseg>
<trkpt lat="50.175558" lon="4.579995"><time>2026-05-03T05:50:59Z</time></trkpt>
<trkpt lat="50.177381" lon="4.581151"><time>2026-05-03T06:00:59Z</time></trkpt>
<trkpt lat="50.179420" lon="4.582112"><time>2026-05-03T06:10:59Z</time></trkpt>
</trkseg>
</trk>
<trk>
<name>nphst4</name>
<cmt>r</cmt>
<desc>Sautour Chemin n°4 Rue des Trys</desc>
<link href="https://chemins.be/sautour/chemin/4"/><trkseg>
<trkpt lat="50.165678" lon="4.558788"><time>2026-05-03T05:50:59Z</time></trkpt>
<trkpt lat="50.164842" lon="4.558883"><time>2026-05-03T06:00:59Z</time></trkpt>
<trkpt lat="50.162738" lon="4.559056"><time>2026-05-03T06:10:59Z</time></trkpt>
</trkseg></trk>
<trk>
<name>nphst4</name>
<cmt>v</cmt>
<desc>Sautour Chemin n°4 Rue des Trys</desc>
<link href="https://chemins.be/sautour/chemin/4"/><trkseg>
<trkpt lat="50.162738" lon="4.559056"><time>2026-05-03T06:10:59Z</time></trkpt>
<trkpt lat="50.160437" lon="4.558179"><time>2026-05-03T06:20:59Z</time></trkpt>
<trkpt lat="50.158662" lon="4.555513"><time>2026-05-03T06:30:59Z</time></trkpt>
<trkpt lat="50.157345" lon="4.552485"><time>2026-05-03T06:40:59Z</time></trkpt>
<trkpt lat="50.156907" lon="4.550636"><time>2026-05-03T06:50:59Z</time></trkpt>
<trkpt lat="50.155920" lon="4.549527"><time>2026-05-03T07:00:59Z</time></trkpt>
<trkpt lat="50.155499" lon="4.548448"><time>2026-05-03T07:10:59Z</time></trkpt>
<trkpt lat="50.154620" lon="4.547409"><time>2026-05-03T07:20:59Z</time></trkpt>
<trkpt lat="50.152937" lon="4.542323"><time>2026-05-03T07:30:59Z</time></trkpt>
</trkseg>
</trk>
<trk>
<name>nphst40</name>
<cmt>v</cmt>
<desc>Sautour Sentier n°40 </desc>
<link href="https://chemins.be/sautour/sentier/40"/><trkseg>
<trkpt lat="50.169444" lon="4.559685"><time>2026-05-03T05:50:59Z</time></trkpt>
<trkpt lat="50.169400" lon="4.559013"><time>2026-05-03T06:00:59Z</time></trkpt>
<trkpt lat="50.169482" lon="4.558089"><time>2026-05-03T06:10:59Z</time></trkpt>
</trkseg>
</trk>
<trk>
<name>nphst41</name>
<cmt>v</cmt>
<desc>Sautour Sentier n°41 </desc>
<link href="https://chemins.be/sautour/sentier/41"/><trkseg>
<trkpt lat="50.172132" lon="4.559612"><time>2026-05-03T05:50:59Z</time></trkpt>
<trkpt lat="50.171719" lon="4.559358"><time>2026-05-03T06:00:59Z</time></trkpt>
<trkpt lat="50.171539" lon="4.559273"><time>2026-05-03T06:10:59Z</time></trkpt>
<trkpt lat="50.171503" lon="4.559413"><time>2026-05-03T06:20:59Z</time></trkpt>
<trkpt lat="50.171539" lon="4.559567"><time>2026-05-03T06:30:59Z</time></trkpt>
<trkpt lat="50.171484" lon="4.559735"><time>2026-05-03T06:40:59Z</time></trkpt>
</trkseg>
</trk>
<trk>
<name>nphst42</name>
<cmt>d</cmt>
<desc>Sautour Sentier n°42 </desc>
<link href="https://chemins.be/sautour/sentier/42"/><trkseg>
<trkpt lat="50.172220" lon="4.560606"><time>2026-05-03T05:50:59Z</time></trkpt>
<trkpt lat="50.172157" lon="4.560914"><time>2026-05-03T06:00:59Z</time></trkpt>
<trkpt lat="50.171752" lon="4.560954"><time>2026-05-03T06:10:59Z</time></trkpt>
</trkseg>
</trk>
<trk>
<name>nphst6</name>
<cmt>r</cmt>
<desc>Sautour Chemin n°6 Le Faubourg / Rue de la Pisselotte / Ferme du Moulin</desc>
<link href="https://chemins.be/sautour/chemin/6"/><trkseg>
<trkpt lat="50.168444" lon="4.560899"><time>2026-05-03T05:50:59Z</time></trkpt>
<trkpt lat="50.168443" lon="4.561361"><time>2026-05-03T06:00:59Z</time></trkpt>
<trkpt lat="50.168054" lon="4.562563"><time>2026-05-03T06:10:59Z</time></trkpt>
<trkpt lat="50.167809" lon="4.564102"><time>2026-05-03T06:20:59Z</time></trkpt>
</trkseg></trk>
<trk>
<name>nphst6</name>
<cmt>v</cmt>
<desc>Sautour Chemin n°6 Le Faubourg / Rue de la Pisselotte / Ferme du Moulin</desc>
<link href="https://chemins.be/sautour/chemin/6"/><trkseg>
<trkpt lat="50.167809" lon="4.564102"><time>2026-05-03T06:20:59Z</time></trkpt>
<trkpt lat="50.167726" lon="4.564983"><time>2026-05-03T06:30:59Z</time></trkpt>
</trkseg></trk>
<trk>
<name>nphst6</name>
<cmt>r</cmt>
<desc>Sautour Chemin n°6 Le Faubourg / Rue de la Pisselotte / Ferme du Moulin</desc>
<link href="https://chemins.be/sautour/chemin/6"/><trkseg>
<trkpt lat="50.167726" lon="4.564983"><time>2026-05-03T06:30:59Z</time></trkpt>
<trkpt lat="50.167461" lon="4.567669"><time>2026-05-03T06:40:59Z</time></trkpt>
<trkpt lat="50.167253" lon="4.568634"><time>2026-05-03T06:50:59Z</time></trkpt>
</trkseg></trk>
<trk>
<name>nphst6</name>
<cmt>b</cmt>
<desc>Sautour Chemin n°6 Le Faubourg / Rue de la Pisselotte / Ferme du Moulin</desc>
<link href="https://chemins.be/sautour/chemin/6"/><trkseg>
<trkpt lat="50.167253" lon="4.568634"><time>2026-05-03T06:50:59Z</time></trkpt>
<trkpt lat="50.167152" lon="4.569698"><time>2026-05-03T07:00:59Z</time></trkpt>
</trkseg>
</trk>
<trk>
<name>nphst7</name>
<cmt>v</cmt>
<desc>Sautour Chemin n°7 </desc>
<link href="https://chemins.be/sautour/chemin/7"/><trkseg>
<trkpt lat="50.180551" lon="4.587970"><time>2026-05-03T05:50:59Z</time></trkpt>
<trkpt lat="50.179770" lon="4.586888"><time>2026-05-03T06:00:59Z</time></trkpt>
<trkpt lat="50.177982" lon="4.586474"><time>2026-05-03T06:10:59Z</time></trkpt>
<trkpt lat="50.176202" lon="4.586648"><time>2026-05-03T06:20:59Z</time></trkpt>
</trkseg></trk>
<trk>
<name>nphst7</name>
<cmt>d</cmt>
<desc>Sautour Chemin n°7 </desc>
<link href="https://chemins.be/sautour/chemin/7"/><trkseg>
<trkpt lat="50.176202" lon="4.586648"><time>2026-05-03T06:20:59Z</time></trkpt>
<trkpt lat="50.175068" lon="4.587132"><time>2026-05-03T06:30:59Z</time></trkpt>
</trkseg></trk>
<trk>
<name>nphst7</name>
<cmt>v</cmt>
<desc>Sautour Chemin n°7 </desc>
<link href="https://chemins.be/sautour/chemin/7"/><trkseg>
<trkpt lat="50.175068" lon="4.587132"><time>2026-05-03T06:30:59Z</time></trkpt>
<trkpt lat="50.173898" lon="4.587449"><time>2026-05-03T06:40:59Z</time></trkpt>
</trkseg>
</trk>
<trk>
<name>nphst8</name>
<cmt>r</cmt>
<desc>Sautour Chemin n°8 Chemin du Vieux Sautour / Rue des Grillons</desc>
<link href="https://chemins.be/sautour/chemin/8"/><trkseg>
<trkpt lat="50.166407" lon="4.574020"><time>2026-05-03T05:50:59Z</time></trkpt>
<trkpt lat="50.166092" lon="4.574242"><time>2026-05-03T06:00:59Z</time></trkpt>
<trkpt lat="50.165480" lon="4.574323"><time>2026-05-03T06:10:59Z</time></trkpt>
<trkpt lat="50.164434" lon="4.576292"><time>2026-05-03T06:20:59Z</time></trkpt>
<trkpt lat="50.164011" lon="4.576291"><time>2026-05-03T06:30:59Z</time></trkpt>
<trkpt lat="50.163158" lon="4.575797"><time>2026-05-03T06:40:59Z</time></trkpt>
<trkpt lat="50.160508" lon="4.574708"><time>2026-05-03T06:50:59Z</time></trkpt>
<trkpt lat="50.160284" lon="4.574329"><time>2026-05-03T07:00:59Z</time></trkpt>
<trkpt lat="50.160005" lon="4.574328"><time>2026-05-03T07:10:59Z</time></trkpt>
<trkpt lat="50.159240" lon="4.574660"><time>2026-05-03T07:20:59Z</time></trkpt>
<trkpt lat="50.157686" lon="4.574290"><time>2026-05-03T07:30:59Z</time></trkpt>
<trkpt lat="50.157058" lon="4.573517"><time>2026-05-03T07:40:59Z</time></trkpt>
<trkpt lat="50.156429" lon="4.573291"><time>2026-05-03T07:50:59Z</time></trkpt>
<trkpt lat="50.155780" lon="4.573834"><time>2026-05-03T08:00:59Z</time></trkpt>
<trkpt lat="50.154512" lon="4.575057"><time>2026-05-03T08:10:59Z</time></trkpt>
</trkseg></trk>
<trk>
<name>nphst8</name>
<cmt>d</cmt>
<desc>Sautour Chemin n°8 Chemin du Vieux Sautour / Rue des Grillons</desc>
<link href="https://chemins.be/sautour/chemin/8"/><trkseg>
<trkpt lat="50.154512" lon="4.575057"><time>2026-05-03T08:10:59Z</time></trkpt>
<trkpt lat="50.153574" lon="4.576161"><time>2026-05-03T08:20:59Z</time></trkpt>
<trkpt lat="50.152278" lon="4.577375"><time>2026-05-03T08:30:59Z</time></trkpt>
<trkpt lat="50.151765" lon="4.577421"><time>2026-05-03T08:40:59Z</time></trkpt>
<trkpt lat="50.150899" lon="4.577686"><time>2026-05-03T08:50:59Z</time></trkpt>
<trkpt lat="50.150555" lon="4.577976"><time>2026-05-03T09:00:59Z</time></trkpt>
<trkpt lat="50.150125" lon="4.579000"><time>2026-05-03T09:10:59Z</time></trkpt>
</trkseg>
</trk>
<trk>
<name>nphst9</name>
<cmt>v</cmt>
<desc>Sautour Chemin n°9 </desc>
<link href="https://chemins.be/sautour/chemin/9"/><trkseg>
<trkpt lat="50.180520" lon="4.594494"><time>2026-05-03T05:50:59Z</time></trkpt>
<trkpt lat="50.179037" lon="4.595656"><time>2026-05-03T06:00:59Z</time></trkpt>
<trkpt lat="50.176999" lon="4.597333"><time>2026-05-03T06:10:59Z</time></trkpt>
<trkpt lat="50.176755" lon="4.597920"><time>2026-05-03T06:20:59Z</time></trkpt>
<trkpt lat="50.177072" lon="4.600751"><time>2026-05-03T06:30:59Z</time></trkpt>
</trkseg>
</trk>
<trk>
<name>nphsti1</name>
<cmt>v</cmt>
<desc>Sautour Sentier n°i1 </desc>
<link href="https://chemins.be/sautour/sentier/i1"/><trkseg>
<trkpt lat="50.161204" lon="4.562297"><time>2026-05-03T05:50:59Z</time></trkpt>
<trkpt lat="50.160654" lon="4.563316"><time>2026-05-03T06:00:59Z</time></trkpt>
<trkpt lat="50.160706" lon="4.564324"><time>2026-05-03T06:10:59Z</time></trkpt>
</trkseg>
</trk>
<trk>
<name>nphsti2</name>
<cmt>v</cmt>
<desc>Sautour Chemin n°i2 </desc>
<link href="https://chemins.be/sautour/chemin/i2"/><trkseg>
<trkpt lat="50.163194" lon="4.575923"><time>2026-05-03T05:50:59Z</time></trkpt>
<trkpt lat="50.162878" lon="4.576915"><time>2026-05-03T06:00:59Z</time></trkpt>
<trkpt lat="50.163181" lon="4.578106"><time>2026-05-03T06:10:59Z</time></trkpt>
</trkseg>
</trk>
<trk>
<name>nphsti3</name>
<cmt>v</cmt>
<desc>Sautour Sentier n°i3 </desc>
<link href="https://chemins.be/sautour/sentier/i3"/><trkseg>
<trkpt lat="50.168750" lon="4.556813"><time>2026-05-03T05:50:59Z</time></trkpt>
<trkpt lat="50.168685" lon="4.556792"><time>2026-05-03T06:00:59Z</time></trkpt>
<trkpt lat="50.168705" lon="4.556486"><time>2026-05-03T06:10:59Z</time></trkpt>
<trkpt lat="50.168645" lon="4.556338"><time>2026-05-03T06:20:59Z</time></trkpt>
</trkseg>
</trk>
<trk>
<name>nphsti4</name>
<cmt>v</cmt>
<desc>Sautour Chemin n°i4 </desc>
<link href="https://chemins.be/sautour/chemin/i4"/><trkseg>
<trkpt lat="50.160355" lon="4.574595"><time>2026-05-03T05:50:59Z</time></trkpt>
<trkpt lat="50.159547" lon="4.573156"><time>2026-05-03T06:00:59Z</time></trkpt>
<trkpt lat="50.158499" lon="4.572152"><time>2026-05-03T06:10:59Z</time></trkpt>
<trkpt lat="50.156335" lon="4.570142"><time>2026-05-03T06:20:59Z</time></trkpt>
<trkpt lat="50.156255" lon="4.569736"><time>2026-05-03T06:30:59Z</time></trkpt>
<trkpt lat="50.154901" lon="4.567897"><time>2026-05-03T06:40:59Z</time></trkpt>
<trkpt lat="50.154713" lon="4.567210"><time>2026-05-03T06:50:59Z</time></trkpt>
<trkpt lat="50.155139" lon="4.565379"><time>2026-05-03T07:00:59Z</time></trkpt>
<trkpt lat="50.154678" lon="4.561669"><time>2026-05-03T07:10:59Z</time></trkpt>
<trkpt lat="50.154626" lon="4.560577"><time>2026-05-03T07:20:59Z</time></trkpt>
<trkpt lat="50.155040" lon="4.560215"><time>2026-05-03T07:30:59Z</time></trkpt>
<trkpt lat="50.155412" lon="4.558173"><time>2026-05-03T07:40:59Z</time></trkpt>
<trkpt lat="50.154185" lon="4.555034"><time>2026-05-03T07:50:59Z</time></trkpt>
<trkpt lat="50.153377" lon="4.554093"><time>2026-05-03T08:00:59Z</time></trkpt>
<trkpt lat="50.151137" lon="4.549453"><time>2026-05-03T08:10:59Z</time></trkpt>
</trkseg>
</trk>
<trk>
<name>nphsti5</name>
<cmt>v</cmt>
<desc>Sautour Chemin n°i5 </desc>
<link href="https://chemins.be/sautour/chemin/i5"/><trkseg>
<trkpt lat="50.160586" lon="4.570096"><time>2026-05-03T05:50:59Z</time></trkpt>
<trkpt lat="50.159282" lon="4.571218"><time>2026-05-03T06:00:59Z</time></trkpt>
<trkpt lat="50.158357" lon="4.571963"><time>2026-05-03T06:10:59Z</time></trkpt>
</trkseg>
</trk>
<trk>
<name>nphsti6</name>
<cmt>d</cmt>
<desc>Sautour Chemin n°i6 </desc>
<link href="https://chemins.be/sautour/chemin/i6"/><trkseg>
<trkpt lat="50.159154" lon="4.572883"><time>2026-05-03T05:50:59Z</time></trkpt>
<trkpt lat="50.159021" lon="4.571581"><time>2026-05-03T06:00:59Z</time></trkpt>
</trkseg>
</trk>
<trk>
<name>nphsti7</name>
<cmt>v</cmt>
<desc>Sautour Chemin n°i7 </desc>
<link href="https://chemins.be/sautour/chemin/i7"/><trkseg>
<trkpt lat="50.154393" lon="4.575185"><time>2026-05-03T05:50:59Z</time></trkpt>
<trkpt lat="50.153356" lon="4.566925"><time>2026-05-03T06:00:59Z</time></trkpt>
<trkpt lat="50.151902" lon="4.559992"><time>2026-05-03T06:10:59Z</time></trkpt>
<trkpt lat="50.151681" lon="4.557641"><time>2026-05-03T06:20:59Z</time></trkpt>
<trkpt lat="50.151160" lon="4.551860"><time>2026-05-03T06:30:59Z</time></trkpt>
<trkpt lat="50.150902" lon="4.550264"><time>2026-05-03T06:40:59Z</time></trkpt>
</trkseg>
</trk>
<trk>
<name>nphsti8</name>
<cmt>v</cmt>
<desc>Sautour Chemin n°i8 </desc>
<link href="https://chemins.be/sautour/chemin/i8"/><trkseg>
<trkpt lat="50.154739" lon="4.567742"><time>2026-05-03T05:50:59Z</time></trkpt>
<trkpt lat="50.153544" lon="4.567205"><time>2026-05-03T06:00:59Z</time></trkpt>
</trkseg>
</trk>
<trk>
<name>nphvd1</name>
<cmt>v</cmt>
<desc>Vodecée Chemin n°1 </desc>
<link href="https://chemins.be/vodecee/chemin/1"/><trkseg>
<trkpt lat="50.199017" lon="4.592859"><time>2026-05-03T05:50:59Z</time></trkpt>
<trkpt lat="50.198018" lon="4.593106"><time>2026-05-03T06:00:59Z</time></trkpt>
</trkseg>
</trk>
<trk>
<name>nphvd10</name>
<cmt>v</cmt>
<desc>Vodecée Chemin n°10 Rue Ernest Lahaye / Rue de Sautour / Tienne al Gatte / Rue du Faubourg</desc>
<link href="https://chemins.be/vodecee/chemin/10"/><trkseg>
<trkpt lat="50.179320" lon="4.558410"><time>2026-05-03T05:50:59Z</time></trkpt>
<trkpt lat="50.179098" lon="4.558585"><time>2026-05-03T06:00:59Z</time></trkpt>
<trkpt lat="50.178602" lon="4.558979"><time>2026-05-03T06:10:59Z</time></trkpt>
<trkpt lat="50.178157" lon="4.559663"><time>2026-05-03T06:20:59Z</time></trkpt>
<trkpt lat="50.177967" lon="4.559689"><time>2026-05-03T06:30:59Z</time></trkpt>
<trkpt lat="50.177547" lon="4.559328"><time>2026-05-03T06:40:59Z</time></trkpt>
<trkpt lat="50.177341" lon="4.559298"><time>2026-05-03T06:50:59Z</time></trkpt>
</trkseg></trk>
<trk>
<name>nphvd10</name>
<cmt>r</cmt>
<desc>Vodecée Chemin n°10 Rue Ernest Lahaye / Rue de Sautour / Tienne al Gatte / Rue du Faubourg</desc>
<link href="https://chemins.be/vodecee/chemin/10"/><trkseg>
<trkpt lat="50.177341" lon="4.559298"><time>2026-05-03T06:50:59Z</time></trkpt>
<trkpt lat="50.176679" lon="4.559116"><time>2026-05-03T07:00:59Z</time></trkpt>
<trkpt lat="50.174325" lon="4.558462"><time>2026-05-03T07:10:59Z</time></trkpt>
<trkpt lat="50.173775" lon="4.558319"><time>2026-05-03T07:20:59Z</time></trkpt>
</trkseg>
</trk>
<trk>
<name>nphvd12</name>
<cmt>r</cmt>
<desc>Vodecée Chemin n°12 Route de Sautour</desc>
<link href="https://chemins.be/vodecee/chemin/12"/><trkseg>
<trkpt lat="50.176259" lon="4.559460"><time>2026-05-03T05:50:59Z</time></trkpt>
<trkpt lat="50.175845" lon="4.559515"><time>2026-05-03T06:00:59Z</time></trkpt>
<trkpt lat="50.175215" lon="4.560254"><time>2026-05-03T06:10:59Z</time></trkpt>
</trkseg></trk>
<trk>
<name>nphvd12</name>
<cmt>v</cmt>
<desc>Vodecée Chemin n°12 Route de Sautour</desc>
<link href="https://chemins.be/vodecee/chemin/12"/><trkseg>
<trkpt lat="50.175215" lon="4.560254"><time>2026-05-03T06:10:59Z</time></trkpt>
<trkpt lat="50.174783" lon="4.560238"><time>2026-05-03T06:20:59Z</time></trkpt>
<trkpt lat="50.174469" lon="4.560041"><time>2026-05-03T06:30:59Z</time></trkpt>
<trkpt lat="50.173758" lon="4.560528"><time>2026-05-03T06:40:59Z</time></trkpt>
</trkseg>
</trk>
<trk>
<name>nphvd13</name>
<cmt>r</cmt>
<desc>Vodecée Chemin n°13 Point-du-jour / Rue du Tisserand / Rue du Village</desc>
<link href="https://chemins.be/vodecee/chemin/13"/><trkseg>
<trkpt lat="50.194726" lon="4.594183"><time>2026-05-03T05:50:59Z</time></trkpt>
<trkpt lat="50.194963" lon="4.592518"><time>2026-05-03T06:00:59Z</time></trkpt>
</trkseg></trk>
<trk>
<name>nphvd13</name>
<cmt>v</cmt>
<desc>Vodecée Chemin n°13 Point-du-jour / Rue du Tisserand / Rue du Village</desc>
<link href="https://chemins.be/vodecee/chemin/13"/><trkseg>
<trkpt lat="50.194963" lon="4.592518"><time>2026-05-03T06:00:59Z</time></trkpt>
<trkpt lat="50.195089" lon="4.592574"><time>2026-05-03T06:10:59Z</time></trkpt>
<trkpt lat="50.195418" lon="4.589355"><time>2026-05-03T06:20:59Z</time></trkpt>
</trkseg></trk>
<trk>
<name>nphvd13</name>
<cmt>r</cmt>
<desc>Vodecée Chemin n°13 Point-du-jour / Rue du Tisserand / Rue du Village</desc>
<link href="https://chemins.be/vodecee/chemin/13"/><trkseg>
<trkpt lat="50.195418" lon="4.589355"><time>2026-05-03T06:20:59Z</time></trkpt>
<trkpt lat="50.195367" lon="4.587758"><time>2026-05-03T06:30:59Z</time></trkpt>
</trkseg></trk>
<trk>
<name>nphvd13</name>
<cmt>v</cmt>
<desc>Vodecée Chemin n°13 Point-du-jour / Rue du Tisserand / Rue du Village</desc>
<link href="https://chemins.be/vodecee/chemin/13"/><trkseg>
<trkpt lat="50.195367" lon="4.587758"><time>2026-05-03T06:30:59Z</time></trkpt>
<trkpt lat="50.195360" lon="4.587016"><time>2026-05-03T06:40:59Z</time></trkpt>
<trkpt lat="50.195514" lon="4.586428"><time>2026-05-03T06:50:59Z</time></trkpt>
<trkpt lat="50.196311" lon="4.583406"><time>2026-05-03T07:00:59Z</time></trkpt>
<trkpt lat="50.196554" lon="4.583141"><time>2026-05-03T07:10:59Z</time></trkpt>
</trkseg>
</trk>
<trk>
<name>nphvd14</name>
<cmt>r</cmt>
<desc>Vodecée Chemin n°14 Rue du Village / Rue de Merlemont</desc>
<link href="https://chemins.be/vodecee/chemin/14"/><trkseg>
<trkpt lat="50.196293" lon="4.583350"><time>2026-05-03T05:50:59Z</time></trkpt>
<trkpt lat="50.196079" lon="4.582145"><time>2026-05-03T06:00:59Z</time></trkpt>
<trkpt lat="50.196038" lon="4.580086"><time>2026-05-03T06:10:59Z</time></trkpt>
<trkpt lat="50.195733" lon="4.579109"><time>2026-05-03T06:20:59Z</time></trkpt>
<trkpt lat="50.196083" lon="4.577282"><time>2026-05-03T06:30:59Z</time></trkpt>
<trkpt lat="50.195806" lon="4.576001"><time>2026-05-03T06:40:59Z</time></trkpt>
<trkpt lat="50.195339" lon="4.575007"><time>2026-05-03T06:50:59Z</time></trkpt>
<trkpt lat="50.195069" lon="4.574296"><time>2026-05-03T07:00:59Z</time></trkpt>
</trkseg>
</trk>
<trk>
<name>nphvd15</name>
<cmt>v</cmt>
<desc>Vodecée Chemin n°15 </desc>
<link href="https://chemins.be/vodecee/chemin/15"/><trkseg>
<trkpt lat="50.210503" lon="4.565664"><time>2026-05-03T05:50:59Z</time></trkpt>
<trkpt lat="50.211202" lon="4.566830"><time>2026-05-03T06:00:59Z</time></trkpt>
<trkpt lat="50.211649" lon="4.567938"><time>2026-05-03T06:10:59Z</time></trkpt>
<trkpt lat="50.212654" lon="4.569456"><time>2026-05-03T06:20:59Z</time></trkpt>
<trkpt lat="50.214083" lon="4.569406"><time>2026-05-03T06:30:59Z</time></trkpt>
</trkseg>
</trk>
<trk>
<name>nphvd16</name>
<cmt>s</cmt>
<desc>Vodecée Chemin n°16 </desc>
<link href="https://chemins.be/vodecee/chemin/16"/><trkseg>
<trkpt lat="50.209926" lon="4.566376"><time>2026-05-03T05:50:59Z</time></trkpt>
<trkpt lat="50.210561" lon="4.568200"><time>2026-05-03T06:00:59Z</time></trkpt>
</trkseg></trk>
<trk>
<name>nphvd16</name>
<cmt>v</cmt>
<desc>Vodecée Chemin n°16 </desc>
<link href="https://chemins.be/vodecee/chemin/16"/><trkseg>
<trkpt lat="50.210561" lon="4.568200"><time>2026-05-03T06:00:59Z</time></trkpt>
<trkpt lat="50.211966" lon="4.571989"><time>2026-05-03T06:10:59Z</time></trkpt>
<trkpt lat="50.212796" lon="4.575355"><time>2026-05-03T06:20:59Z</time></trkpt>
<trkpt lat="50.214331" lon="4.581498"><time>2026-05-03T06:30:59Z</time></trkpt>
<trkpt lat="50.215171" lon="4.584514"><time>2026-05-03T06:40:59Z</time></trkpt>
</trkseg>
</trk>
<trk>
<name>nphvd17</name>
<cmt>v</cmt>
<desc>Vodecée Chemin n°17 </desc>
<link href="https://chemins.be/vodecee/chemin/17"/><trkseg>
<trkpt lat="50.206103" lon="4.592108"><time>2026-05-03T05:50:59Z</time></trkpt>
<trkpt lat="50.205579" lon="4.588898"><time>2026-05-03T06:00:59Z</time></trkpt>
<trkpt lat="50.205038" lon="4.585168"><time>2026-05-03T06:10:59Z</time></trkpt>
</trkseg></trk>
<trk>
<name>nphvd17</name>
<cmt>d</cmt>
<desc>Vodecée Chemin n°17 </desc>
<link href="https://chemins.be/vodecee/chemin/17"/><trkseg>
<trkpt lat="50.205038" lon="4.585168"><time>2026-05-03T06:10:59Z</time></trkpt>
<trkpt lat="50.204522" lon="4.581608"><time>2026-05-03T06:20:59Z</time></trkpt>
<trkpt lat="50.203887" lon="4.578456"><time>2026-05-03T06:30:59Z</time></trkpt>
</trkseg></trk>
<trk>
<name>nphvd17</name>
<cmt>v</cmt>
<desc>Vodecée Chemin n°17 </desc>
<link href="https://chemins.be/vodecee/chemin/17"/><trkseg>
<trkpt lat="50.203887" lon="4.578456"><time>2026-05-03T06:30:59Z</time></trkpt>
<trkpt lat="50.202470" lon="4.573125"><time>2026-05-03T06:40:59Z</time></trkpt>
</trkseg>
</trk>
<trk>
<name>nphvd18</name>
<cmt>r</cmt>
<desc>Vodecée Chemin n°18 Rue du Gai</desc>
<link href="https://chemins.be/vodecee/chemin/18"/><trkseg>
<trkpt lat="50.197297" lon="4.589630"><time>2026-05-03T05:50:59Z</time></trkpt>
<trkpt lat="50.199411" lon="4.589135"><time>2026-05-03T06:00:59Z</time></trkpt>
</trkseg></trk>
<trk>
<name>nphvd18</name>
<cmt>v</cmt>
<desc>Vodecée Chemin n°18 Rue du Gai</desc>
<link href="https://chemins.be/vodecee/chemin/18"/><trkseg>
<trkpt lat="50.199411" lon="4.589135"><time>2026-05-03T06:00:59Z</time></trkpt>
<trkpt lat="50.200804" lon="4.589268"><time>2026-05-03T06:10:59Z</time></trkpt>
<trkpt lat="50.203493" lon="4.588762"><time>2026-05-03T06:20:59Z</time></trkpt>
<trkpt lat="50.205704" lon="4.589038"><time>2026-05-03T06:30:59Z</time></trkpt>
<trkpt lat="50.206864" lon="4.588946"><time>2026-05-03T06:40:59Z</time></trkpt>
<trkpt lat="50.207476" lon="4.588850"><time>2026-05-03T06:50:59Z</time></trkpt>
<trkpt lat="50.209302" lon="4.588074"><time>2026-05-03T07:00:59Z</time></trkpt>
<trkpt lat="50.209788" lon="4.588217"><time>2026-05-03T07:10:59Z</time></trkpt>
<trkpt lat="50.210381" lon="4.588065"><time>2026-05-03T07:20:59Z</time></trkpt>
</trkseg></trk>
<trk>
<name>nphvd18</name>
<cmt>d</cmt>
<desc>Vodecée Chemin n°18 Rue du Gai</desc>
<link href="https://chemins.be/vodecee/chemin/18"/><trkseg>
<trkpt lat="50.210381" lon="4.588065"><time>2026-05-03T07:20:59Z</time></trkpt>
<trkpt lat="50.212370" lon="4.586827"><time>2026-05-03T07:30:59Z</time></trkpt>
</trkseg>
</trk>
<trk>
<name>nphvd19</name>
<cmt>v</cmt>
<desc>Vodecée Chemin n°19 </desc>
<link href="https://chemins.be/vodecee/chemin/19"/><trkseg>
<trkpt lat="50.199251" lon="4.592650"><time>2026-05-03T05:50:59Z</time></trkpt>
<trkpt lat="50.199802" lon="4.591364"><time>2026-05-03T06:00:59Z</time></trkpt>
<trkpt lat="50.200461" lon="4.590148"><time>2026-05-03T06:10:59Z</time></trkpt>
<trkpt lat="50.200876" lon="4.589128"><time>2026-05-03T06:20:59Z</time></trkpt>
<trkpt lat="50.200851" lon="4.588329"><time>2026-05-03T06:30:59Z</time></trkpt>
<trkpt lat="50.201257" lon="4.587155"><time>2026-05-03T06:40:59Z</time></trkpt>
<trkpt lat="50.201881" lon="4.585687"><time>2026-05-03T06:50:59Z</time></trkpt>
<trkpt lat="50.202349" lon="4.585003"><time>2026-05-03T07:00:59Z</time></trkpt>
</trkseg></trk>
<trk>
<name>nphvd19</name>
<cmt>d</cmt>
<desc>Vodecée Chemin n°19 </desc>
<link href="https://chemins.be/vodecee/chemin/19"/><trkseg>
<trkpt lat="50.202349" lon="4.585003"><time>2026-05-03T07:00:59Z</time></trkpt>
<trkpt lat="50.202712" lon="4.583253"><time>2026-05-03T07:10:59Z</time></trkpt>
<trkpt lat="50.204014" lon="4.579295"><time>2026-05-03T07:20:59Z</time></trkpt>
</trkseg>
</trk>
<trk>
<name>nphvd2</name>
<cmt>v</cmt>
<desc>Vodecée Chemin n°2 Rue du Village</desc>
<link href="https://chemins.be/vodecee/chemin/2"/><trkseg>
<trkpt lat="50.196697" lon="4.588562"><time>2026-05-03T05:50:59Z</time></trkpt>
<trkpt lat="50.196843" lon="4.587428"><time>2026-05-03T06:00:59Z</time></trkpt>
<trkpt lat="50.197690" lon="4.586326"><time>2026-05-03T06:10:59Z</time></trkpt>
<trkpt lat="50.198023" lon="4.586089"><time>2026-05-03T06:20:59Z</time></trkpt>
<trkpt lat="50.198204" lon="4.585628"><time>2026-05-03T06:30:59Z</time></trkpt>
<trkpt lat="50.200106" lon="4.582975"><time>2026-05-03T06:40:59Z</time></trkpt>
<trkpt lat="50.204106" lon="4.578175"><time>2026-05-03T06:50:59Z</time></trkpt>
<trkpt lat="50.204747" lon="4.576609"><time>2026-05-03T07:00:59Z</time></trkpt>
<trkpt lat="50.207245" lon="4.572669"><time>2026-05-03T07:10:59Z</time></trkpt>
<trkpt lat="50.210588" lon="4.568144"><time>2026-05-03T07:20:59Z</time></trkpt>
<trkpt lat="50.211202" lon="4.566858"><time>2026-05-03T07:30:59Z</time></trkpt>
</trkseg></trk>
<trk>
<name>nphvd2</name>
<cmt>d</cmt>
<desc>Vodecée Chemin n°2 Rue du Village</desc>
<link href="https://chemins.be/vodecee/chemin/2"/><trkseg>
<trkpt lat="50.211202" lon="4.566858"><time>2026-05-03T07:30:59Z</time></trkpt>
<trkpt lat="50.211311" lon="4.565892"><time>2026-05-03T07:40:59Z</time></trkpt>
<trkpt lat="50.211673" lon="4.564534"><time>2026-05-03T07:50:59Z</time></trkpt>
<trkpt lat="50.212503" lon="4.563024"><time>2026-05-03T08:00:59Z</time></trkpt>
</trkseg>
</trk>
<trk>
<name>nphvd20</name>
<cmt>v</cmt>
<desc>Vodecée Chemin n°20 </desc>
<link href="https://chemins.be/vodecee/chemin/20"/><trkseg>
<trkpt lat="50.186332" lon="4.587618"><time>2026-05-03T05:50:59Z</time></trkpt>
<trkpt lat="50.185726" lon="4.584899"><time>2026-05-03T06:00:59Z</time></trkpt>
<trkpt lat="50.185604" lon="4.582728"><time>2026-05-03T06:10:59Z</time></trkpt>
</trkseg></trk>
<trk>
<name>nphvd20</name>
<cmt>d</cmt>
<desc>Vodecée Chemin n°20 </desc>
<link href="https://chemins.be/vodecee/chemin/20"/><trkseg>
<trkpt lat="50.185604" lon="4.582728"><time>2026-05-03T06:10:59Z</time></trkpt>
<trkpt lat="50.185321" lon="4.580374"><time>2026-05-03T06:20:59Z</time></trkpt>
</trkseg></trk>
<trk>
<name>nphvd20</name>
<cmt>b</cmt>
<desc>Vodecée Chemin n°20 </desc>
<link href="https://chemins.be/vodecee/chemin/20"/><trkseg>
<trkpt lat="50.185321" lon="4.580374"><time>2026-05-03T06:20:59Z</time></trkpt>
<trkpt lat="50.184710" lon="4.578508"><time>2026-05-03T06:30:59Z</time></trkpt>
</trkseg></trk>
<trk>
<name>nphvd20</name>
<cmt>v</cmt>
<desc>Vodecée Chemin n°20 </desc>
<link href="https://chemins.be/vodecee/chemin/20"/><trkseg>
<trkpt lat="50.184710" lon="4.578508"><time>2026-05-03T06:30:59Z</time></trkpt>
<trkpt lat="50.184797" lon="4.578289"><time>2026-05-03T06:40:59Z</time></trkpt>
<trkpt lat="50.186297" lon="4.577480"><time>2026-05-03T06:50:59Z</time></trkpt>
</trkseg>
</trk>
<trk>
<name>nphvd21</name>
<cmt>r</cmt>
<desc>Vodecée Chemin n°21 Rue du Village</desc>
<link href="https://chemins.be/vodecee/chemin/21"/><trkseg>
<trkpt lat="50.197332" lon="4.589910"><time>2026-05-03T05:50:59Z</time></trkpt>
<trkpt lat="50.197119" lon="4.588872"><time>2026-05-03T06:00:59Z</time></trkpt>
<trkpt lat="50.197155" lon="4.588704"><time>2026-05-03T06:10:59Z</time></trkpt>
<trkpt lat="50.197039" lon="4.588172"><time>2026-05-03T06:20:59Z</time></trkpt>
<trkpt lat="50.196967" lon="4.588073"><time>2026-05-03T06:30:59Z</time></trkpt>
<trkpt lat="50.196797" lon="4.588003"><time>2026-05-03T06:40:59Z</time></trkpt>
</trkseg>
</trk>
<trk>
<name>nphvd22</name>
<cmt>v</cmt>
<desc>Vodecée Chemin n°22 </desc>
<link href="https://chemins.be/vodecee/chemin/22"/><trkseg>
<trkpt lat="50.197351" lon="4.589630"><time>2026-05-03T05:50:59Z</time></trkpt>
<trkpt lat="50.197443" lon="4.588706"><time>2026-05-03T06:00:59Z</time></trkpt>
<trkpt lat="50.197470" lon="4.588650"><time>2026-05-03T06:10:59Z</time></trkpt>
<trkpt lat="50.197479" lon="4.588314"><time>2026-05-03T06:20:59Z</time></trkpt>
</trkseg>
</trk>
<trk>
<name>nphvd24</name>
<cmt>s</cmt>
<desc>Vodecée Chemin n°24 </desc>
<link href="https://chemins.be/vodecee/chemin/24"/><trkseg>
<trkpt lat="50.197066" lon="4.588172"><time>2026-05-03T05:50:59Z</time></trkpt>
<trkpt lat="50.197183" lon="4.588060"><time>2026-05-03T06:00:59Z</time></trkpt>
<trkpt lat="50.197309" lon="4.588033"><time>2026-05-03T06:10:59Z</time></trkpt>
</trkseg>
</trk>
<trk>
<name>nphvd25</name>
<cmt>b</cmt>
<desc>Vodecée Sentier n°25 </desc>
<link href="https://chemins.be/vodecee/sentier/25"/><trkseg>
<trkpt lat="50.197626" lon="4.591410"><time>2026-05-03T05:50:59Z</time></trkpt>
<trkpt lat="50.197860" lon="4.591299"><time>2026-05-03T06:00:59Z</time></trkpt>
</trkseg></trk>
<trk>
<name>nphvd25</name>
<cmt>s</cmt>
<desc>Vodecée Sentier n°25 </desc>
<link href="https://chemins.be/vodecee/sentier/25"/><trkseg>
<trkpt lat="50.197860" lon="4.591299"><time>2026-05-03T06:00:59Z</time></trkpt>
<trkpt lat="50.198364" lon="4.591077"><time>2026-05-03T06:10:59Z</time></trkpt>
</trkseg>
</trk>
<trk>
<name>nphvd26</name>
<cmt>b</cmt>
<desc>Vodecée Sentier n°26 </desc>
<link href="https://chemins.be/vodecee/sentier/26"/><trkseg>
<trkpt lat="50.196798" lon="4.587386"><time>2026-05-03T05:50:59Z</time></trkpt>
<trkpt lat="50.196793" lon="4.585005"><time>2026-05-03T06:00:59Z</time></trkpt>
<trkpt lat="50.196607" lon="4.583520"><time>2026-05-03T06:10:59Z</time></trkpt>
</trkseg>
</trk>
<trk>
<name>nphvd27</name>
<cmt>d</cmt>
<desc>Vodecée Sentier n°27 </desc>
<link href="https://chemins.be/vodecee/sentier/27"/><trkseg>
<trkpt lat="50.199603" lon="4.591755"><time>2026-05-03T05:50:59Z</time></trkpt>
<trkpt lat="50.199096" lon="4.589288"><time>2026-05-03T06:00:59Z</time></trkpt>
<trkpt lat="50.199375" lon="4.589065"><time>2026-05-03T06:10:59Z</time></trkpt>
<trkpt lat="50.199861" lon="4.588535"><time>2026-05-03T06:20:59Z</time></trkpt>
<trkpt lat="50.200050" lon="4.588522"><time>2026-05-03T06:30:59Z</time></trkpt>
</trkseg>
</trk>
<trk>
<name>nphvd28</name>
<cmt>d</cmt>
<desc>Vodecée Sentier n°28 </desc>
<link href="https://chemins.be/vodecee/sentier/28"/><trkseg>
<trkpt lat="50.195931" lon="4.589049"><time>2026-05-03T05:50:59Z</time></trkpt>
<trkpt lat="50.195376" lon="4.587912"><time>2026-05-03T06:00:59Z</time></trkpt>
<trkpt lat="50.194748" lon="4.587517"><time>2026-05-03T06:10:59Z</time></trkpt>
<trkpt lat="50.194272" lon="4.586940"><time>2026-05-03T06:20:59Z</time></trkpt>
<trkpt lat="50.193267" lon="4.585801"><time>2026-05-03T06:30:59Z</time></trkpt>
<trkpt lat="50.191589" lon="4.584281"><time>2026-05-03T06:40:59Z</time></trkpt>
</trkseg>
</trk>
<trk>
<name>nphvd29</name>
<cmt>d</cmt>
<desc>Vodecée Sentier n°29 </desc>
<link href="https://chemins.be/vodecee/sentier/29"/><trkseg>
<trkpt lat="50.180179" lon="4.584888"><time>2026-05-03T05:50:59Z</time></trkpt>
<trkpt lat="50.180838" lon="4.583197"><time>2026-05-03T06:00:59Z</time></trkpt>
<trkpt lat="50.181479" lon="4.582079"><time>2026-05-03T06:10:59Z</time></trkpt>
<trkpt lat="50.182407" lon="4.580907"><time>2026-05-03T06:20:59Z</time></trkpt>
<trkpt lat="50.183218" lon="4.579637"><time>2026-05-03T06:30:59Z</time></trkpt>
</trkseg></trk>
<trk>
<name>nphvd29</name>
<cmt>b</cmt>
<desc>Vodecée Sentier n°29 </desc>
<link href="https://chemins.be/vodecee/sentier/29"/><trkseg>
<trkpt lat="50.183218" lon="4.579637"><time>2026-05-03T06:30:59Z</time></trkpt>
<trkpt lat="50.183570" lon="4.579092"><time>2026-05-03T06:40:59Z</time></trkpt>
<trkpt lat="50.184708" lon="4.578506"><time>2026-05-03T06:50:59Z</time></trkpt>
</trkseg></trk>
<trk>
<name>nphvd29</name>
<cmt>v</cmt>
<desc>Vodecée Sentier n°29 </desc>
<link href="https://chemins.be/vodecee/sentier/29"/><trkseg>
<trkpt lat="50.184708" lon="4.578506"><time>2026-05-03T06:50:59Z</time></trkpt>
<trkpt lat="50.186297" lon="4.577452"><time>2026-05-03T07:00:59Z</time></trkpt>
</trkseg></trk>
<trk>
<name>nphvd29</name>
<cmt>d</cmt>
<desc>Vodecée Sentier n°29 </desc>
<link href="https://chemins.be/vodecee/sentier/29"/><trkseg>
<trkpt lat="50.186297" lon="4.577452"><time>2026-05-03T07:00:59Z</time></trkpt>
<trkpt lat="50.187701" lon="4.576492"><time>2026-05-03T07:10:59Z</time></trkpt>
<trkpt lat="50.188565" lon="4.575205"><time>2026-05-03T07:20:59Z</time></trkpt>
<trkpt lat="50.189133" lon="4.574189"><time>2026-05-03T07:30:59Z</time></trkpt>
<trkpt lat="50.190102" lon="4.571237"><time>2026-05-03T07:40:59Z</time></trkpt>
</trkseg>
</trk>
<trk>
<name>nphvd3</name>
<cmt>v</cmt>
<desc>Vodecée Chemin n°3 </desc>
<link href="https://chemins.be/vodecee/chemin/3"/><trkseg>
<trkpt lat="50.199114" lon="4.589176"><time>2026-05-03T05:50:59Z</time></trkpt>
<trkpt lat="50.199025" lon="4.588685"><time>2026-05-03T06:00:59Z</time></trkpt>
<trkpt lat="50.198013" lon="4.586355"><time>2026-05-03T06:10:59Z</time></trkpt>
<trkpt lat="50.197681" lon="4.586340"><time>2026-05-03T06:20:59Z</time></trkpt>
<trkpt lat="50.197036" lon="4.584712"><time>2026-05-03T06:30:59Z</time></trkpt>
<trkpt lat="50.196563" lon="4.583043"><time>2026-05-03T06:40:59Z</time></trkpt>
<trkpt lat="50.196638" lon="4.581251"><time>2026-05-03T06:50:59Z</time></trkpt>
<trkpt lat="50.196662" lon="4.579979"><time>2026-05-03T07:00:59Z</time></trkpt>
<trkpt lat="50.196512" lon="4.576853"><time>2026-05-03T07:10:59Z</time></trkpt>
<trkpt lat="50.196505" lon="4.575200"><time>2026-05-03T07:20:59Z</time></trkpt>
</trkseg>
</trk>
<trk>
<name>nphvd30</name>
<cmt>d</cmt>
<desc>Vodecée Sentier n°30 </desc>
<link href="https://chemins.be/vodecee/sentier/30"/><trkseg>
<trkpt lat="50.182256" lon="4.584463"><time>2026-05-03T05:50:59Z</time></trkpt>
<trkpt lat="50.180847" lon="4.583225"><time>2026-05-03T06:00:59Z</time></trkpt>
<trkpt lat="50.179518" lon="4.582253"><time>2026-05-03T06:10:59Z</time></trkpt>
</trkseg>
</trk>
<trk>
<name>nphvd31</name>
<cmt>d</cmt>
<desc>Vodecée Sentier n°31 </desc>
<link href="https://chemins.be/vodecee/sentier/31"/><trkseg>
<trkpt lat="50.185604" lon="4.577743"><time>2026-05-03T05:50:59Z</time></trkpt>
<trkpt lat="50.183800" lon="4.576321"><time>2026-05-03T06:00:59Z</time></trkpt>
<trkpt lat="50.183647" lon="4.576054"><time>2026-05-03T06:10:59Z</time></trkpt>
<trkpt lat="50.182849" lon="4.575281"><time>2026-05-03T06:20:59Z</time></trkpt>
<trkpt lat="50.181088" lon="4.574419"><time>2026-05-03T06:30:59Z</time></trkpt>
<trkpt lat="50.180262" lon="4.573631"><time>2026-05-03T06:40:59Z</time></trkpt>
</trkseg>
</trk>
<trk>
<name>nphvd32</name>
<cmt>d</cmt>
<desc>Vodecée Sentier n°32 </desc>
<link href="https://chemins.be/vodecee/sentier/32"/><trkseg>
<trkpt lat="50.173960" lon="4.563301"><time>2026-05-03T05:50:59Z</time></trkpt>
<trkpt lat="50.175470" lon="4.563657"><time>2026-05-03T06:00:59Z</time></trkpt>
<trkpt lat="50.175893" lon="4.563309"><time>2026-05-03T06:10:59Z</time></trkpt>
<trkpt lat="50.176064" lon="4.562847"><time>2026-05-03T06:20:59Z</time></trkpt>
<trkpt lat="50.175859" lon="4.562175"><time>2026-05-03T06:30:59Z</time></trkpt>
<trkpt lat="50.175482" lon="4.561333"><time>2026-05-03T06:40:59Z</time></trkpt>
<trkpt lat="50.174980" lon="4.560743"><time>2026-05-03T06:50:59Z</time></trkpt>
<trkpt lat="50.174792" lon="4.560322"><time>2026-05-03T07:00:59Z</time></trkpt>
</trkseg>
</trk>
<trk>
<name>nphvd33</name>
<cmt>d</cmt>
<desc>Vodecée Sentier n°33 </desc>
<link href="https://chemins.be/vodecee/sentier/33"/><trkseg>
<trkpt lat="50.175577" lon="4.558576"><time>2026-05-03T05:50:59Z</time></trkpt>
<trkpt lat="50.174767" lon="4.559132"><time>2026-05-03T06:00:59Z</time></trkpt>
<trkpt lat="50.174605" lon="4.559300"><time>2026-05-03T06:10:59Z</time></trkpt>
<trkpt lat="50.173822" lon="4.559535"><time>2026-05-03T06:20:59Z</time></trkpt>
</trkseg>
</trk>
<trk>
<name>nphvd34</name>
<cmt>d</cmt>
<desc>Vodecée Sentier n°34 </desc>
<link href="https://chemins.be/vodecee/sentier/34"/><trkseg>
<trkpt lat="50.179282" lon="4.558212"><time>2026-05-03T05:50:59Z</time></trkpt>
<trkpt lat="50.179030" lon="4.558113"><time>2026-05-03T06:00:59Z</time></trkpt>
<trkpt lat="50.178281" lon="4.558210"><time>2026-05-03T06:10:59Z</time></trkpt>
<trkpt lat="50.177663" lon="4.558290"><time>2026-05-03T06:20:59Z</time></trkpt>
<trkpt lat="50.177088" lon="4.558218"><time>2026-05-03T06:30:59Z</time></trkpt>
<trkpt lat="50.176791" lon="4.558412"><time>2026-05-03T06:40:59Z</time></trkpt>
<trkpt lat="50.176134" lon="4.558788"><time>2026-05-03T06:50:59Z</time></trkpt>
</trkseg>
</trk>
<trk>
<name>nphvd35</name>
<cmt>d</cmt>
<desc>Vodecée Sentier n°35 </desc>
<link href="https://chemins.be/vodecee/sentier/35"/><trkseg>
<trkpt lat="50.179076" lon="4.557400"><time>2026-05-03T05:50:59Z</time></trkpt>
<trkpt lat="50.178689" lon="4.557678"><time>2026-05-03T06:00:59Z</time></trkpt>
<trkpt lat="50.178329" lon="4.558195"><time>2026-05-03T06:10:59Z</time></trkpt>
</trkseg>
</trk>
<trk>
<name>nphvd36</name>
<cmt>v</cmt>
<desc>Vodecée Sentier n°36 </desc>
<link href="https://chemins.be/vodecee/sentier/36"/><trkseg>
<trkpt lat="50.178271" lon="4.554708"><time>2026-05-03T05:50:59Z</time></trkpt>
<trkpt lat="50.179012" lon="4.558135"><time>2026-05-03T06:00:59Z</time></trkpt>
</trkseg></trk>
<trk>
<name>nphvd36</name>
<cmt>b</cmt>
<desc>Vodecée Sentier n°36 </desc>
<link href="https://chemins.be/vodecee/sentier/36"/><trkseg>
<trkpt lat="50.179012" lon="4.558135"><time>2026-05-03T06:00:59Z</time></trkpt>
<trkpt lat="50.179101" lon="4.558548"><time>2026-05-03T06:10:59Z</time></trkpt>
</trkseg>
</trk>
<trk>
<name>nphvd6</name>
<cmt>v</cmt>
<desc>Vodecée Chemin n°6 </desc>
<link href="https://chemins.be/vodecee/chemin/6"/><trkseg>
<trkpt lat="50.197840" lon="4.592615"><time>2026-05-03T05:50:59Z</time></trkpt>
<trkpt lat="50.197991" lon="4.593232"><time>2026-05-03T06:00:59Z</time></trkpt>
<trkpt lat="50.198787" lon="4.595225"><time>2026-05-03T06:10:59Z</time></trkpt>
</trkseg>
</trk>
<trk>
<name>nphvd8</name>
<cmt>r</cmt>
<desc>Vodecée Chemin n°8 Rue des Maquettes</desc>
<link href="https://chemins.be/vodecee/chemin/8"/><trkseg>
<trkpt lat="50.191874" lon="4.590249"><time>2026-05-03T05:50:59Z</time></trkpt>
<trkpt lat="50.189118" lon="4.588079"><time>2026-05-03T06:00:59Z</time></trkpt>
<trkpt lat="50.186278" lon="4.587618"><time>2026-05-03T06:10:59Z</time></trkpt>
<trkpt lat="50.185831" lon="4.586314"><time>2026-05-03T06:20:59Z</time></trkpt>
<trkpt lat="50.184761" lon="4.586477"><time>2026-05-03T06:30:59Z</time></trkpt>
</trkseg></trk>
<trk>
<name>nphvd8</name>
<cmt>v</cmt>
<desc>Vodecée Chemin n°8 Rue des Maquettes</desc>
<link href="https://chemins.be/vodecee/chemin/8"/><trkseg>
<trkpt lat="50.184761" lon="4.586477"><time>2026-05-03T06:30:59Z</time></trkpt>
<trkpt lat="50.182943" lon="4.582492"><time>2026-05-03T06:40:59Z</time></trkpt>
<trkpt lat="50.182362" lon="4.580935"><time>2026-05-03T06:50:59Z</time></trkpt>
<trkpt lat="50.181906" lon="4.579253"><time>2026-05-03T07:00:59Z</time></trkpt>
<trkpt lat="50.181702" lon="4.577782"><time>2026-05-03T07:10:59Z</time></trkpt>
<trkpt lat="50.181282" lon="4.576282"><time>2026-05-03T07:20:59Z</time></trkpt>
<trkpt lat="50.180727" lon="4.575229"><time>2026-05-03T07:30:59Z</time></trkpt>
<trkpt lat="50.180217" lon="4.573659"><time>2026-05-03T07:40:59Z</time></trkpt>
<trkpt lat="50.179689" lon="4.572705"><time>2026-05-03T07:50:59Z</time></trkpt>
<trkpt lat="50.178192" lon="4.569618"><time>2026-05-03T08:00:59Z</time></trkpt>
<trkpt lat="50.177519" lon="4.568929"><time>2026-05-03T08:10:59Z</time></trkpt>
<trkpt lat="50.176128" lon="4.567706"><time>2026-05-03T08:20:59Z</time></trkpt>
<trkpt lat="50.173915" lon="4.563301"><time>2026-05-03T08:30:59Z</time></trkpt>
<trkpt lat="50.173582" lon="4.563271"><time>2026-05-03T08:40:59Z</time></trkpt>
</trkseg>
</trk>
<trk>
<name>nphvd9</name>
<cmt>r</cmt>
<desc>Vodecée Chemin n°9 Rue du Grand-Fond / Rue Ernest Lahaye</desc>
<link href="https://chemins.be/vodecee/chemin/9"/><trkseg>
<trkpt lat="50.193629" lon="4.589486"><time>2026-05-03T05:50:59Z</time></trkpt>
<trkpt lat="50.193523" lon="4.588282"><time>2026-05-03T06:00:59Z</time></trkpt>
<trkpt lat="50.192961" lon="4.586374"><time>2026-05-03T06:10:59Z</time></trkpt>
<trkpt lat="50.191562" lon="4.584281"><time>2026-05-03T06:20:59Z</time></trkpt>
<trkpt lat="50.189265" lon="4.582044"><time>2026-05-03T06:30:59Z</time></trkpt>
<trkpt lat="50.188388" lon="4.579450"><time>2026-05-03T06:40:59Z</time></trkpt>
<trkpt lat="50.187033" lon="4.578435"><time>2026-05-03T06:50:59Z</time></trkpt>
<trkpt lat="50.186144" lon="4.577437"><time>2026-05-03T07:00:59Z</time></trkpt>
</trkseg></trk>
<trk>
<name>nphvd9</name>
<cmt>v</cmt>
<desc>Vodecée Chemin n°9 Rue du Grand-Fond / Rue Ernest Lahaye</desc>
<link href="https://chemins.be/vodecee/chemin/9"/><trkseg>
<trkpt lat="50.186144" lon="4.577437"><time>2026-05-03T07:00:59Z</time></trkpt>
<trkpt lat="50.184602" lon="4.572408"><time>2026-05-03T07:10:59Z</time></trkpt>
<trkpt lat="50.183844" lon="4.571490"><time>2026-05-03T07:20:59Z</time></trkpt>
<trkpt lat="50.181813" lon="4.565811"><time>2026-05-03T07:30:59Z</time></trkpt>
<trkpt lat="50.181554" lon="4.564970"><time>2026-05-03T07:40:59Z</time></trkpt>
<trkpt lat="50.181133" lon="4.563988"><time>2026-05-03T07:50:59Z</time></trkpt>
<trkpt lat="50.180775" lon="4.563301"><time>2026-05-03T08:00:59Z</time></trkpt>
<trkpt lat="50.180219" lon="4.562094"><time>2026-05-03T08:10:59Z</time></trkpt>
<trkpt lat="50.179879" lon="4.561281"><time>2026-05-03T08:20:59Z</time></trkpt>
<trkpt lat="50.179155" lon="4.558702"><time>2026-05-03T08:30:59Z</time></trkpt>
</trkseg>
</trk>
<trk>
<name>nphvdi1</name>
<cmt>v</cmt>
<desc>Vodecée Chemin n°i1 </desc>
<link href="https://chemins.be/vodecee/chemin/i1"/><trkseg>
<trkpt lat="50.174433" lon="4.560041"><time>2026-05-03T05:50:59Z</time></trkpt>
<trkpt lat="50.173831" lon="4.559661"><time>2026-05-03T06:00:59Z</time></trkpt>
</trkseg>
</trk>
<trk>
<name>nphvdi2</name>
<cmt>v</cmt>
<desc>Vodecée Chemin n°i2 </desc>
<link href="https://chemins.be/vodecee/chemin/i2"/><trkseg>
<trkpt lat="50.197554" lon="4.591437"><time>2026-05-03T05:50:59Z</time></trkpt>
<trkpt lat="50.197383" lon="4.591507"><time>2026-05-03T06:00:59Z</time></trkpt>
</trkseg>
</trk>
<trk>
<name>nphvdi3</name>
<cmt>v</cmt>
<desc>Vodecée Chemin n°i3 </desc>
<link href="https://chemins.be/vodecee/chemin/i3"/><trkseg>
<trkpt lat="50.197182" lon="4.588719"><time>2026-05-03T05:50:59Z</time></trkpt>
<trkpt lat="50.197443" lon="4.588678"><time>2026-05-03T06:00:59Z</time></trkpt>
</trkseg>
</trk>
<trk>
<name>nphvdi4</name>
<cmt>v</cmt>
<desc>Vodecée Sentier n°i4 </desc>
<link href="https://chemins.be/vodecee/sentier/i4"/><trkseg>
<trkpt lat="50.186880" lon="4.578393"><time>2026-05-03T05:50:59Z</time></trkpt>
<trkpt lat="50.186484" lon="4.578643"><time>2026-05-03T06:00:59Z</time></trkpt>
<trkpt lat="50.186423" lon="4.582298"><time>2026-05-03T06:10:59Z</time></trkpt>
<trkpt lat="50.186866" lon="4.586066"><time>2026-05-03T06:20:59Z</time></trkpt>
<trkpt lat="50.186945" lon="4.587033"><time>2026-05-03T06:30:59Z</time></trkpt>
<trkpt lat="50.187078" lon="4.587804"><time>2026-05-03T06:40:59Z</time></trkpt>
</trkseg>
</trk>
<trk>
<name>nphvdi5</name>
<cmt>v</cmt>
<desc>Vodecée Chemin n°i5 </desc>
<link href="https://chemins.be/vodecee/chemin/i5"/><trkseg>
<trkpt lat="50.184652" lon="4.572124"><time>2026-05-03T05:50:59Z</time></trkpt>
<trkpt lat="50.183396" lon="4.565846"><time>2026-05-03T06:00:59Z</time></trkpt>
</trkseg>
</trk>
<trk>
<name>nphvdi6</name>
<cmt>b</cmt>
<desc>Vodecée Chemin n°i6 </desc>
<link href="https://chemins.be/vodecee/chemin/i6"/><trkseg>
<trkpt lat="50.184563" lon="4.572426"><time>2026-05-03T05:50:59Z</time></trkpt>
<trkpt lat="50.183966" lon="4.573188"><time>2026-05-03T06:00:59Z</time></trkpt>
<trkpt lat="50.183608" lon="4.573971"><time>2026-05-03T06:10:59Z</time></trkpt>
<trkpt lat="50.182124" lon="4.573023"><time>2026-05-03T06:20:59Z</time></trkpt>
<trkpt lat="50.181488" lon="4.572012"><time>2026-05-03T06:30:59Z</time></trkpt>
<trkpt lat="50.181202" lon="4.571115"><time>2026-05-03T06:40:59Z</time></trkpt>
<trkpt lat="50.180486" lon="4.569012"><time>2026-05-03T06:50:59Z</time></trkpt>
<trkpt lat="50.180095" lon="4.568167"><time>2026-05-03T07:00:59Z</time></trkpt>
<trkpt lat="50.179034" lon="4.566472"><time>2026-05-03T07:10:59Z</time></trkpt>
<trkpt lat="50.178059" lon="4.563304"><time>2026-05-03T07:20:59Z</time></trkpt>
<trkpt lat="50.177380" lon="4.561271"><time>2026-05-03T07:30:59Z</time></trkpt>
<trkpt lat="50.176951" lon="4.559757"><time>2026-05-03T07:40:59Z</time></trkpt>
<trkpt lat="50.176673" lon="4.559210"><time>2026-05-03T07:50:59Z</time></trkpt>
</trkseg>
</trk>
<trk>
<name>nphvdi7</name>
<cmt>q</cmt>
<desc>Vodecée Chemin n°i7 Rue Tisserand</desc>
<link href="https://chemins.be/vodecee/chemin/i7"/><trkseg>
<trkpt lat="50.194681" lon="4.584758"><time>2026-05-03T05:50:59Z</time></trkpt>
<trkpt lat="50.195451" lon="4.586456"><time>2026-05-03T06:00:59Z</time></trkpt>
</trkseg>
</trk>
<trk>
<name>nphvdi8</name>
<cmt>v</cmt>
<desc>Vodecée Chemin n°i8 </desc>
<link href="https://chemins.be/vodecee/chemin/i8"/><trkseg>
<trkpt lat="50.178104" lon="4.574355"><time>2026-05-03T05:50:59Z</time></trkpt>
<trkpt lat="50.179674" lon="4.572708"><time>2026-05-03T06:00:59Z</time></trkpt>
</trkseg>
</trk>
<trk>
<name>nphvf1</name>
<cmt>v</cmt>
<desc>Villers-en-Fagne Chemin n°1 </desc>
<link href="https://chemins.be/villersenfagne/chemin/1"/><trkseg>
<trkpt lat="50.144116" lon="4.575770"><time>2026-05-03T05:50:59Z</time></trkpt>
<trkpt lat="50.145021" lon="4.577453"><time>2026-05-03T06:00:59Z</time></trkpt>
<trkpt lat="50.145960" lon="4.580451"><time>2026-05-03T06:10:59Z</time></trkpt>
</trkseg>
</trk>
<trk>
<name>nphvf10</name>
<cmt>v</cmt>
<desc>Villers-en-Fagne Chemin n°10 </desc>
<link href="https://chemins.be/villersenfagne/chemin/10"/><trkseg>
<trkpt lat="50.146832" lon="4.585086"><time>2026-05-03T05:50:59Z</time></trkpt>
<trkpt lat="50.146472" lon="4.585154"><time>2026-05-03T06:00:59Z</time></trkpt>
<trkpt lat="50.146532" lon="4.586987"><time>2026-05-03T06:10:59Z</time></trkpt>
<trkpt lat="50.146081" lon="4.587853"><time>2026-05-03T06:20:59Z</time></trkpt>
<trkpt lat="50.145136" lon="4.588072"><time>2026-05-03T06:30:59Z</time></trkpt>
<trkpt lat="50.144110" lon="4.588627"><time>2026-05-03T06:40:59Z</time></trkpt>
<trkpt lat="50.141504" lon="4.592574"><time>2026-05-03T06:50:59Z</time></trkpt>
<trkpt lat="50.141484" lon="4.593679"><time>2026-05-03T07:00:59Z</time></trkpt>
<trkpt lat="50.140807" lon="4.595047"><time>2026-05-03T07:10:59Z</time></trkpt>
<trkpt lat="50.138781" lon="4.596870"><time>2026-05-03T07:20:59Z</time></trkpt>
<trkpt lat="50.137109" lon="4.601268"><time>2026-05-03T07:30:59Z</time></trkpt>
</trkseg>
</trk>
<trk>
<name>nphvf11</name>
<cmt>r</cmt>
<desc>Villers-en-Fagne Chemin n°11 Rue du Centre</desc>
<link href="https://chemins.be/villersenfagne/chemin/11"/><trkseg>
<trkpt lat="50.146448" lon="4.583839"><time>2026-05-03T05:50:59Z</time></trkpt>
<trkpt lat="50.146446" lon="4.585126"><time>2026-05-03T06:00:59Z</time></trkpt>
</trkseg>
</trk>
<trk>
<name>nphvf13</name>
<cmt>r</cmt>
<desc>Villers-en-Fagne Chemin n°13 Rue de l'Eglise</desc>
<link href="https://chemins.be/villersenfagne/chemin/13"/><trkseg>
<trkpt lat="50.145594" lon="4.583625"><time>2026-05-03T05:50:59Z</time></trkpt>
<trkpt lat="50.145881" lon="4.584340"><time>2026-05-03T06:00:59Z</time></trkpt>
<trkpt lat="50.145674" lon="4.584465"><time>2026-05-03T06:10:59Z</time></trkpt>
<trkpt lat="50.145754" lon="4.584927"><time>2026-05-03T06:20:59Z</time></trkpt>
<trkpt lat="50.146058" lon="4.585362"><time>2026-05-03T06:30:59Z</time></trkpt>
<trkpt lat="50.146400" lon="4.585168"><time>2026-05-03T06:40:59Z</time></trkpt>
</trkseg>
</trk>
<trk>
<name>nphvf14</name>
<cmt>v</cmt>
<desc>Villers-en-Fagne Chemin n°14 </desc>
<link href="https://chemins.be/villersenfagne/chemin/14"/><trkseg>
<trkpt lat="50.129631" lon="4.576392"><time>2026-05-03T05:50:59Z</time></trkpt>
<trkpt lat="50.128056" lon="4.577127"><time>2026-05-03T06:00:59Z</time></trkpt>
<trkpt lat="50.126781" lon="4.576338"><time>2026-05-03T06:10:59Z</time></trkpt>
</trkseg>
</trk>
<trk>
<name>nphvf16</name>
<cmt>d</cmt>
<desc>Villers-en-Fagne Sentier n°16 </desc>
<link href="https://chemins.be/villersenfagne/sentier/16"/><trkseg>
<trkpt lat="50.146067" lon="4.585558"><time>2026-05-03T05:50:59Z</time></trkpt>
<trkpt lat="50.146183" lon="4.586216"><time>2026-05-03T06:00:59Z</time></trkpt>
<trkpt lat="50.146290" lon="4.586720"><time>2026-05-03T06:10:59Z</time></trkpt>
<trkpt lat="50.146397" lon="4.587253"><time>2026-05-03T06:20:59Z</time></trkpt>
</trkseg></trk>
<trk>
<name>nphvf16</name>
<cmt>v</cmt>
<desc>Villers-en-Fagne Sentier n°16 </desc>
<link href="https://chemins.be/villersenfagne/sentier/16"/><trkseg>
<trkpt lat="50.146397" lon="4.587253"><time>2026-05-03T06:20:59Z</time></trkpt>
<trkpt lat="50.146081" lon="4.587839"><time>2026-05-03T06:30:59Z</time></trkpt>
</trkseg></trk>
<trk>
<name>nphvf16</name>
<cmt>d</cmt>
<desc>Villers-en-Fagne Sentier n°16 </desc>
<link href="https://chemins.be/villersenfagne/sentier/16"/><trkseg>
<trkpt lat="50.146081" lon="4.587839"><time>2026-05-03T06:30:59Z</time></trkpt>
<trkpt lat="50.146645" lon="4.588737"><time>2026-05-03T06:40:59Z</time></trkpt>
<trkpt lat="50.146932" lon="4.589144"><time>2026-05-03T06:50:59Z</time></trkpt>
<trkpt lat="50.150249" lon="4.594448"><time>2026-05-03T07:00:59Z</time></trkpt>
<trkpt lat="50.151172" lon="4.595852"><time>2026-05-03T07:10:59Z</time></trkpt>
</trkseg>
</trk>
<trk>
<name>nphvf17</name>
<cmt>v</cmt>
<desc>Villers-en-Fagne Sentier n°17 </desc>
<link href="https://chemins.be/villersenfagne/sentier/17"/><trkseg>
<trkpt lat="50.146031" lon="4.585488"><time>2026-05-03T05:50:59Z</time></trkpt>
<trkpt lat="50.145788" lon="4.585515"><time>2026-05-03T06:00:59Z</time></trkpt>
<trkpt lat="50.145537" lon="4.585304"><time>2026-05-03T06:10:59Z</time></trkpt>
</trkseg></trk>
<trk>
<name>nphvf17</name>
<cmt>d</cmt>
<desc>Villers-en-Fagne Sentier n°17 </desc>
<link href="https://chemins.be/villersenfagne/sentier/17"/><trkseg>
<trkpt lat="50.145537" lon="4.585304"><time>2026-05-03T06:10:59Z</time></trkpt>
<trkpt lat="50.144997" lon="4.585623"><time>2026-05-03T06:20:59Z</time></trkpt>
</trkseg></trk>
<trk>
<name>nphvf17</name>
<cmt>v</cmt>
<desc>Villers-en-Fagne Sentier n°17 </desc>
<link href="https://chemins.be/villersenfagne/sentier/17"/><trkseg>
<trkpt lat="50.144997" lon="4.585623"><time>2026-05-03T06:20:59Z</time></trkpt>
<trkpt lat="50.144358" lon="4.585886"><time>2026-05-03T06:30:59Z</time></trkpt>
<trkpt lat="50.143171" lon="4.586230"><time>2026-05-03T06:40:59Z</time></trkpt>
<trkpt lat="50.142784" lon="4.586425"><time>2026-05-03T06:50:59Z</time></trkpt>
<trkpt lat="50.142217" lon="4.586702"><time>2026-05-03T07:00:59Z</time></trkpt>
<trkpt lat="50.142172" lon="4.586855"><time>2026-05-03T07:10:59Z</time></trkpt>
<trkpt lat="50.141227" lon="4.587103"><time>2026-05-03T07:20:59Z</time></trkpt>
<trkpt lat="50.141155" lon="4.587187"><time>2026-05-03T07:30:59Z</time></trkpt>
<trkpt lat="50.140167" lon="4.586986"><time>2026-05-03T07:40:59Z</time></trkpt>
</trkseg></trk>
<trk>
<name>nphvf17</name>
<cmt>d</cmt>
<desc>Villers-en-Fagne Sentier n°17 </desc>
<link href="https://chemins.be/villersenfagne/sentier/17"/><trkseg>
<trkpt lat="50.140167" lon="4.586986"><time>2026-05-03T07:40:59Z</time></trkpt>
<trkpt lat="50.139852" lon="4.586943"><time>2026-05-03T07:50:59Z</time></trkpt>
</trkseg>
</trk>
<trk>
<name>nphvf18</name>
<cmt>d</cmt>
<desc>Villers-en-Fagne Sentier n°18 </desc>
<link href="https://chemins.be/villersenfagne/sentier/18"/><trkseg>
<trkpt lat="50.144817" lon="4.585762"><time>2026-05-03T05:50:59Z</time></trkpt>
<trkpt lat="50.144581" lon="4.587160"><time>2026-05-03T06:00:59Z</time></trkpt>
<trkpt lat="50.144335" lon="4.588530"><time>2026-05-03T06:10:59Z</time></trkpt>
</trkseg>
</trk>
<trk>
<name>nphvf19</name>
<cmt>d</cmt>
<desc>Villers-en-Fagne Sentier n°19 </desc>
<link href="https://chemins.be/villersenfagne/sentier/19"/><trkseg>
<trkpt lat="50.144332" lon="4.580863"><time>2026-05-03T05:50:59Z</time></trkpt>
<trkpt lat="50.144350" lon="4.580696"><time>2026-05-03T06:00:59Z</time></trkpt>
<trkpt lat="50.144269" lon="4.580457"><time>2026-05-03T06:10:59Z</time></trkpt>
<trkpt lat="50.144243" lon="4.580136"><time>2026-05-03T06:20:59Z</time></trkpt>
<trkpt lat="50.144127" lon="4.579631"><time>2026-05-03T06:30:59Z</time></trkpt>
<trkpt lat="50.144030" lon="4.578820"><time>2026-05-03T06:40:59Z</time></trkpt>
<trkpt lat="50.143791" lon="4.576748"><time>2026-05-03T06:50:59Z</time></trkpt>
<trkpt lat="50.143793" lon="4.575433"><time>2026-05-03T07:00:59Z</time></trkpt>
</trkseg>
</trk>
<trk>
<name>nphvf2</name>
<cmt>r</cmt>
<desc>Villers-en-Fagne Chemin n°2 Rue du Pont / Rue Notre-Dame</desc>
<link href="https://chemins.be/villersenfagne/chemin/2"/><trkseg>
<trkpt lat="50.147056" lon="4.585646"><time>2026-05-03T05:50:59Z</time></trkpt>
<trkpt lat="50.149059" lon="4.587577"><time>2026-05-03T06:00:59Z</time></trkpt>
<trkpt lat="50.151120" lon="4.590003"><time>2026-05-03T06:10:59Z</time></trkpt>
<trkpt lat="50.151175" lon="4.594355"><time>2026-05-03T06:20:59Z</time></trkpt>
<trkpt lat="50.151002" lon="4.596847"><time>2026-05-03T06:30:59Z</time></trkpt>
<trkpt lat="50.152406" lon="4.603540"><time>2026-05-03T06:40:59Z</time></trkpt>
</trkseg>
</trk>
<trk>
<name>nphvf20</name>
<cmt>v</cmt>
<desc>Villers-en-Fagne Sentier n°20 </desc>
<link href="https://chemins.be/villersenfagne/sentier/20"/><trkseg>
<trkpt lat="50.145450" lon="4.583848"><time>2026-05-03T05:50:59Z</time></trkpt>
<trkpt lat="50.145332" lon="4.584366"><time>2026-05-03T06:00:59Z</time></trkpt>
<trkpt lat="50.145492" lon="4.585290"><time>2026-05-03T06:10:59Z</time></trkpt>
</trkseg>
</trk>
<trk>
<name>nphvf21</name>
<cmt>s</cmt>
<desc>Villers-en-Fagne Sentier n°21 </desc>
<link href="https://chemins.be/villersenfagne/sentier/21"/><trkseg>
<trkpt lat="50.146130" lon="4.580802"><time>2026-05-03T05:50:59Z</time></trkpt>
<trkpt lat="50.147633" lon="4.579745"><time>2026-05-03T06:00:59Z</time></trkpt>
<trkpt lat="50.149306" lon="4.579640"><time>2026-05-03T06:10:59Z</time></trkpt>
</trkseg>
</trk>
<trk>
<name>nphvf22</name>
<cmt>v</cmt>
<desc>Villers-en-Fagne Sentier n°22 </desc>
<link href="https://chemins.be/villersenfagne/sentier/22"/><trkseg>
<trkpt lat="50.146412" lon="4.584077"><time>2026-05-03T05:50:59Z</time></trkpt>
<trkpt lat="50.146042" lon="4.584383"><time>2026-05-03T06:00:59Z</time></trkpt>
<trkpt lat="50.146195" lon="4.584635"><time>2026-05-03T06:10:59Z</time></trkpt>
<trkpt lat="50.146284" lon="4.584734"><time>2026-05-03T06:20:59Z</time></trkpt>
<trkpt lat="50.146392" lon="4.584846"><time>2026-05-03T06:30:59Z</time></trkpt>
</trkseg>
</trk>
<trk>
<name>nphvf23</name>
<cmt>v</cmt>
<desc>Villers-en-Fagne Sentier n°23 </desc>
<link href="https://chemins.be/villersenfagne/sentier/23"/><trkseg>
<trkpt lat="50.146061" lon="4.583795"><time>2026-05-03T05:50:59Z</time></trkpt>
<trkpt lat="50.145773" lon="4.584046"><time>2026-05-03T06:00:59Z</time></trkpt>
</trkseg>
</trk>
<trk>
<name>nphvf3</name>
<cmt>v</cmt>
<desc>Villers-en-Fagne Chemin n°3 </desc>
<link href="https://chemins.be/villersenfagne/chemin/3"/><trkseg>
<trkpt lat="50.152404" lon="4.604617"><time>2026-05-03T05:50:59Z</time></trkpt>
<trkpt lat="50.150523" lon="4.605377"><time>2026-05-03T06:00:59Z</time></trkpt>
<trkpt lat="50.148508" lon="4.606165"><time>2026-05-03T06:10:59Z</time></trkpt>
<trkpt lat="50.147465" lon="4.605992"><time>2026-05-03T06:20:59Z</time></trkpt>
<trkpt lat="50.146970" lon="4.606283"><time>2026-05-03T06:30:59Z</time></trkpt>
<trkpt lat="50.145484" lon="4.607661"><time>2026-05-03T06:40:59Z</time></trkpt>
</trkseg>
</trk>
<trk>
<name>nphvf4</name>
<cmt>r</cmt>
<desc>Villers-en-Fagne Chemin n°4 Rue du Pont</desc>
<link href="https://chemins.be/villersenfagne/chemin/4"/><trkseg>
<trkpt lat="50.155729" lon="4.596209"><time>2026-05-03T05:50:59Z</time></trkpt>
<trkpt lat="50.151291" lon="4.590283"><time>2026-05-03T06:00:59Z</time></trkpt>
</trkseg>
</trk>
<trk>
<name>nphvf5</name>
<cmt>r</cmt>
<desc>Villers-en-Fagne Chemin n°5 Avenue Docteur Vander Elst</desc>
<link href="https://chemins.be/villersenfagne/chemin/5"/><trkseg>
<trkpt lat="50.152496" lon="4.603456"><time>2026-05-03T05:50:59Z</time></trkpt>
<trkpt lat="50.152812" lon="4.603052"><time>2026-05-03T06:00:59Z</time></trkpt>
</trkseg></trk>
<trk>
<name>nphvf5</name>
<cmt>v</cmt>
<desc>Villers-en-Fagne Chemin n°5 Avenue Docteur Vander Elst</desc>
<link href="https://chemins.be/villersenfagne/chemin/5"/><trkseg>
<trkpt lat="50.152812" lon="4.603052"><time>2026-05-03T06:00:59Z</time></trkpt>
<trkpt lat="50.153289" lon="4.602509"><time>2026-05-03T06:10:59Z</time></trkpt>
<trkpt lat="50.153669" lon="4.601545"><time>2026-05-03T06:20:59Z</time></trkpt>
<trkpt lat="50.154389" lon="4.601129"><time>2026-05-03T06:30:59Z</time></trkpt>
<trkpt lat="50.155308" lon="4.600056"><time>2026-05-03T06:40:59Z</time></trkpt>
<trkpt lat="50.155840" lon="4.599429"><time>2026-05-03T06:50:59Z</time></trkpt>
</trkseg>
</trk>
<trk>
<name>nphvf8</name>
<cmt>v</cmt>
<desc>Villers-en-Fagne Chemin n°8 </desc>
<link href="https://chemins.be/villersenfagne/chemin/8"/><trkseg>
<trkpt lat="50.137438" lon="4.589450"><time>2026-05-03T05:50:59Z</time></trkpt>
<trkpt lat="50.135575" lon="4.590308"><time>2026-05-03T06:00:59Z</time></trkpt>
<trkpt lat="50.133263" lon="4.591123"><time>2026-05-03T06:10:59Z</time></trkpt>
<trkpt lat="50.130976" lon="4.593000"><time>2026-05-03T06:20:59Z</time></trkpt>
<trkpt lat="50.130705" lon="4.593251"><time>2026-05-03T06:30:59Z</time></trkpt>
<trkpt lat="50.129049" lon="4.594166"><time>2026-05-03T06:40:59Z</time></trkpt>
</trkseg>
</trk>
<trk>
<name>nphvfi1</name>
<cmt>v</cmt>
<desc>Villers-en-Fagne Chemin n°i1 </desc>
<link href="https://chemins.be/villersenfagne/chemin/i1"/><trkseg>
<trkpt lat="50.141285" lon="4.579983"><time>2026-05-03T05:50:59Z</time></trkpt>
<trkpt lat="50.141304" lon="4.579745"><time>2026-05-03T06:00:59Z</time></trkpt>
<trkpt lat="50.141241" lon="4.579521"><time>2026-05-03T06:10:59Z</time></trkpt>
</trkseg>
</trk>
<trk>
<name>nphvfi2</name>
<cmt>v</cmt>
<desc>Villers-en-Fagne Chemin n°i2 </desc>
<link href="https://chemins.be/villersenfagne/chemin/i2"/><trkseg>
<trkpt lat="50.137637" lon="4.595141"><time>2026-05-03T05:50:59Z</time></trkpt>
<trkpt lat="50.138738" lon="4.595234"><time>2026-05-03T06:00:59Z</time></trkpt>
<trkpt lat="50.139329" lon="4.595069"><time>2026-05-03T06:10:59Z</time></trkpt>
<trkpt lat="50.139943" lon="4.595305"><time>2026-05-03T06:20:59Z</time></trkpt>
<trkpt lat="50.140603" lon="4.595134"><time>2026-05-03T06:30:59Z</time></trkpt>
</trkseg>
</trk>
<trk>
<name>nphvg1</name>
<cmt>v</cmt>
<desc>Villers-le-Gambon Chemin n°1 </desc>
<link href="https://chemins.be/villerslegambon/chemin/1"/><trkseg>
<trkpt lat="50.212943" lon="4.610802"><time>2026-05-03T05:50:59Z</time></trkpt>
<trkpt lat="50.213681" lon="4.610568"><time>2026-05-03T06:00:59Z</time></trkpt>
<trkpt lat="50.215037" lon="4.610967"><time>2026-05-03T06:10:59Z</time></trkpt>
<trkpt lat="50.216818" lon="4.610626"><time>2026-05-03T06:20:59Z</time></trkpt>
</trkseg>
</trk>
<trk>
<name>nphvg10</name>
<cmt>r</cmt>
<desc>Villers-le-Gambon Chemin n°10 Rue du Village</desc>
<link href="https://chemins.be/villerslegambon/chemin/10"/><trkseg>
<trkpt lat="50.194540" lon="4.601591"><time>2026-05-03T05:50:59Z</time></trkpt>
<trkpt lat="50.195695" lon="4.599664"><time>2026-05-03T06:00:59Z</time></trkpt>
<trkpt lat="50.197040" lon="4.596799"><time>2026-05-03T06:10:59Z</time></trkpt>
<trkpt lat="50.196999" lon="4.595020"><time>2026-05-03T06:20:59Z</time></trkpt>
</trkseg>
</trk>
<trk>
<name>nphvg11</name>
<cmt>r</cmt>
<desc>Villers-le-Gambon Chemin n°11 </desc>
<link href="https://chemins.be/villerslegambon/chemin/11"/><trkseg>
<trkpt lat="50.193809" lon="4.607582"><time>2026-05-03T05:50:59Z</time></trkpt>
<trkpt lat="50.194158" lon="4.603648"><time>2026-05-03T06:00:59Z</time></trkpt>
<trkpt lat="50.194396" lon="4.601730"><time>2026-05-03T06:10:59Z</time></trkpt>
</trkseg></trk>
<trk>
<name>nphvg11</name>
<cmt>v</cmt>
<desc>Villers-le-Gambon Chemin n°11 </desc>
<link href="https://chemins.be/villerslegambon/chemin/11"/><trkseg>
<trkpt lat="50.194396" lon="4.601730"><time>2026-05-03T06:10:59Z</time></trkpt>
<trkpt lat="50.194497" lon="4.600611"><time>2026-05-03T06:20:59Z</time></trkpt>
<trkpt lat="50.194432" lon="4.597417"><time>2026-05-03T06:30:59Z</time></trkpt>
<trkpt lat="50.194744" lon="4.594267"><time>2026-05-03T06:40:59Z</time></trkpt>
</trkseg>
</trk>
<trk>
<name>nphvg12</name>
<cmt>r</cmt>
<desc>Villers-le-Gambon Chemin n°12 Rue du Champ Bouval</desc>
<link href="https://chemins.be/villerslegambon/chemin/12"/><trkseg>
<trkpt lat="50.193754" lon="4.607749"><time>2026-05-03T05:50:59Z</time></trkpt>
<trkpt lat="50.193714" lon="4.609808"><time>2026-05-03T06:00:59Z</time></trkpt>
<trkpt lat="50.193668" lon="4.610564"><time>2026-05-03T06:10:59Z</time></trkpt>
<trkpt lat="50.193683" lon="4.612049"><time>2026-05-03T06:20:59Z</time></trkpt>
<trkpt lat="50.193280" lon="4.615296"><time>2026-05-03T06:30:59Z</time></trkpt>
<trkpt lat="50.193293" lon="4.617676"><time>2026-05-03T06:40:59Z</time></trkpt>
<trkpt lat="50.192669" lon="4.623317"><time>2026-05-03T06:50:59Z</time></trkpt>
</trkseg>
</trk>
<trk>
<name>nphvg13</name>
<cmt>s</cmt>
<desc>Villers-le-Gambon Chemin n°13 Rue de Givet / ?</desc>
<link href="https://chemins.be/villerslegambon/chemin/13"/><trkseg>
<trkpt lat="50.189273" lon="4.605220"><time>2026-05-03T05:50:59Z</time></trkpt>
<trkpt lat="50.188725" lon="4.605007"><time>2026-05-03T06:00:59Z</time></trkpt>
<trkpt lat="50.188456" lon="4.604782"><time>2026-05-03T06:10:59Z</time></trkpt>
</trkseg></trk>
<trk>
<name>nphvg13</name>
<cmt>r</cmt>
<desc>Villers-le-Gambon Chemin n°13 Rue de Givet / ?</desc>
<link href="https://chemins.be/villerslegambon/chemin/13"/><trkseg>
<trkpt lat="50.188456" lon="4.604782"><time>2026-05-03T06:10:59Z</time></trkpt>
<trkpt lat="50.188143" lon="4.603856"><time>2026-05-03T06:20:59Z</time></trkpt>
</trkseg></trk>
<trk>
<name>nphvg13</name>
<cmt>v</cmt>
<desc>Villers-le-Gambon Chemin n°13 Rue de Givet / ?</desc>
<link href="https://chemins.be/villerslegambon/chemin/13"/><trkseg>
<trkpt lat="50.188143" lon="4.603856"><time>2026-05-03T06:20:59Z</time></trkpt>
<trkpt lat="50.187172" lon="4.603781"><time>2026-05-03T06:30:59Z</time></trkpt>
</trkseg></trk>
<trk>
<name>nphvg13</name>
<cmt>s</cmt>
<desc>Villers-le-Gambon Chemin n°13 Rue de Givet / ?</desc>
<link href="https://chemins.be/villerslegambon/chemin/13"/><trkseg>
<trkpt lat="50.187172" lon="4.603781"><time>2026-05-03T06:30:59Z</time></trkpt>
<trkpt lat="50.186708" lon="4.602211"><time>2026-05-03T06:40:59Z</time></trkpt>
<trkpt lat="50.186613" lon="4.600194"><time>2026-05-03T06:50:59Z</time></trkpt>
</trkseg>
</trk>
<trk>
<name>nphvg15</name>
<cmt>v</cmt>
<desc>Villers-le-Gambon Chemin n°15 </desc>
<link href="https://chemins.be/villerslegambon/chemin/15"/><trkseg>
<trkpt lat="50.186774" lon="4.600545"><time>2026-05-03T05:50:59Z</time></trkpt>
<trkpt lat="50.186960" lon="4.597521"><time>2026-05-03T06:00:59Z</time></trkpt>
<trkpt lat="50.186631" lon="4.595685"><time>2026-05-03T06:10:59Z</time></trkpt>
<trkpt lat="50.186736" lon="4.592507"><time>2026-05-03T06:20:59Z</time></trkpt>
<trkpt lat="50.186658" lon="4.591442"><time>2026-05-03T06:30:59Z</time></trkpt>
<trkpt lat="50.186642" lon="4.590336"><time>2026-05-03T06:40:59Z</time></trkpt>
<trkpt lat="50.186626" lon="4.589120"><time>2026-05-03T06:50:59Z</time></trkpt>
<trkpt lat="50.186736" lon="4.587928"><time>2026-05-03T07:00:59Z</time></trkpt>
</trkseg>
</trk>
<trk>
<name>nphvg16</name>
<cmt>v</cmt>
<desc>Villers-le-Gambon Chemin n°16 </desc>
<link href="https://chemins.be/villerslegambon/chemin/16"/><trkseg>
<trkpt lat="50.187377" lon="4.591502"><time>2026-05-03T05:50:59Z</time></trkpt>
<trkpt lat="50.186649" lon="4.591428"><time>2026-05-03T06:00:59Z</time></trkpt>
<trkpt lat="50.186271" lon="4.591497"><time>2026-05-03T06:10:59Z</time></trkpt>
<trkpt lat="50.185487" lon="4.592179"><time>2026-05-03T06:20:59Z</time></trkpt>
<trkpt lat="50.184561" lon="4.592399"><time>2026-05-03T06:30:59Z</time></trkpt>
<trkpt lat="50.182663" lon="4.593006"><time>2026-05-03T06:40:59Z</time></trkpt>
<trkpt lat="50.180790" lon="4.594355"><time>2026-05-03T06:50:59Z</time></trkpt>
</trkseg>
</trk>
<trk>
<name>nphvg17</name>
<cmt>v</cmt>
<desc>Villers-le-Gambon Chemin n°17 </desc>
<link href="https://chemins.be/villerslegambon/chemin/17"/><trkseg>
<trkpt lat="50.192090" lon="4.590446"><time>2026-05-03T05:50:59Z</time></trkpt>
<trkpt lat="50.191567" lon="4.590975"><time>2026-05-03T06:00:59Z</time></trkpt>
<trkpt lat="50.190631" lon="4.591741"><time>2026-05-03T06:10:59Z</time></trkpt>
<trkpt lat="50.188995" lon="4.591649"><time>2026-05-03T06:20:59Z</time></trkpt>
<trkpt lat="50.187404" lon="4.591502"><time>2026-05-03T06:30:59Z</time></trkpt>
</trkseg></trk>
<trk>
<name>nphvg17</name>
<cmt>d</cmt>
<desc>Villers-le-Gambon Chemin n°17 </desc>
<link href="https://chemins.be/villerslegambon/chemin/17"/><trkseg>
<trkpt lat="50.187404" lon="4.591502"><time>2026-05-03T06:30:59Z</time></trkpt>
<trkpt lat="50.186633" lon="4.590378"><time>2026-05-03T06:40:59Z</time></trkpt>
</trkseg></trk>
<trk>
<name>nphvg17</name>
<cmt>v</cmt>
<desc>Villers-le-Gambon Chemin n°17 </desc>
<link href="https://chemins.be/villerslegambon/chemin/17"/><trkseg>
<trkpt lat="50.186633" lon="4.590378"><time>2026-05-03T06:40:59Z</time></trkpt>
<trkpt lat="50.184010" lon="4.588743"><time>2026-05-03T06:50:59Z</time></trkpt>
<trkpt lat="50.181967" lon="4.588378"><time>2026-05-03T07:00:59Z</time></trkpt>
<trkpt lat="50.181203" lon="4.588578"><time>2026-05-03T07:10:59Z</time></trkpt>
<trkpt lat="50.180479" lon="4.587949"><time>2026-05-03T07:20:59Z</time></trkpt>
</trkseg>
</trk>
<trk>
<name>nphvg18</name>
<cmt>v</cmt>
<desc>Villers-le-Gambon Chemin n°18 </desc>
<link href="https://chemins.be/villerslegambon/chemin/18"/><trkseg>
<trkpt lat="50.192887" lon="4.592060"><time>2026-05-03T05:50:59Z</time></trkpt>
<trkpt lat="50.192096" lon="4.592126"><time>2026-05-03T06:00:59Z</time></trkpt>
<trkpt lat="50.191484" lon="4.592039"><time>2026-05-03T06:10:59Z</time></trkpt>
<trkpt lat="50.190649" lon="4.591755"><time>2026-05-03T06:20:59Z</time></trkpt>
</trkseg>
</trk>
<trk>
<name>nphvg19</name>
<cmt>r</cmt>
<desc>Villers-le-Gambon Chemin n°19 Rue du Moulignat</desc>
<link href="https://chemins.be/villerslegambon/chemin/19"/><trkseg>
<trkpt lat="50.188349" lon="4.608702"><time>2026-05-03T05:50:59Z</time></trkpt>
<trkpt lat="50.185816" lon="4.607709"><time>2026-05-03T06:00:59Z</time></trkpt>
<trkpt lat="50.184957" lon="4.605829"><time>2026-05-03T06:10:59Z</time></trkpt>
<trkpt lat="50.184482" lon="4.604944"><time>2026-05-03T06:20:59Z</time></trkpt>
<trkpt lat="50.183863" lon="4.604409"><time>2026-05-03T06:30:59Z</time></trkpt>
<trkpt lat="50.182396" lon="4.605200"><time>2026-05-03T06:40:59Z</time></trkpt>
<trkpt lat="50.181606" lon="4.604174"><time>2026-05-03T06:50:59Z</time></trkpt>
<trkpt lat="50.180600" lon="4.603931"><time>2026-05-03T07:00:59Z</time></trkpt>
<trkpt lat="50.180312" lon="4.604322"><time>2026-05-03T07:10:59Z</time></trkpt>
<trkpt lat="50.179924" lon="4.604670"><time>2026-05-03T07:20:59Z</time></trkpt>
<trkpt lat="50.179174" lon="4.602286"><time>2026-05-03T07:30:59Z</time></trkpt>
<trkpt lat="50.178420" lon="4.601750"><time>2026-05-03T07:40:59Z</time></trkpt>
<trkpt lat="50.177683" lon="4.601537"><time>2026-05-03T07:50:59Z</time></trkpt>
<trkpt lat="50.177206" lon="4.601646"><time>2026-05-03T08:00:59Z</time></trkpt>
<trkpt lat="50.176792" lon="4.602036"><time>2026-05-03T08:10:59Z</time></trkpt>
</trkseg></trk>
<trk>
<name>nphvg19</name>
<cmt>v</cmt>
<desc>Villers-le-Gambon Chemin n°19 Rue du Moulignat</desc>
<link href="https://chemins.be/villerslegambon/chemin/19"/><trkseg>
<trkpt lat="50.176792" lon="4.602036"><time>2026-05-03T08:10:59Z</time></trkpt>
<trkpt lat="50.175503" lon="4.599356"><time>2026-05-03T08:20:59Z</time></trkpt>
<trkpt lat="50.174837" lon="4.599619"><time>2026-05-03T08:30:59Z</time></trkpt>
</trkseg>
</trk>
<trk>
<name>nphvg2</name>
<cmt>r</cmt>
<desc>Villers-le-Gambon Chemin n°2 Rue du Curé</desc>
<link href="https://chemins.be/villerslegambon/chemin/2"/><trkseg>
<trkpt lat="50.189878" lon="4.608276"><time>2026-05-03T05:50:59Z</time></trkpt>
<trkpt lat="50.189904" lon="4.609004"><time>2026-05-03T06:00:59Z</time></trkpt>
<trkpt lat="50.189713" lon="4.610180"><time>2026-05-03T06:10:59Z</time></trkpt>
<trkpt lat="50.189972" lon="4.610769"><time>2026-05-03T06:20:59Z</time></trkpt>
<trkpt lat="50.190150" lon="4.611848"><time>2026-05-03T06:30:59Z</time></trkpt>
<trkpt lat="50.190459" lon="4.614203"><time>2026-05-03T06:40:59Z</time></trkpt>
<trkpt lat="50.190713" lon="4.617299"><time>2026-05-03T06:50:59Z</time></trkpt>
<trkpt lat="50.190565" lon="4.619245"><time>2026-05-03T07:00:59Z</time></trkpt>
<trkpt lat="50.189342" lon="4.623425"><time>2026-05-03T07:10:59Z</time></trkpt>
<trkpt lat="50.189161" lon="4.624349"><time>2026-05-03T07:20:59Z</time></trkpt>
</trkseg>
</trk>
<trk>
<name>nphvg20</name>
<cmt>v</cmt>
<desc>Villers-le-Gambon Chemin n°20 </desc>
<link href="https://chemins.be/villerslegambon/chemin/20"/><trkseg>
<trkpt lat="50.177094" lon="4.601745"><time>2026-05-03T05:50:59Z</time></trkpt>
<trkpt lat="50.177083" lon="4.600765"><time>2026-05-03T06:00:59Z</time></trkpt>
</trkseg>
</trk>
<trk>
<name>nphvg21</name>
<cmt>v</cmt>
<desc>Villers-le-Gambon Chemin n°21 </desc>
<link href="https://chemins.be/villerslegambon/chemin/21"/><trkseg>
<trkpt lat="50.173692" lon="4.587546"><time>2026-05-03T05:50:59Z</time></trkpt>
<trkpt lat="50.173260" lon="4.587726"><time>2026-05-03T06:00:59Z</time></trkpt>
<trkpt lat="50.170219" lon="4.588622"><time>2026-05-03T06:10:59Z</time></trkpt>
<trkpt lat="50.169543" lon="4.589403"><time>2026-05-03T06:20:59Z</time></trkpt>
<trkpt lat="50.168856" lon="4.591485"><time>2026-05-03T06:30:59Z</time></trkpt>
<trkpt lat="50.168889" lon="4.593039"><time>2026-05-03T06:40:59Z</time></trkpt>
<trkpt lat="50.169120" lon="4.594650"><time>2026-05-03T06:50:59Z</time></trkpt>
<trkpt lat="50.169154" lon="4.595462"><time>2026-05-03T07:00:59Z</time></trkpt>
</trkseg>
</trk>
<trk>
<name>nphvg22</name>
<cmt>v</cmt>
<desc>Villers-le-Gambon Chemin n°22 </desc>
<link href="https://chemins.be/villerslegambon/chemin/22"/><trkseg>
<trkpt lat="50.170138" lon="4.588677"><time>2026-05-03T05:50:59Z</time></trkpt>
<trkpt lat="50.170508" lon="4.587825"><time>2026-05-03T06:00:59Z</time></trkpt>
</trkseg>
</trk>
<trk>
<name>nphvg23</name>
<cmt>r</cmt>
<desc>Villers-le-Gambon Chemin n°23 Rue de Moriachamps</desc>
<link href="https://chemins.be/villerslegambon/chemin/23"/><trkseg>
<trkpt lat="50.166184" lon="4.587931"><time>2026-05-03T05:50:59Z</time></trkpt>
<trkpt lat="50.166542" lon="4.588675"><time>2026-05-03T06:00:59Z</time></trkpt>
</trkseg></trk>
<trk>
<name>nphvg23</name>
<cmt>d</cmt>
<desc>Villers-le-Gambon Chemin n°23 Rue de Moriachamps</desc>
<link href="https://chemins.be/villerslegambon/chemin/23"/><trkseg>
<trkpt lat="50.166542" lon="4.588675"><time>2026-05-03T06:00:59Z</time></trkpt>
<trkpt lat="50.167000" lon="4.588915"><time>2026-05-03T06:10:59Z</time></trkpt>
<trkpt lat="50.167550" lon="4.592711"><time>2026-05-03T06:20:59Z</time></trkpt>
</trkseg></trk>
<trk>
<name>nphvg23</name>
<cmt>r</cmt>
<desc>Villers-le-Gambon Chemin n°23 Rue de Moriachamps</desc>
<link href="https://chemins.be/villerslegambon/chemin/23"/><trkseg>
<trkpt lat="50.167550" lon="4.592711"><time>2026-05-03T06:20:59Z</time></trkpt>
<trkpt lat="50.168147" lon="4.595387"><time>2026-05-03T06:30:59Z</time></trkpt>
</trkseg>
</trk>
<trk>
<name>nphvg24</name>
<cmt>v</cmt>
<desc>Villers-le-Gambon Chemin n°24 </desc>
<link href="https://chemins.be/villerslegambon/chemin/24"/><trkseg>
<trkpt lat="50.165337" lon="4.588585"><time>2026-05-03T05:50:59Z</time></trkpt>
<trkpt lat="50.165120" lon="4.589522"><time>2026-05-03T06:00:59Z</time></trkpt>
</trkseg></trk>
<trk>
<name>nphvg24</name>
<cmt>d</cmt>
<desc>Villers-le-Gambon Chemin n°24 </desc>
<link href="https://chemins.be/villerslegambon/chemin/24"/><trkseg>
<trkpt lat="50.165120" lon="4.589522"><time>2026-05-03T06:00:59Z</time></trkpt>
<trkpt lat="50.164804" lon="4.589926"><time>2026-05-03T06:10:59Z</time></trkpt>
<trkpt lat="50.164532" lon="4.591227"><time>2026-05-03T06:20:59Z</time></trkpt>
<trkpt lat="50.164287" lon="4.592247"><time>2026-05-03T06:30:59Z</time></trkpt>
<trkpt lat="50.163954" lon="4.592526"><time>2026-05-03T06:40:59Z</time></trkpt>
<trkpt lat="50.163908" lon="4.593379"><time>2026-05-03T06:50:59Z</time></trkpt>
<trkpt lat="50.163583" lon="4.593882"><time>2026-05-03T07:00:59Z</time></trkpt>
<trkpt lat="50.163114" lon="4.594565"><time>2026-05-03T07:10:59Z</time></trkpt>
<trkpt lat="50.162582" lon="4.595304"><time>2026-05-03T07:20:59Z</time></trkpt>
<trkpt lat="50.162320" lon="4.596045"><time>2026-05-03T07:30:59Z</time></trkpt>
<trkpt lat="50.161985" lon="4.596953"><time>2026-05-03T07:40:59Z</time></trkpt>
<trkpt lat="50.161355" lon="4.597622"><time>2026-05-03T07:50:59Z</time></trkpt>
</trkseg></trk>
<trk>
<name>nphvg24</name>
<cmt>v</cmt>
<desc>Villers-le-Gambon Chemin n°24 </desc>
<link href="https://chemins.be/villerslegambon/chemin/24"/><trkseg>
<trkpt lat="50.161355" lon="4.597622"><time>2026-05-03T07:50:59Z</time></trkpt>
<trkpt lat="50.160895" lon="4.598068"><time>2026-05-03T08:00:59Z</time></trkpt>
<trkpt lat="50.160688" lon="4.598318"><time>2026-05-03T08:10:59Z</time></trkpt>
</trkseg>
</trk>
<trk>
<name>nphvg25</name>
<cmt>r</cmt>
<desc>Villers-le-Gambon Chemin n°25 Wez-Chamois / Rue des Colchiques</desc>
<link href="https://chemins.be/villerslegambon/chemin/25"/><trkseg>
<trkpt lat="50.155774" lon="4.596196"><time>2026-05-03T05:50:59Z</time></trkpt>
<trkpt lat="50.156438" lon="4.597276"><time>2026-05-03T06:00:59Z</time></trkpt>
<trkpt lat="50.156437" lon="4.597444"><time>2026-05-03T06:10:59Z</time></trkpt>
<trkpt lat="50.157020" lon="4.598287"><time>2026-05-03T06:20:59Z</time></trkpt>
</trkseg></trk>
<trk>
<name>nphvg25</name>
<cmt>v</cmt>
<desc>Villers-le-Gambon Chemin n°25 Wez-Chamois / Rue des Colchiques</desc>
<link href="https://chemins.be/villerslegambon/chemin/25"/><trkseg>
<trkpt lat="50.157020" lon="4.598287"><time>2026-05-03T06:20:59Z</time></trkpt>
<trkpt lat="50.157533" lon="4.598163"><time>2026-05-03T06:30:59Z</time></trkpt>
<trkpt lat="50.158064" lon="4.597732"><time>2026-05-03T06:40:59Z</time></trkpt>
<trkpt lat="50.158917" lon="4.598156"><time>2026-05-03T06:50:59Z</time></trkpt>
</trkseg></trk>
<trk>
<name>nphvg25</name>
<cmt>r</cmt>
<desc>Villers-le-Gambon Chemin n°25 Wez-Chamois / Rue des Colchiques</desc>
<link href="https://chemins.be/villerslegambon/chemin/25"/><trkseg>
<trkpt lat="50.158917" lon="4.598156"><time>2026-05-03T06:50:59Z</time></trkpt>
<trkpt lat="50.159366" lon="4.598522"><time>2026-05-03T07:00:59Z</time></trkpt>
<trkpt lat="50.159897" lon="4.598469"><time>2026-05-03T07:10:59Z</time></trkpt>
<trkpt lat="50.160643" lon="4.598402"><time>2026-05-03T07:20:59Z</time></trkpt>
<trkpt lat="50.161001" lon="4.599132"><time>2026-05-03T07:30:59Z</time></trkpt>
<trkpt lat="50.162464" lon="4.600454"><time>2026-05-03T07:40:59Z</time></trkpt>
</trkseg>
</trk>
<trk>
<name>nphvg26</name>
<cmt>v</cmt>
<desc>Villers-le-Gambon Chemin n°26 </desc>
<link href="https://chemins.be/villerslegambon/chemin/26"/><trkseg>
<trkpt lat="50.152812" lon="4.602968"><time>2026-05-03T05:50:59Z</time></trkpt>
<trkpt lat="50.153335" lon="4.602383"><time>2026-05-03T06:00:59Z</time></trkpt>
<trkpt lat="50.153885" lon="4.601504"><time>2026-05-03T06:10:59Z</time></trkpt>
<trkpt lat="50.154416" lon="4.601101"><time>2026-05-03T06:20:59Z</time></trkpt>
<trkpt lat="50.155885" lon="4.599415"><time>2026-05-03T06:30:59Z</time></trkpt>
<trkpt lat="50.156903" lon="4.598230"><time>2026-05-03T06:40:59Z</time></trkpt>
</trkseg>
</trk>
<trk>
<name>nphvg27</name>
<cmt>v</cmt>
<desc>Villers-le-Gambon Chemin n°27 </desc>
<link href="https://chemins.be/villerslegambon/chemin/27"/><trkseg>
<trkpt lat="50.155612" lon="4.614219"><time>2026-05-03T05:50:59Z</time></trkpt>
<trkpt lat="50.154932" lon="4.612326"><time>2026-05-03T06:00:59Z</time></trkpt>
<trkpt lat="50.154099" lon="4.611146"><time>2026-05-03T06:10:59Z</time></trkpt>
<trkpt lat="50.153974" lon="4.610488"><time>2026-05-03T06:20:59Z</time></trkpt>
<trkpt lat="50.153778" lon="4.609676"><time>2026-05-03T06:30:59Z</time></trkpt>
<trkpt lat="50.153501" lon="4.608835"><time>2026-05-03T06:40:59Z</time></trkpt>
</trkseg></trk>
<trk>
<name>nphvg27</name>
<cmt>d</cmt>
<desc>Villers-le-Gambon Chemin n°27 </desc>
<link href="https://chemins.be/villerslegambon/chemin/27"/><trkseg>
<trkpt lat="50.153501" lon="4.608835"><time>2026-05-03T06:40:59Z</time></trkpt>
<trkpt lat="50.153332" lon="4.607994"><time>2026-05-03T06:50:59Z</time></trkpt>
<trkpt lat="50.153055" lon="4.606999"><time>2026-05-03T07:00:59Z</time></trkpt>
<trkpt lat="50.152422" lon="4.604617"><time>2026-05-03T07:10:59Z</time></trkpt>
</trkseg>
</trk>
<trk>
<name>nphvg3</name>
<cmt>d</cmt>
<desc>Villers-le-Gambon Chemin n°3 Rue du Champ Bouval</desc>
<link href="https://chemins.be/villerslegambon/chemin/3"/><trkseg>
<trkpt lat="50.195680" lon="4.607129"><time>2026-05-03T05:50:59Z</time></trkpt>
<trkpt lat="50.196018" lon="4.608923"><time>2026-05-03T06:00:59Z</time></trkpt>
<trkpt lat="50.196436" lon="4.610746"><time>2026-05-03T06:10:59Z</time></trkpt>
</trkseg></trk>
<trk>
<name>nphvg3</name>
<cmt>r</cmt>
<desc>Villers-le-Gambon Chemin n°3 Rue du Champ Bouval</desc>
<link href="https://chemins.be/villerslegambon/chemin/3"/><trkseg>
<trkpt lat="50.196436" lon="4.610746"><time>2026-05-03T06:10:59Z</time></trkpt>
<trkpt lat="50.196660" lon="4.611504"><time>2026-05-03T06:20:59Z</time></trkpt>
<trkpt lat="50.199795" lon="4.616744"><time>2026-05-03T06:30:59Z</time></trkpt>
<trkpt lat="50.202710" lon="4.617239"><time>2026-05-03T06:40:59Z</time></trkpt>
<trkpt lat="50.204083" lon="4.619091"><time>2026-05-03T06:50:59Z</time></trkpt>
<trkpt lat="50.205104" lon="4.618971"><time>2026-05-03T07:00:59Z</time></trkpt>
<trkpt lat="50.208218" lon="4.621607"><time>2026-05-03T07:10:59Z</time></trkpt>
</trkseg></trk>
<trk>
<name>nphvg3</name>
<cmt>v</cmt>
<desc>Villers-le-Gambon Chemin n°3 Rue du Champ Bouval</desc>
<link href="https://chemins.be/villerslegambon/chemin/3"/><trkseg>
<trkpt lat="50.208218" lon="4.621607"><time>2026-05-03T07:10:59Z</time></trkpt>
<trkpt lat="50.210905" lon="4.622210"><time>2026-05-03T07:20:59Z</time></trkpt>
<trkpt lat="50.211865" lon="4.622986"><time>2026-05-03T07:30:59Z</time></trkpt>
</trkseg>
</trk>
<trk>
<name>nphvg31</name>
<cmt>r</cmt>
<desc>Villers-le-Gambon Chemin n°31 Gibet</desc>
<link href="https://chemins.be/villerslegambon/chemin/31"/><trkseg>
<trkpt lat="50.204042" lon="4.619288"><time>2026-05-03T05:50:59Z</time></trkpt>
<trkpt lat="50.202709" lon="4.620583"><time>2026-05-03T06:00:59Z</time></trkpt>
<trkpt lat="50.200619" lon="4.622407"><time>2026-05-03T06:10:59Z</time></trkpt>
<trkpt lat="50.198261" lon="4.623375"><time>2026-05-03T06:20:59Z</time></trkpt>
</trkseg></trk>
<trk>
<name>nphvg31</name>
<cmt>v</cmt>
<desc>Villers-le-Gambon Chemin n°31 Gibet</desc>
<link href="https://chemins.be/villerslegambon/chemin/31"/><trkseg>
<trkpt lat="50.198261" lon="4.623375"><time>2026-05-03T06:20:59Z</time></trkpt>
<trkpt lat="50.196724" lon="4.623367"><time>2026-05-03T06:30:59Z</time></trkpt>
<trkpt lat="50.193461" lon="4.623139"><time>2026-05-03T06:40:59Z</time></trkpt>
<trkpt lat="50.192759" lon="4.623458"><time>2026-05-03T06:50:59Z</time></trkpt>
</trkseg></trk>
<trk>
<name>nphvg31</name>
<cmt>r</cmt>
<desc>Villers-le-Gambon Chemin n°31 Gibet</desc>
<link href="https://chemins.be/villerslegambon/chemin/31"/><trkseg>
<trkpt lat="50.192759" lon="4.623458"><time>2026-05-03T06:50:59Z</time></trkpt>
<trkpt lat="50.189250" lon="4.624419"><time>2026-05-03T07:00:59Z</time></trkpt>
<trkpt lat="50.185944" lon="4.623589"><time>2026-05-03T07:10:59Z</time></trkpt>
<trkpt lat="50.181989" lon="4.623722"><time>2026-05-03T07:20:59Z</time></trkpt>
</trkseg>
</trk>
<trk>
<name>nphvg32</name>
<cmt>r</cmt>
<desc>Villers-le-Gambon Chemin n°32 Rue du Pechy</desc>
<link href="https://chemins.be/villerslegambon/chemin/32"/><trkseg>
<trkpt lat="50.192766" lon="4.607716"><time>2026-05-03T05:50:59Z</time></trkpt>
<trkpt lat="50.192798" lon="4.609187"><time>2026-05-03T06:00:59Z</time></trkpt>
<trkpt lat="50.193688" lon="4.609430"><time>2026-05-03T06:10:59Z</time></trkpt>
</trkseg>
</trk>
<trk>
<name>nphvg33</name>
<cmt>r</cmt>
<desc>Villers-le-Gambon Chemin n°33 Rue des Biston / Rue des Mésanges / Rue des Nutons</desc>
<link href="https://chemins.be/villerslegambon/chemin/33"/><trkseg>
<trkpt lat="50.189083" lon="4.605933"><time>2026-05-03T05:50:59Z</time></trkpt>
<trkpt lat="50.189235" lon="4.606368"><time>2026-05-03T06:00:59Z</time></trkpt>
<trkpt lat="50.189531" lon="4.606608"><time>2026-05-03T06:10:59Z</time></trkpt>
<trkpt lat="50.190070" lon="4.606849"><time>2026-05-03T06:20:59Z</time></trkpt>
<trkpt lat="50.190304" lon="4.606948"><time>2026-05-03T06:30:59Z</time></trkpt>
<trkpt lat="50.190546" lon="4.607257"><time>2026-05-03T06:40:59Z</time></trkpt>
<trkpt lat="50.190816" lon="4.607244"><time>2026-05-03T06:50:59Z</time></trkpt>
<trkpt lat="50.191329" lon="4.606841"><time>2026-05-03T07:00:59Z</time></trkpt>
<trkpt lat="50.191464" lon="4.606534"><time>2026-05-03T07:10:59Z</time></trkpt>
<trkpt lat="50.191833" lon="4.606297"><time>2026-05-03T07:20:59Z</time></trkpt>
<trkpt lat="50.192221" lon="4.605795"><time>2026-05-03T07:30:59Z</time></trkpt>
<trkpt lat="50.192707" lon="4.605783"><time>2026-05-03T07:40:59Z</time></trkpt>
<trkpt lat="50.193454" lon="4.605283"><time>2026-05-03T07:50:59Z</time></trkpt>
<trkpt lat="50.194056" lon="4.605244"><time>2026-05-03T08:00:59Z</time></trkpt>
</trkseg>
</trk>
<trk>
<name>nphvg34</name>
<cmt>r</cmt>
<desc>Villers-le-Gambon Chemin n°34 Rue de Châtelet</desc>
<link href="https://chemins.be/villerslegambon/chemin/34"/><trkseg>
<trkpt lat="50.192325" lon="4.607504"><time>2026-05-03T05:50:59Z</time></trkpt>
<trkpt lat="50.192419" lon="4.605964"><time>2026-05-03T06:00:59Z</time></trkpt>
</trkseg>
</trk>
<trk>
<name>nphvg35</name>
<cmt>v</cmt>
<desc>Villers-le-Gambon Chemin n°35 </desc>
<link href="https://chemins.be/villerslegambon/chemin/35"/><trkseg>
<trkpt lat="50.192212" lon="4.605767"><time>2026-05-03T05:50:59Z</time></trkpt>
<trkpt lat="50.192312" lon="4.605095"><time>2026-05-03T06:00:59Z</time></trkpt>
<trkpt lat="50.192313" lon="4.604703"><time>2026-05-03T06:10:59Z</time></trkpt>
</trkseg>
</trk>
<trk>
<name>nphvg36</name>
<cmt>r</cmt>
<desc>Villers-le-Gambon Chemin n°36 Rue Gigi</desc>
<link href="https://chemins.be/villerslegambon/chemin/36"/><trkseg>
<trkpt lat="50.191966" lon="4.607460"><time>2026-05-03T05:50:59Z</time></trkpt>
<trkpt lat="50.191842" lon="4.606381"><time>2026-05-03T06:00:59Z</time></trkpt>
</trkseg>
</trk>
<trk>
<name>nphvg37</name>
<cmt>v</cmt>
<desc>Villers-le-Gambon Chemin n°37 </desc>
<link href="https://chemins.be/villerslegambon/chemin/37"/><trkseg>
<trkpt lat="50.191456" lon="4.606435"><time>2026-05-03T05:50:59Z</time></trkpt>
<trkpt lat="50.191313" lon="4.605791"><time>2026-05-03T06:00:59Z</time></trkpt>
<trkpt lat="50.191268" lon="4.605594"><time>2026-05-03T06:10:59Z</time></trkpt>
</trkseg>
</trk>
<trk>
<name>nphvg38</name>
<cmt>r</cmt>
<desc>Villers-le-Gambon Chemin n°38 Rue d'Aury</desc>
<link href="https://chemins.be/villerslegambon/chemin/38"/><trkseg>
<trkpt lat="50.191327" lon="4.607751"><time>2026-05-03T05:50:59Z</time></trkpt>
<trkpt lat="50.191284" lon="4.606953"><time>2026-05-03T06:00:59Z</time></trkpt>
</trkseg>
</trk>
<trk>
<name>nphvg39</name>
<cmt>v</cmt>
<desc>Villers-le-Gambon Chemin n°39 </desc>
<link href="https://chemins.be/villerslegambon/chemin/39"/><trkseg>
<trkpt lat="50.190895" lon="4.607889"><time>2026-05-03T05:50:59Z</time></trkpt>
<trkpt lat="50.190815" lon="4.607272"><time>2026-05-03T06:00:59Z</time></trkpt>
</trkseg>
</trk>
<trk>
<name>nphvg4</name>
<cmt>v</cmt>
<desc>Villers-le-Gambon Chemin n°4 </desc>
<link href="https://chemins.be/villerslegambon/chemin/4"/><trkseg>
<trkpt lat="50.210975" lon="4.626946"><time>2026-05-03T05:50:59Z</time></trkpt>
<trkpt lat="50.211498" lon="4.626430"><time>2026-05-03T06:00:59Z</time></trkpt>
<trkpt lat="50.213036" lon="4.626018"><time>2026-05-03T06:10:59Z</time></trkpt>
<trkpt lat="50.215807" lon="4.625304"><time>2026-05-03T06:20:59Z</time></trkpt>
</trkseg>
</trk>
<trk>
<name>nphvg40</name>
<cmt>r</cmt>
<desc>Villers-le-Gambon Chemin n°40 Rue des Mesanges</desc>
<link href="https://chemins.be/villerslegambon/chemin/40"/><trkseg>
<trkpt lat="50.190562" lon="4.607957"><time>2026-05-03T05:50:59Z</time></trkpt>
<trkpt lat="50.190546" lon="4.607313"><time>2026-05-03T06:00:59Z</time></trkpt>
</trkseg>
</trk>
<trk>
<name>nphvg42</name>
<cmt>r</cmt>
<desc>Villers-le-Gambon Chemin n°42 Rue du Curé</desc>
<link href="https://chemins.be/villerslegambon/chemin/42"/><trkseg>
<trkpt lat="50.189825" lon="4.608164"><time>2026-05-03T05:50:59Z</time></trkpt>
<trkpt lat="50.189781" lon="4.607421"><time>2026-05-03T06:00:59Z</time></trkpt>
<trkpt lat="50.189801" lon="4.606805"><time>2026-05-03T06:10:59Z</time></trkpt>
</trkseg>
</trk>
<trk>
<name>nphvg43</name>
<cmt>r</cmt>
<desc>Villers-le-Gambon Chemin n°43 Chemin des Ecoliers / Rue de Franchimont / Chemin des Ecoliers</desc>
<link href="https://chemins.be/villerslegambon/chemin/43"/><trkseg>
<trkpt lat="50.189443" lon="4.610234"><time>2026-05-03T05:50:59Z</time></trkpt>
<trkpt lat="50.189225" lon="4.611031"><time>2026-05-03T06:00:59Z</time></trkpt>
<trkpt lat="50.189107" lon="4.611941"><time>2026-05-03T06:10:59Z</time></trkpt>
</trkseg>
</trk>
<trk>
<name>nphvg45</name>
<cmt>v</cmt>
<desc>Villers-le-Gambon Sentier n°45 Rue du Curé</desc>
<link href="https://chemins.be/villerslegambon/sentier/45"/><trkseg>
<trkpt lat="50.189746" lon="4.607141"><time>2026-05-03T05:50:59Z</time></trkpt>
<trkpt lat="50.189468" lon="4.606972"><time>2026-05-03T06:00:59Z</time></trkpt>
<trkpt lat="50.189243" lon="4.606886"><time>2026-05-03T06:10:59Z</time></trkpt>
<trkpt lat="50.188650" lon="4.606547"><time>2026-05-03T06:20:59Z</time></trkpt>
</trkseg>
</trk>
<trk>
<name>nphvg46</name>
<cmt>d</cmt>
<desc>Villers-le-Gambon Sentier n°46 </desc>
<link href="https://chemins.be/villerslegambon/sentier/46"/><trkseg>
<trkpt lat="50.189408" lon="4.605501"><time>2026-05-03T05:50:59Z</time></trkpt>
<trkpt lat="50.189551" lon="4.605502"><time>2026-05-03T06:00:59Z</time></trkpt>
<trkpt lat="50.189659" lon="4.605656"><time>2026-05-03T06:10:59Z</time></trkpt>
</trkseg></trk>
<trk>
<name>nphvg46</name>
<cmt>s</cmt>
<desc>Villers-le-Gambon Sentier n°46 </desc>
<link href="https://chemins.be/villerslegambon/sentier/46"/><trkseg>
<trkpt lat="50.189659" lon="4.605656"><time>2026-05-03T06:10:59Z</time></trkpt>
<trkpt lat="50.189855" lon="4.606357"><time>2026-05-03T06:20:59Z</time></trkpt>
<trkpt lat="50.189855" lon="4.606722"><time>2026-05-03T06:30:59Z</time></trkpt>
</trkseg>
</trk>
<trk>
<name>nphvg47</name>
<cmt>s</cmt>
<desc>Villers-le-Gambon Sentier n°47 </desc>
<link href="https://chemins.be/villerslegambon/sentier/47"/><trkseg>
<trkpt lat="50.197945" lon="4.607252"><time>2026-05-03T05:50:59Z</time></trkpt>
<trkpt lat="50.200019" lon="4.608887"><time>2026-05-03T06:00:59Z</time></trkpt>
<trkpt lat="50.200900" lon="4.608514"><time>2026-05-03T06:10:59Z</time></trkpt>
<trkpt lat="50.202276" lon="4.608395"><time>2026-05-03T06:20:59Z</time></trkpt>
</trkseg>
</trk>
<trk>
<name>nphvg48</name>
<cmt>s</cmt>
<desc>Villers-le-Gambon Sentier n°48 </desc>
<link href="https://chemins.be/villerslegambon/sentier/48"/><trkseg>
<trkpt lat="50.195644" lon="4.606821"><time>2026-05-03T05:50:59Z</time></trkpt>
<trkpt lat="50.197146" lon="4.606814"><time>2026-05-03T06:00:59Z</time></trkpt>
<trkpt lat="50.197956" lon="4.606412"><time>2026-05-03T06:10:59Z</time></trkpt>
</trkseg>
</trk>
<trk>
<name>nphvg49</name>
<cmt>s</cmt>
<desc>Villers-le-Gambon Sentier n°49 </desc>
<link href="https://chemins.be/villerslegambon/sentier/49"/><trkseg>
<trkpt lat="50.197959" lon="4.613709"><time>2026-05-03T05:50:59Z</time></trkpt>
<trkpt lat="50.199062" lon="4.614681"><time>2026-05-03T06:00:59Z</time></trkpt>
<trkpt lat="50.200490" lon="4.615711"><time>2026-05-03T06:10:59Z</time></trkpt>
<trkpt lat="50.201800" lon="4.616965"><time>2026-05-03T06:20:59Z</time></trkpt>
</trkseg>
</trk>
<trk>
<name>nphvg5</name>
<cmt>v</cmt>
<desc>Villers-le-Gambon Chemin n°5 </desc>
<link href="https://chemins.be/villerslegambon/chemin/5"/><trkseg>
<trkpt lat="50.196803" lon="4.611476"><time>2026-05-03T05:50:59Z</time></trkpt>
<trkpt lat="50.199518" lon="4.611574"><time>2026-05-03T06:00:59Z</time></trkpt>
<trkpt lat="50.202087" lon="4.612792"><time>2026-05-03T06:10:59Z</time></trkpt>
<trkpt lat="50.202617" lon="4.613019"><time>2026-05-03T06:20:59Z</time></trkpt>
</trkseg></trk>
<trk>
<name>nphvg5</name>
<cmt>s</cmt>
<desc>Villers-le-Gambon Chemin n°5 </desc>
<link href="https://chemins.be/villerslegambon/chemin/5"/><trkseg>
<trkpt lat="50.202617" lon="4.613019"><time>2026-05-03T06:20:59Z</time></trkpt>
<trkpt lat="50.203677" lon="4.613500"><time>2026-05-03T06:30:59Z</time></trkpt>
<trkpt lat="50.204575" lon="4.613897"><time>2026-05-03T06:40:59Z</time></trkpt>
</trkseg></trk>
<trk>
<name>nphvg5</name>
<cmt>v</cmt>
<desc>Villers-le-Gambon Chemin n°5 </desc>
<link href="https://chemins.be/villerslegambon/chemin/5"/><trkseg>
<trkpt lat="50.204575" lon="4.613897"><time>2026-05-03T06:40:59Z</time></trkpt>
<trkpt lat="50.207773" lon="4.615301"><time>2026-05-03T06:50:59Z</time></trkpt>
<trkpt lat="50.209366" lon="4.614356"><time>2026-05-03T07:00:59Z</time></trkpt>
<trkpt lat="50.209735" lon="4.614358"><time>2026-05-03T07:10:59Z</time></trkpt>
</trkseg>
</trk>
<trk>
<name>nphvg50</name>
<cmt>r</cmt>
<desc>Villers-le-Gambon Sentier n°50 Rue du Champ Bouval</desc>
<link href="https://chemins.be/villerslegambon/sentier/50"/><trkseg>
<trkpt lat="50.194621" lon="4.610233"><time>2026-05-03T05:50:59Z</time></trkpt>
<trkpt lat="50.195430" lon="4.610545"><time>2026-05-03T06:00:59Z</time></trkpt>
<trkpt lat="50.195906" lon="4.610617"><time>2026-05-03T06:10:59Z</time></trkpt>
<trkpt lat="50.196445" lon="4.610746"><time>2026-05-03T06:20:59Z</time></trkpt>
</trkseg>
</trk>
<trk>
<name>nphvg51</name>
<cmt>r</cmt>
<desc>Villers-le-Gambon Sentier n°51 Rue du Champ Bouval</desc>
<link href="https://chemins.be/villerslegambon/sentier/51"/><trkseg>
<trkpt lat="50.193723" lon="4.610074"><time>2026-05-03T05:50:59Z</time></trkpt>
<trkpt lat="50.194298" lon="4.610049"><time>2026-05-03T06:00:59Z</time></trkpt>
</trkseg></trk>
<trk>
<name>nphvg51</name>
<cmt>d</cmt>
<desc>Villers-le-Gambon Sentier n°51 Rue du Champ Bouval</desc>
<link href="https://chemins.be/villerslegambon/sentier/51"/><trkseg>
<trkpt lat="50.194298" lon="4.610049"><time>2026-05-03T06:00:59Z</time></trkpt>
<trkpt lat="50.194953" lon="4.610626"><time>2026-05-03T06:10:59Z</time></trkpt>
<trkpt lat="50.195850" lon="4.611723"><time>2026-05-03T06:20:59Z</time></trkpt>
<trkpt lat="50.196862" lon="4.613325"><time>2026-05-03T06:30:59Z</time></trkpt>
<trkpt lat="50.197204" lon="4.613369"><time>2026-05-03T06:40:59Z</time></trkpt>
</trkseg>
</trk>
<trk>
<name>nphvg52</name>
<cmt>v</cmt>
<desc>Villers-le-Gambon Sentier n°52 </desc>
<link href="https://chemins.be/villerslegambon/sentier/52"/><trkseg>
<trkpt lat="50.193289" lon="4.615324"><time>2026-05-03T05:50:59Z</time></trkpt>
<trkpt lat="50.194015" lon="4.616350"><time>2026-05-03T06:00:59Z</time></trkpt>
<trkpt lat="50.194811" lon="4.618287"><time>2026-05-03T06:10:59Z</time></trkpt>
<trkpt lat="50.195365" lon="4.619858"><time>2026-05-03T06:20:59Z</time></trkpt>
</trkseg></trk>
<trk>
<name>nphvg52</name>
<cmt>d</cmt>
<desc>Villers-le-Gambon Sentier n°52 </desc>
<link href="https://chemins.be/villerslegambon/sentier/52"/><trkseg>
<trkpt lat="50.195365" lon="4.619858"><time>2026-05-03T06:20:59Z</time></trkpt>
<trkpt lat="50.196607" lon="4.623184"><time>2026-05-03T06:30:59Z</time></trkpt>
</trkseg>
</trk>
<trk>
<name>nphvg53</name>
<cmt>s</cmt>
<desc>Villers-le-Gambon Sentier n°53 </desc>
<link href="https://chemins.be/villerslegambon/sentier/53"/><trkseg>
<trkpt lat="50.192752" lon="4.609289"><time>2026-05-03T05:50:59Z</time></trkpt>
<trkpt lat="50.192625" lon="4.610335"><time>2026-05-03T06:00:59Z</time></trkpt>
</trkseg></trk>
<trk>
<name>nphvg53</name>
<cmt>d</cmt>
<desc>Villers-le-Gambon Sentier n°53 </desc>
<link href="https://chemins.be/villerslegambon/sentier/53"/><trkseg>
<trkpt lat="50.192625" lon="4.610335"><time>2026-05-03T06:00:59Z</time></trkpt>
<trkpt lat="50.192188" lon="4.613217"><time>2026-05-03T06:10:59Z</time></trkpt>
<trkpt lat="50.190812" lon="4.617383"><time>2026-05-03T06:20:59Z</time></trkpt>
</trkseg>
</trk>
<trk>
<name>nphvg54</name>
<cmt>r</cmt>
<desc>Villers-le-Gambon Sentier n°54 Ruelle Dry-les-Courtils / Ruelle Dry Les Courtils</desc>
<link href="https://chemins.be/villerslegambon/sentier/54"/><trkseg>
<trkpt lat="50.189868" lon="4.609032"><time>2026-05-03T05:50:59Z</time></trkpt>
<trkpt lat="50.190343" lon="4.609693"><time>2026-05-03T06:00:59Z</time></trkpt>
</trkseg></trk>
<trk>
<name>nphvg54</name>
<cmt>v</cmt>
<desc>Villers-le-Gambon Sentier n°54 Ruelle Dry-les-Courtils / Ruelle Dry Les Courtils</desc>
<link href="https://chemins.be/villerslegambon/sentier/54"/><trkseg>
<trkpt lat="50.190343" lon="4.609693"><time>2026-05-03T06:00:59Z</time></trkpt>
<trkpt lat="50.191189" lon="4.609375"><time>2026-05-03T06:10:59Z</time></trkpt>
<trkpt lat="50.191998" lon="4.609267"><time>2026-05-03T06:20:59Z</time></trkpt>
<trkpt lat="50.192751" lon="4.609245"><time>2026-05-03T06:30:59Z</time></trkpt>
</trkseg>
</trk>
<trk>
<name>nphvg55</name>
<cmt>v</cmt>
<desc>Villers-le-Gambon Sentier n°55 Avenue de la Source</desc>
<link href="https://chemins.be/villerslegambon/sentier/55"/><trkseg>
<trkpt lat="50.179410" lon="4.605661"><time>2026-05-03T05:50:59Z</time></trkpt>
<trkpt lat="50.179922" lon="4.605608"><time>2026-05-03T06:00:59Z</time></trkpt>
<trkpt lat="50.180274" lon="4.605077"><time>2026-05-03T06:10:59Z</time></trkpt>
<trkpt lat="50.181173" lon="4.605180"><time>2026-05-03T06:20:59Z</time></trkpt>
<trkpt lat="50.182152" lon="4.605815"><time>2026-05-03T06:30:59Z</time></trkpt>
<trkpt lat="50.182978" lon="4.605973"><time>2026-05-03T06:40:59Z</time></trkpt>
<trkpt lat="50.183455" lon="4.605709"><time>2026-05-03T06:50:59Z</time></trkpt>
<trkpt lat="50.184006" lon="4.604872"><time>2026-05-03T07:00:59Z</time></trkpt>
<trkpt lat="50.184598" lon="4.605155"><time>2026-05-03T07:10:59Z</time></trkpt>
</trkseg></trk>
<trk>
<name>nphvg55</name>
<cmt>s</cmt>
<desc>Villers-le-Gambon Sentier n°55 Avenue de la Source</desc>
<link href="https://chemins.be/villerslegambon/sentier/55"/><trkseg>
<trkpt lat="50.184598" lon="4.605155"><time>2026-05-03T07:10:59Z</time></trkpt>
<trkpt lat="50.184967" lon="4.605311"><time>2026-05-03T07:20:59Z</time></trkpt>
<trkpt lat="50.185343" lon="4.605677"><time>2026-05-03T07:30:59Z</time></trkpt>
<trkpt lat="50.185892" lon="4.605455"><time>2026-05-03T07:40:59Z</time></trkpt>
<trkpt lat="50.186262" lon="4.605107"><time>2026-05-03T07:50:59Z</time></trkpt>
<trkpt lat="50.186226" lon="4.604883"><time>2026-05-03T08:00:59Z</time></trkpt>
<trkpt lat="50.187405" lon="4.604413"><time>2026-05-03T08:10:59Z</time></trkpt>
<trkpt lat="50.187494" lon="4.604735"><time>2026-05-03T08:20:59Z</time></trkpt>
<trkpt lat="50.188241" lon="4.604613"><time>2026-05-03T08:30:59Z</time></trkpt>
</trkseg>
</trk>
<trk>
<name>nphvg56</name>
<cmt>v</cmt>
<desc>Villers-le-Gambon Sentier n°56 </desc>
<link href="https://chemins.be/villerslegambon/sentier/56"/><trkseg>
<trkpt lat="50.173000" lon="4.587263"><time>2026-05-03T05:50:59Z</time></trkpt>
<trkpt lat="50.173295" lon="4.588020"><time>2026-05-03T06:00:59Z</time></trkpt>
</trkseg></trk>
<trk>
<name>nphvg56</name>
<cmt>d</cmt>
<desc>Villers-le-Gambon Sentier n°56 </desc>
<link href="https://chemins.be/villerslegambon/sentier/56"/><trkseg>
<trkpt lat="50.173295" lon="4.588020"><time>2026-05-03T06:00:59Z</time></trkpt>
<trkpt lat="50.173586" lon="4.591003"><time>2026-05-03T06:10:59Z</time></trkpt>
<trkpt lat="50.174129" lon="4.593652"><time>2026-05-03T06:20:59Z</time></trkpt>
</trkseg>
</trk>
<trk>
<name>nphvg57</name>
<cmt>s</cmt>
<desc>Villers-le-Gambon Sentier n°57 </desc>
<link href="https://chemins.be/villerslegambon/sentier/57"/><trkseg>
<trkpt lat="50.190042" lon="4.607325"><time>2026-05-03T05:50:59Z</time></trkpt>
<trkpt lat="50.189799" lon="4.607365"><time>2026-05-03T06:00:59Z</time></trkpt>
</trkseg>
</trk>
<trk>
<name>nphvg59</name>
<cmt>d</cmt>
<desc>Villers-le-Gambon Sentier n°59 </desc>
<link href="https://chemins.be/villerslegambon/sentier/59"/><trkseg>
<trkpt lat="50.190344" lon="4.604833"><time>2026-05-03T05:50:59Z</time></trkpt>
<trkpt lat="50.190423" lon="4.605828"><time>2026-05-03T06:00:59Z</time></trkpt>
<trkpt lat="50.190431" lon="4.606290"><time>2026-05-03T06:10:59Z</time></trkpt>
<trkpt lat="50.190556" lon="4.606543"><time>2026-05-03T06:20:59Z</time></trkpt>
<trkpt lat="50.190519" lon="4.607131"><time>2026-05-03T06:30:59Z</time></trkpt>
</trkseg>
</trk>
<trk>
<name>nphvg6</name>
<cmt>v</cmt>
<desc>Villers-le-Gambon Chemin n°6 </desc>
<link href="https://chemins.be/villerslegambon/chemin/6"/><trkseg>
<trkpt lat="50.206212" lon="4.592274"><time>2026-05-03T05:50:59Z</time></trkpt>
<trkpt lat="50.206442" lon="4.592754"><time>2026-05-03T06:00:59Z</time></trkpt>
<trkpt lat="50.206862" lon="4.594924"><time>2026-05-03T06:10:59Z</time></trkpt>
<trkpt lat="50.208472" lon="4.600184"><time>2026-05-03T06:20:59Z</time></trkpt>
<trkpt lat="50.208522" lon="4.601614"><time>2026-05-03T06:30:59Z</time></trkpt>
<trkpt lat="50.208585" lon="4.603915"><time>2026-05-03T06:40:59Z</time></trkpt>
<trkpt lat="50.209222" lon="4.610744"><time>2026-05-03T06:50:59Z</time></trkpt>
<trkpt lat="50.209388" lon="4.612484"><time>2026-05-03T07:00:59Z</time></trkpt>
<trkpt lat="50.209752" lon="4.614315"><time>2026-05-03T07:10:59Z</time></trkpt>
<trkpt lat="50.210542" lon="4.618505"><time>2026-05-03T07:20:59Z</time></trkpt>
<trkpt lat="50.211832" lon="4.622705"><time>2026-05-03T07:30:59Z</time></trkpt>
<trkpt lat="50.212922" lon="4.625796"><time>2026-05-03T07:40:59Z</time></trkpt>
<trkpt lat="50.213362" lon="4.632426"><time>2026-05-03T07:50:59Z</time></trkpt>
<trkpt lat="50.213002" lon="4.635426"><time>2026-05-03T08:00:59Z</time></trkpt>
<trkpt lat="50.213312" lon="4.641507"><time>2026-05-03T08:10:59Z</time></trkpt>
</trkseg>
</trk>
<trk>
<name>nphvg60</name>
<cmt>d</cmt>
<desc>Villers-le-Gambon Sentier n°60 </desc>
<link href="https://chemins.be/villerslegambon/sentier/60"/><trkseg>
<trkpt lat="50.191170" lon="4.605538"><time>2026-05-03T05:50:59Z</time></trkpt>
<trkpt lat="50.191099" lon="4.605103"><time>2026-05-03T06:00:59Z</time></trkpt>
<trkpt lat="50.190965" lon="4.604682"><time>2026-05-03T06:10:59Z</time></trkpt>
<trkpt lat="50.190947" lon="4.604472"><time>2026-05-03T06:20:59Z</time></trkpt>
</trkseg>
</trk>
<trk>
<name>nphvg61</name>
<cmt>d</cmt>
<desc>Villers-le-Gambon Sentier n°61 </desc>
<link href="https://chemins.be/villerslegambon/sentier/61"/><trkseg>
<trkpt lat="50.191011" lon="4.604193"><time>2026-05-03T05:50:59Z</time></trkpt>
<trkpt lat="50.192035" lon="4.604282"><time>2026-05-03T06:00:59Z</time></trkpt>
<trkpt lat="50.192368" lon="4.604311"><time>2026-05-03T06:10:59Z</time></trkpt>
<trkpt lat="50.192970" lon="4.604230"><time>2026-05-03T06:20:59Z</time></trkpt>
<trkpt lat="50.193528" lon="4.604331"><time>2026-05-03T06:30:59Z</time></trkpt>
<trkpt lat="50.194076" lon="4.604474"><time>2026-05-03T06:40:59Z</time></trkpt>
</trkseg>
</trk>
<trk>
<name>nphvg62</name>
<cmt>s</cmt>
<desc>Villers-le-Gambon Sentier n°62 </desc>
<link href="https://chemins.be/villerslegambon/sentier/62"/><trkseg>
<trkpt lat="50.192349" lon="4.604619"><time>2026-05-03T05:50:59Z</time></trkpt>
<trkpt lat="50.192350" lon="4.604269"><time>2026-05-03T06:00:59Z</time></trkpt>
<trkpt lat="50.192468" lon="4.603682"><time>2026-05-03T06:10:59Z</time></trkpt>
<trkpt lat="50.192722" lon="4.602464"><time>2026-05-03T06:20:59Z</time></trkpt>
<trkpt lat="50.192797" lon="4.601316"><time>2026-05-03T06:30:59Z</time></trkpt>
<trkpt lat="50.194416" lon="4.596283"><time>2026-05-03T06:40:59Z</time></trkpt>
</trkseg>
</trk>
<trk>
<name>nphvg63</name>
<cmt>d</cmt>
<desc>Villers-le-Gambon Sentier n°63 </desc>
<link href="https://chemins.be/villerslegambon/sentier/63"/><trkseg>
<trkpt lat="50.194462" lon="4.595611"><time>2026-05-03T05:50:59Z</time></trkpt>
<trkpt lat="50.192810" lon="4.598894"><time>2026-05-03T06:00:59Z</time></trkpt>
<trkpt lat="50.191909" lon="4.599842"><time>2026-05-03T06:10:59Z</time></trkpt>
</trkseg>
</trk>
<trk>
<name>nphvg64</name>
<cmt>d</cmt>
<desc>Villers-le-Gambon Sentier n°64 </desc>
<link href="https://chemins.be/villerslegambon/sentier/64"/><trkseg>
<trkpt lat="50.187155" lon="4.603767"><time>2026-05-03T05:50:59Z</time></trkpt>
<trkpt lat="50.186768" lon="4.603807"><time>2026-05-03T06:00:59Z</time></trkpt>
<trkpt lat="50.186454" lon="4.603610"><time>2026-05-03T06:10:59Z</time></trkpt>
<trkpt lat="50.185709" lon="4.602808"><time>2026-05-03T06:20:59Z</time></trkpt>
<trkpt lat="50.185360" lon="4.602106"><time>2026-05-03T06:30:59Z</time></trkpt>
<trkpt lat="50.184902" lon="4.601600"><time>2026-05-03T06:40:59Z</time></trkpt>
<trkpt lat="50.184174" lon="4.601456"><time>2026-05-03T06:50:59Z</time></trkpt>
</trkseg>
</trk>
<trk>
<name>nphvg7</name>
<cmt>s</cmt>
<desc>Villers-le-Gambon Chemin n°7 </desc>
<link href="https://chemins.be/villerslegambon/chemin/7"/><trkseg>
<trkpt lat="50.213902" lon="4.594582"><time>2026-05-03T05:50:59Z</time></trkpt>
<trkpt lat="50.210927" lon="4.594302"><time>2026-05-03T06:00:59Z</time></trkpt>
<trkpt lat="50.208590" lon="4.593549"><time>2026-05-03T06:10:59Z</time></trkpt>
<trkpt lat="50.207979" lon="4.593546"><time>2026-05-03T06:20:59Z</time></trkpt>
<trkpt lat="50.206408" lon="4.592460"><time>2026-05-03T06:30:59Z</time></trkpt>
</trkseg>
</trk>
<trk>
<name>nphvg8</name>
<cmt>d</cmt>
<desc>Villers-le-Gambon Chemin n°8 </desc>
<link href="https://chemins.be/villerslegambon/chemin/8"/><trkseg>
<trkpt lat="50.194542" lon="4.596284"><time>2026-05-03T05:50:59Z</time></trkpt>
<trkpt lat="50.195632" lon="4.596484"><time>2026-05-03T06:00:59Z</time></trkpt>
<trkpt lat="50.196232" lon="4.596314"><time>2026-05-03T06:10:59Z</time></trkpt>
</trkseg></trk>
<trk>
<name>nphvg8</name>
<cmt>v</cmt>
<desc>Villers-le-Gambon Chemin n°8 </desc>
<link href="https://chemins.be/villerslegambon/chemin/8"/><trkseg>
<trkpt lat="50.196232" lon="4.596314"><time>2026-05-03T06:10:59Z</time></trkpt>
<trkpt lat="50.196232" lon="4.596314"><time>2026-05-03T06:20:59Z</time></trkpt>
<trkpt lat="50.196992" lon="4.596894"><time>2026-05-03T06:30:59Z</time></trkpt>
<trkpt lat="50.198182" lon="4.597294"><time>2026-05-03T06:40:59Z</time></trkpt>
<trkpt lat="50.199182" lon="4.598364"><time>2026-05-03T06:50:59Z</time></trkpt>
<trkpt lat="50.200362" lon="4.599324"><time>2026-05-03T07:00:59Z</time></trkpt>
<trkpt lat="50.200492" lon="4.599674"><time>2026-05-03T07:10:59Z</time></trkpt>
<trkpt lat="50.201752" lon="4.600534"><time>2026-05-03T07:20:59Z</time></trkpt>
<trkpt lat="50.205612" lon="4.601474"><time>2026-05-03T07:30:59Z</time></trkpt>
<trkpt lat="50.206792" lon="4.602534"><time>2026-05-03T07:40:59Z</time></trkpt>
<trkpt lat="50.208552" lon="4.601604"><time>2026-05-03T07:50:59Z</time></trkpt>
<trkpt lat="50.210152" lon="4.600804"><time>2026-05-03T08:00:59Z</time></trkpt>
<trkpt lat="50.210832" lon="4.600204"><time>2026-05-03T08:10:59Z</time></trkpt>
<trkpt lat="50.214142" lon="4.594186"><time>2026-05-03T08:20:59Z</time></trkpt>
<trkpt lat="50.214276" lon="4.593639"><time>2026-05-03T08:30:59Z</time></trkpt>
</trkseg>
</trk>
<trk>
<name>nphvg9</name>
<cmt>v</cmt>
<desc>Villers-le-Gambon Chemin n°9 </desc>
<link href="https://chemins.be/villerslegambon/chemin/9"/><trkseg>
<trkpt lat="50.198814" lon="4.595253"><time>2026-05-03T05:50:59Z</time></trkpt>
<trkpt lat="50.199906" lon="4.597990"><time>2026-05-03T06:00:59Z</time></trkpt>
<trkpt lat="50.200433" lon="4.599393"><time>2026-05-03T06:10:59Z</time></trkpt>
</trkseg>
</trk>
<trk>
<name>nphvgi1</name>
<cmt>v</cmt>
<desc>Villers-le-Gambon Chemin n°i1 </desc>
<link href="https://chemins.be/villerslegambon/chemin/i1"/><trkseg>
<trkpt lat="50.216818" lon="4.612570"><time>2026-05-03T05:50:59Z</time></trkpt>
<trkpt lat="50.215642" lon="4.612424"><time>2026-05-03T06:00:59Z</time></trkpt>
<trkpt lat="50.213562" lon="4.612304"><time>2026-05-03T06:10:59Z</time></trkpt>
<trkpt lat="50.211662" lon="4.611864"><time>2026-05-03T06:20:59Z</time></trkpt>
<trkpt lat="50.209882" lon="4.611494"><time>2026-05-03T06:30:59Z</time></trkpt>
<trkpt lat="50.209272" lon="4.611514"><time>2026-05-03T06:40:59Z</time></trkpt>
<trkpt lat="50.206052" lon="4.611144"><time>2026-05-03T06:50:59Z</time></trkpt>
</trkseg>
</trk>
<trk>
<name>nphvgi10</name>
<cmt>v</cmt>
<desc>Villers-le-Gambon Sentier n°i10 </desc>
<link href="https://chemins.be/villerslegambon/sentier/i10"/><trkseg>
<trkpt lat="50.180113" lon="4.604545"><time>2026-05-03T05:50:59Z</time></trkpt>
<trkpt lat="50.180302" lon="4.604686"><time>2026-05-03T06:00:59Z</time></trkpt>
<trkpt lat="50.180391" lon="4.605050"><time>2026-05-03T06:10:59Z</time></trkpt>
</trkseg>
</trk>
<trk>
<name>nphvgi11</name>
<cmt>v</cmt>
<desc>Villers-le-Gambon Chemin n°i11 </desc>
<link href="https://chemins.be/villerslegambon/chemin/i11"/><trkseg>
<trkpt lat="50.166560" lon="4.588591"><time>2026-05-03T05:50:59Z</time></trkpt>
<trkpt lat="50.166974" lon="4.588187"><time>2026-05-03T06:00:59Z</time></trkpt>
</trkseg></trk>
<trk>
<name>nphvgi11</name>
<cmt>s</cmt>
<desc>Villers-le-Gambon Chemin n°i11 </desc>
<link href="https://chemins.be/villerslegambon/chemin/i11"/><trkseg>
<trkpt lat="50.166974" lon="4.588187"><time>2026-05-03T06:00:59Z</time></trkpt>
<trkpt lat="50.167245" lon="4.587922"><time>2026-05-03T06:10:59Z</time></trkpt>
<trkpt lat="50.167604" lon="4.587826"><time>2026-05-03T06:20:59Z</time></trkpt>
<trkpt lat="50.168340" lon="4.588501"><time>2026-05-03T06:30:59Z</time></trkpt>
<trkpt lat="50.168771" lon="4.588741"><time>2026-05-03T06:40:59Z</time></trkpt>
<trkpt lat="50.169590" lon="4.588577"><time>2026-05-03T06:50:59Z</time></trkpt>
<trkpt lat="50.170147" lon="4.588608"><time>2026-05-03T07:00:59Z</time></trkpt>
</trkseg>
</trk>
<trk>
<name>nphvgi12</name>
<cmt>v</cmt>
<desc>Villers-le-Gambon Chemin n°i12 </desc>
<link href="https://chemins.be/villerslegambon/chemin/i12"/><trkseg>
<trkpt lat="50.169009" lon="4.591402"><time>2026-05-03T05:50:59Z</time></trkpt>
<trkpt lat="50.169486" lon="4.590900"><time>2026-05-03T06:00:59Z</time></trkpt>
</trkseg>
</trk>
<trk>
<name>nphvgi13</name>
<cmt>v</cmt>
<desc>Villers-le-Gambon Chemin n°i13 </desc>
<link href="https://chemins.be/villerslegambon/chemin/i13"/><trkseg>
<trkpt lat="50.160886" lon="4.598039"><time>2026-05-03T05:50:59Z</time></trkpt>
<trkpt lat="50.160941" lon="4.597732"><time>2026-05-03T06:00:59Z</time></trkpt>
<trkpt lat="50.161275" lon="4.597174"><time>2026-05-03T06:10:59Z</time></trkpt>
<trkpt lat="50.161277" lon="4.596040"><time>2026-05-03T06:20:59Z</time></trkpt>
<trkpt lat="50.161178" lon="4.595914"><time>2026-05-03T06:30:59Z</time></trkpt>
</trkseg>
</trk>
<trk>
<name>nphvgi14</name>
<cmt>v</cmt>
<desc>Villers-le-Gambon Chemin n°i14 </desc>
<link href="https://chemins.be/villerslegambon/chemin/i14"/><trkseg>
<trkpt lat="50.152926" lon="4.608482"><time>2026-05-03T05:50:59Z</time></trkpt>
<trkpt lat="50.153178" lon="4.608427"><time>2026-05-03T06:00:59Z</time></trkpt>
<trkpt lat="50.153295" lon="4.608386"><time>2026-05-03T06:10:59Z</time></trkpt>
<trkpt lat="50.153475" lon="4.608555"><time>2026-05-03T06:20:59Z</time></trkpt>
</trkseg>
</trk>
<trk>
<name>nphvgi15</name>
<cmt>q</cmt>
<desc>Villers-le-Gambon Chemin n°i15 </desc>
<link href="https://chemins.be/villerslegambon/chemin/i15"/><trkseg>
<trkpt lat="50.153519" lon="4.608933"><time>2026-05-03T05:50:59Z</time></trkpt>
<trkpt lat="50.154194" lon="4.608460"><time>2026-05-03T06:00:59Z</time></trkpt>
<trkpt lat="50.154791" lon="4.606630"><time>2026-05-03T06:10:59Z</time></trkpt>
<trkpt lat="50.156284" lon="4.601992"><time>2026-05-03T06:20:59Z</time></trkpt>
</trkseg>
</trk>
<trk>
<name>nphvgi16</name>
<cmt>v</cmt>
<desc>Villers-le-Gambon Chemin n°i16 </desc>
<link href="https://chemins.be/villerslegambon/chemin/i16"/><trkseg>
<trkpt lat="50.189746" lon="4.612601"><time>2026-05-03T05:50:59Z</time></trkpt>
<trkpt lat="50.189202" lon="4.613296"><time>2026-05-03T06:00:59Z</time></trkpt>
<trkpt lat="50.189064" lon="4.613446"><time>2026-05-03T06:10:59Z</time></trkpt>
<trkpt lat="50.188801" lon="4.613489"><time>2026-05-03T06:20:59Z</time></trkpt>
</trkseg>
</trk>
<trk>
<name>nphvgi2</name>
<cmt>v</cmt>
<desc>Villers-le-Gambon Chemin n°i2 </desc>
<link href="https://chemins.be/villerslegambon/chemin/i2"/><trkseg>
<trkpt lat="50.212131" lon="4.636717"><time>2026-05-03T05:50:59Z</time></trkpt>
<trkpt lat="50.212951" lon="4.635531"><time>2026-05-03T06:00:59Z</time></trkpt>
<trkpt lat="50.213880" lon="4.634583"><time>2026-05-03T06:10:59Z</time></trkpt>
</trkseg>
</trk>
<trk>
<name>nphvgi3</name>
<cmt>r</cmt>
<desc>Villers-le-Gambon Chemin n°i3 Rue de Givet</desc>
<link href="https://chemins.be/villerslegambon/chemin/i3"/><trkseg>
<trkpt lat="50.187271" lon="4.612842"><time>2026-05-03T05:50:59Z</time></trkpt>
<trkpt lat="50.187377" lon="4.613739"><time>2026-05-03T06:00:59Z</time></trkpt>
<trkpt lat="50.187492" lon="4.614313"><time>2026-05-03T06:10:59Z</time></trkpt>
</trkseg>
</trk>
<trk>
<name>nphvgi4</name>
<cmt>v</cmt>
<desc>Villers-le-Gambon Chemin n°i4 </desc>
<link href="https://chemins.be/villerslegambon/chemin/i4"/><trkseg>
<trkpt lat="50.173763" lon="4.587728"><time>2026-05-03T05:50:59Z</time></trkpt>
<trkpt lat="50.173724" lon="4.589464"><time>2026-05-03T06:00:59Z</time></trkpt>
<trkpt lat="50.174867" lon="4.593277"><time>2026-05-03T06:10:59Z</time></trkpt>
<trkpt lat="50.174980" lon="4.595434"><time>2026-05-03T06:20:59Z</time></trkpt>
<trkpt lat="50.175050" lon="4.596624"><time>2026-05-03T06:30:59Z</time></trkpt>
<trkpt lat="50.175514" lon="4.598110"><time>2026-05-03T06:40:59Z</time></trkpt>
<trkpt lat="50.175539" lon="4.599174"><time>2026-05-03T06:50:59Z</time></trkpt>
</trkseg>
</trk>
<trk>
<name>nphvgi5</name>
<cmt>q</cmt>
<desc>Villers-le-Gambon Chemin n°i5 Rue de la Dolomie</desc>
<link href="https://chemins.be/villerslegambon/chemin/i5"/><trkseg>
<trkpt lat="50.190220" lon="4.612591"><time>2026-05-03T05:50:59Z</time></trkpt>
<trkpt lat="50.189985" lon="4.612815"><time>2026-05-03T06:00:59Z</time></trkpt>
<trkpt lat="50.188678" lon="4.614558"><time>2026-05-03T06:10:59Z</time></trkpt>
<trkpt lat="50.187985" lon="4.615268"><time>2026-05-03T06:20:59Z</time></trkpt>
<trkpt lat="50.187795" lon="4.615757"><time>2026-05-03T06:30:59Z</time></trkpt>
</trkseg>
</trk>
<trk>
<name>nphvgi6</name>
<cmt>v</cmt>
<desc>Villers-le-Gambon Chemin n°i6 </desc>
<link href="https://chemins.be/villerslegambon/chemin/i6"/><trkseg>
<trkpt lat="50.190424" lon="4.609693"><time>2026-05-03T05:50:59Z</time></trkpt>
<trkpt lat="50.190270" lon="4.610000"><time>2026-05-03T06:00:59Z</time></trkpt>
</trkseg>
</trk>
<trk>
<name>nphvgi7</name>
<cmt>q</cmt>
<desc>Villers-le-Gambon Sentier n°i7 </desc>
<link href="https://chemins.be/villerslegambon/sentier/i7"/><trkseg>
<trkpt lat="50.190442" lon="4.609735"><time>2026-05-03T05:50:59Z</time></trkpt>
<trkpt lat="50.190549" lon="4.609918"><time>2026-05-03T06:00:59Z</time></trkpt>
<trkpt lat="50.190342" lon="4.610323"><time>2026-05-03T06:10:59Z</time></trkpt>
</trkseg>
</trk>
<trk>
<name>nphvgi8</name>
<cmt>v</cmt>
<desc>Villers-le-Gambon Sentier n°i8 </desc>
<link href="https://chemins.be/villerslegambon/sentier/i8"/><trkseg>
<trkpt lat="50.189812" lon="4.609830"><time>2026-05-03T05:50:59Z</time></trkpt>
<trkpt lat="50.190027" lon="4.610111"><time>2026-05-03T06:00:59Z</time></trkpt>
</trkseg>
</trk>
<trk>
<name>nphvgi9</name>
<cmt>v</cmt>
<desc>Villers-le-Gambon Chemin n°i9 Rue du Curé</desc>
<link href="https://chemins.be/villerslegambon/chemin/i9"/><trkseg>
<trkpt lat="50.189495" lon="4.606566"><time>2026-05-03T05:50:59Z</time></trkpt>
<trkpt lat="50.189458" lon="4.607014"><time>2026-05-03T06:00:59Z</time></trkpt>
</trkseg>
</trk>
<trk>
<name>nphvgL138A</name>
<cmt>d</cmt>
<desc>Villers-le-Gambon Chemin n°L138A Tronçon de la ligne L138A à Villers-le-Gambon / Chaussée de Clair-Bois</desc>
<link href="https://chemins.be/villerslegambon/chemin/L138A"/><trkseg>
<trkpt lat="50.216833" lon="4.612335"><time>2026-05-03T05:50:59Z</time></trkpt>
<trkpt lat="50.215827" lon="4.612110"><time>2026-05-03T06:00:59Z</time></trkpt>
</trkseg></trk>
<trk>
<name>nphvgL138A</name>
<cmt>v</cmt>
<desc>Villers-le-Gambon Chemin n°L138A Tronçon de la ligne L138A à Villers-le-Gambon / Chaussée de Clair-Bois</desc>
<link href="https://chemins.be/villerslegambon/chemin/L138A"/><trkseg>
<trkpt lat="50.215827" lon="4.612110"><time>2026-05-03T06:00:59Z</time></trkpt>
<trkpt lat="50.213582" lon="4.611609"><time>2026-05-03T06:10:59Z</time></trkpt>
</trkseg></trk>
<trk>
<name>nphvgL138A</name>
<cmt>d</cmt>
<desc>Villers-le-Gambon Chemin n°L138A Tronçon de la ligne L138A à Villers-le-Gambon / Chaussée de Clair-Bois</desc>
<link href="https://chemins.be/villerslegambon/chemin/L138A"/><trkseg>
<trkpt lat="50.213582" lon="4.611609"><time>2026-05-03T06:10:59Z</time></trkpt>
<trkpt lat="50.206029" lon="4.610893"><time>2026-05-03T06:20:59Z</time></trkpt>
<trkpt lat="50.204492" lon="4.610731"><time>2026-05-03T06:30:59Z</time></trkpt>
</trkseg></trk>
<trk>
<name>nphvgL138A</name>
<cmt>v</cmt>
<desc>Villers-le-Gambon Chemin n°L138A Tronçon de la ligne L138A à Villers-le-Gambon / Chaussée de Clair-Bois</desc>
<link href="https://chemins.be/villerslegambon/chemin/L138A"/><trkseg>
<trkpt lat="50.204492" lon="4.610731"><time>2026-05-03T06:30:59Z</time></trkpt>
<trkpt lat="50.199395" lon="4.610187"><time>2026-05-03T06:40:59Z</time></trkpt>
<trkpt lat="50.196034" lon="4.609890"><time>2026-05-03T06:50:59Z</time></trkpt>
<trkpt lat="50.194002" lon="4.609823"><time>2026-05-03T07:00:59Z</time></trkpt>
<trkpt lat="50.192149" lon="4.610430"><time>2026-05-03T07:10:59Z</time></trkpt>
<trkpt lat="50.190212" lon="4.611919"><time>2026-05-03T07:20:59Z</time></trkpt>
<trkpt lat="50.189876" lon="4.612135"><time>2026-05-03T07:30:59Z</time></trkpt>
<trkpt lat="50.188820" lon="4.613472"><time>2026-05-03T07:40:59Z</time></trkpt>
<trkpt lat="50.187578" lon="4.614961"><time>2026-05-03T07:50:59Z</time></trkpt>
<trkpt lat="50.186556" lon="4.615476"><time>2026-05-03T08:00:59Z</time></trkpt>
<trkpt lat="50.185565" lon="4.615788"><time>2026-05-03T08:10:59Z</time></trkpt>
<trkpt lat="50.184055" lon="4.615584"><time>2026-05-03T08:20:59Z</time></trkpt>
<trkpt lat="50.182933" lon="4.614780"><time>2026-05-03T08:30:59Z</time></trkpt>
<trkpt lat="50.181345" lon="4.613259"><time>2026-05-03T08:40:59Z</time></trkpt>
<trkpt lat="50.180046" lon="4.611209"><time>2026-05-03T08:50:59Z</time></trkpt>
</trkseg>
</trk>
</gpx>